# Wetter Temperatur Luftdruck Luftfeuchtigkeit Sichtweite Windgeschwindigkeit Windrichtung Zeit
1 Clear 15 1011 82 10000 2.6 110 20:18 17.10.2019
2 Clear 15 1011 82 10000 2.1 130 19:42 17.10.2019
3 Clear 15 1011 77 10000 1.5 0 19:20 17.10.2019
4 Clear 15 1011 77 10000 1.5 0 19:20 17.10.2019
5 Clear 15 1011 77 10000 1.5 0 18:59 17.10.2019
6 Clear 15 1011 82 10000 1.5 0 18:38 17.10.2019
7 Clear 16 1011 72 10000 1.5 0 18:20 17.10.2019
8 Rain 16 1011 67 10000 3.6 230 17:43 17.10.2019
9 Rain 16 1011 67 10000 3.6 230 17:43 17.10.2019
10 Rain 16 1011 67 10000 3.6 230 17:24 17.10.2019
11 Clouds 17 1011 67 10000 3.6 230 16:59 17.10.2019
12 Clouds 17 1011 72 10000 3.6 230 16:41 17.10.2019
13 Clouds 16 1011 72 10000 4.6 230 16:19 17.10.2019
14 Clouds 17 1011 72 10000 4.6 230 15:57 17.10.2019
15 Clouds 17 1011 72 10000 5.1 240 15:38 17.10.2019
16 Clouds 17 1011 67 10000 5.1 230 15:20 17.10.2019
17 Clouds 17 1011 67 10000 5.1 230 14:57 17.10.2019
18 Clouds 17 1011 67 10000 6.7 240 14:38 17.10.2019
19 Clouds 17 1011 72 10000 4.1 230 14:20 17.10.2019
20 Clouds 16 1011 67 10000 5.1 230 13:41 17.10.2019
21 Clouds 16 1011 72 10000 3.6 230 13:21 17.10.2019
22 Clouds 16 1011 72 10000 3.6 230 12:58 17.10.2019
23 Clouds 16 1011 72 10000 5.1 240 12:39 17.10.2019
24 Clouds 16 1011 67 10000 4.1 220 12:19 17.10.2019
25 Clouds 16 1011 67 10000 4.1 220 11:56 17.10.2019
26 Clouds 16 1011 67 10000 4.1 220 11:37 17.10.2019
27 Clouds 15 1011 72 10000 3.6 210 11:18 17.10.2019
28 Clouds 15 1010 72 10000 3.1 210 10:42 17.10.2019
29 Clouds 15 1010 72 10000 4.6 230 10:20 17.10.2019
30 Clouds 15 1010 72 10000 4.6 230 09:57 17.10.2019
31 Clouds 15 1010 72 10000 4.6 230 09:57 17.10.2019
32 Clouds 14 1010 72 10000 4.1 230 09:38 17.10.2019
33 Clouds 14 1010 72 10000 4.1 230 09:38 17.10.2019
34 Clouds 14 1010 72 10000 4.1 220 09:20 17.10.2019
35 Clouds 14 1010 72 10000 4.6 230 08:57 17.10.2019
36 Clouds 14 1010 72 10000 4.1 220 08:57 17.10.2019
37 Clouds 14 1010 72 10000 4.6 230 08:38 17.10.2019
38 Clouds 14 1009 72 10000 5.1 220 08:18 17.10.2019
39 Clouds 14 1009 67 10000 4.6 220 07:48 17.10.2019
40 Clouds 14 1009 72 10000 4.1 220 07:21 17.10.2019
41 Clouds 14 1009 72 10000 4.1 220 07:21 17.10.2019
42 Clouds 14 1009 72 10000 4.1 220 07:21 17.10.2019
43 Clouds 14 1009 72 10000 4.1 220 06:58 17.10.2019
44 Clouds 14 1008 82 10000 3.1 190 06:39 17.10.2019
45 Clouds 14 1008 82 10000 3.1 190 06:20 17.10.2019
46 Clouds 14 1008 82 10000 2.1 190 05:46 17.10.2019
47 Clouds 14 1008 82 10000 3.1 190 05:28 17.10.2019
48 Rain 14 1009 87 10000 2.1 170 04:50 17.10.2019
49 Clouds 14 1009 87 10000 2.6 190 03:52 17.10.2019
50 Clouds 14 1009 82 10000 2.6 180 02:36 17.10.2019
51 Clouds 14 1009 82 10000 3.1 200 00:56 17.10.2019
52 Clouds 14 1009 82 10000 2.6 180 00:38 17.10.2019
53 Clouds 14 1009 82 10000 4.1 190 00:18 17.10.2019
54 Clouds 14 1009 82 10000 2.6 180 23:42 16.10.2019
55 Clouds 14 1009 82 10000 4.1 200 23:20 16.10.2019
56 Clouds 14 1009 82 10000 4.1 200 22:55 16.10.2019
57 Clouds 14 1009 87 10000 2.6 170 22:36 16.10.2019
58 Clouds 14 1010 76 10000 3.1 210 22:18 16.10.2019
59 Clouds 14 1010 76 10000 3.1 210 21:56 16.10.2019
60 Clouds 14 1010 76 10000 2.6 190 21:37 16.10.2019
61 Clouds 14 1010 76 10000 2.6 200 21:18 16.10.2019
62 Clouds 14 1010 76 10000 2.6 200 20:57 16.10.2019
63 Clouds 14 1010 76 10000 2.6 200 20:38 16.10.2019
64 Clouds 14 1010 76 10000 4.1 220 20:20 16.10.2019
65 Clouds 14 1010 76 10000 4.1 220 20:20 16.10.2019
66 Clouds 14 1010 76 10000 4.1 220 19:57 16.10.2019
67 Clouds 14 1010 76 10000 4.1 220 19:38 16.10.2019
68 Clouds 14 1010 71 10000 4.6 220 19:20 16.10.2019
69 Clouds 14 1010 67 10000 3.6 220 18:39 16.10.2019
70 Clouds 14 1009 67 10000 3.1 220 18:19 16.10.2019
71 Clouds 15 1009 67 10000 4.6 230 17:58 16.10.2019
72 Clouds 15 1009 67 10000 4.6 230 17:39 16.10.2019
73 Clouds 15 1010 63 10000 4.1 240 17:21 16.10.2019
74 Clouds 16 1010 63 10000 4.1 240 16:59 16.10.2019
75 Clouds 16 1010 63 10000 4.6 260 16:41 16.10.2019
76 Clouds 16 1010 63 10000 5.1 270 16:21 16.10.2019
77 Clouds 16 1010 63 10000 5.1 270 15:57 16.10.2019
78 Clouds 16 1010 67 10000 6.7 250 15:38 16.10.2019
79 Clouds 15 1009 71 10000 7.2 260 15:18 16.10.2019
80 Clouds 15 1009 71 10000 7.2 260 14:56 16.10.2019
81 Clouds 15 1009 71 10000 7.2 260 14:38 16.10.2019
82 Clouds 14 1009 76 10000 7.2 250 14:18 16.10.2019
83 Clouds 14 1009 76 10000 7.2 250 13:56 16.10.2019
84 Clouds 14 1009 76 10000 7.2 250 13:56 16.10.2019
85 Clouds 14 1009 76 10000 7.2 250 13:56 16.10.2019
86 Clouds 14 1009 76 10000 6.7 250 13:37 16.10.2019
87 Clouds 14 1009 82 10000 6.2 250 13:19 16.10.2019
88 Clouds 13 1009 87 10000 5.7 250 12:41 16.10.2019
89 Clouds 13 1009 93 10000 5.7 250 12:19 16.10.2019
90 Clouds 12 1009 93 10000 3.6 250 11:44 16.10.2019
91 Rain 12 1009 93 8000 4.1 280 11:19 16.10.2019
92 Rain 12 1009 93 4300 6.7 270 10:41 16.10.2019
93 Rain 12 1009 93 4300 6.7 270 10:22 16.10.2019
94 Rain 12 1009 87 6000 6.7 250 09:58 16.10.2019
95 -273 0 0 0 0 0 09:39 16.10.2019
96 Rain 12 1008 93 8000 7.7 260 09:21 16.10.2019
97 Rain 12 1008 93 7000 6.7 250 08:46 16.10.2019
98 Rain 12 1008 93 7000 6.7 250 08:26 16.10.2019
99 Rain 12 1007 93 7000 5.1 270 07:58 16.10.2019
100 Rain 12 1007 93 7000 5.1 270 07:40 16.10.2019
101 Rain 12 1007 93 8000 5.1 270 07:21 16.10.2019
102 Rain 13 1007 100 9000 3.6 250 06:46 16.10.2019
103 Drizzle 13 1007 100 2500 3.6 260 06:27 16.10.2019
104 Rain 14 1007 100 8000 4.1 280 04:24 16.10.2019
105 Rain 14 1006 100 8000 4.1 260 02:50 16.10.2019
106 Thunderstorm 15 1006 93 4000 4.1 270 01:20 16.10.2019
107 Thunderstorm 15 1006 100 6000 5.7 290 00:58 16.10.2019
108 Thunderstorm 15 1005 87 10000 5.7 220 00:39 16.10.2019
109 Thunderstorm 16 1005 87 10000 6.7 290 23:58 15.10.2019
110 Clouds 16 1005 93 10000 1.5 350 23:38 15.10.2019
111 Clouds 16 1005 87 10000 2.6 350 23:19 15.10.2019
112 Clouds 16 1005 87 10000 2.6 350 22:55 15.10.2019
113 Clouds 16 1005 87 10000 1 330 22:37 15.10.2019
114 Rain 16 1005 87 10000 2.035 69 22:18 15.10.2019
115 Rain 16 1005 87 10000 2.035 69 22:18 15.10.2019
116 Rain 16 1005 87 10000 2.035 69 21:54 15.10.2019
117 Clouds 17 1005 87 10000 1 300 21:36 15.10.2019
118 Clouds 17 1005 77 10000 1 0 21:18 15.10.2019
119 Clouds 17 1005 77 10000 1 0 20:54 15.10.2019
120 Clouds 17 1005 82 10000 2.6 350 20:36 15.10.2019
121 Clouds 17 1005 77 10000 1.5 0 20:18 15.10.2019
122 Clouds 18 1005 77 10000 1.5 0 19:55 15.10.2019
123 Clouds 18 1005 77 10000 1.5 340 19:36 15.10.2019
124 Clouds 18 1005 77 10000 1.5 340 19:36 15.10.2019
125 Clouds 18 1005 77 10000 1 350 19:18 15.10.2019
126 Clouds 19 1005 72 10000 1.5 0 18:42 15.10.2019
127 Clouds 20 1005 72 10000 1 340 18:23 15.10.2019
128 Clouds 21 1005 72 10000 0.5 350 17:55 15.10.2019
129 Clouds 21 1005 68 10000 1 0 17:37 15.10.2019
130 Clouds 22 1005 64 10000 1.5 350 17:18 15.10.2019
131 Clouds 22 1005 64 10000 2.1 350 16:43 15.10.2019
132 Clouds 22 1005 68 10000 3.1 340 16:22 15.10.2019
133 Clouds 22 1005 56 10000 1 0 15:57 15.10.2019
134 Clouds 22 1005 56 10000 1 0 15:57 15.10.2019
135 Clouds 22 1005 56 10000 1 0 15:39 15.10.2019
136 Clouds 23 1005 60 10000 2.1 300 15:19 15.10.2019
137 Clouds 22 1005 60 10000 2.1 300 14:56 15.10.2019
138 Clouds 23 1005 60 10000 3.1 280 14:37 15.10.2019
139 Clouds 23 1005 60 10000 3.1 280 14:37 15.10.2019
140 Clouds 23 1005 56 10000 2.6 270 14:19 15.10.2019
141 Clouds 23 1006 56 10000 3.1 270 13:43 15.10.2019
142 Clouds 23 1006 56 10000 3.1 270 13:43 15.10.2019
143 Clouds 22 1006 56 10000 3.1 270 13:21 15.10.2019
144 Clouds 22 1006 56 10000 3.1 270 12:59 15.10.2019
145 Clouds 22 1006 60 10000 2.1 190 12:38 15.10.2019
146 Clouds 21 1006 60 10000 1 0 12:20 15.10.2019
147 Clouds 20 1006 72 10000 2.1 100 11:44 15.10.2019
148 Clouds 19 1006 77 10000 1.5 130 11:20 15.10.2019
149 Clouds 18 1006 77 10000 1.5 130 10:57 15.10.2019
150 Clear 17 1006 77 10000 2.1 120 10:39 15.10.2019
151 Clear 16 1007 82 10000 1 130 10:19 15.10.2019
152 Fog 15 1007 82 10000 1 130 09:57 15.10.2019
153 Fog 15 1007 87 10000 2.1 100 09:37 15.10.2019
154 Fog 14 1007 93 10000 2.6 90 09:19 15.10.2019
155 Fog 13 1007 93 10000 1.5 0 08:42 15.10.2019
156 Fog 13 1006 100 10000 2.1 100 08:21 15.10.2019
157 Fog 13 1006 100 10000 2.1 100 07:56 15.10.2019
158 Fog 13 1006 93 10000 2.6 90 07:38 15.10.2019
159 Clear 13 1006 100 10000 2.1 110 07:19 15.10.2019
160 Clouds 13 1006 93 10000 1.5 90 06:44 15.10.2019
161 Clear 13 1006 93 10000 2.1 80 06:26 15.10.2019
162 Clouds 13 1006 100 10000 2.1 80 05:41 15.10.2019
163 Clear 13 1006 93 10000 1.5 120 05:23 15.10.2019
164 Clouds 14 1007 93 9000 1.5 90 04:25 15.10.2019
165 Clouds 14 1007 93 10000 2.1 80 03:37 15.10.2019
166 Clear 14 1008 100 10000 2.1 100 02:29 15.10.2019
167 Clouds 14 1008 87 10000 3.1 100 01:48 15.10.2019
168 Clear 15 1008 93 10000 3.6 90 01:19 15.10.2019
169 Clouds 15 1009 87 10000 2.6 80 00:49 15.10.2019
170 Clear 15 1009 93 10000 3.1 100 00:22 15.10.2019
171 Clouds 15 1010 82 10000 2.6 90 23:45 14.10.2019
172 Clear 16 1010 87 10000 3.1 100 23:20 14.10.2019
173 Clear 16 1010 87 10000 3.1 100 23:20 14.10.2019
174 Clear 16 1010 87 10000 3.1 100 22:58 14.10.2019
175 Clouds 16 1010 82 10000 3.1 90 22:38 14.10.2019
176 Clear 16 1010 82 10000 3.6 90 22:18 14.10.2019
177 Clear 16 1010 82 10000 3.6 90 22:18 14.10.2019
178 Clear 17 1010 82 10000 3.6 90 21:56 14.10.2019
179 Clear 17 1010 82 10000 4.1 90 21:37 14.10.2019
180 Clear 17 1011 82 10000 3.1 90 21:19 14.10.2019
181 Clear 17 1011 82 10000 3.6 100 20:55 14.10.2019
182 Clear 17 1011 82 10000 3.6 100 20:36 14.10.2019
183 Clear 18 1011 77 10000 4.6 90 20:18 14.10.2019
184 Rain 18 1011 77 10000 3.1 100 19:42 14.10.2019
185 Rain 18 1011 77 10000 3.1 100 19:23 14.10.2019
186 Clear 19 1011 77 10000 3.1 80 18:59 14.10.2019
187 Clear 19 1011 77 10000 2.6 90 18:39 14.10.2019
188 Clear 20 1011 72 10000 4.1 100 18:19 14.10.2019
189 Clear 20 1011 72 10000 4.1 100 18:19 14.10.2019
190 Clear 20 1011 72 10000 4.1 100 18:19 14.10.2019
191 Clear 20 1012 72 10000 4.6 90 17:57 14.10.2019
192 Clear 21 1012 72 10000 4.6 90 17:39 14.10.2019
193 Clear 21 1012 68 10000 4.1 90 17:21 14.10.2019
194 Clear 21 1012 68 10000 4.6 90 16:44 14.10.2019
195 Clear 21 1013 64 10000 4.6 90 16:21 14.10.2019
196 Clear 21 1013 64 10000 4.6 90 15:57 14.10.2019
197 Clear 21 1013 64 10000 4.1 100 15:38 14.10.2019
198 Clear 21 1013 64 10000 4.1 100 15:20 14.10.2019
199 Clear 21 1014 68 10000 3.1 90 14:43 14.10.2019
200 Clear 21 1014 68 10000 3.1 80 14:24 14.10.2019
201 Clear 20 1014 68 10000 3.1 80 13:56 14.10.2019
202 Clear 20 1014 68 10000 1.5 0 13:37 14.10.2019
203 Clear 20 1015 68 10000 2.1 320 13:18 14.10.2019
204 Clouds 19 1015 68 10000 2.1 330 12:40 14.10.2019
205 Clouds 18 1015 68 10000 2.6 330 12:19 14.10.2019
206 Clouds 18 1015 72 10000 2.6 310 11:47 14.10.2019
207 Clouds 18 1015 72 10000 2.6 310 11:27 14.10.2019
208 Clouds 17 1015 72 10000 2.1 300 10:59 14.10.2019
209 Clouds 17 1015 77 10000 2.1 290 10:41 14.10.2019
210 Clouds 16 1015 82 10000 2.6 300 10:21 14.10.2019
211 Clouds 16 1015 82 10000 2.6 300 09:57 14.10.2019
212 Clear 15 1015 82 10000 2.1 280 09:38 14.10.2019
213 Clear 15 1014 82 10000 1 0 09:19 14.10.2019
214 Clouds 14 1014 87 10000 2.1 280 08:46 14.10.2019
215 Clouds 14 1014 93 10000 1 330 08:23 14.10.2019
216 Clouds 14 1014 87 10000 2.1 310 07:44 14.10.2019
217 Clouds 15 1014 82 10000 2.1 300 07:21 14.10.2019
218 Clouds 15 1013 77 10000 2.1 260 06:55 14.10.2019
219 Clouds 16 1013 82 10000 3.1 280 06:27 14.10.2019
220 Clouds 16 1013 72 10000 4.1 260 05:52 14.10.2019
221 Clouds 17 1012 82 10000 5.1 250 04:51 14.10.2019
222 Clouds 18 1011 77 10000 5.7 250 03:49 14.10.2019
223 Rain 19 1011 82 10000 5.1 250 03:22 14.10.2019
224 Clouds 20 1010 77 10000 5.7 240 01:52 14.10.2019
225 Clouds 20 1010 82 10000 4.1 270 01:18 14.10.2019
226 Rain 20 1009 64 10000 5.1 240 00:40 14.10.2019
227 Rain 20 1009 64 10000 4.1 210 00:18 14.10.2019
228 Clouds 21 1008 64 10000 4.1 200 23:40 13.10.2019
229 Clear 21 1008 64 10000 5.1 200 23:19 13.10.2019
230 Clouds 21 1008 68 10000 2.6 190 22:55 13.10.2019
231 Clouds 21 1008 68 10000 2.6 190 22:37 13.10.2019
232 Clear 21 1008 64 10000 6.2 210 22:19 13.10.2019
233 Clouds 21 1008 64 10000 3.6 190 21:55 13.10.2019
234 Clear 21 1008 64 10000 6.2 200 21:36 13.10.2019
235 Clear 21 1009 56 10000 4.6 220 21:18 13.10.2019
236 Clear 21 1009 56 10000 4.6 220 21:18 13.10.2019
237 Clear 21 1009 56 10000 4.6 220 21:18 13.10.2019
238 Clear 21 1009 56 10000 4.6 220 20:55 13.10.2019
239 Clear 21 1009 56 10000 4.6 220 20:37 13.10.2019
240 Clear 21 1008 64 10000 3.1 170 20:18 13.10.2019
241 Clear 21 1008 64 10000 3.1 170 19:54 13.10.2019
242 Clear 21 1008 64 10000 3.1 150 19:36 13.10.2019
243 Clear 21 1008 64 10000 3.1 140 19:18 13.10.2019
244 Clear 21 1008 60 10000 3.6 190 18:40 13.10.2019
245 -273 0 0 0 0 0 18:40 13.10.2019
246 Clear 22 1008 56 10000 3.6 190 18:21 13.10.2019
247 -273 0 0 0 0 0 17:59 13.10.2019
248 Clear 22 1008 64 10000 3.1 180 17:41 13.10.2019
249 Clear 22 1008 73 10000 3.1 160 17:23 13.10.2019
250 Clouds 22 1009 73 10000 2.6 150 16:43 13.10.2019
251 Rain 22 1009 77 10000 2.1 130 16:20 13.10.2019
252 Rain 22 1009 77 10000 2.1 130 15:58 13.10.2019
253 Clear 22 1009 78 10000 3.1 120 15:39 13.10.2019
254 Rain 22 1010 83 10000 3.1 130 15:20 13.10.2019
255 Rain 22 1010 83 10000 3.1 130 14:58 13.10.2019
256 -273 0 0 0 0 0 14:39 13.10.2019
257 Clear 21 1010 83 10000 2.6 150 14:39 13.10.2019
258 Clear 21 1011 82 10000 3.1 170 14:21 13.10.2019
259 Clear 21 1011 82 10000 3.1 170 13:58 13.10.2019
260 Clouds 20 1011 88 10000 2.6 200 13:37 13.10.2019
261 Rain 20 1012 88 10000 4.1 220 13:19 13.10.2019
262 Rain 20 1012 88 10000 4.1 220 12:56 13.10.2019
263 Rain 20 1011 68 10000 3.6 230 12:38 13.10.2019
264 Rain 20 1011 68 10000 4.6 230 12:18 13.10.2019
265 Rain 20 1011 68 10000 4.6 230 11:55 13.10.2019
266 Rain 20 1011 68 10000 4.6 230 11:55 13.10.2019
267 Clear 20 1011 73 10000 3.6 220 11:37 13.10.2019
268 Clear 20 1011 73 10000 3.6 220 11:37 13.10.2019
269 Clear 20 1011 72 10000 5.1 220 11:18 13.10.2019
270 Clear 19 1011 72 10000 5.1 210 10:41 13.10.2019
271 Clear 18 1011 77 10000 4.1 200 10:23 13.10.2019
272 Clear 18 1011 77 10000 4.1 200 09:56 13.10.2019
273 Clear 17 1011 82 10000 2.1 170 09:37 13.10.2019
274 Clear 16 1011 87 10000 1.5 140 09:19 13.10.2019
275 Clouds 15 1010 93 10000 1 0 08:42 13.10.2019
276 Clouds 15 1010 87 10000 1 0 08:21 13.10.2019
277 Clouds 15 1010 93 10000 0.5 0 07:46 13.10.2019
278 Clouds 15 1010 87 10000 1 0 07:23 13.10.2019
279 Clouds 14 1010 93 10000 1 90 06:46 13.10.2019
280 Clouds 15 1010 93 10000 1.5 100 05:50 13.10.2019
281 Clouds 15 1010 93 10000 1 60 04:52 13.10.2019
282 Clouds 15 1010 93 8000 1.5 90 04:32 13.10.2019
283 Clouds 15 1011 87 10000 1 0 02:47 13.10.2019
284 Clouds 15 1011 100 10000 1.5 110 02:18 13.10.2019
285 Clouds 15 1011 100 10000 1 0 01:31 13.10.2019
286 Clouds 15 1011 87 10000 1 350 00:52 13.10.2019
287 Mist 16 1011 93 5000 1.5 300 00:22 13.10.2019
288 Mist 16 1011 93 5000 1.5 300 23:59 12.10.2019
289 Clouds 16 1010 93 10000 1.5 10 23:40 12.10.2019
290 Clouds 15 1011 93 6000 2.1 360 23:21 12.10.2019
291 Clouds 15 1011 93 6000 2.1 360 22:58 12.10.2019
292 Clouds 15 1010 93 10000 1.5 350 22:39 12.10.2019
293 Clouds 15 1010 93 10000 1.5 10 22:21 12.10.2019
294 Clouds 16 1010 93 10000 1 350 21:56 12.10.2019
295 Clouds 16 1010 93 10000 1 350 21:37 12.10.2019
296 Clear 16 1010 67 10000 2.1 210 21:19 12.10.2019
297 Clear 16 1010 67 10000 2.1 210 20:44 12.10.2019
298 Clear 16 1010 67 10000 2.1 210 20:26 12.10.2019
299 Clear 17 1010 63 10000 4.1 250 19:42 12.10.2019
300 Clear 17 1010 67 10000 2.1 240 19:23 12.10.2019
301 Clear 17 1010 67 10000 2.1 240 18:59 12.10.2019
302 Clear 17 1010 67 10000 2.1 240 18:41 12.10.2019
303 Clear 17 1010 63 10000 3.6 250 18:23 12.10.2019
304 Clear 18 1010 63 10000 4.1 270 17:45 12.10.2019
305 Clouds 18 1011 63 10000 3.6 240 17:21 12.10.2019
306 Clouds 18 1011 63 10000 3.6 240 16:58 12.10.2019
307 Clouds 18 1011 63 10000 3.6 240 16:58 12.10.2019
308 Clouds 18 1011 63 10000 3.6 240 16:40 12.10.2019
309 Clouds 18 1010 63 10000 4.6 250 16:20 12.10.2019
310 Clouds 18 1010 63 10000 4.6 250 15:56 12.10.2019
311 Clouds 18 1010 63 10000 4.6 250 15:37 12.10.2019
312 Rain 18 1010 63 10000 4.6 240 15:18 12.10.2019
313 Clouds 18 1010 63 10000 5.7 250 14:39 12.10.2019
314 Clouds 18 1010 63 10000 5.7 250 14:20 12.10.2019
315 Clouds 18 1010 63 10000 4.6 230 13:50 12.10.2019
316 Clouds 18 1010 63 10000 4.6 230 13:32 12.10.2019
317 Clouds 18 1009 68 10000 5.7 240 12:55 12.10.2019
318 Clouds 18 1009 63 10000 6.2 230 12:37 12.10.2019
319 Clouds 17 1009 68 10000 7.7 240 12:19 12.10.2019
320 Clouds 17 1009 67 10000 7.2 230 11:43 12.10.2019
321 Clouds 17 1009 67 10000 7.2 230 11:43 12.10.2019
322 Clouds 17 1009 72 10000 6.7 230 11:23 12.10.2019
323 Clouds 17 1009 72 10000 6.7 230 10:58 12.10.2019
324 Clouds 16 1008 72 10000 5.1 230 10:39 12.10.2019
325 Clouds 16 1008 72 10000 5.1 230 10:20 12.10.2019
326 Clouds 16 1008 72 10000 5.1 230 09:57 12.10.2019
327 Clouds 16 1008 72 10000 5.1 230 09:57 12.10.2019
328 Clouds 16 1008 72 10000 5.1 220 09:38 12.10.2019
329 Clouds 15 1008 72 10000 6.2 220 09:19 12.10.2019
330 Clouds 15 1008 72 10000 6.2 220 09:19 12.10.2019
331 Clouds 15 1008 72 10000 6.2 220 08:44 12.10.2019
332 Clouds 15 1006 72 10000 5.7 230 08:24 12.10.2019
333 Clouds 15 1006 72 10000 5.7 230 07:57 12.10.2019
334 Clouds 15 1006 72 10000 5.7 230 07:31 12.10.2019
335 Clouds 15 1006 67 10000 6.2 230 06:28 12.10.2019
336 Clouds 16 1006 63 10000 8.2 220 05:43 12.10.2019
337 Clouds 16 1006 67 10000 5.7 210 04:43 12.10.2019
338 Clouds 16 1007 67 10000 5.7 230 03:54 12.10.2019
339 Clouds 16 1007 67 10000 7.7 220 02:50 12.10.2019
340 Clouds 16 1007 67 10000 7.2 220 01:34 12.10.2019
341 Clouds 16 1007 63 10000 7.7 220 00:56 12.10.2019
342 Clouds 16 1007 63 10000 7.7 220 00:38 12.10.2019
343 Clouds 16 1008 67 10000 6.7 230 23:55 11.10.2019
344 Clouds 15 1008 67 10000 6.2 230 23:37 11.10.2019
345 Clouds 15 1008 67 10000 7.2 230 23:18 11.10.2019
346 Clouds 15 1007 71 10000 8.17 231.8 22:39 11.10.2019
347 Clouds 15 1009 72 10000 6.2 230 22:20 11.10.2019
348 Clouds 15 1008 72 10000 6.2 220 21:55 11.10.2019
349 Clouds 15 1008 72 10000 6.2 220 21:36 11.10.2019
350 Clouds 15 1009 72 10000 6.2 230 21:18 11.10.2019
351 Clouds 15 1009 72 10000 5.7 230 20:42 11.10.2019
352 Clouds 15 1009 72 10000 5.7 230 20:24 11.10.2019
353 Clouds 15 1009 72 10000 5.7 220 19:56 11.10.2019
354 Clouds 15 1009 72 10000 5.7 220 19:38 11.10.2019
355 Clear 15 1009 72 10000 6.2 220 19:18 11.10.2019
356 Clear 15 1009 72 10000 6.2 220 18:57 11.10.2019
357 Clear 15 1010 72 10000 6.2 220 18:37 11.10.2019
358 Clear 15 1010 72 10000 6.7 220 18:19 11.10.2019
359 Clear 15 1010 72 10000 7.7 220 17:58 11.10.2019
360 Clear 15 1010 72 10000 7.7 220 17:37 11.10.2019
361 Rain 15 1011 72 10000 6.2 230 17:18 11.10.2019
362 Rain 15 1011 72 10000 6.2 230 16:55 11.10.2019
363 Rain 15 1011 72 10000 6.2 230 16:37 11.10.2019
364 Rain 16 1011 67 10000 5.1 220 16:18 11.10.2019
365 Rain 16 1011 67 10000 5.7 220 15:39 11.10.2019
366 Clear 16 1011 67 10000 5.7 220 15:19 11.10.2019
367 Clear 16 1011 72 10000 4.6 230 14:58 11.10.2019
368 Clear 16 1011 72 10000 4.6 230 14:37 11.10.2019
369 Clear 16 1011 67 10000 7.2 240 14:19 11.10.2019
370 Clear 16 1012 63 10000 7.7 230 13:43 11.10.2019
371 Rain 15 1012 63 10000 7.7 230 13:24 11.10.2019
372 Rain 15 1012 71 10000 7.2 240 12:57 11.10.2019
373 Rain 15 1012 71 10000 7.2 240 12:38 11.10.2019
374 Rain 14 1012 71 10000 6.7 240 12:20 11.10.2019
375 Clouds 14 1012 71 10000 7.7 240 11:58 11.10.2019
376 Clouds 14 1012 71 10000 7.7 240 11:38 11.10.2019
377 Clouds 13 1012 71 10000 8.2 240 11:20 11.10.2019
378 Rain 13 1012 71 10000 7.2 230 10:54 11.10.2019
379 Rain 13 1012 71 10000 7.2 230 10:36 11.10.2019
380 Rain 13 1012 71 10000 6.2 230 10:18 11.10.2019
381 Rain 12 1012 76 10000 5.7 220 09:41 11.10.2019
382 Rain 12 1012 71 10000 6.2 220 09:21 11.10.2019
383 Rain 12 1012 71 10000 6.2 220 08:56 11.10.2019
384 Clouds 12 1012 71 10000 6.2 230 08:38 11.10.2019
385 Drizzle 12 1012 71 10000 5.7 230 08:20 11.10.2019
386 Drizzle 12 1012 71 10000 5.1 230 07:52 11.10.2019
387 Rain 12 1012 71 10000 5.1 230 07:33 11.10.2019
388 Rain 12 1011 71 10000 6.7 210 06:50 11.10.2019
389 Clouds 12 1011 71 10000 6.7 220 06:25 11.10.2019
390 Clouds 12 1012 71 10000 5.1 200 05:47 11.10.2019
391 Clouds 12 1012 71 10000 6.2 220 05:29 11.10.2019
392 Clouds 12 1012 76 10000 4.6 210 04:50 11.10.2019
393 Clouds 11 1013 76 10000 5.7 220 03:27 11.10.2019
394 Clouds 11 1013 81 10000 4.6 220 01:18 11.10.2019
395 Clouds 10 1013 81 10000 3.6 210 00:31 11.10.2019
396 Clouds 10 1013 81 10000 3.1 200 23:58 10.10.2019
397 Clouds 10 1013 87 10000 2.6 200 23:40 10.10.2019
398 Clouds 10 1014 87 10000 2.6 230 23:19 10.10.2019
399 Clouds 10 1013 87 10000 3.6 220 22:56 10.10.2019
400 Clouds 10 1013 87 10000 3.6 220 22:36 10.10.2019
401 Clouds 10 1014 76 10000 4.1 240 22:18 10.10.2019
402 Clouds 10 1014 76 10000 4.1 240 22:18 10.10.2019
403 Clear 10 1013 76 10000 4.6 240 21:42 10.10.2019
404 Clear 11 1013 81 10000 3.6 240 21:22 10.10.2019
405 Clear 11 1013 81 10000 3.6 240 20:59 10.10.2019
406 Clear 11 1013 81 10000 3.6 240 20:59 10.10.2019
407 Rain 11 1013 87 10000 1.5 190 20:40 10.10.2019
408 Rain 11 1013 76 10000 3.6 250 20:20 10.10.2019
409 Rain 11 1013 76 10000 3.6 250 19:57 10.10.2019
410 Rain 11 1013 81 10000 3.1 260 19:39 10.10.2019
411 Rain 12 1012 87 10000 4.6 300 19:19 10.10.2019
412 Rain 12 1012 76 10000 4.6 260 18:54 10.10.2019
413 Rain 12 1012 76 10000 4.6 260 18:54 10.10.2019
414 Rain 12 1012 76 10000 4.6 260 18:36 10.10.2019
415 Rain 12 1012 71 10000 5.1 250 18:18 10.10.2019
416 Clouds 13 1011 67 10000 6.2 240 17:40 10.10.2019
417 Rain 13 1011 71 10000 5.1 240 17:20 10.10.2019
418 Rain 14 1011 71 10000 5.1 240 16:58 10.10.2019
419 Clouds 14 1011 66 10000 5.7 260 16:39 10.10.2019
420 Clouds 13 1011 71 10000 5.1 260 16:21 10.10.2019
421 Clouds 13 1011 71 10000 6.7 260 15:43 10.10.2019
422 Clouds 13 1011 71 10000 6.7 260 15:43 10.10.2019
423 Clouds 14 1011 71 10000 7.2 260 15:24 10.10.2019
424 Clouds 13 1011 71 10000 7.2 260 14:59 10.10.2019
425 Clouds 13 1011 76 10000 6.7 260 14:38 10.10.2019
426 Clouds 13 1011 76 10000 6.7 260 14:38 10.10.2019
427 Clouds 13 1011 71 10000 6.7 260 14:19 10.10.2019
428 Clouds 13 1011 71 10000 6.7 260 13:59 10.10.2019
429 Rain 12 1010 71 10000 6.2 260 13:40 10.10.2019
430 Rain 13 1010 71 10000 7.2 250 13:19 10.10.2019
431 Clouds 12 1010 71 10000 6.2 260 12:55 10.10.2019
432 Clouds 12 1010 71 10000 6.2 260 12:37 10.10.2019
433 Clouds 12 1009 71 10000 7.2 260 12:18 10.10.2019
434 Clouds 12 1009 71 10000 7.7 250 11:55 10.10.2019
435 Clouds 12 1009 71 10000 7.7 250 11:36 10.10.2019
436 Clouds 12 1009 76 10000 6.7 250 11:18 10.10.2019
437 Clouds 11 1008 76 10000 5.1 240 10:44 10.10.2019
438 Clouds 11 1008 76 10000 5.1 240 10:25 10.10.2019
439 Clouds 10 1008 81 10000 5.1 240 09:55 10.10.2019
440 Clear 10 1008 87 10000 4.6 240 09:37 10.10.2019
441 Clear 10 1007 81 10000 4.1 240 09:19 10.10.2019
442 Clouds 9 1007 87 10000 3.6 240 08:41 10.10.2019
443 Clouds 9 1007 87 10000 3.1 230 08:23 10.10.2019
444 Clouds 9 1007 87 10000 3.1 230 07:58 10.10.2019
445 Clear 9 1006 87 10000 3.1 230 07:40 10.10.2019
446 Clouds 9 1006 87 10000 4.1 230 07:20 10.10.2019
447 Clouds 9 1006 87 10000 4.1 220 06:45 10.10.2019
448 Clouds 9 1006 81 10000 3.6 230 06:24 10.10.2019
449 Clouds 9 1005 87 10000 5.1 240 05:24 10.10.2019
450 Clouds 9 1005 87 10000 4.6 230 04:37 10.10.2019
451 Clouds 9 1005 87 10000 5.1 250 03:27 10.10.2019
452 Rain 10 1004 93 10000 5.1 240 01:42 10.10.2019
453 Rain 10 1004 93 10000 5.7 240 01:24 10.10.2019
454 Clouds 10 1004 87 10000 4.6 220 00:45 10.10.2019
455 Clouds 10 1004 81 10000 5.7 240 00:21 10.10.2019
456 Rain 10 1004 87 10000 3.6 220 23:39 09.10.2019
457 Clouds 10 1004 81 10000 4.1 240 23:20 09.10.2019
458 Clouds 10 1004 87 10000 3.6 230 22:43 09.10.2019
459 Clouds 10 1004 93 10000 3.6 240 22:24 09.10.2019
460 Clouds 10 1004 93 10000 3.6 240 21:59 09.10.2019
461 Rain 10 1004 87 10000 3.6 240 21:40 09.10.2019
462 Rain 10 1004 87 10000 2.6 210 21:20 09.10.2019
463 Rain 10 1004 87 10000 4.1 240 20:56 09.10.2019
464 Rain 10 1004 93 10000 3.6 210 20:38 09.10.2019
465 Rain 10 1004 93 10000 3.6 210 20:38 09.10.2019
466 Rain 10 1004 93 10000 3.1 200 20:19 09.10.2019
467 Rain 10 1005 93 10000 4.1 230 19:58 09.10.2019
468 Rain 10 1005 93 10000 4.1 230 19:39 09.10.2019
469 Rain 10 1004 93 10000 5.7 240 19:20 09.10.2019
470 Rain 11 1004 76 10000 3.1 220 18:38 09.10.2019
471 Rain 12 1004 66 10000 4.6 210 18:19 09.10.2019
472 Rain 13 1004 87 7000 4.6 290 17:57 09.10.2019
473 Rain 13 1004 87 7000 4.6 290 17:37 09.10.2019
474 Rain 13 1004 67 10000 5.7 210 17:19 09.10.2019
475 Rain 14 1004 67 10000 5.7 210 16:55 09.10.2019
476 Rain 14 1004 62 10000 6.2 210 16:36 09.10.2019
477 Rain 15 1005 62 10000 6.2 220 16:18 09.10.2019
478 Rain 14 1005 62 10000 5.7 220 15:55 09.10.2019
479 Rain 15 1005 62 10000 5.7 220 15:36 09.10.2019
480 Rain 14 1005 67 10000 4.1 210 15:18 09.10.2019
481 Rain 14 1006 71 10000 5.7 210 14:44 09.10.2019
482 Rain 14 1006 71 10000 5.7 220 14:19 09.10.2019
483 Rain 14 1006 71 10000 5.7 220 13:59 09.10.2019
484 Rain 14 1006 67 10000 4.6 230 13:37 09.10.2019
485 Clouds 14 1007 67 10000 5.1 240 13:18 09.10.2019
486 Clouds 14 1007 67 10000 6.7 240 12:43 09.10.2019
487 Clouds 14 1007 71 10000 5.7 240 12:22 09.10.2019
488 Clouds 14 1007 71 10000 5.7 240 11:58 09.10.2019
489 Clouds 14 1007 71 10000 5.7 230 11:39 09.10.2019
490 Clouds 14 1007 76 10000 5.1 220 11:20 09.10.2019
491 Clouds 14 1007 76 10000 5.1 220 10:58 09.10.2019
492 Clouds 13 1007 76 10000 3.6 210 10:40 09.10.2019
493 Clouds 13 1007 81 10000 4.1 220 10:18 09.10.2019
494 Clear 12 1007 81 10000 3.6 230 09:43 09.10.2019
495 Clouds 11 1007 87 10000 2.6 210 09:20 09.10.2019
496 Clouds 11 1007 87 10000 2.1 180 08:58 09.10.2019
497 Clouds 11 1007 87 10000 2.1 180 08:38 09.10.2019
498 Clouds 11 1007 93 10000 1.5 200 08:19 09.10.2019
499 Clouds 10 1007 87 10000 2.6 230 07:47 09.10.2019
500 Clouds 10 1007 87 10000 2.6 230 07:47 09.10.2019
501 Clouds 11 1007 87 10000 2.6 220 07:24 09.10.2019
502 Clouds 11 1007 87 10000 2.6 220 06:57 09.10.2019
503 Clouds 11 1006 81 10000 5.1 240 06:35 09.10.2019
504 Clouds 11 1006 81 10000 4.6 220 05:52 09.10.2019
505 Clouds 11 1006 81 10000 6.2 240 04:56 09.10.2019
506 Clouds 11 1005 87 10000 4.6 220 03:48 09.10.2019
507 Clouds 11 1005 87 10000 3.6 240 02:34 09.10.2019
508 Clouds 11 1005 93 10000 3.6 220 01:39 09.10.2019
509 Clear 11 1005 87 10000 3.6 230 01:18 09.10.2019
510 Clouds 11 1004 87 10000 3.6 220 00:55 09.10.2019
511 Clouds 12 1005 93 10000 2.6 210 00:36 09.10.2019
512 Clouds 12 1005 87 10000 2.6 210 00:18 09.10.2019
513 Clouds 12 1004 93 10000 4.1 240 23:38 08.10.2019
514 Clouds 12 1005 87 10000 2.6 230 23:18 08.10.2019
515 Clouds 13 1004 87 10000 3.6 240 22:55 08.10.2019
516 Clouds 13 1004 87 10000 3.6 240 22:36 08.10.2019
517 Clear 13 1004 87 10000 3.1 230 22:18 08.10.2019
518 Clear 13 1004 82 10000 3.1 220 21:55 08.10.2019
519 Clear 13 1004 82 10000 3.1 220 21:55 08.10.2019
520 Clear 13 1004 82 10000 3.1 220 21:36 08.10.2019
521 Clear 13 1004 87 10000 3.6 220 21:18 08.10.2019
522 Clear 13 1004 87 10000 2.6 210 20:55 08.10.2019
523 Clear 13 1004 87 10000 2.6 210 20:37 08.10.2019
524 Clear 13 1004 87 10000 1.5 0 20:18 08.10.2019
525 Clear 13 1004 87 10000 1.5 0 19:54 08.10.2019
526 Clouds 13 1005 87 10000 2.6 230 19:36 08.10.2019
527 Clouds 13 1005 87 10000 2.6 230 19:36 08.10.2019
528 Clouds 13 1005 87 10000 3.1 230 19:18 08.10.2019
529 Clouds 13 1005 82 10000 4.1 240 18:42 08.10.2019
530 Clouds 14 1004 82 10000 4.6 250 18:24 08.10.2019
531 Clouds 14 1004 82 10000 4.6 250 17:57 08.10.2019
532 Clouds 14 1004 82 10000 5.1 240 17:39 08.10.2019
533 Clouds 14 1005 77 10000 5.1 260 17:20 08.10.2019
534 Clouds 14 1005 77 10000 4.6 250 16:56 08.10.2019
535 Clouds 14 1005 77 10000 4.6 250 16:56 08.10.2019
536 Clouds 14 1005 77 10000 4.6 250 16:37 08.10.2019
537 Clouds 14 1005 82 10000 5.1 250 16:18 08.10.2019
538 Clouds 14 1005 82 10000 4.1 270 15:39 08.10.2019
539 -273 0 0 0 0 0 15:39 08.10.2019
540 Rain 14 1005 82 10000 5.7 260 15:20 08.10.2019
541 Clouds 14 1005 87 10000 5.7 270 14:56 08.10.2019
542 Clouds 14 1005 87 10000 5.7 270 14:38 08.10.2019
543 Clouds 13 1005 87 10000 6.2 260 14:19 08.10.2019
544 Clouds 13 1005 87 10000 6.2 260 14:19 08.10.2019
545 Clouds 13 1005 87 10000 6.2 260 13:55 08.10.2019
546 Clouds 13 1005 87 10000 6.2 260 13:55 08.10.2019
547 Clouds 13 1005 93 10000 5.1 250 13:37 08.10.2019
548 Clouds 13 1005 93 10000 5.1 250 13:37 08.10.2019
549 Clouds 13 1005 93 10000 5.1 250 13:37 08.10.2019
550 Clouds 13 1005 87 10000 4.6 250 13:18 08.10.2019
551 Clouds 13 1005 93 6000 4.6 250 12:41 08.10.2019
552 Drizzle 13 1005 93 3100 4.6 250 12:20 08.10.2019
553 Drizzle 12 1005 93 3100 4.6 250 11:58 08.10.2019
554 Rain 12 1005 87 10000 5.1 230 11:40 08.10.2019
555 Drizzle 12 1005 87 7000 5.7 230 11:21 08.10.2019
556 Drizzle 12 1006 87 8000 4.6 230 10:55 08.10.2019
557 Drizzle 12 1006 87 8000 4.6 230 10:36 08.10.2019
558 Drizzle 11 1006 93 10000 5.1 230 10:18 08.10.2019
559 Drizzle 11 1006 93 7000 4.6 210 09:41 08.10.2019
560 Rain 11 1006 87 6000 3.1 200 09:22 08.10.2019
561 Drizzle 11 1006 93 7000 3.1 180 08:57 08.10.2019
562 Drizzle 11 1006 93 7000 3.1 180 08:39 08.10.2019
563 Rain 10 1007 93 9000 3.6 170 08:21 08.10.2019
564 Rain 10 1008 93 7000 3.6 190 07:41 08.10.2019
565 Rain 10 1008 93 9000 3.6 210 07:20 08.10.2019
566 Drizzle 10 1008 93 9000 3.1 170 06:47 08.10.2019
567 Rain 10 1008 87 9000 3.1 190 06:26 08.10.2019
568 Rain 10 1009 87 10000 2.6 180 05:44 08.10.2019
569 Rain 10 1009 87 10000 3.6 190 05:24 08.10.2019
570 Clouds 10 1011 81 10000 3.6 190 03:32 08.10.2019
571 Clouds 9 1012 81 10000 1.5 160 02:47 08.10.2019
572 Clouds 9 1012 81 10000 3.6 200 02:29 08.10.2019
573 Clouds 9 1012 81 10000 2.1 130 01:43 08.10.2019
574 Clear 9 1013 81 10000 2.6 160 01:25 08.10.2019
575 Clouds 8 1013 81 10000 2.1 140 00:45 08.10.2019
576 Clear 8 1014 81 10000 1.5 150 00:20 08.10.2019
577 Clouds 8 1015 75 10000 1 120 23:39 07.10.2019
578 Clear 8 1015 76 10000 1 0 23:20 07.10.2019
579 Clear 8 1015 76 10000 1 0 22:56 07.10.2019
580 Clouds 8 1015 75 10000 3.1 120 22:38 07.10.2019
581 Clear 8 1017 87 10000 2.1 100 22:19 07.10.2019
582 Clear 8 1017 87 10000 2.1 100 21:55 07.10.2019
583 Clear 8 1017 87 10000 2.1 100 21:37 07.10.2019
584 Clear 8 1017 81 10000 2.1 90 21:19 07.10.2019
585 Clear 8 1017 81 10000 2.1 90 21:19 07.10.2019
586 Clear 8 1017 81 10000 2.1 90 21:19 07.10.2019
587 Clear 8 1017 81 10000 2.1 90 20:57 07.10.2019
588 Clouds 8 1017 70 10000 1.5 100 20:39 07.10.2019
589 Clouds 8 1017 71 10000 2.1 110 20:19 07.10.2019
590 Clouds 9 1017 71 10000 2.1 110 19:57 07.10.2019
591 Clear 9 1018 75 10000 2.1 100 19:39 07.10.2019
592 Clear 9 1017 75 10000 2.1 130 19:18 07.10.2019
593 Clear 10 1017 66 10000 1.5 100 18:56 07.10.2019
594 Clear 10 1017 66 10000 1.5 100 18:38 07.10.2019
595 Clear 11 1018 57 10000 2.1 130 18:18 07.10.2019
596 Clear 12 1018 57 10000 2.1 140 17:42 07.10.2019
597 Clear 12 1018 46 10000 2.1 170 17:19 07.10.2019
598 Clear 12 1019 46 10000 2.1 0 16:56 07.10.2019
599 Clear 12 1019 46 10000 2.1 0 16:38 07.10.2019
600 Clear 13 1019 47 10000 1 0 16:19 07.10.2019
601 Clear 12 1019 50 10000 2.1 100 15:43 07.10.2019
602 Clear 13 1019 54 10000 2.6 120 15:25 07.10.2019
603 Clear 12 1019 54 10000 2.6 120 14:55 07.10.2019
604 Clear 12 1020 54 10000 3.6 120 14:37 07.10.2019
605 Clear 12 1020 54 10000 2.6 110 14:18 07.10.2019
606 Clouds 12 1020 53 10000 3.6 100 13:41 07.10.2019
607 Clouds 11 1020 53 10000 3.6 100 13:20 07.10.2019
608 Clear 11 1021 57 10000 4.1 110 12:55 07.10.2019
609 Clear 10 1021 57 10000 4.1 110 12:37 07.10.2019
610 Clear 10 1021 57 10000 3.1 120 12:19 07.10.2019
611 Clear 9 1021 57 10000 3.1 120 11:57 07.10.2019
612 Clear 9 1021 61 10000 2.6 110 11:37 07.10.2019
613 Clear 7 1021 70 10000 3.1 100 11:18 07.10.2019
614 Clear 6 1021 75 10000 2.6 100 10:41 07.10.2019
615 Clear 6 1021 75 10000 2.6 100 10:41 07.10.2019
616 Clear 5 1021 86 10000 3.1 110 10:20 07.10.2019
617 Clear 4 1021 86 10000 2.1 100 09:43 07.10.2019
618 Clear 3 1020 86 10000 1 0 09:24 07.10.2019
619 Clear 2 1020 86 10000 1 0 08:58 07.10.2019
620 Clear 2 1020 86 10000 2.1 100 08:39 07.10.2019
621 Fog 1 1019 86 10000 2.6 90 08:20 07.10.2019
622 Fog 0 1019 86 10000 2.6 90 07:43 07.10.2019
623 Clear 1 1019 86 10000 2.6 100 07:25 07.10.2019
624 Clouds 1 1020 86 10000 1 70 06:55 07.10.2019
625 Clear 1 1019 86 10000 3.6 90 06:37 07.10.2019
626 Clouds 2 1020 93 10000 1.5 50 05:54 07.10.2019
627 Clear 2 1019 84 10000 3.1 70 05:25 07.10.2019
628 Clouds 2 1019 86 10000 1.5 60 04:44 07.10.2019
629 Clouds 3 1019 80 10000 2.6 50 03:45 07.10.2019
630 Clear 3 1018 86 10000 3.1 70 03:23 07.10.2019
631 Clear 4 1018 86 10000 4.1 70 02:23 07.10.2019
632 Clear 4 1018 86 10000 4.1 70 02:23 07.10.2019
633 Clear 5 1018 86 10000 4.1 70 01:58 07.10.2019
634 Clear 6 1017 75 10000 4.6 80 01:23 07.10.2019
635 Clouds 6 1018 75 10000 3.6 60 00:45 07.10.2019
636 Clear 6 1017 75 10000 4.6 80 00:23 07.10.2019
637 Clear 6 1017 75 10000 4.6 80 23:59 06.10.2019
638 Clouds 7 1017 75 10000 3.6 60 23:40 06.10.2019
639 Clear 7 1017 75 10000 5.7 80 23:19 06.10.2019
640 Clouds 7 1017 75 10000 4.1 70 22:55 06.10.2019
641 Clouds 7 1017 75 10000 4.1 70 22:55 06.10.2019
642 Clouds 7 1017 75 10000 4.1 70 22:37 06.10.2019
643 Clear 7 1016 75 10000 5.1 90 22:18 06.10.2019
644 Clouds 8 1017 75 10000 4.1 70 21:55 06.10.2019
645 Clouds 8 1017 75 10000 4.1 70 21:55 06.10.2019
646 Clear 8 1016 70 10000 5.7 90 21:36 06.10.2019
647 Clear 8 1016 70 10000 4.6 100 21:18 06.10.2019
648 Clear 8 1016 70 10000 4.6 100 20:54 06.10.2019
649 Clear 8 1016 70 10000 4.6 100 20:36 06.10.2019
650 Clear 8 1016 70 10000 4.6 100 20:36 06.10.2019
651 Clear 8 1016 70 10000 4.6 100 20:36 06.10.2019
652 Clear 8 1016 70 10000 4.6 100 20:18 06.10.2019
653 Clear 8 1016 70 10000 4.6 100 19:55 06.10.2019
654 Clear 8 1016 70 10000 4.6 100 19:55 06.10.2019
655 Clear 8 1016 70 10000 5.1 110 19:36 06.10.2019
656 Clear 8 1016 75 10000 4.1 100 19:18 06.10.2019
657 Clear 8 1016 70 10000 4.6 100 18:55 06.10.2019
658 Clear 9 1016 70 10000 4.6 100 18:36 06.10.2019
659 Clear 9 1016 70 10000 5.7 110 18:18 06.10.2019
660 Clear 9 1016 70 10000 5.7 110 18:18 06.10.2019
661 Clear 9 1016 70 10000 5.7 110 18:18 06.10.2019
662 Clear 9 1016 70 10000 5.7 110 18:18 06.10.2019
663 Clouds 9 1016 76 10000 5.7 110 17:42 06.10.2019
664 Clouds 9 1016 76 10000 6.2 110 17:20 06.10.2019
665 Clouds 9 1016 76 10000 6.2 110 17:20 06.10.2019
666 Clouds 9 1017 76 10000 6.2 100 16:56 06.10.2019
667 Clouds 9 1017 76 10000 6.2 100 16:37 06.10.2019
668 Clouds 9 1017 81 10000 5.7 100 16:19 06.10.2019
669 Clouds 9 1017 76 10000 6.2 110 15:43 06.10.2019
670 Clouds 9 1017 81 10000 6.7 110 15:22 06.10.2019
671 Clouds 10 1018 76 10000 6.2 110 14:57 06.10.2019
672 Clouds 10 1018 76 10000 6.2 110 14:39 06.10.2019
673 Clouds 10 1018 81 10000 6.7 100 14:20 06.10.2019
674 Clouds 10 1018 81 10000 6.2 110 13:54 06.10.2019
675 -273 0 0 0 0 0 13:54 06.10.2019
676 Clouds 10 1018 81 10000 6.2 110 13:54 06.10.2019
677 Clouds 9 1018 81 10000 6.2 110 13:36 06.10.2019
678 Clouds 9 1018 81 10000 6.2 110 13:36 06.10.2019
679 Clouds 9 1018 87 10000 4.6 100 13:18 06.10.2019
680 Clouds 9 1018 87 10000 4.6 100 13:18 06.10.2019
681 Clouds 9 1019 93 10000 3.6 100 12:55 06.10.2019
682 Clouds 9 1019 93 10000 3.6 100 12:55 06.10.2019
683 Clouds 9 1019 93 10000 3.6 100 12:36 06.10.2019
684 Clouds 8 1019 93 8000 4.1 100 12:18 06.10.2019
685 Mist 8 1019 93 4500 3.6 110 11:42 06.10.2019
686 Mist 7 1020 93 1500 3.1 100 11:24 06.10.2019
687 Mist 7 1020 93 1500 3.1 100 11:24 06.10.2019
688 Mist 7 1020 93 1500 3.1 100 10:56 06.10.2019
689 Mist 7 1020 93 1500 3.1 100 10:56 06.10.2019
690 Fog 7 1020 93 800 2.6 110 10:38 06.10.2019
691 Fog 6 1020 100 550 2.6 90 10:19 06.10.2019
692 Fog 6 1020 93 400 3.1 90 09:41 06.10.2019
693 Fog 5 1020 93 650 3.6 100 09:21 06.10.2019
694 Fog 5 1020 93 650 3.6 100 08:57 06.10.2019
695 Fog 5 1020 93 650 3.6 100 08:38 06.10.2019
696 Clouds 4 1020 100 10000 3.6 90 08:19 06.10.2019
697 Clouds 4 1020 93 10000 2.6 70 07:41 06.10.2019
698 Clouds 4 1020 93 650 1.5 60 06:59 06.10.2019
699 Clear 4 1020 93 10000 3.6 90 05:57 06.10.2019
700 Clouds 4 1021 100 10000 1.5 70 04:44 06.10.2019
701 Clear 5 1021 93 10000 1.5 70 02:56 06.10.2019
702 Clear 5 1021 93 10000 2.6 90 02:37 06.10.2019
703 Clear 6 1021 93 10000 3.1 90 01:57 06.10.2019
704 Clear 6 1021 93 10000 1 60 01:37 06.10.2019
705 Clear 6 1021 93 10000 2.6 90 01:18 06.10.2019
706 Clouds 6 1021 87 10000 1.5 80 00:45 06.10.2019
707 Clear 6 1021 93 10000 2.6 80 00:21 06.10.2019
708 Clear 7 1021 87 10000 2.6 60 23:43 05.10.2019
709 Clear 7 1021 87 10000 1.5 80 23:22 05.10.2019
710 Clear 7 1021 87 10000 1.5 80 22:58 05.10.2019
711 Clear 7 1021 81 10000 2.6 70 22:39 05.10.2019
712 Clouds 8 1021 81 10000 3.1 70 22:20 05.10.2019
713 Clouds 8 1021 81 10000 3.1 70 21:56 05.10.2019
714 Clouds 8 1020 81 10000 3.6 60 21:37 05.10.2019
715 Clouds 8 1020 87 10000 1 0 21:18 05.10.2019
716 Clouds 8 1020 87 10000 1 0 20:55 05.10.2019
717 Clouds 8 1020 87 10000 1 0 20:36 05.10.2019
718 Clouds 8 1020 93 10000 1 160 20:18 05.10.2019
719 Clouds 9 1019 81 10000 4.1 90 19:37 05.10.2019
720 Clear 9 1019 66 10000 1 0 19:19 05.10.2019
721 Clouds 10 1018 71 10000 2.55 64.509 18:55 05.10.2019
722 Clouds 10 1018 71 10000 2.55 64.509 18:37 05.10.2019
723 Clouds 11 1018 71 10000 2.55 64.509 18:37 05.10.2019
724 Clouds 12 1018 66 10000 1.5 0 18:19 05.10.2019
725 Clouds 12 1017 62 10000 1 0 17:43 05.10.2019
726 Clear 12 1017 58 10000 2.6 0 17:23 05.10.2019
727 Clear 12 1017 58 10000 2.6 0 16:57 05.10.2019
728 Clouds 13 1017 58 10000 2.6 20 16:39 05.10.2019
729 Clouds 13 1017 54 10000 2.6 20 16:20 05.10.2019
730 Clear 13 1016 62 10000 2.6 40 15:57 05.10.2019
731 Clear 13 1016 62 10000 2.6 40 15:38 05.10.2019
732 Clouds 12 1016 58 10000 3.1 10 15:20 05.10.2019
733 Clouds 12 1016 62 10000 2.6 50 14:44 05.10.2019
734 Clouds 12 1016 66 10000 3.1 30 14:25 05.10.2019
735 Clouds 12 1016 66 10000 3.1 30 13:59 05.10.2019
736 Clouds 12 1016 66 10000 2.6 10 13:40 05.10.2019
737 Clouds 11 1015 66 10000 3.1 10 13:20 05.10.2019
738 Clouds 11 1015 76 10000 3.1 10 12:44 05.10.2019
739 Clouds 11 1015 76 10000 2.6 0 12:20 05.10.2019
740 Clouds 10 1015 81 10000 4.1 10 11:45 05.10.2019
741 Clouds 9 1014 87 10000 2.6 360 11:23 05.10.2019
742 Clouds 9 1014 87 10000 2.6 360 10:59 05.10.2019
743 Clouds 9 1013 87 10000 2.6 350 10:41 05.10.2019
744 Clouds 8 1013 87 10000 3.1 350 10:23 05.10.2019
745 Clouds 8 1013 87 10000 3.1 350 09:56 05.10.2019
746 Clouds 8 1012 87 10000 1.5 0 09:38 05.10.2019
747 Clouds 8 1012 87 10000 1.5 0 09:38 05.10.2019
748 Clouds 8 1011 87 10000 2.1 10 09:20 05.10.2019
749 Rain 8 1012 93 10000 2.1 330 08:39 05.10.2019
750 Clouds 7 1012 93 10000 3.1 360 08:19 05.10.2019
751 Clouds 7 1012 93 10000 3.1 360 07:56 05.10.2019
752 Clouds 8 1011 93 10000 3.1 10 07:33 05.10.2019
753 Clouds 8 1010 93 10000 3.6 360 06:58 05.10.2019
754 Clouds 8 1010 93 10000 4.1 360 06:26 05.10.2019
755 Rain 8 1009 93 10000 4.1 10 05:40 05.10.2019
756 Rain 8 1007 93 10000 3.1 350 03:57 05.10.2019
757 Clouds 8 1008 93 10000 4.6 360 03:28 05.10.2019
758 Rain 8 1005 93 10000 4.6 10 01:41 05.10.2019
759 Rain 8 1005 93 10000 5.1 30 01:20 05.10.2019
760 Rain 9 1005 93 10000 5.1 30 00:43 05.10.2019
761 Rain 9 1004 100 10000 6.2 50 00:23 05.10.2019
762 Rain 9 1004 87 8000 7.2 50 23:44 04.10.2019
763 Rain 9 1003 93 10000 7.2 60 23:25 04.10.2019
764 Rain 9 1003 93 10000 7.2 60 22:59 04.10.2019
765 Rain 9 1004 93 7000 5.7 50 22:39 04.10.2019
766 Rain 9 1003 93 10000 5.1 90 22:20 04.10.2019
767 Rain 9 1003 93 10000 5.1 90 21:57 04.10.2019
768 Rain 9 1003 93 10000 4.6 100 21:38 04.10.2019
769 Rain 9 1003 93 10000 6.2 100 21:19 04.10.2019
770 Rain 9 1004 93 10000 6.2 100 20:55 04.10.2019
771 Rain 9 1004 93 10000 6.2 100 20:36 04.10.2019
772 Rain 9 1004 87 10000 5.1 100 20:18 04.10.2019
773 Rain 9 1004 93 10000 4.6 100 19:45 04.10.2019
774 Rain 9 1004 87 10000 3.6 110 19:27 04.10.2019
775 Rain 9 1004 87 10000 3.6 110 18:59 04.10.2019
776 Drizzle 9 1004 87 10000 4.6 120 18:39 04.10.2019
777 Rain 9 1004 93 10000 4.1 110 18:19 04.10.2019
778 Rain 9 1004 87 10000 3.6 110 17:57 04.10.2019
779 Rain 9 1004 87 10000 3.6 110 17:38 04.10.2019
780 Rain 10 1005 87 10000 3.1 120 17:19 04.10.2019
781 Rain 9 1005 87 10000 3.1 120 16:54 04.10.2019
782 Rain 10 1005 87 10000 3.1 130 16:36 04.10.2019
783 Rain 10 1006 81 10000 3.1 130 16:18 04.10.2019
784 Rain 10 1006 81 10000 3.1 130 15:54 04.10.2019
785 Rain 10 1006 81 10000 3.1 130 15:36 04.10.2019
786 Rain 10 1006 81 10000 3.6 130 15:18 04.10.2019
787 Rain 10 1006 81 10000 3.1 130 14:41 04.10.2019
788 Rain 11 1007 76 10000 3.1 150 14:22 04.10.2019
789 Rain 11 1007 76 10000 3.1 150 13:58 04.10.2019
790 Rain 11 1007 76 10000 3.1 150 13:40 04.10.2019
791 Rain 11 1007 81 10000 3.1 150 13:19 04.10.2019
792 Rain 11 1008 81 10000 3.1 150 12:45 04.10.2019
793 Rain 11 1008 81 10000 2.6 160 12:27 04.10.2019
794 Rain 11 1008 81 10000 2.6 160 12:27 04.10.2019
795 Rain 11 1009 87 10000 2.6 130 11:55 04.10.2019
796 Rain 11 1009 87 10000 2.6 130 11:37 04.10.2019
797 Rain 10 1009 87 10000 2.6 120 11:18 04.10.2019
798 Rain 10 1009 93 10000 2.6 120 10:39 04.10.2019
799 Rain 10 1009 93 8000 2.1 160 10:20 04.10.2019
800 Rain 9 1009 93 10000 2.1 150 09:45 04.10.2019
801 Rain 9 1010 93 10000 2.1 120 09:27 04.10.2019
802 Rain 9 1010 93 9000 2.1 120 08:56 04.10.2019
803 Clouds 9 1010 93 9000 2.1 120 08:37 04.10.2019
804 Clouds 9 1010 93 8000 2.1 150 08:19 04.10.2019
805 Clouds 8 1011 93 8000 1.5 100 07:43 04.10.2019
806 Clouds 9 1011 87 10000 1 0 07:21 04.10.2019
807 Clouds 9 1011 93 7000 1 120 06:42 04.10.2019
808 Clouds 9 1011 93 9000 1 0 06:24 04.10.2019
809 Clear 9 1011 93 10000 1.5 170 05:24 04.10.2019
810 Clear 9 1011 93 10000 1.5 170 04:56 04.10.2019
811 Clouds 9 1013 100 10000 1.5 190 03:47 04.10.2019
812 Clouds 9 1013 93 10000 1 130 02:53 04.10.2019
813 Clouds 9 1013 93 10000 1 130 02:53 04.10.2019
814 Clouds 9 1013 100 10000 1 0 01:55 04.10.2019
815 Clouds 9 1013 100 10000 1 0 01:29 04.10.2019
816 Clouds 9 1013 100 9000 1 90 00:57 04.10.2019
817 Clouds 9 1014 93 10000 0.5 110 23:55 03.10.2019
818 Clouds 9 1014 93 10000 0.5 110 23:37 03.10.2019
819 Clouds 9 1014 93 10000 1.5 240 23:18 03.10.2019
820 Clouds 9 1014 93 10000 1.5 240 23:18 03.10.2019
821 Clouds 9 1014 93 10000 1.5 240 23:18 03.10.2019
822 Clouds 9 1014 93 10000 1.5 240 23:18 03.10.2019
823 Clouds 9 1014 93 10000 1.5 240 22:56 03.10.2019
824 Clouds 10 1014 93 500 0.5 100 22:37 03.10.2019
825 Clouds 10 1015 93 10000 1.5 230 22:19 03.10.2019
826 Clouds 10 1015 100 600 0.5 110 21:56 03.10.2019
827 Clouds 10 1015 100 600 0.5 110 21:37 03.10.2019
828 Clouds 10 1015 93 10000 0.5 0 21:19 03.10.2019
829 Clouds 10 1015 93 10000 0.5 0 20:56 03.10.2019
830 Clouds 10 1015 93 10000 0.5 0 20:37 03.10.2019
831 Clouds 10 1015 93 10000 0.5 0 20:37 03.10.2019
832 Clouds 10 1014 93 10000 2.1 260 20:19 03.10.2019
833 Clouds 10 1014 93 10000 1.5 270 19:54 03.10.2019
834 Clouds 10 1014 93 10000 1.5 270 19:36 03.10.2019
835 Clear 11 1014 87 10000 3.1 250 19:18 03.10.2019
836 Clouds 11 1014 81 10000 2.6 270 18:40 03.10.2019
837 Clear 11 1014 81 10000 3.1 280 18:19 03.10.2019
838 Clear 11 1014 81 10000 3.1 280 18:19 03.10.2019
839 Clear 12 1014 81 10000 3.1 280 17:59 03.10.2019
840 Rain 12 1014 81 10000 3.1 290 17:41 03.10.2019
841 Rain 12 1014 81 10000 3.6 290 17:20 03.10.2019
842 Rain 12 1014 82 10000 2.6 310 16:54 03.10.2019
843 Rain 12 1014 82 10000 2.6 310 16:36 03.10.2019
844 Rain 12 1014 87 10000 3.1 300 16:18 03.10.2019
845 Rain 12 1014 76 8000 4.6 290 15:41 03.10.2019
846 Clouds 12 1014 71 10000 5.7 280 15:23 03.10.2019
847 Clouds 12 1014 81 10000 5.7 280 14:56 03.10.2019
848 Clouds 12 1014 81 10000 5.7 280 14:56 03.10.2019
849 Clouds 12 1014 81 10000 5.7 280 14:36 03.10.2019
850 Clouds 13 1014 76 10000 4.1 290 14:18 03.10.2019
851 Rain 12 1014 81 10000 4.6 280 13:43 03.10.2019
852 Rain 12 1014 71 10000 4.1 310 13:22 03.10.2019
853 Rain 12 1014 71 10000 4.1 310 12:58 03.10.2019
854 Clouds 12 1014 71 10000 4.6 300 12:39 03.10.2019
855 Clouds 12 1014 76 10000 5.1 320 12:19 03.10.2019
856 Clouds 12 1014 76 10000 5.1 320 12:19 03.10.2019
857 Clouds 12 1014 76 10000 5.1 320 11:57 03.10.2019
858 Clouds 12 1014 76 10000 5.1 320 11:38 03.10.2019
859 Clouds 12 1014 76 10000 4.6 320 11:20 03.10.2019
860 Clouds 11 1014 76 10000 4.6 320 10:56 03.10.2019
861 Clouds 11 1014 76 10000 6.2 310 10:37 03.10.2019
862 Clouds 11 1014 81 10000 5.1 300 10:18 03.10.2019
863 Clouds 11 1014 81 10000 5.1 300 09:56 03.10.2019
864 Clouds 10 1013 87 10000 5.1 300 09:37 03.10.2019
865 Clouds 10 1013 93 10000 4.6 290 09:19 03.10.2019
866 Clouds 10 1013 93 10000 4.1 290 08:42 03.10.2019
867 Rain 9 1013 93 10000 4.6 300 08:23 03.10.2019
868 Clouds 9 1013 93 10000 3.1 270 07:42 03.10.2019
869 Clouds 9 1013 93 10000 3.1 270 07:42 03.10.2019
870 Clouds 10 1013 93 10000 4.6 280 07:20 03.10.2019
871 Clouds 9 1012 93 10000 3.1 260 06:52 03.10.2019
872 Clouds 9 1013 93 10000 4.6 280 06:27 03.10.2019
873 Rain 9 1012 93 10000 2.1 260 05:48 03.10.2019
874 Clouds 9 1012 93 10000 5.1 280 05:27 03.10.2019
875 Rain 9 1011 93 10000 2.6 270 04:44 03.10.2019
876 Rain 9 1011 93 10000 3.6 280 03:54 03.10.2019
877 Rain 10 1012 93 10000 6.7 280 03:19 03.10.2019
878 Rain 9 1011 93 10000 7.7 270 02:22 03.10.2019
879 Rain 10 1010 93 3400 3.6 270 01:40 03.10.2019
880 Rain 9 1010 93 10000 5.1 250 00:53 03.10.2019
881 Clouds 9 1011 87 10000 6.7 270 00:31 03.10.2019
882 Rain 9 1011 81 10000 6.7 260 23:57 02.10.2019
883 Clouds 9 1009 81 9000 5.7 250 23:37 02.10.2019
884 Clouds 9 1010 81 10000 6.7 260 23:18 02.10.2019
885 Rain 9 1009 76 10000 6.2 250 22:42 02.10.2019
886 Clouds 9 1010 81 10000 5.1 250 22:20 02.10.2019
887 Clear 9 1009 76 10000 5.1 260 21:55 02.10.2019
888 Clear 9 1009 76 10000 5.1 260 21:37 02.10.2019
889 Clear 9 1009 76 10000 4.1 260 21:18 02.10.2019
890 Clear 9 1009 76 10000 3.6 260 20:55 02.10.2019
891 Clear 9 1009 76 10000 3.6 260 20:55 02.10.2019
892 Clear 9 1009 76 10000 3.6 260 20:55 02.10.2019
893 Clear 9 1009 76 10000 3.6 260 20:55 02.10.2019
894 Clear 9 1009 76 10000 3.6 260 20:37 02.10.2019
895 Clear 9 1009 76 10000 3.6 250 20:19 02.10.2019
896 Clear 9 1009 76 10000 3.1 250 19:44 02.10.2019
897 Clear 10 1009 76 10000 4.1 270 19:23 02.10.2019
898 Clouds 10 1009 71 10000 4.6 270 18:59 02.10.2019
899 Clouds 10 1009 71 10000 4.6 270 18:40 02.10.2019
900 Clouds 11 1009 71 10000 4.1 270 18:21 02.10.2019
901 Clouds 11 1009 71 10000 6.2 290 17:58 02.10.2019
902 Clouds 11 1009 71 10000 6.2 290 17:39 02.10.2019
903 Clouds 11 1009 71 10000 6.2 290 17:39 02.10.2019
904 Rain 11 1008 71 10000 5.7 290 17:20 02.10.2019
905 Rain 11 1008 71 10000 5.7 290 16:57 02.10.2019
906 Clouds 11 1008 76 10000 4.1 250 16:37 02.10.2019
907 Rain 12 1007 58 10000 5.1 280 16:19 02.10.2019
908 Rain 13 1007 58 10000 5.1 280 15:55 02.10.2019
909 Rain 12 1007 71 10000 3.1 280 15:37 02.10.2019
910 Rain 13 1007 71 10000 3.1 280 15:18 02.10.2019
911 Rain 12 1007 71 10000 8.2 300 14:43 02.10.2019
912 Rain 13 1007 58 10000 4.6 320 14:23 02.10.2019
913 Rain 12 1007 66 10000 5.1 290 13:57 02.10.2019
914 Rain 12 1007 71 10000 5.7 290 13:39 02.10.2019
915 Rain 13 1007 71 10000 5.7 290 13:21 02.10.2019
916 Clouds 12 1006 76 10000 5.7 300 12:40 02.10.2019
917 Clouds 12 1006 76 10000 5.7 300 12:22 02.10.2019
918 Clouds 12 1006 76 10000 5.7 300 12:22 02.10.2019
919 Clouds 11 1006 76 10000 5.1 280 11:59 02.10.2019
920 Clouds 11 1006 87 10000 4.1 290 11:41 02.10.2019
921 Clouds 10 1006 87 10000 4.1 290 11:21 02.10.2019
922 Clouds 9 1005 93 10000 3.1 290 10:39 02.10.2019
923 Clouds 9 1005 93 10000 3.1 290 10:19 02.10.2019
924 Clouds 9 1005 93 10000 3.1 290 10:19 02.10.2019
925 Clouds 8 1004 93 10000 3.1 280 09:42 02.10.2019
926 Clouds 8 1004 93 10000 3.1 280 09:20 02.10.2019
927 Clear 8 1003 93 10000 2.1 270 08:57 02.10.2019
928 Clear 8 1003 87 10000 1.5 290 08:39 02.10.2019
929 Clear 8 1003 87 10000 1.5 290 08:20 02.10.2019
930 Clouds 8 1002 93 10000 1 0 07:55 02.10.2019
931 Rain 8 1002 87 10000 1.5 0 07:36 02.10.2019
932 Rain 8 1002 87 10000 1.5 0 07:36 02.10.2019
933 Rain 8 1002 87 10000 1.5 0 07:18 02.10.2019
934 Rain 8 1002 93 10000 0.5 0 06:27 02.10.2019
935 Rain 8 1001 93 8000 1 330 05:51 02.10.2019
936 Rain 8 1001 93 9000 3.6 360 05:22 02.10.2019
937 Rain 9 1001 93 6000 3.1 360 04:18 02.10.2019
938 Rain 10 1001 93 10000 3.6 10 03:45 02.10.2019
939 Rain 11 1000 93 10000 4.6 30 02:38 02.10.2019
940 Rain 12 1000 93 10000 4.6 30 02:20 02.10.2019
941 Rain 12 999 93 8000 3.1 20 00:55 02.10.2019
942 Rain 13 999 93 8000 3.6 30 00:30 02.10.2019
943 Rain 13 999 93 5000 3.6 10 23:57 01.10.2019
944 Rain 13 999 93 7000 3.1 360 23:39 01.10.2019
945 Rain 14 999 93 7000 3.1 360 23:21 01.10.2019
946 Rain 14 999 93 10000 2.1 350 22:58 01.10.2019
947 Rain 14 999 93 10000 2.1 350 22:58 01.10.2019
948 Rain 14 999 93 10000 2.1 350 22:58 01.10.2019
949 Clouds 14 999 77 10000 4.6 250 22:38 01.10.2019
950 Clouds 14 999 77 10000 4.6 250 22:38 01.10.2019
951 Clouds 14 999 77 10000 4.6 250 22:18 01.10.2019
952 Rain 15 998 77 10000 3.6 240 21:43 01.10.2019
953 Rain 15 998 77 10000 3.6 240 21:43 01.10.2019
954 Rain 15 998 77 10000 3.6 240 21:23 01.10.2019
955 Rain 15 998 77 10000 2.6 250 20:59 01.10.2019
956 Rain 16 998 77 10000 3.6 240 20:39 01.10.2019
957 Clouds 16 998 77 10000 3.6 240 20:21 01.10.2019
958 Clouds 16 998 77 10000 3.6 250 19:59 01.10.2019
959 Clouds 16 998 72 10000 5.7 260 19:41 01.10.2019
960 Clouds 17 998 72 10000 5.7 260 19:23 01.10.2019
961 Clouds 17 998 72 10000 7.2 250 18:56 01.10.2019
962 Clouds 17 998 72 10000 6.2 260 18:38 01.10.2019
963 Clouds 17 998 72 10000 6.2 260 18:19 01.10.2019
964 Clouds 17 998 72 10000 6.7 250 17:54 01.10.2019
965 Clouds 17 998 72 10000 6.2 250 17:36 01.10.2019
966 Clouds 17 998 72 10000 6.2 250 17:18 01.10.2019
967 Clouds 18 998 72 10000 6.2 250 16:41 01.10.2019
968 Clouds 18 998 72 10000 6.2 250 16:41 01.10.2019
969 Clouds 18 998 77 10000 6.2 260 16:22 01.10.2019
970 Clouds 18 998 77 10000 7.2 240 15:59 01.10.2019
971 Clouds 18 998 82 10000 6.2 240 15:40 01.10.2019
972 Clouds 18 998 82 10000 6.2 240 15:21 01.10.2019
973 Clouds 17 998 87 10000 6.2 240 14:40 01.10.2019
974 Clouds 16 998 87 10000 6.2 230 14:20 01.10.2019
975 Clouds 16 999 87 10000 5.7 240 13:57 01.10.2019
976 Clouds 16 999 87 10000 5.7 240 13:57 01.10.2019
977 Clouds 16 999 87 10000 5.7 230 13:38 01.10.2019
978 Clouds 16 999 87 10000 5.7 230 13:18 01.10.2019
979 Rain 15 999 93 10000 6.2 230 12:56 01.10.2019
980 Rain 15 999 93 10000 5.7 230 12:38 01.10.2019
981 Rain 14 999 93 10000 5.7 230 12:18 01.10.2019
982 Rain 15 999 93 10000 5.1 220 11:57 01.10.2019
983 Drizzle 14 999 87 10000 4.6 230 11:37 01.10.2019
984 Drizzle 14 999 87 10000 4.6 230 11:18 01.10.2019
985 Drizzle 14 1000 93 10000 3.6 230 10:48 01.10.2019
986 Drizzle 14 1000 93 10000 3.1 210 10:28 01.10.2019
987 Drizzle 13 1000 87 10000 2.1 220 09:47 01.10.2019
988 Rain 13 1000 93 5000 2.1 200 09:27 01.10.2019
989 Rain 12 1001 93 10000 2.1 150 08:56 01.10.2019
990 Rain 12 1001 93 5000 2.1 120 08:38 01.10.2019
991 Rain 12 1001 93 5000 2.1 120 08:20 01.10.2019
992 Rain 12 1002 87 10000 2.1 130 07:42 01.10.2019
993 Rain 12 1002 87 10000 2.1 130 07:22 01.10.2019
994 Rain 12 1002 93 6000 1 0 06:45 01.10.2019
995 Rain 12 1002 93 10000 2.6 170 06:18 01.10.2019
996 Rain 12 1004 87 10000 2.6 170 05:45 01.10.2019
997 Rain 12 1005 93 8000 1.5 120 04:49 01.10.2019
998 Rain 12 1005 100 8000 1 140 04:26 01.10.2019
999 Rain 11 1007 87 10000 1.5 200 02:26 01.10.2019
1000 Rain 11 1008 93 10000 1 190 01:57 01.10.2019
1001 Clouds 12 1008 93 10000 1.5 220 00:53 01.10.2019
1002 Clear 12 1009 87 10000 2.1 230 00:26 01.10.2019
1003 Clouds 12 1009 87 10000 2.6 230 23:55 30.09.2019
1004 Clear 12 1009 87 10000 3.1 240 23:37 30.09.2019
1005 Clear 12 1009 87 10000 3.1 240 23:19 30.09.2019
1006 Clear 12 1009 76 10000 4.6 260 22:42 30.09.2019
1007 Clear 13 1009 76 10000 4.6 260 22:24 30.09.2019
1008 Clouds 13 1009 71 10000 4.6 260 21:57 30.09.2019
1009 Clear 13 1009 67 10000 6.2 280 21:38 30.09.2019
1010 Clear 13 1009 67 10000 6.2 280 21:19 30.09.2019
1011 Clear 13 1009 67 10000 6.2 280 21:19 30.09.2019
1012 Clear 14 1009 67 10000 6.2 280 20:57 30.09.2019
1013 Clear 14 1008 67 10000 5.1 270 20:38 30.09.2019
1014 Clear 14 1008 67 10000 5.1 270 20:20 30.09.2019
1015 Clear 14 1008 67 10000 5.7 270 19:56 30.09.2019
1016 Clear 14 1008 71 10000 6.7 280 19:38 30.09.2019
1017 Clear 14 1008 71 10000 6.7 280 19:19 30.09.2019
1018 Clouds 15 1008 67 10000 8.2 270 18:57 30.09.2019
1019 Clouds 15 1008 67 10000 8.2 270 18:57 30.09.2019
1020 Clouds 15 1007 63 10000 8.2 280 18:37 30.09.2019
1021 Clouds 16 1007 63 10000 8.2 280 18:19 30.09.2019
1022 Clear 16 1007 59 10000 9.8 270 17:43 30.09.2019
1023 Clear 16 1007 59 10000 9.8 270 17:23 30.09.2019
1024 Clouds 16 1007 55 10000 9.8 280 16:57 30.09.2019
1025 Clouds 16 1006 59 10000 8.2 280 16:39 30.09.2019
1026 Clouds 16 1006 59 10000 8.2 280 16:19 30.09.2019
1027 Clouds 16 1006 59 10000 8.2 280 16:19 30.09.2019
1028 Clouds 16 1006 63 10000 9.3 290 15:58 30.09.2019
1029 Clouds 16 1006 67 10000 8.2 280 15:38 30.09.2019
1030 Clouds 16 1006 67 10000 8.2 280 15:19 30.09.2019
1031 Clouds 16 1005 63 10000 10.8 290 14:57 30.09.2019
1032 Clouds 16 1005 72 10000 9.3 280 14:37 30.09.2019
1033 Clouds 16 1005 72 10000 9.3 280 14:19 30.09.2019
1034 Clouds 16 1005 67 10000 9.3 280 13:58 30.09.2019
1035 Clouds 15 1005 76 10000 9.3 280 13:39 30.09.2019
1036 Clouds 16 1005 76 10000 9.3 280 13:20 30.09.2019
1037 Clouds 15 1004 82 10000 8.2 270 12:44 30.09.2019
1038 Clouds 15 1003 76 10000 9.3 280 12:23 30.09.2019
1039 Clouds 14 1002 76 10000 9.8 280 11:59 30.09.2019
1040 Clouds 14 1002 76 10000 9.8 280 11:59 30.09.2019
1041 Rain 14 1002 76 10000 9.8 280 11:40 30.09.2019
1042 Rain 14 1002 76 10000 9.8 280 11:20 30.09.2019
1043 -273 0 0 0 0 0 10:56 30.09.2019
1044 Clouds 13 1000 82 10000 9.3 290 10:37 30.09.2019
1045 Clouds 13 1000 82 10000 9.3 290 10:37 30.09.2019
1046 Clouds 13 1000 82 10000 9.3 290 10:18 30.09.2019
1047 Rain 13 998 87 10000 10.3 280 09:40 30.09.2019
1048 Rain 13 998 87 10000 10.3 280 09:21 30.09.2019
1049 Rain 13 997 87 10000 12.3 280 08:52 30.09.2019
1050 Drizzle 13 995 93 6000 12.3 280 08:33 30.09.2019
1051 Drizzle 13 993 87 7000 15.4 270 07:59 30.09.2019
1052 Drizzle 13 992 82 7000 10.8 250 07:40 30.09.2019
1053 Drizzle 13 992 82 7000 10.8 250 07:18 30.09.2019
1054 Rain 14 992 87 10000 11.3 260 06:42 30.09.2019
1055 Drizzle 14 992 87 10000 11.3 260 06:23 30.09.2019
1056 Clouds 15 992 93 10000 8.2 250 05:40 30.09.2019
1057 Rain 15 991 87 8000 6.7 230 02:53 30.09.2019
1058 Rain 15 992 93 10000 5.1 240 02:25 30.09.2019
1059 Rain 15 992 87 10000 4.6 230 01:31 30.09.2019
1060 Clouds 15 992 93 10000 4.1 210 00:38 30.09.2019
1061 Clouds 15 992 93 10000 4.1 210 00:19 30.09.2019
1062 Rain 15 993 93 10000 4.6 210 23:42 29.09.2019
1063 Rain 15 993 93 10000 4.6 210 23:21 29.09.2019
1064 Rain 15 993 93 10000 4.6 200 22:55 29.09.2019
1065 Rain 15 994 93 10000 4.1 210 22:36 29.09.2019
1066 Rain 15 994 93 10000 4.1 210 22:36 29.09.2019
1067 Rain 15 994 93 10000 4.1 210 22:18 29.09.2019
1068 Rain 16 994 93 10000 4.1 200 21:56 29.09.2019
1069 Rain 15 995 87 10000 5.7 220 21:37 29.09.2019
1070 Rain 15 995 87 10000 5.7 220 21:18 29.09.2019
1071 Rain 16 996 77 10000 5.7 240 20:43 29.09.2019
1072 Rain 16 996 77 10000 5.7 240 20:20 29.09.2019
1073 Rain 16 996 77 10000 5.1 230 19:58 29.09.2019
1074 Drizzle 16 997 77 10000 7.2 240 19:37 29.09.2019
1075 Drizzle 16 997 77 10000 7.2 240 19:19 29.09.2019
1076 Drizzle 16 997 72 10000 6.7 230 18:56 29.09.2019
1077 Drizzle 16 997 72 10000 6.7 230 18:56 29.09.2019
1078 Drizzle 16 997 72 10000 6.7 230 18:56 29.09.2019
1079 Drizzle 16 997 72 10000 6.7 230 18:56 29.09.2019
1080 Drizzle 16 997 72 10000 6.7 230 18:56 29.09.2019
1081 Rain 16 997 77 10000 5.7 240 18:38 29.09.2019
1082 Rain 16 997 77 10000 5.7 240 18:19 29.09.2019
1083 Drizzle 16 997 87 6000 5.1 210 17:57 29.09.2019
1084 Drizzle 16 998 82 10000 6.2 230 17:38 29.09.2019
1085 Drizzle 16 998 82 10000 6.2 230 17:19 29.09.2019
1086 Drizzle 16 999 72 10000 5.7 230 16:58 29.09.2019
1087 Rain 16 999 72 10000 7.2 240 16:40 29.09.2019
1088 Rain 16 999 72 10000 7.2 240 16:19 29.09.2019
1089 Clouds 17 999 68 10000 5.1 230 15:57 29.09.2019
1090 Clouds 17 1000 77 10000 4.1 210 15:36 29.09.2019
1091 Clouds 17 1000 77 10000 4.1 210 15:18 29.09.2019
1092 Clouds 16 1000 77 10000 4.1 220 14:55 29.09.2019
1093 Clouds 16 1001 77 10000 4.1 200 14:36 29.09.2019
1094 Clouds 15 1001 77 10000 4.1 200 14:18 29.09.2019
1095 Rain 15 1002 82 10000 2.6 180 13:42 29.09.2019
1096 Rain 15 1002 82 10000 2.6 180 13:19 29.09.2019
1097 Drizzle 15 1003 82 10000 2.6 200 12:58 29.09.2019
1098 Rain 15 1003 87 10000 2.6 160 12:40 29.09.2019
1099 Rain 15 1003 87 10000 2.6 160 12:21 29.09.2019
1100 Rain 15 1004 87 10000 3.6 180 11:58 29.09.2019
1101 Rain 14 1004 93 10000 2.6 150 11:40 29.09.2019
1102 Rain 14 1004 93 10000 2.6 150 11:19 29.09.2019
1103 Rain 14 1005 93 10000 2.6 150 10:57 29.09.2019
1104 Rain 13 1005 87 10000 2.1 160 10:38 29.09.2019
1105 Rain 13 1005 87 10000 2.1 160 10:19 29.09.2019
1106 Rain 13 1006 87 10000 3.6 210 09:56 29.09.2019
1107 Rain 13 1006 87 10000 3.6 210 09:37 29.09.2019
1108 Rain 13 1006 87 10000 3.6 210 09:18 29.09.2019
1109 Rain 13 1006 87 10000 2.6 200 08:42 29.09.2019
1110 Rain 13 1006 87 10000 2.6 200 08:21 29.09.2019
1111 Rain 13 1006 87 10000 4.6 230 07:43 29.09.2019
1112 Rain 13 1006 87 10000 4.6 230 07:25 29.09.2019
1113 Rain 14 1006 76 10000 4.6 230 06:49 29.09.2019
1114 Clouds 14 1007 76 10000 4.1 220 05:58 29.09.2019
1115 Clouds 14 1008 76 10000 4.1 240 04:45 29.09.2019
1116 Clouds 14 1008 76 10000 4.1 240 04:45 29.09.2019
1117 Clouds 14 1008 76 10000 5.1 240 04:23 29.09.2019
1118 Clouds 14 1008 76 10000 5.7 230 02:58 29.09.2019
1119 Clouds 14 1009 77 10000 5.7 240 02:19 29.09.2019
1120 Clouds 14 1009 77 10000 6.2 240 01:42 29.09.2019
1121 Clouds 14 1008 77 10000 6.7 220 00:59 29.09.2019
1122 Clouds 14 1009 77 10000 5.7 230 00:40 29.09.2019
1123 Clouds 14 1009 77 10000 5.7 230 00:19 29.09.2019
1124 Clouds 14 1009 77 10000 6.2 230 23:37 28.09.2019
1125 Clouds 14 1009 77 10000 6.2 230 23:37 28.09.2019
1126 Clouds 15 1009 77 10000 6.2 230 23:19 28.09.2019
1127 Clouds 15 1009 77 10000 6.2 230 22:40 28.09.2019
1128 Clouds 15 1009 77 10000 6.2 230 22:22 28.09.2019
1129 Clouds 15 1009 77 10000 5.7 210 21:58 28.09.2019
1130 Clouds 15 1009 77 10000 5.7 210 21:58 28.09.2019
1131 Clouds 15 1010 77 10000 5.1 240 21:40 28.09.2019
1132 Clouds 15 1010 77 10000 5.1 240 21:21 28.09.2019
1133 Clouds 15 1010 77 10000 4.6 230 20:58 28.09.2019
1134 Clouds 15 1010 77 10000 4.6 230 20:58 28.09.2019
1135 Clouds 15 1009 77 10000 3.6 240 20:39 28.09.2019
1136 Clouds 15 1009 77 10000 3.6 240 20:20 28.09.2019
1137 Clouds 15 1009 82 10000 3.1 230 19:57 28.09.2019
1138 Clouds 15 1009 82 10000 2.6 250 19:38 28.09.2019
1139 Clouds 15 1009 82 10000 2.6 250 19:20 28.09.2019
1140 Clear 15 1009 77 10000 3.6 250 18:57 28.09.2019
1141 Rain 16 1009 82 10000 4.1 260 18:39 28.09.2019
1142 Rain 16 1009 82 10000 4.1 260 18:20 28.09.2019
1143 Rain 16 1010 77 10000 4.6 240 17:56 28.09.2019
1144 Rain 16 1010 77 10000 5.1 270 17:38 28.09.2019
1145 Rain 17 1010 77 10000 5.1 270 17:19 28.09.2019
1146 Clear 17 1010 72 10000 5.1 260 16:44 28.09.2019
1147 Clouds 17 1010 82 10000 4.6 260 16:25 28.09.2019
1148 Drizzle 17 1010 87 7000 6.7 280 15:42 28.09.2019
1149 Clouds 17 1010 72 10000 9.3 250 15:23 28.09.2019
1150 Clouds 17 1010 63 10000 7.2 250 14:58 28.09.2019
1151 Clouds 17 1010 68 10000 7.2 240 14:40 28.09.2019
1152 Clouds 17 1010 68 10000 7.2 240 14:21 28.09.2019
1153 Clouds 17 1010 72 10000 5.7 250 13:58 28.09.2019
1154 Clouds 17 1010 72 10000 6.7 250 13:40 28.09.2019
1155 Clouds 17 1010 72 10000 6.7 250 13:20 28.09.2019
1156 Clouds 16 1010 82 10000 5.7 260 12:46 28.09.2019
1157 Rain 16 1010 82 10000 7.2 250 12:20 28.09.2019
1158 Clouds 16 1010 77 10000 6.2 240 11:59 28.09.2019
1159 Rain 16 1010 82 10000 5.7 240 11:40 28.09.2019
1160 Rain 16 1010 82 10000 5.7 240 11:40 28.09.2019
1161 Rain 16 1010 82 10000 5.7 240 11:19 28.09.2019
1162 Clouds 16 1010 77 10000 6.2 240 10:44 28.09.2019
1163 Clouds 15 1010 77 10000 4.6 230 10:21 28.09.2019
1164 Clouds 15 1009 82 10000 5.1 220 09:58 28.09.2019
1165 Clouds 15 1009 82 10000 5.1 220 09:58 28.09.2019
1166 Rain 15 1009 77 10000 5.1 230 09:40 28.09.2019
1167 Rain 15 1009 77 10000 5.1 230 09:18 28.09.2019
1168 Clouds 14 1008 87 10000 4.6 210 08:47 28.09.2019
1169 Rain 14 1009 87 6000 6.2 230 08:29 28.09.2019
1170 Clouds 14 1008 82 10000 3.1 200 07:56 28.09.2019
1171 Clouds 14 1008 77 10000 3.6 220 07:38 28.09.2019
1172 Clouds 14 1008 77 10000 3.6 220 07:18 28.09.2019
1173 Clouds 14 1008 82 10000 3.6 200 06:38 28.09.2019
1174 Clouds 14 1008 82 10000 3.6 200 06:20 28.09.2019
1175 Clouds 14 1008 82 10000 2.6 190 05:25 28.09.2019
1176 Clouds 14 1008 82 10000 3.6 180 04:54 28.09.2019
1177 Clear 14 1008 82 10000 3.1 180 04:29 28.09.2019
1178 Clear 14 1008 77 10000 3.1 180 03:41 28.09.2019
1179 Clouds 14 1008 82 10000 3.1 180 02:59 28.09.2019
1180 Clear 14 1008 77 10000 3.1 190 02:40 28.09.2019
1181 Clear 14 1008 77 10000 3.1 190 02:22 28.09.2019
1182 Clear 14 1008 72 10000 3.6 190 01:43 28.09.2019
1183 Clear 14 1008 72 10000 3.6 190 01:19 28.09.2019
1184 Clear 14 1008 77 10000 3.6 200 00:46 28.09.2019
1185 Clouds 14 1008 77 10000 4.1 200 00:28 28.09.2019
1186 Clear 14 1008 72 10000 3.6 190 23:39 27.09.2019
1187 Clear 14 1008 72 10000 3.6 190 23:21 27.09.2019
1188 Clouds 14 1008 82 10000 2.1 180 22:57 27.09.2019
1189 Clear 14 1009 87 10000 2.1 170 22:38 27.09.2019
1190 Clear 14 1009 87 10000 2.1 170 22:18 27.09.2019
1191 Clear 14 1009 87 10000 2.1 180 21:54 27.09.2019
1192 Clear 14 1009 87 10000 2.1 170 21:36 27.09.2019
1193 Clear 14 1009 87 10000 2.1 170 21:18 27.09.2019
1194 Clear 15 1008 87 10000 1 190 20:41 27.09.2019
1195 Clear 15 1008 87 10000 1 190 20:20 27.09.2019
1196 Clear 15 1008 77 10000 1.5 0 19:59 27.09.2019
1197 Clear 16 1008 67 10000 3.1 250 19:39 27.09.2019
1198 Clear 16 1008 67 10000 3.1 250 19:21 27.09.2019
1199 Clouds 17 1008 63 10000 4.1 250 18:55 27.09.2019
1200 Clear 18 1008 59 10000 4.6 250 18:37 27.09.2019
1201 Clear 18 1008 59 10000 4.6 250 18:19 27.09.2019
1202 Clouds 19 1008 63 10000 3.6 240 17:40 27.09.2019
1203 Clouds 19 1008 63 10000 3.6 240 17:40 27.09.2019
1204 Clouds 19 1008 63 10000 3.6 240 17:20 27.09.2019
1205 Clouds 19 1008 68 10000 4.6 220 16:59 27.09.2019
1206 Clouds 19 1008 68 10000 4.6 220 16:41 27.09.2019
1207 Clouds 19 1008 63 10000 3.6 260 16:19 27.09.2019
1208 Clouds 19 1008 77 10000 3.6 250 15:55 27.09.2019
1209 Clouds 19 1008 72 10000 4.6 250 15:37 27.09.2019
1210 Clouds 19 1008 72 10000 4.6 250 15:19 27.09.2019
1211 Clouds 18 1008 77 10000 3.6 240 14:56 27.09.2019
1212 Clouds 18 1008 82 10000 3.6 230 14:37 27.09.2019
1213 Clouds 18 1008 82 10000 3.6 230 14:18 27.09.2019
1214 Clouds 17 1009 87 10000 4.1 230 13:42 27.09.2019
1215 Clouds 17 1009 87 10000 4.1 230 13:22 27.09.2019
1216 Clouds 17 1009 87 10000 4.1 230 13:22 27.09.2019
1217 Clouds 16 1008 87 10000 3.6 220 12:59 27.09.2019
1218 Rain 16 1009 87 10000 3.6 230 12:41 27.09.2019
1219 Rain 15 1009 87 10000 3.6 230 12:20 27.09.2019
1220 Clouds 15 1009 93 10000 2.6 0 11:40 27.09.2019
1221 Clouds 15 1009 93 10000 2.6 0 11:22 27.09.2019
1222 Rain 15 1009 93 10000 2.1 210 10:57 27.09.2019
1223 Rain 14 1009 87 10000 2.1 200 10:39 27.09.2019
1224 Rain 14 1009 87 10000 2.1 200 10:20 27.09.2019
1225 Rain 14 1009 93 10000 2.6 250 09:42 27.09.2019
1226 Rain 14 1009 93 10000 2.6 250 09:22 27.09.2019
1227 Rain 14 1008 87 10000 2.6 230 08:58 27.09.2019
1228 Rain 14 1008 87 10000 2.6 230 08:58 27.09.2019
1229 Clouds 14 1008 87 10000 3.6 230 08:39 27.09.2019
1230 Clouds 14 1008 87 10000 3.6 230 08:20 27.09.2019
1231 Clouds 14 1008 87 10000 1.5 220 07:46 27.09.2019
1232 Clouds 14 1008 87 10000 3.6 240 07:24 27.09.2019
1233 Drizzle 15 1007 93 10000 4.1 220 06:43 27.09.2019
1234 Drizzle 15 1007 93 10000 4.1 220 06:25 27.09.2019
1235 Drizzle 15 1007 93 10000 3.6 210 05:51 27.09.2019
1236 Rain 16 1008 87 10000 4.6 240 05:33 27.09.2019
1237 Drizzle 16 1008 100 8000 3.1 180 03:56 27.09.2019
1238 Drizzle 16 1008 93 5000 3.1 170 03:34 27.09.2019
1239 Rain 16 1008 93 4000 2.6 160 01:52 27.09.2019
1240 Drizzle 16 1008 93 10000 2.6 170 01:28 27.09.2019
1241 Rain 16 1009 93 10000 2.6 170 00:30 27.09.2019
1242 Rain 16 1009 93 10000 2.1 150 23:56 26.09.2019
1243 Clouds 16 1009 93 10000 3.1 160 23:38 26.09.2019
1244 Clouds 16 1009 93 10000 3.1 160 23:18 26.09.2019
1245 Clouds 16 1009 93 10000 2.6 140 22:57 26.09.2019
1246 Clouds 16 1010 93 10000 2.6 130 22:39 26.09.2019
1247 Clouds 16 1010 93 10000 2.6 130 22:18 26.09.2019
1248 Clouds 16 1010 93 10000 2.6 140 21:56 26.09.2019
1249 Drizzle 16 1010 93 10000 2.1 150 21:37 26.09.2019
1250 Drizzle 16 1010 93 10000 2.1 150 21:18 26.09.2019
1251 Rain 16 1010 93 10000 2.6 140 20:58 26.09.2019
1252 Rain 16 1010 93 10000 2.6 150 20:39 26.09.2019
1253 Rain 16 1010 93 10000 2.6 150 20:21 26.09.2019
1254 Drizzle 16 1010 87 10000 2.1 150 19:56 26.09.2019
1255 Drizzle 16 1010 87 10000 2.1 190 19:37 26.09.2019
1256 Drizzle 16 1010 87 10000 2.1 190 19:18 26.09.2019
1257 Drizzle 16 1010 87 10000 2.1 190 19:18 26.09.2019
1258 Drizzle 16 1010 77 10000 2.6 200 18:42 26.09.2019
1259 Drizzle 17 1010 77 10000 2.6 200 18:22 26.09.2019
1260 Drizzle 17 1010 72 10000 2.6 210 17:59 26.09.2019
1261 Drizzle 17 1010 72 10000 2.6 210 17:59 26.09.2019
1262 Rain 17 1010 68 10000 3.6 220 17:38 26.09.2019
1263 Rain 18 1010 68 10000 3.6 220 17:19 26.09.2019
1264 Clouds 18 1010 63 10000 4.1 200 16:56 26.09.2019
1265 Rain 18 1010 63 10000 4.1 220 16:37 26.09.2019
1266 Rain 18 1010 63 10000 4.1 220 16:18 26.09.2019
1267 Clouds 19 1010 63 10000 4.1 220 15:42 26.09.2019
1268 Clouds 19 1010 63 10000 4.1 220 15:24 26.09.2019
1269 Clouds 19 1010 63 10000 4.1 210 14:59 26.09.2019
1270 Clouds 19 1010 68 10000 4.6 220 14:41 26.09.2019
1271 Clouds 19 1010 68 10000 4.6 220 14:41 26.09.2019
1272 Clouds 19 1010 68 10000 4.6 220 14:22 26.09.2019
1273 Clouds 19 1010 68 10000 3.6 200 13:58 26.09.2019
1274 Clouds 19 1010 72 10000 4.1 210 13:39 26.09.2019
1275 Clouds 19 1010 72 10000 4.1 210 13:19 26.09.2019
1276 Clouds 19 1010 72 10000 4.6 220 12:55 26.09.2019
1277 Clouds 18 1010 77 10000 4.6 220 12:36 26.09.2019
1278 Clouds 18 1010 77 10000 4.6 220 12:18 26.09.2019
1279 Clouds 17 1010 87 10000 2.1 200 11:42 26.09.2019
1280 Clouds 17 1010 87 10000 2.1 200 11:20 26.09.2019
1281 Clear 16 1009 93 10000 2.1 180 10:43 26.09.2019
1282 Clear 16 1009 93 10000 2.1 180 10:25 26.09.2019
1283 Clear 15 1009 93 10000 2.1 180 09:59 26.09.2019
1284 Clear 15 1009 93 10000 2.1 180 09:59 26.09.2019
1285 Clear 15 1009 93 10000 2.1 180 09:41 26.09.2019
1286 Clouds 15 1009 93 10000 1.5 0 09:23 26.09.2019
1287 Clouds 14 1009 93 10000 1.5 0 08:54 26.09.2019
1288 Clouds 14 1009 93 10000 2.1 170 08:32 26.09.2019
1289 Drizzle 13 1009 93 8000 1.5 150 07:59 26.09.2019
1290 Mist 13 1008 100 5000 2.1 170 07:41 26.09.2019
1291 Mist 13 1008 100 5000 2.1 170 07:20 26.09.2019
1292 Drizzle 13 1008 93 9000 1 0 06:43 26.09.2019
1293 Drizzle 13 1008 100 7000 1.5 180 06:24 26.09.2019
1294 Rain 13 1007 93 10000 2.1 160 05:44 26.09.2019
1295 Rain 13 1007 93 10000 2.1 160 05:21 26.09.2019
1296 Fog 12 1007 93 10000 2.69 217.897 02:50 26.09.2019
1297 Fog 12 1007 100 10000 0.5 20 01:53 26.09.2019
1298 Fog 12 1007 93 10000 1 180 01:28 26.09.2019
1299 Fog 12 1007 93 10000 0.5 60 00:55 26.09.2019
1300 Fog 12 1007 93 10000 1 0 00:37 26.09.2019
1301 Fog 12 1007 93 10000 2.51 228.313 23:57 25.09.2019
1302 Clear 12 1007 100 10000 1 0 23:38 25.09.2019
1303 Clear 12 1007 100 10000 1 0 23:18 25.09.2019
1304 Clouds 13 1007 100 10000 0.5 0 22:41 25.09.2019
1305 Clouds 13 1007 100 10000 0.5 0 22:20 25.09.2019
1306 Clouds 13 1007 93 10000 1 0 21:57 25.09.2019
1307 Fog 13 1007 100 10000 0.5 0 21:39 25.09.2019
1308 Fog 14 1007 100 10000 0.5 0 21:19 25.09.2019
1309 Fog 14 1006 87 10000 1.5 0 20:58 25.09.2019
1310 Rain 14 1006 87 10000 1.5 160 20:39 25.09.2019
1311 Rain 15 1006 87 10000 1.5 160 20:21 25.09.2019
1312 Rain 15 1006 87 10000 1.5 160 19:54 25.09.2019
1313 Clouds 16 1006 87 10000 1 0 19:36 25.09.2019
1314 Clouds 16 1006 87 10000 1 0 19:18 25.09.2019
1315 Rain 16 1006 82 10000 2.6 220 18:55 25.09.2019
1316 Rain 16 1006 87 10000 2.6 200 18:37 25.09.2019
1317 Rain 17 1006 87 10000 2.6 200 18:18 25.09.2019
1318 Clouds 17 1005 72 10000 3.6 260 17:38 25.09.2019
1319 Clouds 18 1005 72 10000 3.6 260 17:19 25.09.2019
1320 Clouds 18 1005 77 10000 2.6 280 16:56 25.09.2019
1321 Clouds 18 1005 77 10000 4.1 270 16:36 25.09.2019
1322 Clouds 17 1005 77 10000 4.1 270 16:18 25.09.2019
1323 Clouds 18 1006 77 10000 3.6 260 15:41 25.09.2019
1324 Clouds 18 1006 77 10000 4.6 250 15:23 25.09.2019
1325 Clouds 17 1006 82 10000 4.1 260 14:57 25.09.2019
1326 Clouds 17 1006 82 10000 4.1 260 14:57 25.09.2019
1327 Clouds 17 1006 87 10000 3.6 260 14:39 25.09.2019
1328 Clouds 17 1006 87 10000 3.6 260 14:21 25.09.2019
1329 Clouds 16 1006 93 10000 3.6 260 13:56 25.09.2019
1330 Clouds 16 1006 93 10000 3.6 260 13:38 25.09.2019
1331 Clouds 16 1006 93 10000 3.6 260 13:19 25.09.2019
1332 Drizzle 15 1005 93 6000 3.6 260 12:42 25.09.2019
1333 Drizzle 15 1005 93 6000 3.6 260 12:23 25.09.2019
1334 Drizzle 15 1005 93 50 3.6 250 11:58 25.09.2019
1335 Drizzle 14 1005 93 2400 3.1 240 11:40 25.09.2019
1336 Drizzle 14 1005 93 2400 3.1 240 11:19 25.09.2019
1337 Drizzle 14 1005 93 2600 2.6 190 10:45 25.09.2019
1338 Drizzle 14 1005 93 5000 2.6 160 10:26 25.09.2019
1339 Drizzle 14 1004 100 5000 2.6 150 09:58 25.09.2019
1340 Drizzle 14 1004 100 4000 2.1 130 09:38 25.09.2019
1341 Drizzle 14 1004 100 4000 2.1 130 09:20 25.09.2019
1342 Drizzle 13 1004 93 2800 2.1 130 08:55 25.09.2019
1343 Drizzle 13 1004 93 2900 2.1 110 08:37 25.09.2019
1344 Drizzle 13 1004 93 2900 2.1 110 08:18 25.09.2019
1345 Drizzle 13 1005 93 10000 1 110 07:40 25.09.2019
1346 Drizzle 13 1005 93 10000 1 110 07:22 25.09.2019
1347 Rain 13 1005 93 10000 1 110 06:52 25.09.2019
1348 Rain 13 1005 93 5000 1.5 70 06:32 25.09.2019
1349 Rain 13 1005 93 10000 1 0 05:39 25.09.2019
1350 Rain 13 1005 87 10000 1 60 04:57 25.09.2019
1351 Clear 14 1006 77 10000 1.5 150 02:32 25.09.2019
1352 Clear 14 1006 76 10000 1.5 100 01:29 25.09.2019
1353 Clear 14 1007 72 10000 1 0 00:37 25.09.2019
1354 Clear 14 1007 72 10000 1 0 00:19 25.09.2019
1355 Clear 14 1007 67 10000 1 0 23:41 24.09.2019
1356 Clear 14 1007 67 10000 1 0 23:22 24.09.2019
1357 Clouds 14 1007 82 10000 0.5 40 22:57 24.09.2019
1358 Clear 14 1008 71 10000 1.5 90 22:38 24.09.2019
1359 Clear 14 1008 71 10000 1.5 90 22:18 24.09.2019
1360 Clear 15 1008 71 10000 1.5 90 21:55 24.09.2019
1361 Clear 15 1008 62 10000 1.5 90 21:37 24.09.2019
1362 Clear 15 1008 62 10000 1.5 90 21:18 24.09.2019
1363 Clear 15 1008 62 10000 1.5 90 21:18 24.09.2019
1364 Clear 16 1008 62 10000 1.5 90 20:56 24.09.2019
1365 Clear 16 1008 62 10000 1.5 90 20:56 24.09.2019
1366 Clear 16 1008 59 10000 1.6 178.174 20:38 24.09.2019
1367 Clear 16 1008 59 10000 1.6 178.174 20:19 24.09.2019
1368 Clear 17 1008 48 10000 2.1 220 19:42 24.09.2019
1369 Clear 18 1008 48 10000 2.1 220 19:20 24.09.2019
1370 Clouds 19 1009 45 10000 3.1 220 18:58 24.09.2019
1371 Clouds 20 1009 52 10000 3.1 210 18:39 24.09.2019
1372 Clouds 20 1009 52 10000 3.1 210 18:20 24.09.2019
1373 Clouds 20 1009 52 10000 3.1 210 18:20 24.09.2019
1374 Clouds 20 1009 52 10000 1.5 0 17:57 24.09.2019
1375 Clouds 20 1009 52 10000 2.6 160 17:38 24.09.2019
1376 Clouds 20 1009 52 10000 2.6 160 17:20 24.09.2019
1377 Clear 21 1010 52 10000 3.1 130 16:43 24.09.2019
1378 Clear 21 1010 52 10000 3.1 130 16:21 24.09.2019
1379 Clear 21 1010 52 10000 3.1 150 15:59 24.09.2019
1380 Clear 21 1010 52 10000 3.1 150 15:41 24.09.2019
1381 Clouds 21 1010 56 10000 3.1 160 15:23 24.09.2019
1382 Clouds 21 1011 64 10000 2.1 170 14:41 24.09.2019
1383 Clouds 20 1011 64 10000 2.1 170 14:20 24.09.2019
1384 Clouds 20 1012 64 10000 2.6 150 13:55 24.09.2019
1385 Clouds 20 1012 68 10000 2.6 170 13:37 24.09.2019
1386 Clouds 20 1012 68 10000 2.6 170 13:19 24.09.2019
1387 Clouds 20 1013 72 10000 2.6 150 12:40 24.09.2019
1388 Clouds 19 1013 72 10000 2.6 150 12:20 24.09.2019
1389 Clear 18 1013 82 10000 2.1 140 11:43 24.09.2019
1390 Clear 18 1013 82 10000 2.1 140 11:43 24.09.2019
1391 Clear 17 1013 82 10000 2.1 140 11:22 24.09.2019
1392 Clear 17 1013 82 10000 2.1 140 11:22 24.09.2019
1393 Clear 17 1014 87 10000 0.5 0 10:59 24.09.2019
1394 Clear 16 1014 87 10000 1 0 10:39 24.09.2019
1395 Clear 15 1014 87 10000 1 0 10:21 24.09.2019
1396 Clouds 15 1014 87 8000 2.1 200 09:55 24.09.2019
1397 Mist 14 1013 93 6000 2.1 190 09:37 24.09.2019
1398 Mist 14 1013 93 6000 2.1 190 09:18 24.09.2019
1399 Fog 13 1014 100 6000 1.7 215.103 08:41 24.09.2019
1400 Fog 12 1014 100 6000 2.04 218.255 08:23 24.09.2019
1401 Fog 12 1014 93 6000 2.04 218.255 07:58 24.09.2019
1402 Fog 12 1014 100 6000 0.5 0 07:40 24.09.2019
1403 Fog 12 1014 100 6000 0.5 0 07:22 24.09.2019
1404 Fog 13 1014 100 250 0.5 80 06:40 24.09.2019
1405 Fog 13 1014 100 250 0.5 80 06:19 24.09.2019
1406 Fog 13 1014 100 500 1.5 234.28 05:23 24.09.2019
1407 Clouds 14 1015 93 9000 1.5 234.28 03:47 24.09.2019
1408 Clouds 14 1015 93 9000 1.73 259.411 03:26 24.09.2019
1409 Clouds 14 1015 93 10000 1.73 259.411 02:45 24.09.2019
1410 Clouds 14 1015 100 10000 1 0 01:43 24.09.2019
1411 Clouds 15 1015 87 10000 1 290 00:42 24.09.2019
1412 Clouds 15 1015 87 10000 1 290 00:23 24.09.2019
1413 Rain 15 1015 93 10000 1 0 23:43 23.09.2019
1414 Rain 15 1015 93 10000 1 0 23:23 23.09.2019
1415 Rain 15 1015 93 10000 1 0 23:23 23.09.2019
1416 Rain 15 1015 93 10000 0.5 200 22:56 23.09.2019
1417 Rain 15 1015 87 10000 2.1 340 22:37 23.09.2019
1418 Rain 15 1015 87 10000 2.1 340 22:19 23.09.2019
1419 Rain 15 1016 87 10000 2.1 320 21:56 23.09.2019
1420 Clouds 15 1015 87 10000 1.5 330 21:37 23.09.2019
1421 Clouds 15 1015 87 10000 1.5 330 21:18 23.09.2019
1422 Clouds 16 1015 82 10000 2.1 290 20:40 23.09.2019
1423 Clouds 16 1015 82 10000 2.1 290 20:20 23.09.2019
1424 Clouds 16 1015 82 10000 2.6 310 19:56 23.09.2019
1425 Rain 16 1015 82 10000 3.1 290 19:38 23.09.2019
1426 Rain 16 1015 82 10000 3.1 290 19:20 23.09.2019
1427 Clouds 16 1014 87 10000 3.1 290 18:42 23.09.2019
1428 Clouds 17 1014 87 10000 3.1 290 18:21 23.09.2019
1429 Clouds 17 1014 87 10000 2.6 280 17:59 23.09.2019
1430 Clouds 17 1014 87 10000 3.1 290 17:39 23.09.2019
1431 Clouds 17 1014 87 10000 3.1 290 17:21 23.09.2019
1432 Clouds 17 1014 87 10000 3.1 290 16:59 23.09.2019
1433 Drizzle 17 1014 93 9000 3.1 300 16:39 23.09.2019
1434 Drizzle 17 1014 93 9000 3.1 300 16:21 23.09.2019
1435 Rain 17 1014 93 10000 3.6 310 15:58 23.09.2019
1436 Drizzle 17 1013 93 10000 4.1 300 15:39 23.09.2019
1437 Drizzle 17 1013 93 10000 4.1 300 15:19 23.09.2019
1438 Drizzle 17 1013 93 7000 4.6 290 14:57 23.09.2019
1439 Mist 17 1013 93 4000 4.6 280 14:36 23.09.2019
1440 Mist 16 1013 93 4000 4.6 280 14:18 23.09.2019
1441 Drizzle 16 1013 93 4000 2.1 290 13:40 23.09.2019
1442 Drizzle 16 1013 93 4000 2.1 290 13:19 23.09.2019
1443 Drizzle 16 1013 93 4000 2.1 290 13:19 23.09.2019
1444 Drizzle 16 1013 100 1800 2.6 280 12:59 23.09.2019
1445 Mist 16 1013 93 1500 3.1 260 12:40 23.09.2019
1446 Mist 16 1013 93 1500 3.1 260 12:21 23.09.2019
1447 Drizzle 16 1013 77 10000 3.6 260 11:45 23.09.2019
1448 Drizzle 16 1013 77 10000 3.1 300 11:27 23.09.2019
1449 Clouds 16 1012 72 10000 3.1 280 10:57 23.09.2019
1450 Drizzle 15 1012 63 10000 1.5 0 10:39 23.09.2019
1451 Drizzle 15 1012 63 10000 1.5 0 10:20 23.09.2019
1452 Clear 14 1011 71 10000 1.5 0 09:40 23.09.2019
1453 Clear 14 1011 71 10000 1.5 0 09:40 23.09.2019
1454 Clear 14 1011 71 10000 1.5 0 09:21 23.09.2019
1455 Clouds 14 1011 71 10000 1 80 08:58 23.09.2019
1456 Clear 12 1011 76 10000 2.1 80 08:38 23.09.2019
1457 Clear 12 1011 76 10000 2.1 80 08:18 23.09.2019
1458 Clear 11 1010 76 10000 1 0 07:34 23.09.2019
1459 Clouds 11 1010 71 10000 1 80 06:58 23.09.2019
1460 Clear 11 1010 76 10000 2.1 90 06:20 23.09.2019
1461 Clear 11 1010 76 10000 3.6 90 05:38 23.09.2019
1462 Clouds 11 1010 71 10000 1.5 80 04:58 23.09.2019
1463 Clouds 12 1010 66 10000 1.5 60 04:00 23.09.2019
1464 Clear 13 1009 67 10000 3.1 90 01:26 23.09.2019
1465 Clear 13 1009 67 10000 1.5 100 00:39 23.09.2019
1466 Clear 14 1009 67 10000 1.5 100 00:19 23.09.2019
1467 Clear 15 1009 62 10000 2.6 100 23:42 22.09.2019
1468 Clear 15 1009 62 10000 2.6 100 23:22 22.09.2019
1469 Clouds 15 1009 48 10000 2.6 70 22:56 22.09.2019
1470 Clear 16 1009 55 10000 2.1 90 22:37 22.09.2019
1471 Clear 16 1009 55 10000 2.1 90 22:19 22.09.2019
1472 Clear 18 1009 45 10000 4.1 90 21:43 22.09.2019
1473 Clear 18 1009 45 10000 4.1 90 21:43 22.09.2019
1474 Clear 18 1009 45 10000 4.1 90 21:21 22.09.2019
1475 Clear 19 1010 45 10000 3.6 100 20:46 22.09.2019
1476 Clear 20 1009 42 10000 4.1 100 20:28 22.09.2019
1477 Clear 20 1009 40 10000 4.1 110 19:59 22.09.2019
1478 Clear 21 1009 31 10000 5.7 120 19:41 22.09.2019
1479 Clear 22 1009 31 10000 5.7 120 19:22 22.09.2019
1480 Clear 25 1009 31 10000 5.7 120 18:58 22.09.2019
1481 Clear 26 1009 29 10000 5.1 120 18:38 22.09.2019
1482 Clear 25 1009 29 10000 5.1 120 18:19 22.09.2019
1483 Clear 25 1009 29 10000 4.6 110 17:57 22.09.2019
1484 Clear 26 1009 27 10000 5.7 110 17:39 22.09.2019
1485 Clear 26 1009 27 10000 5.7 110 17:18 22.09.2019
1486 Clear 26 1010 27 10000 6.2 90 16:44 22.09.2019
1487 Clear 26 1010 27 10000 6.2 90 16:25 22.09.2019
1488 Clear 26 1010 26 10000 5.7 110 15:56 22.09.2019
1489 Clear 26 1010 24 10000 5.1 100 15:37 22.09.2019
1490 Clear 26 1010 24 10000 5.1 100 15:19 22.09.2019
1491 Clear 25 1011 27 10000 5.1 100 14:43 22.09.2019
1492 Clear 25 1011 27 10000 5.1 100 14:24 22.09.2019
1493 Clear 25 1011 27 10000 5.1 120 13:55 22.09.2019
1494 Clear 24 1011 29 10000 4.6 110 13:37 22.09.2019
1495 Clear 24 1011 29 10000 4.6 110 13:19 22.09.2019
1496 Clear 23 1012 35 10000 5.1 100 12:43 22.09.2019
1497 Clear 22 1012 35 10000 5.1 100 12:24 22.09.2019
1498 Clouds 20 1012 48 10000 3.6 110 11:56 22.09.2019
1499 Clear 20 1013 48 10000 3.6 90 11:38 22.09.2019
1500 Clear 19 1013 48 10000 3.6 90 11:19 22.09.2019
1501 Clear 19 1013 48 10000 3.6 90 11:19 22.09.2019
1502 Clear 18 1013 59 10000 2.1 110 10:44 22.09.2019
1503 Clear 16 1013 67 10000 2.1 110 10:20 22.09.2019
1504 Clear 14 1014 71 10000 4.29 131.804 09:57 22.09.2019
1505 Clear 13 1014 76 10000 4.29 131.804 09:38 22.09.2019
1506 Clear 12 1014 76 10000 3.22 109.753 09:19 22.09.2019
1507 Clear 10 1014 87 10000 0.5 0 08:45 22.09.2019
1508 Clear 9 1014 81 10000 2.6 90 08:24 22.09.2019
1509 Clear 9 1014 81 10000 2.6 90 08:24 22.09.2019
1510 Clouds 8 1014 87 10000 1.5 70 07:55 22.09.2019
1511 Clear 8 1014 81 10000 3.6 90 07:36 22.09.2019
1512 Clear 8 1014 81 10000 3.6 90 07:18 22.09.2019
1513 Clouds 8 1014 81 10000 1.5 70 06:53 22.09.2019
1514 Clear 9 1014 76 10000 2.6 100 05:30 22.09.2019
1515 Clear 9 1015 76 10000 3.1 100 03:33 22.09.2019
1516 Clear 10 1016 71 10000 3.1 90 02:38 22.09.2019
1517 Clear 10 1016 71 10000 3.1 90 02:19 22.09.2019
1518 Clear 11 1016 71 10000 2.1 110 01:20 22.09.2019
1519 Clear 12 1016 71 10000 3.1 110 00:33 22.09.2019
1520 Clouds 12 1017 62 10000 2.1 60 23:59 21.09.2019
1521 Clear 13 1017 71 10000 2.6 90 23:40 21.09.2019
1522 Clear 13 1017 71 10000 2.6 90 23:20 21.09.2019
1523 Clear 14 1017 67 10000 2.6 90 22:39 21.09.2019
1524 Clear 14 1017 67 10000 2.6 90 22:21 21.09.2019
1525 Clear 14 1017 67 10000 2.6 90 22:21 21.09.2019
1526 Clouds 14 1017 55 10000 2.6 80 21:55 21.09.2019
1527 Clear 15 1018 58 10000 2.6 90 21:37 21.09.2019
1528 Clear 16 1018 58 10000 2.6 90 21:18 21.09.2019
1529 Clear 16 1018 45 10000 2.1 90 20:39 21.09.2019
1530 Clear 16 1018 45 10000 2.1 90 20:39 21.09.2019
1531 Clear 17 1018 45 10000 2.1 90 20:21 21.09.2019
1532 Clear 17 1018 45 10000 2.1 100 19:48 21.09.2019
1533 Clear 19 1018 40 10000 3.1 110 19:25 21.09.2019
1534 Clear 21 1019 35 10000 3.1 90 18:59 21.09.2019
1535 Clear 22 1019 35 10000 3.1 90 18:38 21.09.2019
1536 Clear 22 1019 35 10000 3.1 90 18:20 21.09.2019
1537 Clear 22 1019 33 10000 3.1 80 17:42 21.09.2019
1538 Clear 23 1019 33 10000 3.1 80 17:23 21.09.2019
1539 Clear 23 1020 33 10000 3.1 100 16:56 21.09.2019
1540 Clear 23 1020 35 10000 2.6 0 16:36 21.09.2019
1541 Clear 23 1020 35 10000 2.6 0 16:18 21.09.2019
1542 Clear 22 1021 35 10000 1.5 0 15:42 21.09.2019
1543 Clear 22 1021 35 10000 1.5 0 15:20 21.09.2019
1544 Clear 22 1021 35 10000 1.5 0 14:47 21.09.2019
1545 Clear 22 1021 37 10000 2.1 0 14:28 21.09.2019
1546 Clear 21 1022 40 10000 2.1 0 13:45 21.09.2019
1547 Clear 21 1022 40 10000 1.5 0 13:25 21.09.2019
1548 Clear 20 1023 42 10000 2.1 150 12:59 21.09.2019
1549 Clear 19 1023 45 10000 2.1 140 12:41 21.09.2019
1550 Clear 19 1023 45 10000 2.1 140 12:21 21.09.2019
1551 Clear 18 1023 48 10000 1.5 0 11:58 21.09.2019
1552 Clear 17 1023 58 10000 1 0 11:39 21.09.2019
1553 Clear 16 1023 58 10000 1 0 11:19 21.09.2019
1554 Clear 14 1023 71 10000 1.5 0 10:41 21.09.2019
1555 Clear 13 1023 71 10000 1.5 0 10:22 21.09.2019
1556 Clear 13 1024 81 10000 1 0 09:57 21.09.2019
1557 Clear 10 1024 87 10000 1 0 09:38 21.09.2019
1558 Clear 10 1024 87 10000 1 0 09:20 21.09.2019
1559 Clear 8 1024 93 10000 1.5 90 08:51 21.09.2019
1560 Fog 7 1023 93 10000 2.1 90 08:26 21.09.2019
1561 Fog 5 1024 87 10000 2.1 90 07:41 21.09.2019
1562 Fog 5 1024 87 10000 2.1 90 07:22 21.09.2019
1563 Fog 5 1023 93 10000 1.5 100 06:49 21.09.2019
1564 Fog 5 1024 93 10000 1.5 140 06:30 21.09.2019
1565 Fog 6 1024 93 10000 0.5 90 04:50 21.09.2019
1566 Fog 6 1024 93 10000 1.5 90 04:32 21.09.2019
1567 Fog 7 1025 93 10000 0.5 0 02:30 21.09.2019
1568 Clear 7 1025 93 10000 1.5 80 01:53 21.09.2019
1569 Clear 7 1025 87 10000 1 70 01:34 21.09.2019
1570 Clear 8 1026 87 10000 0.5 0 00:39 21.09.2019
1571 Clear 8 1026 87 10000 0.5 0 00:18 21.09.2019
1572 Clear 8 1026 87 10000 0.5 0 00:18 21.09.2019
1573 Clear 8 1026 81 10000 0.5 0 23:42 20.09.2019
1574 Clear 9 1026 81 10000 0.5 0 23:23 20.09.2019
1575 Clear 10 1026 81 10000 0.22 225.735 22:41 20.09.2019
1576 Clear 10 1026 81 10000 0.22 225.735 22:23 20.09.2019
1577 Clear 10 1026 76 10000 0.5 230 21:57 20.09.2019
1578 Clear 10 1026 76 10000 0.5 230 21:57 20.09.2019
1579 Clear 11 1026 76 10000 1 80 21:37 20.09.2019
1580 Clear 11 1026 76 10000 1 80 21:19 20.09.2019
1581 Clear 12 1026 81 10000 1.6 267.557 20:56 20.09.2019
1582 Clear 12 1026 76 10000 1.95 256.957 20:37 20.09.2019
1583 Clear 13 1026 76 10000 1.95 256.957 20:18 20.09.2019
1584 Clear 15 1026 55 10000 1.95 256.957 19:45 20.09.2019
1585 Clear 16 1026 55 10000 1.95 256.957 19:26 20.09.2019
1586 Clear 17 1027 48 10000 1.5 0 18:58 20.09.2019
1587 Clear 17 1027 48 10000 1.5 0 18:38 20.09.2019
1588 Clear 18 1027 48 10000 1.5 0 18:18 20.09.2019
1589 Clear 18 1027 45 10000 1.5 0 17:45 20.09.2019
1590 Clouds 18 1027 48 10000 2.1 280 17:26 20.09.2019
1591 -273 0 0 0 0 0 16:54 20.09.2019
1592 Clouds 18 1028 48 10000 1.5 0 16:36 20.09.2019
1593 Clouds 18 1028 48 10000 1.5 0 16:18 20.09.2019
1594 Clouds 18 1028 51 10000 2.1 0 15:41 20.09.2019
1595 Clouds 17 1028 51 10000 2.1 0 15:22 20.09.2019
1596 Clouds 17 1029 54 10000 2.1 260 14:44 20.09.2019
1597 Clouds 16 1029 62 10000 2.6 280 14:20 20.09.2019
1598 Clouds 17 1029 62 10000 2.6 280 13:59 20.09.2019
1599 Clear 16 1029 62 10000 3.1 270 13:40 20.09.2019
1600 Clear 16 1029 62 10000 3.1 270 13:21 20.09.2019
1601 Clear 15 1029 62 10000 3.6 270 12:41 20.09.2019
1602 Clear 14 1029 62 10000 3.6 270 12:22 20.09.2019
1603 Clear 14 1030 66 10000 2.6 280 11:52 20.09.2019
1604 Clear 13 1030 71 10000 2.6 280 11:27 20.09.2019
1605 Clouds 13 1030 76 10000 2.1 250 10:59 20.09.2019
1606 Clear 12 1030 76 10000 2.1 240 10:41 20.09.2019
1607 Clear 11 1030 76 10000 2.1 240 10:22 20.09.2019
1608 Clear 11 1030 76 10000 2.1 240 10:22 20.09.2019
1609 Clouds 9 1029 87 10000 1.5 250 09:38 20.09.2019
1610 Clouds 8 1029 87 10000 1.5 250 09:19 20.09.2019
1611 Clouds 7 1029 93 10000 2.1 261.14 08:59 20.09.2019
1612 Fog 5 1029 93 10000 1 0 08:39 20.09.2019
1613 Fog 5 1029 93 10000 1 0 08:20 20.09.2019
1614 Fog 4 1029 93 10000 0.5 280 07:41 20.09.2019
1615 Fog 4 1029 93 10000 0.5 280 07:23 20.09.2019
1616 Fog 4 1029 100 10000 1 280 06:44 20.09.2019
1617 Fog 4 1029 100 10000 1 0 06:19 20.09.2019
1618 Fog 4 1030 93 10000 0.5 0 05:22 20.09.2019
1619 Clear 5 1030 93 10000 0.5 0 03:30 20.09.2019
1620 Clear 5 1030 93 10000 0.5 0 03:30 20.09.2019
1621 Clouds 6 1030 93 10000 1 240 02:45 20.09.2019
1622 Clear 6 1030 93 10000 0.5 270 01:44 20.09.2019
1623 Clear 6 1030 87 10000 0.5 320 00:46 20.09.2019
1624 Clear 7 1030 87 10000 0.5 320 00:21 20.09.2019
1625 Clear 8 1030 75 10000 1 260 23:41 19.09.2019
1626 Clear 8 1030 75 10000 1 260 23:19 19.09.2019
1627 Clouds 8 1030 81 10000 1 260 22:54 19.09.2019
1628 Clear 8 1029 70 10000 1.96 307.508 22:36 19.09.2019
1629 Clear 9 1029 70 10000 1.96 307.508 22:18 19.09.2019
1630 Clear 9 1029 70 10000 1.96 307.508 21:55 19.09.2019
1631 Clear 10 1029 66 10000 1 0 21:36 19.09.2019
1632 Clear 10 1029 66 10000 1 0 21:18 19.09.2019
1633 Clear 11 1028 58 10000 2.1 300 20:43 19.09.2019
1634 Clear 11 1028 58 10000 2.1 300 20:20 19.09.2019
1635 Clear 12 1028 54 10000 2.6 290 19:55 19.09.2019
1636 Clouds 13 1029 50 10000 1.5 290 19:37 19.09.2019
1637 Clear 13 1028 44 10000 3.6 290 19:19 19.09.2019
1638 Clear 15 1028 38 10000 3.6 310 18:42 19.09.2019
1639 Clear 15 1028 38 10000 3.6 310 18:24 19.09.2019
1640 Clear 15 1028 38 10000 3.6 310 18:24 19.09.2019
1641 Clear 16 1028 38 10000 4.6 310 17:54 19.09.2019
1642 Clear 16 1028 41 10000 5.1 310 17:36 19.09.2019
1643 Clear 16 1028 41 10000 5.1 310 17:18 19.09.2019
1644 Clear 16 1028 38 10000 4.1 320 16:42 19.09.2019
1645 Clear 17 1028 38 10000 5.1 310 16:20 19.09.2019
1646 Clouds 16 1029 44 10000 3.6 330 15:56 19.09.2019
1647 Clouds 16 1029 47 10000 5.1 310 15:38 19.09.2019
1648 Clouds 16 1029 47 10000 5.1 310 15:18 19.09.2019
1649 Clouds 15 1029 50 10000 4.6 310 14:41 19.09.2019
1650 Clouds 15 1029 50 10000 4.6 310 14:22 19.09.2019
1651 Clouds 15 1029 51 10000 4.1 320 13:58 19.09.2019
1652 Clouds 15 1029 54 10000 4.1 300 13:38 19.09.2019
1653 Clouds 15 1029 54 10000 4.1 300 13:38 19.09.2019
1654 Clouds 15 1029 54 10000 4.1 300 13:19 19.09.2019
1655 Clouds 14 1029 66 10000 3.6 280 12:38 19.09.2019
1656 Clouds 14 1029 66 10000 3.6 280 12:19 19.09.2019
1657 Clouds 14 1029 71 10000 3.6 300 11:56 19.09.2019
1658 Clouds 13 1029 71 10000 3.6 270 11:38 19.09.2019
1659 Clouds 13 1029 71 10000 3.6 270 11:19 19.09.2019
1660 Clouds 12 1028 81 10000 3.1 280 10:40 19.09.2019
1661 Clouds 11 1028 81 10000 3.1 280 10:21 19.09.2019
1662 Clouds 11 1028 81 10000 3.1 280 10:21 19.09.2019
1663 Clouds 10 1028 81 10000 2.6 280 09:58 19.09.2019
1664 Clouds 9 1028 81 10000 3.1 280 09:40 19.09.2019
1665 Clouds 9 1028 81 10000 3.1 280 09:20 19.09.2019
1666 Clouds 8 1027 81 10000 2.6 280 08:52 19.09.2019
1667 Clouds 8 1027 81 10000 2.6 280 08:27 19.09.2019
1668 Clouds 7 1027 81 10000 2.6 270 07:55 19.09.2019
1669 Clouds 7 1027 81 10000 3.1 280 07:36 19.09.2019
1670 Clouds 7 1027 81 10000 3.1 280 07:18 19.09.2019
1671 Fog 6 1027 93 10000 2.6 250 06:42 19.09.2019
1672 Fog 6 1027 93 10000 2.6 250 06:24 19.09.2019
1673 Fog 6 1027 93 10000 1.5 250 05:50 19.09.2019
1674 Fog 7 1027 87 10000 3.1 270 04:24 19.09.2019
1675 Clear 7 1027 93 10000 2.6 260 03:21 19.09.2019
1676 Clouds 7 1027 87 10000 1.5 240 01:50 19.09.2019
1677 Clear 7 1027 93 10000 2.1 270 01:21 19.09.2019
1678 Clear 8 1027 81 10000 2.6 270 00:47 19.09.2019
1679 Clear 8 1026 87 10000 2.6 260 00:25 19.09.2019
1680 Clear 8 1026 81 10000 3.1 280 23:39 18.09.2019
1681 Clear 8 1026 81 10000 3.1 280 23:21 18.09.2019
1682 Clear 9 1025 66 10000 3.1 300 22:43 18.09.2019
1683 Clear 9 1025 66 10000 3.1 300 22:20 18.09.2019
1684 Clear 9 1025 70 10000 3.1 300 21:58 18.09.2019
1685 Clear 9 1025 70 10000 3.1 300 21:58 18.09.2019
1686 Clear 10 1025 66 10000 3.1 300 21:40 18.09.2019
1687 Clear 10 1025 66 10000 3.1 300 21:19 18.09.2019
1688 Clear 11 1024 62 10000 3.6 300 20:58 18.09.2019
1689 Clear 11 1024 62 10000 3.6 300 20:58 18.09.2019
1690 Clear 11 1024 58 10000 3.6 310 20:40 18.09.2019
1691 Clear 11 1024 58 10000 3.6 310 20:22 18.09.2019
1692 Clear 11 1024 58 10000 3.6 310 20:22 18.09.2019
1693 Clear 12 1024 54 10000 4.1 300 19:58 18.09.2019
1694 Clouds 12 1024 50 10000 5.7 300 19:39 18.09.2019
1695 Clouds 13 1024 50 10000 5.7 300 19:19 18.09.2019
1696 Clouds 14 1024 54 10000 5.1 300 18:56 18.09.2019
1697 Clouds 14 1023 58 10000 5.7 280 18:37 18.09.2019
1698 Clouds 14 1023 58 10000 5.7 280 18:19 18.09.2019
1699 Clear 14 1023 58 10000 5.1 280 17:58 18.09.2019
1700 Clouds 14 1024 66 10000 4.6 300 17:39 18.09.2019
1701 Clouds 14 1024 66 10000 4.6 300 17:19 18.09.2019
1702 Clouds 14 1024 66 10000 4.6 300 17:19 18.09.2019
1703 Clouds 14 1024 62 10000 5.1 300 16:56 18.09.2019
1704 Clouds 14 1024 62 10000 3.6 310 16:38 18.09.2019
1705 Clouds 14 1024 62 10000 3.6 310 16:19 18.09.2019
1706 Clouds 14 1024 66 10000 3.1 300 15:55 18.09.2019
1707 Clear 15 1023 58 10000 5.7 280 15:37 18.09.2019
1708 Clear 15 1023 58 10000 5.7 280 15:19 18.09.2019
1709 Clear 14 1024 62 10000 5.1 270 14:57 18.09.2019
1710 Clear 15 1024 66 10000 6.7 280 14:39 18.09.2019
1711 Clear 15 1024 66 10000 6.7 280 14:21 18.09.2019
1712 Clear 15 1024 66 10000 6.7 280 14:21 18.09.2019
1713 Clouds 14 1024 66 10000 6.7 290 13:44 18.09.2019
1714 Clouds 14 1024 62 10000 4.6 280 13:19 18.09.2019
1715 Rain 14 1024 66 10000 5.1 290 12:56 18.09.2019
1716 Clouds 14 1024 71 10000 5.1 280 12:37 18.09.2019
1717 Clouds 14 1024 71 10000 5.1 280 12:18 18.09.2019
1718 Clouds 14 1024 71 10000 4.6 290 11:40 18.09.2019
1719 Clouds 14 1024 71 10000 4.6 290 11:20 18.09.2019
1720 Clouds 13 1024 71 10000 4.6 300 10:55 18.09.2019
1721 Clouds 13 1024 71 10000 3.6 280 10:37 18.09.2019
1722 Clouds 12 1024 71 10000 3.6 280 10:18 18.09.2019
1723 Clouds 11 1023 81 10000 4.1 280 09:41 18.09.2019
1724 Clouds 10 1023 81 10000 4.1 280 09:22 18.09.2019
1725 Clouds 10 1023 87 10000 3.6 270 08:58 18.09.2019
1726 Clouds 9 1022 87 10000 3.1 270 08:39 18.09.2019
1727 Clouds 9 1022 87 10000 3.1 270 08:21 18.09.2019
1728 Clouds 9 1022 87 10000 3.1 270 07:44 18.09.2019
1729 Clouds 9 1022 87 10000 3.1 270 07:23 18.09.2019
1730 Clouds 9 1022 87 10000 1.5 230 06:49 18.09.2019
1731 Clouds 9 1022 87 10000 3.6 260 06:24 18.09.2019
1732 Rain 8 1022 87 10000 3.1 260 05:33 18.09.2019
1733 Clouds 9 1022 81 10000 4.1 270 03:42 18.09.2019
1734 Clouds 9 1021 81 10000 5.1 280 02:40 18.09.2019
1735 Clouds 9 1021 87 10000 2.6 250 01:50 18.09.2019
1736 Clouds 10 1020 76 10000 3.1 270 00:56 18.09.2019
1737 Clouds 10 1020 76 10000 6.7 280 00:33 18.09.2019
1738 Clouds 10 1020 76 10000 6.7 280 23:48 17.09.2019
1739 Clouds 10 1020 76 10000 6.2 270 23:25 17.09.2019
1740 Clouds 10 1019 71 10000 3.6 260 22:59 17.09.2019
1741 Clouds 10 1018 66 10000 6.2 280 22:41 17.09.2019
1742 Clouds 11 1018 66 10000 6.2 280 22:22 17.09.2019
1743 Clouds 11 1018 66 10000 5.7 280 21:54 17.09.2019
1744 Rain 11 1018 71 10000 5.1 290 21:36 17.09.2019
1745 Rain 11 1018 71 10000 5.1 290 21:18 17.09.2019
1746 Rain 11 1018 71 10000 5.1 310 20:57 17.09.2019
1747 Clouds 11 1017 76 10000 6.2 290 20:39 17.09.2019
1748 Clouds 11 1017 76 10000 6.2 290 20:21 17.09.2019
1749 Clouds 11 1017 76 10000 6.2 290 20:21 17.09.2019
1750 Rain 12 1017 66 10000 4.6 290 19:58 17.09.2019
1751 Rain 12 1017 66 10000 6.2 330 19:39 17.09.2019
1752 Rain 12 1017 66 10000 6.2 330 19:39 17.09.2019
1753 Clouds 12 1017 58 10000 9.3 310 19:19 17.09.2019
1754 Clouds 12 1017 58 10000 9.3 310 19:19 17.09.2019
1755 Clouds 13 1017 58 10000 9.3 310 18:56 17.09.2019
1756 Rain 13 1016 54 10000 10.3 310 18:37 17.09.2019
1757 Rain 13 1016 54 10000 10.3 310 18:19 17.09.2019
1758 Clouds 14 1016 54 10000 9.3 330 17:44 17.09.2019
1759 Clear 14 1015 41 10000 8.7 310 17:19 17.09.2019
1760 Clear 15 1015 38 10000 10.8 310 16:56 17.09.2019
1761 Clouds 16 1015 48 10000 9.8 290 16:37 17.09.2019
1762 Clouds 15 1015 48 10000 9.8 290 16:19 17.09.2019
1763 Clouds 15 1015 76 10000 7.7 280 15:39 17.09.2019
1764 Clouds 15 1015 76 10000 7.7 280 15:39 17.09.2019
1765 Clouds 15 1015 76 10000 7.7 280 15:20 17.09.2019
1766 Clouds 14 1015 87 10000 7.2 290 14:56 17.09.2019
1767 Clouds 14 1015 87 10000 6.2 290 14:38 17.09.2019
1768 Clouds 14 1015 87 10000 6.2 290 14:19 17.09.2019
1769 Rain 14 1015 76 8000 6.7 290 13:56 17.09.2019
1770 Rain 14 1015 76 8000 6.7 290 13:56 17.09.2019
1771 Rain 14 1015 62 10000 7.7 290 13:38 17.09.2019
1772 Rain 14 1015 62 10000 7.7 290 13:20 17.09.2019
1773 Drizzle 15 1016 62 10000 8.2 280 12:42 17.09.2019
1774 Drizzle 14 1016 62 10000 8.2 280 12:19 17.09.2019
1775 Clouds 14 1016 67 10000 7.7 280 11:45 17.09.2019
1776 Clouds 14 1016 67 10000 8.2 280 11:26 17.09.2019
1777 Clouds 14 1016 71 10000 7.2 270 10:59 17.09.2019
1778 Clear 14 1016 76 10000 6.7 270 10:40 17.09.2019
1779 Clear 13 1016 76 10000 6.7 270 10:20 17.09.2019
1780 Clear 13 1016 81 10000 5.1 270 09:54 17.09.2019
1781 Clear 12 1016 87 10000 5.1 260 09:36 17.09.2019
1782 Clear 12 1016 87 10000 5.1 260 09:18 17.09.2019
1783 Clouds 11 1016 87 10000 4.6 260 08:43 17.09.2019
1784 Clouds 11 1016 87 10000 4.6 260 08:43 17.09.2019
1785 Clouds 10 1016 87 10000 3.6 260 08:24 17.09.2019
1786 Clouds 10 1017 87 10000 3.6 270 07:44 17.09.2019
1787 Clouds 10 1017 87 10000 3.6 270 07:26 17.09.2019
1788 Clouds 9 1016 93 10000 3.1 240 06:54 17.09.2019
1789 Clouds 9 1017 93 10000 2.1 250 06:35 17.09.2019
1790 Clouds 9 1017 93 10000 3.1 240 05:54 17.09.2019
1791 Clouds 10 1017 87 10000 3.1 240 04:56 17.09.2019
1792 Fog 10 1017 93 10000 2.1 240 03:49 17.09.2019
1793 Fog 10 1017 93 10000 2.1 240 03:49 17.09.2019
1794 Fog 10 1018 100 10000 2.6 250 02:40 17.09.2019
1795 Fog 10 1018 93 10000 2.1 240 01:52 17.09.2019
1796 Fog 11 1018 93 10000 2.1 240 00:56 17.09.2019
1797 Clouds 11 1018 93 10000 1.5 240 23:55 16.09.2019
1798 Clear 11 1018 93 10000 2.1 280 23:36 16.09.2019
1799 Clear 11 1018 93 10000 2.1 280 23:18 16.09.2019
1800 Clouds 12 1018 87 10000 2.1 270 22:41 16.09.2019
1801 Clouds 12 1018 87 10000 2.1 270 22:23 16.09.2019
1802 Clouds 12 1018 87 10000 2.1 280 21:58 16.09.2019
1803 Clouds 12 1018 87 10000 2.6 280 21:38 16.09.2019
1804 Clouds 12 1018 87 10000 2.6 280 21:20 16.09.2019
1805 Clouds 12 1018 87 10000 2.6 280 20:55 16.09.2019
1806 Clouds 13 1018 87 10000 3.1 280 20:37 16.09.2019
1807 Clouds 13 1018 87 10000 3.1 280 20:18 16.09.2019
1808 Clouds 13 1018 82 10000 3.1 280 19:55 16.09.2019
1809 Clouds 14 1018 76 10000 4.1 290 19:37 16.09.2019
1810 Clouds 14 1018 76 10000 4.1 290 19:18 16.09.2019
1811 Clouds 14 1018 82 10000 4.1 280 18:43 16.09.2019
1812 Clouds 14 1018 82 10000 4.1 280 18:25 16.09.2019
1813 Clouds 14 1018 82 10000 3.6 270 17:54 16.09.2019
1814 Clouds 14 1018 82 10000 2.6 270 17:36 16.09.2019
1815 Clouds 14 1018 82 10000 2.6 270 17:18 16.09.2019
1816 Clouds 14 1018 82 10000 2.6 270 17:18 16.09.2019
1817 Clouds 14 1018 82 10000 2.6 260 16:42 16.09.2019
1818 Clouds 14 1018 82 10000 2.6 260 16:21 16.09.2019
1819 Clouds 14 1019 87 10000 2.6 280 15:57 16.09.2019
1820 Clouds 14 1019 87 10000 2.6 280 15:57 16.09.2019
1821 Clouds 14 1019 82 10000 2.6 270 15:38 16.09.2019
1822 Clouds 14 1019 82 10000 2.6 270 15:20 16.09.2019
1823 Clouds 14 1019 82 10000 2.6 270 15:20 16.09.2019
1824 Clouds 13 1019 87 10000 3.1 270 14:58 16.09.2019
1825 Clouds 13 1019 93 10000 3.1 260 14:39 16.09.2019
1826 Clouds 13 1019 93 10000 3.1 260 14:20 16.09.2019
1827 Drizzle 13 1019 93 5000 3.1 260 13:43 16.09.2019
1828 Drizzle 13 1019 93 5000 3.1 260 13:22 16.09.2019
1829 Rain 12 1020 93 4900 3.1 250 12:57 16.09.2019
1830 Rain 12 1020 87 4300 2.6 250 12:38 16.09.2019
1831 Rain 12 1020 87 4300 2.6 250 12:19 16.09.2019
1832 Rain 12 1020 81 10000 3.6 240 11:45 16.09.2019
1833 Rain 12 1020 81 10000 3.6 240 11:23 16.09.2019
1834 Drizzle 12 1020 87 10000 3.1 230 10:56 16.09.2019
1835 Rain 12 1020 87 10000 3.1 250 10:37 16.09.2019
1836 Rain 12 1020 87 10000 3.1 250 10:18 16.09.2019
1837 Rain 11 1020 93 10000 3.1 250 09:42 16.09.2019
1838 Rain 11 1020 93 10000 3.1 250 09:21 16.09.2019
1839 Rain 11 1020 93 10000 3.1 250 09:21 16.09.2019
1840 Rain 11 1019 87 10000 3.1 250 08:56 16.09.2019
1841 Rain 11 1020 87 10000 3.1 240 08:38 16.09.2019
1842 Rain 11 1020 87 10000 3.1 240 08:19 16.09.2019
1843 Rain 12 1020 93 10000 3.1 260 07:42 16.09.2019
1844 Rain 12 1020 93 10000 3.1 260 07:24 16.09.2019
1845 Drizzle 12 1020 93 8000 2.6 220 06:58 16.09.2019
1846 Rain 12 1020 93 10000 2.6 240 06:39 16.09.2019
1847 Rain 13 1020 93 10000 2.6 240 06:20 16.09.2019
1848 Rain 13 1020 87 10000 2.1 260 05:42 16.09.2019
1849 Rain 13 1020 87 10000 2.1 260 05:21 16.09.2019
1850 Clear 13 1021 87 10000 2.6 260 03:37 16.09.2019
1851 Clouds 14 1021 82 10000 2.1 270 01:20 16.09.2019
1852 Clouds 15 1021 87 10000 2.6 280 00:38 16.09.2019
1853 Clouds 15 1021 87 10000 2.6 280 00:20 16.09.2019
1854 Drizzle 15 1020 87 10000 3.1 270 23:39 15.09.2019
1855 Drizzle 15 1020 87 10000 3.1 270 23:20 15.09.2019
1856 Rain 16 1020 93 10000 3.1 280 22:40 15.09.2019
1857 Rain 16 1020 93 10000 3.1 280 22:21 15.09.2019
1858 Rain 16 1020 93 5000 3.6 300 21:58 15.09.2019
1859 Drizzle 16 1020 93 10000 3.6 290 21:39 15.09.2019
1860 Drizzle 16 1020 93 10000 3.6 290 21:39 15.09.2019
1861 Drizzle 16 1020 93 10000 3.6 290 21:39 15.09.2019
1862 Drizzle 17 1020 93 10000 3.6 290 21:21 15.09.2019
1863 Drizzle 17 1019 64 10000 6.7 310 20:57 15.09.2019
1864 Rain 18 1019 49 10000 5.7 310 20:39 15.09.2019
1865 Rain 18 1019 49 10000 5.7 310 20:21 15.09.2019
1866 Clear 19 1018 30 10000 5.1 280 19:44 15.09.2019
1867 Clear 20 1018 30 10000 5.1 280 19:23 15.09.2019
1868 -273 0 0 0 0 0 18:55 15.09.2019
1869 Clear 23 1018 28 10000 7.2 290 18:36 15.09.2019
1870 Clear 23 1018 28 10000 7.2 290 18:18 15.09.2019
1871 Clear 23 1018 23 10000 8.2 280 17:40 15.09.2019
1872 Clear 24 1018 23 10000 8.2 280 17:20 15.09.2019
1873 Clear 24 1019 52 10000 7.2 270 16:44 15.09.2019
1874 Clear 24 1019 25 10000 6.7 260 16:26 15.09.2019
1875 Clear 23 1019 24 10000 7.7 270 15:59 15.09.2019
1876 Clear 23 1020 28 10000 7.2 250 15:41 15.09.2019
1877 Clear 23 1020 28 10000 7.2 250 15:21 15.09.2019
1878 Clear 23 1020 28 10000 7.2 250 14:58 15.09.2019
1879 Clear 22 1020 37 10000 6.2 260 14:40 15.09.2019
1880 Clear 22 1020 37 10000 6.2 260 14:20 15.09.2019
1881 Clear 22 1021 40 10000 5.7 260 13:47 15.09.2019
1882 Clear 21 1021 40 10000 6.7 260 13:24 15.09.2019
1883 Clear 20 1021 40 10000 6.7 270 12:57 15.09.2019
1884 Clear 20 1021 42 10000 7.2 270 12:39 15.09.2019
1885 Clear 20 1021 42 10000 7.2 270 12:18 15.09.2019
1886 Clear 19 1021 42 10000 6.2 260 11:42 15.09.2019
1887 Clear 19 1021 42 10000 6.2 260 11:22 15.09.2019
1888 Clear 18 1021 45 10000 6.2 260 10:58 15.09.2019
1889 Clear 18 1022 55 10000 5.1 250 10:40 15.09.2019
1890 Clear 17 1022 55 10000 5.1 250 10:21 15.09.2019
1891 Clear 15 1022 67 10000 4.1 250 09:42 15.09.2019
1892 Clear 14 1022 67 10000 4.1 250 09:21 15.09.2019
1893 Clouds 13 1022 81 10000 1.5 240 08:58 15.09.2019
1894 Clouds 13 1022 81 10000 1.5 240 08:58 15.09.2019
1895 Clear 12 1022 87 10000 0.5 0 08:39 15.09.2019
1896 Clear 11 1022 87 10000 0.5 0 08:18 15.09.2019
1897 Clear 11 1022 87 10000 0.5 0 08:18 15.09.2019
1898 Fog 10 1022 93 10000 0.5 0 07:41 15.09.2019
1899 Clear 9 1022 93 10000 0.5 0 06:44 15.09.2019
1900 Clear 8 1023 93 10000 1 290 05:35 15.09.2019
1901 Clear 8 1025 87 10000 0.5 0 03:19 15.09.2019
1902 Clear 8 1026 87 10000 0.5 160 02:19 15.09.2019
1903 Clear 9 1026 76 10000 0.5 0 01:36 15.09.2019
1904 Clouds 9 1027 87 10000 0.5 100 00:57 15.09.2019
1905 Clouds 9 1027 87 10000 0.5 100 00:57 15.09.2019
1906 Clear 9 1028 81 10000 2.28 192.723 00:37 15.09.2019
1907 Clear 9 1028 81 10000 2.2 151.431 00:18 15.09.2019
1908 Clouds 9 1028 81 10000 0.5 0 23:56 14.09.2019
1909 Clear 10 1028 81 10000 0.5 60 23:37 14.09.2019
1910 Clear 10 1028 81 10000 0.5 60 23:37 14.09.2019
1911 Clear 10 1028 81 10000 0.5 60 23:19 14.09.2019
1912 -273 0 0 0 0 0 22:55 14.09.2019
1913 Clear 11 1029 76 10000 0.5 350 22:37 14.09.2019
1914 Clear 11 1029 76 10000 0.5 350 22:18 14.09.2019
1915 Clear 12 1030 62 10000 0.5 140 21:40 14.09.2019
1916 Clear 13 1030 62 10000 0.5 140 21:21 14.09.2019
1917 Clear 13 1030 62 10000 0.5 140 21:21 14.09.2019
1918 Clear 13 1030 62 10000 0.5 140 20:59 14.09.2019
1919 Clear 14 1030 54 10000 1 350 20:39 14.09.2019
1920 Clear 14 1030 54 10000 1 350 20:21 14.09.2019
1921 Clear 16 1030 45 10000 1 350 19:49 14.09.2019
1922 Clear 18 1030 36 10000 1.5 320 19:23 14.09.2019
1923 Clear 18 1030 45 10000 1 300 18:58 14.09.2019
1924 Clear 18 1031 32 10000 2.1 310 18:39 14.09.2019
1925 Clear 19 1031 32 10000 2.1 310 18:20 14.09.2019
1926 Clear 19 1031 32 10000 2.1 310 17:55 14.09.2019
1927 Clouds 19 1031 37 10000 2.1 260 17:37 14.09.2019
1928 Clear 19 1031 37 10000 2.1 250 17:18 14.09.2019
1929 Clear 19 1032 39 10000 1.5 0 16:42 14.09.2019
1930 Clear 20 1032 39 10000 1.5 0 16:21 14.09.2019
1931 Clear 19 1033 39 10000 2.1 320 15:42 14.09.2019
1932 Clear 20 1033 39 10000 2.1 320 15:23 14.09.2019
1933 Clear 19 1033 45 10000 2.1 290 14:58 14.09.2019
1934 Clear 19 1033 45 10000 1.5 0 14:39 14.09.2019
1935 Clear 19 1033 45 10000 1.5 0 14:18 14.09.2019
1936 Clear 18 1033 48 10000 1.5 0 13:47 14.09.2019
1937 Clear 18 1033 48 10000 1.5 0 13:47 14.09.2019
1938 Clouds 18 1034 45 10000 1 0 13:22 14.09.2019
1939 Clouds 18 1034 51 10000 1.5 0 12:48 14.09.2019
1940 Clouds 17 1035 55 10000 2.1 300 12:26 14.09.2019
1941 Clear 16 1035 67 10000 1 0 11:42 14.09.2019
1942 Clear 16 1035 67 10000 1 0 11:21 14.09.2019
1943 Clear 15 1035 67 10000 0.5 0 10:58 14.09.2019
1944 Clear 14 1035 76 10000 0.5 0 10:36 14.09.2019
1945 Clear 13 1035 76 10000 0.5 0 10:18 14.09.2019
1946 Clear 13 1035 81 10000 0.73 200.023 09:56 14.09.2019
1947 Clear 13 1035 87 10000 0.73 200.023 09:38 14.09.2019
1948 Clear 11 1035 87 10000 0.89 176.957 09:18 14.09.2019
1949 Fog 8 1035 100 10000 0.5 210 08:44 14.09.2019
1950 Fog 8 1035 100 10000 0.5 210 08:23 14.09.2019
1951 Fog 6 1035 93 10000 0.5 0 07:45 14.09.2019
1952 Fog 6 1035 93 10000 0.5 0 07:27 14.09.2019
1953 Fog 5 1035 93 10000 1 220 06:39 14.09.2019
1954 Fog 6 1035 100 10000 0.5 230 06:18 14.09.2019
1955 Fog 6 1035 93 10000 0.37 337.106 04:55 14.09.2019
1956 Fog 7 1035 93 10000 0.37 337.106 03:38 14.09.2019
1957 Fog 8 1035 93 10000 1 230 02:52 14.09.2019
1958 Fog 9 1035 87 10000 1 330 01:50 14.09.2019
1959 Clear 9 1034 81 10000 1 0 01:22 14.09.2019
1960 Clouds 10 1034 87 10000 1 230 00:57 14.09.2019
1961 Clear 10 1035 81 10000 0.5 0 00:37 14.09.2019
1962 Clear 10 1035 81 10000 0.5 0 00:19 14.09.2019
1963 Clear 11 1034 81 10000 1 260 23:38 13.09.2019
1964 Clear 12 1034 81 10000 1 260 23:19 13.09.2019
1965 Clouds 12 1034 76 10000 0.5 280 22:57 13.09.2019
1966 Clear 12 1033 66 10000 2.7 329.794 22:38 13.09.2019
1967 Clear 13 1033 66 10000 2.7 329.794 22:20 13.09.2019
1968 Clear 14 1033 58 10000 1 0 21:42 13.09.2019
1969 Clear 14 1033 58 10000 1 0 21:20 13.09.2019
1970 Clear 15 1033 55 10000 1.5 0 20:59 13.09.2019
1971 Clear 16 1032 51 10000 3.1 330 20:40 13.09.2019
1972 Clear 16 1032 51 10000 3.1 330 20:21 13.09.2019
1973 Clear 17 1032 48 10000 3.6 330 19:56 13.09.2019
1974 Clear 17 1031 52 10000 4.1 330 19:38 13.09.2019
1975 Clear 18 1031 52 10000 4.1 330 19:19 13.09.2019
1976 Clear 18 1031 48 10000 4.6 330 18:56 13.09.2019
1977 Clouds 19 1031 49 10000 5.1 340 18:37 13.09.2019
1978 Clouds 19 1031 49 10000 5.1 340 18:18 13.09.2019
1979 Clouds 20 1031 46 10000 5.1 320 17:39 13.09.2019
1980 Clouds 20 1031 46 10000 5.1 320 17:19 13.09.2019
1981 Clear 20 1030 49 10000 5.7 320 16:43 13.09.2019
1982 Clear 21 1030 49 10000 5.7 320 16:22 13.09.2019
1983 Clouds 21 1030 49 10000 5.1 330 15:59 13.09.2019
1984 Clouds 21 1030 52 10000 5.1 300 15:40 13.09.2019
1985 Clouds 21 1030 52 10000 5.1 300 15:20 13.09.2019
1986 Clouds 20 1030 56 10000 6.7 300 14:44 13.09.2019
1987 Clouds 20 1030 64 10000 5.1 330 14:23 13.09.2019
1988 Clouds 20 1029 68 10000 5.1 320 13:58 13.09.2019
1989 Clouds 20 1029 72 10000 7.2 320 13:39 13.09.2019
1990 Clouds 20 1029 72 10000 7.2 320 13:21 13.09.2019
1991 Rain 19 1028 77 10000 6.2 280 12:44 13.09.2019
1992 Rain 19 1028 77 10000 6.2 280 12:24 13.09.2019
1993 Clouds 19 1028 88 10000 5.7 280 11:57 13.09.2019
1994 Drizzle 19 1028 77 10000 5.7 280 11:20 13.09.2019
1995 Drizzle 19 1028 77 10000 5.1 260 10:41 13.09.2019
1996 Drizzle 19 1028 77 10000 5.1 260 10:21 13.09.2019
1997 Clouds 18 1027 82 10000 5.1 260 09:56 13.09.2019
1998 Clouds 18 1027 77 10000 5.1 260 09:37 13.09.2019
1999 Clouds 18 1027 77 10000 5.1 260 09:37 13.09.2019
2000 Clouds 18 1027 77 10000 5.1 260 09:19 13.09.2019
2001 Clouds 18 1027 77 10000 5.1 260 08:42 13.09.2019
2002 Clouds 18 1027 77 10000 5.7 260 08:21 13.09.2019
2003 Clouds 18 1027 77 10000 4.1 240 07:59 13.09.2019
2004 Clouds 18 1026 77 10000 3.6 240 07:40 13.09.2019
2005 Clouds 18 1026 77 10000 4.6 230 06:55 13.09.2019
2006 Clouds 18 1026 77 10000 4.1 230 06:37 13.09.2019
2007 Clear 17 1026 72 10000 3.6 240 05:34 13.09.2019
2008 Clouds 18 1026 72 10000 3.1 240 03:52 13.09.2019
2009 Clouds 17 1026 72 10000 3.6 260 03:25 13.09.2019
2010 Clear 17 1026 72 10000 2.1 230 02:20 13.09.2019
2011 Clouds 17 1027 72 10000 2.6 240 01:37 13.09.2019
2012 Clouds 17 1026 77 10000 3.1 240 00:59 13.09.2019
2013 Clear 16 1027 77 10000 2.6 250 00:35 13.09.2019
2014 Clouds 16 1026 82 10000 1.5 250 23:53 12.09.2019
2015 Clouds 16 1027 77 10000 2.1 230 23:26 12.09.2019
2016 Clouds 17 1027 87 10000 1 250 22:58 12.09.2019
2017 Clear 17 1027 77 10000 2.6 280 22:40 12.09.2019
2018 Clear 17 1027 77 10000 2.6 280 22:22 12.09.2019
2019 Clear 17 1027 72 10000 2.6 250 21:56 12.09.2019
2020 Clear 18 1027 72 10000 2.6 260 21:37 12.09.2019
2021 Clear 18 1027 72 10000 2.6 260 21:19 12.09.2019
2022 Clear 19 1026 68 10000 2.1 250 20:44 12.09.2019
2023 Clear 19 1026 64 10000 2.6 250 20:23 12.09.2019
2024 Clear 20 1026 60 10000 3.1 270 19:58 12.09.2019
2025 Clear 21 1026 56 10000 4.1 270 19:40 12.09.2019
2026 Clear 21 1026 56 10000 4.1 270 19:20 12.09.2019
2027 Clouds 22 1026 56 10000 5.1 270 18:57 12.09.2019
2028 Clouds 22 1026 53 10000 5.1 260 18:36 12.09.2019
2029 Clouds 22 1026 53 10000 5.1 260 18:18 12.09.2019
2030 Clouds 22 1026 56 10000 5.1 270 17:41 12.09.2019
2031 Clouds 23 1026 56 10000 5.1 270 17:21 12.09.2019
2032 Clear 23 1026 56 10000 6.2 260 16:58 12.09.2019
2033 Clouds 23 1026 56 10000 5.7 270 16:40 12.09.2019
2034 Clouds 23 1026 56 10000 5.7 270 16:20 12.09.2019
2035 Clouds 23 1026 60 10000 5.7 260 15:42 12.09.2019
2036 Clouds 23 1026 60 10000 6.7 260 15:24 12.09.2019
2037 Clouds 22 1027 60 10000 6.2 270 14:55 12.09.2019
2038 Clouds 22 1027 72 10000 4.6 250 14:37 12.09.2019
2039 Clouds 22 1027 72 10000 4.6 250 14:19 12.09.2019
2040 Clouds 21 1027 77 10000 5.7 260 13:39 12.09.2019
2041 Clouds 21 1027 77 10000 5.7 260 13:20 12.09.2019
2042 Clouds 20 1027 77 10000 5.1 250 12:49 12.09.2019
2043 Clouds 20 1027 77 10000 5.1 250 12:49 12.09.2019
2044 Clouds 20 1027 77 10000 5.1 250 12:49 12.09.2019
2045 Clouds 19 1027 82 10000 4.6 240 12:19 12.09.2019
2046 Clouds 18 1027 88 10000 3.6 230 11:58 12.09.2019
2047 Clouds 18 1027 88 10000 3.6 230 11:58 12.09.2019
2048 Clouds 18 1026 82 10000 4.1 230 11:40 12.09.2019
2049 Clouds 18 1026 82 10000 4.1 230 11:21 12.09.2019
2050 Clouds 17 1026 87 10000 4.6 230 10:50 12.09.2019
2051 Clouds 17 1026 87 10000 5.1 240 10:28 12.09.2019
2052 Clouds 16 1025 87 10000 4.1 240 09:57 12.09.2019
2053 Clouds 16 1025 87 10000 4.1 240 09:39 12.09.2019
2054 Clouds 16 1025 87 10000 4.1 240 09:20 12.09.2019
2055 Clouds 16 1025 93 10000 4.1 230 08:44 12.09.2019
2056 Clouds 15 1025 87 10000 3.6 240 08:23 12.09.2019
2057 Clouds 15 1025 87 10000 3.6 240 07:55 12.09.2019
2058 Clouds 15 1024 87 10000 3.6 230 07:36 12.09.2019
2059 Clouds 15 1024 93 6000 3.1 220 07:18 12.09.2019
2060 Clouds 15 1024 93 9000 2.6 230 06:45 12.09.2019
2061 Clouds 15 1024 93 9000 2.6 230 06:18 12.09.2019
2062 Clouds 15 1023 93 9000 3.1 230 05:42 12.09.2019
2063 Clouds 14 1023 93 9000 3.1 230 05:19 12.09.2019
2064 Clouds 15 1023 87 10000 3.6 230 03:46 12.09.2019
2065 Clouds 14 1022 87 10000 4.1 240 01:44 12.09.2019
2066 Clouds 14 1022 87 10000 4.1 240 01:26 12.09.2019
2067 Clouds 14 1022 93 10000 3.1 210 00:50 12.09.2019
2068 Drizzle 14 1022 87 10000 3.6 240 00:31 12.09.2019
2069 Drizzle 14 1022 87 10000 4.1 230 23:47 11.09.2019
2070 Drizzle 14 1022 87 10000 3.6 230 23:27 11.09.2019
2071 Drizzle 14 1022 87 6000 4.6 210 22:58 11.09.2019
2072 Drizzle 14 1022 82 10000 3.6 270 22:38 11.09.2019
2073 Drizzle 14 1022 82 10000 3.6 270 22:20 11.09.2019
2074 Drizzle 14 1022 82 10000 3.6 270 21:59 11.09.2019
2075 Rain 14 1021 77 10000 4.6 270 21:41 11.09.2019
2076 Rain 15 1021 77 10000 4.6 270 21:22 11.09.2019
2077 Rain 16 1021 63 10000 5.7 280 20:56 11.09.2019
2078 Rain 16 1021 48 10000 5.7 270 20:38 11.09.2019
2079 Rain 17 1021 48 10000 5.7 270 20:19 11.09.2019
2080 Rain 17 1020 45 10000 2.6 260 19:56 11.09.2019
2081 Rain 17 1020 45 10000 2.6 260 19:56 11.09.2019
2082 Rain 18 1020 42 10000 3.6 250 19:37 11.09.2019
2083 Rain 19 1020 42 10000 3.6 250 19:19 11.09.2019
2084 Rain 20 1020 40 10000 4.1 260 18:43 11.09.2019
2085 Rain 20 1020 40 10000 4.1 260 18:24 11.09.2019
2086 Clear 21 1020 40 10000 5.1 260 17:59 11.09.2019
2087 Clear 21 1020 37 10000 5.1 250 17:41 11.09.2019
2088 Clear 21 1020 37 10000 5.1 250 17:21 11.09.2019
2089 Clear 21 1020 40 10000 5.7 250 16:56 11.09.2019
2090 Clear 21 1020 40 10000 5.7 250 16:56 11.09.2019
2091 Clear 21 1020 40 10000 5.7 250 16:56 11.09.2019
2092 Clear 21 1020 40 10000 6.2 250 16:37 11.09.2019
2093 Clear 22 1020 40 10000 6.2 250 16:19 11.09.2019
2094 Clear 22 1020 37 10000 6.2 260 15:46 11.09.2019
2095 Clear 22 1020 37 10000 6.2 260 15:46 11.09.2019
2096 Clear 22 1020 37 10000 5.1 220 15:23 11.09.2019
2097 Clouds 22 1020 37 10000 6.2 210 14:58 11.09.2019
2098 Clear 21 1021 37 10000 6.7 230 14:39 11.09.2019
2099 Clear 21 1021 37 10000 6.7 230 14:20 11.09.2019
2100 Clear 21 1021 40 10000 5.1 230 13:57 11.09.2019
2101 Clear 21 1021 40 10000 6.2 240 13:37 11.09.2019
2102 Clear 21 1021 40 10000 6.2 240 13:18 11.09.2019
2103 Clear 20 1021 42 10000 4.1 240 12:42 11.09.2019
2104 Clear 20 1021 42 10000 4.1 240 12:21 11.09.2019
2105 Clouds 19 1021 48 10000 4.6 210 11:58 11.09.2019
2106 Clear 19 1022 55 10000 3.6 210 11:37 11.09.2019
2107 Clear 18 1022 55 10000 3.6 210 11:19 11.09.2019
2108 Clear 16 1021 58 10000 3.1 180 10:41 11.09.2019
2109 Clear 16 1021 58 10000 3.1 180 10:22 11.09.2019
2110 Clear 14 1021 71 10000 3.1 170 09:57 11.09.2019
2111 Clear 13 1021 71 10000 2.6 160 09:37 11.09.2019
2112 Clear 12 1021 71 10000 2.6 160 09:18 11.09.2019
2113 Clear 12 1021 71 10000 2.6 160 09:18 11.09.2019
2114 Fog 10 1021 81 10000 1.5 0 08:41 11.09.2019
2115 Fog 9 1021 81 10000 1.5 0 08:21 11.09.2019
2116 Fog 8 1021 87 10000 0.5 0 07:57 11.09.2019
2117 Fog 8 1021 81 10000 1 0 07:38 11.09.2019
2118 Fog 7 1021 81 10000 1 0 07:19 11.09.2019
2119 Fog 7 1020 87 10000 1 0 06:38 11.09.2019
2120 Fog 7 1020 87 10000 1 0 06:19 11.09.2019
2121 Fog 7 1020 93 10000 0.5 0 05:33 11.09.2019
2122 Fog 8 1021 93 10000 0.5 180 04:52 11.09.2019
2123 Clouds 8 1020 100 10000 2.29 210.197 03:59 11.09.2019
2124 Clear 8 1020 93 10000 0.5 0 03:26 11.09.2019
2125 Clear 9 1020 93 10000 1 190 02:32 11.09.2019
2126 Clear 9 1020 87 10000 0.5 0 01:32 11.09.2019
2127 Clear 10 1020 87 10000 0.5 0 00:37 11.09.2019
2128 Clear 10 1020 87 10000 0.5 0 00:19 11.09.2019
2129 Clear 10 1019 81 10000 1.5 230 23:40 10.09.2019
2130 Clear 11 1019 81 10000 1.5 230 23:22 10.09.2019
2131 Clouds 11 1019 76 10000 1.5 230 22:57 10.09.2019
2132 Clear 12 1019 66 10000 2.52 252.565 22:37 10.09.2019
2133 Clear 12 1019 66 10000 2.52 252.565 22:18 10.09.2019
2134 Clear 12 1019 62 10000 2.52 252.565 21:55 10.09.2019
2135 Clear 13 1018 62 10000 2.52 252.565 21:36 10.09.2019
2136 Clear 13 1018 62 10000 2.87 272.115 21:18 10.09.2019
2137 Clear 14 1018 54 10000 2.1 280 20:56 10.09.2019
2138 Clear 14 1018 54 10000 2.6 280 20:37 10.09.2019
2139 Clear 15 1018 54 10000 2.6 280 20:18 10.09.2019
2140 Clear 16 1018 45 10000 3.6 280 19:55 10.09.2019
2141 Rain 17 1017 45 10000 3.1 270 19:36 10.09.2019
2142 Clear 17 1017 42 10000 4.1 270 19:18 10.09.2019
2143 Clear 17 1017 42 10000 4.1 270 19:18 10.09.2019
2144 Clear 18 1017 45 10000 4.6 280 18:45 10.09.2019
2145 Clear 18 1017 45 10000 4.6 280 18:23 10.09.2019
2146 Clear 19 1017 39 10000 5.7 270 17:59 10.09.2019
2147 Clear 19 1017 39 10000 5.1 280 17:41 10.09.2019
2148 Clear 19 1017 39 10000 5.1 280 17:20 10.09.2019
2149 Clear 19 1017 42 10000 5.7 280 16:57 10.09.2019
2150 Clear 19 1016 45 10000 6.2 290 16:38 10.09.2019
2151 Clear 19 1016 45 10000 6.2 290 16:19 10.09.2019
2152 Clear 19 1016 48 10000 5.7 280 15:44 10.09.2019
2153 Clear 18 1016 48 10000 5.1 280 15:23 10.09.2019
2154 Clouds 18 1016 51 10000 6.7 300 14:59 10.09.2019
2155 Clouds 18 1016 51 10000 6.7 300 14:59 10.09.2019
2156 Clouds 18 1016 48 10000 6.7 290 14:40 10.09.2019
2157 Clouds 19 1016 48 10000 6.7 290 14:22 10.09.2019
2158 Clouds 18 1016 51 10000 6.2 280 13:48 10.09.2019
2159 Clouds 18 1016 55 10000 7.2 270 13:24 10.09.2019
2160 Clouds 18 1016 55 10000 6.2 270 12:56 10.09.2019
2161 Clouds 17 1016 51 10000 5.7 260 12:38 10.09.2019
2162 Clouds 17 1016 63 10000 6.7 280 12:19 10.09.2019
2163 Clouds 17 1016 67 10000 5.7 280 11:42 10.09.2019
2164 Clouds 16 1016 67 10000 5.7 280 11:23 10.09.2019
2165 Clear 15 1016 62 10000 5.7 280 10:59 10.09.2019
2166 Clear 15 1015 76 10000 5.1 260 10:38 10.09.2019
2167 Clear 14 1015 76 10000 5.1 260 10:18 10.09.2019
2168 Clear 13 1015 81 10000 3.6 260 09:47 10.09.2019
2169 Clear 12 1015 81 10000 3.6 260 09:20 10.09.2019
2170 Clear 12 1015 81 10000 3.6 260 09:20 10.09.2019
2171 Clear 11 1015 87 10000 2.6 270 08:59 10.09.2019
2172 Fog 11 1015 93 10000 2.6 270 08:41 10.09.2019
2173 Clear 10 1015 93 10000 2.6 270 08:21 10.09.2019
2174 Fog 9 1014 93 10000 2.6 270 07:44 10.09.2019
2175 Fog 9 1014 93 10000 2.6 270 07:25 10.09.2019
2176 Fog 9 1014 93 10000 2.6 270 07:25 10.09.2019
2177 Clear 9 1014 93 10000 2.1 250 06:51 10.09.2019
2178 Clear 9 1014 93 10000 2.6 250 06:31 10.09.2019
2179 Fog 10 1014 93 10000 3.1 240 04:57 10.09.2019
2180 Clouds 11 1014 93 10000 2.1 250 02:46 10.09.2019
2181 Clouds 11 1014 93 10000 2.1 250 02:23 10.09.2019
2182 Clouds 11 1013 93 10000 3.1 240 01:55 10.09.2019
2183 Fog 11 1013 93 10000 2.6 250 01:37 10.09.2019
2184 Clouds 12 1014 93 7000 2.1 270 00:46 10.09.2019
2185 Clouds 12 1014 93 7000 2.1 270 00:24 10.09.2019
2186 Fog 12 1013 100 4500 1 250 23:46 09.09.2019
2187 Fog 12 1013 100 4500 1 250 23:20 09.09.2019
2188 Clouds 13 1013 87 10000 1.5 250 22:56 09.09.2019
2189 Rain 13 1013 87 10000 2.1 280 22:38 09.09.2019
2190 Rain 13 1013 87 10000 2.1 280 22:20 09.09.2019
2191 Rain 13 1013 93 10000 2.6 290 21:57 09.09.2019
2192 Rain 13 1013 93 10000 2.1 290 21:38 09.09.2019
2193 Rain 13 1013 93 10000 2.1 290 21:20 09.09.2019
2194 Clouds 14 1013 93 10000 2.6 280 20:56 09.09.2019
2195 Clear 14 1012 93 10000 2.1 270 20:37 09.09.2019
2196 Clear 14 1012 93 10000 2.1 270 20:19 09.09.2019
2197 Clear 14 1012 93 10000 2.1 270 20:19 09.09.2019
2198 Rain 14 1012 93 10000 1 0 19:58 09.09.2019
2199 Rain 14 1012 82 10000 1.5 260 19:39 09.09.2019
2200 Rain 14 1012 87 10000 3.1 260 19:19 09.09.2019
2201 Rain 14 1012 87 10000 3.1 260 18:58 09.09.2019
2202 Rain 14 1012 87 10000 1.5 320 18:40 09.09.2019
2203 Rain 15 1012 93 10000 2.6 280 18:21 09.09.2019
2204 Rain 15 1012 93 10000 2.6 280 17:58 09.09.2019
2205 Rain 15 1012 87 7000 3.1 290 17:40 09.09.2019
2206 Rain 15 1012 87 7000 3.1 290 17:21 09.09.2019
2207 Rain 15 1012 87 10000 0.5 0 16:56 09.09.2019
2208 Drizzle 16 1012 82 10000 1.5 0 16:38 09.09.2019
2209 Drizzle 16 1012 82 10000 1.5 0 16:19 09.09.2019
2210 Clouds 16 1012 77 10000 4.1 300 15:55 09.09.2019
2211 Clouds 16 1012 77 10000 4.1 300 15:55 09.09.2019
2212 Clouds 16 1012 77 10000 4.1 300 15:55 09.09.2019
2213 Clouds 16 1012 77 10000 4.1 290 15:36 09.09.2019
2214 Clouds 16 1012 77 10000 4.1 300 15:18 09.09.2019
2215 Clouds 15 1012 77 10000 4.1 300 14:54 09.09.2019
2216 Clouds 16 1012 82 10000 4.1 300 14:36 09.09.2019
2217 Clouds 16 1012 82 10000 4.1 300 14:18 09.09.2019
2218 Clouds 15 1013 77 10000 3.6 280 13:43 09.09.2019
2219 Clouds 15 1013 77 10000 3.6 280 13:19 09.09.2019
2220 Clouds 14 1013 82 10000 3.1 280 12:57 09.09.2019
2221 Clouds 14 1013 82 8000 3.6 250 12:38 09.09.2019
2222 Clear 14 1013 82 10000 3.6 280 12:19 09.09.2019
2223 Clear 13 1013 82 10000 3.1 300 11:46 09.09.2019
2224 Clear 13 1013 82 10000 3.1 300 11:22 09.09.2019
2225 Clear 13 1013 87 10000 2.6 290 10:58 09.09.2019
2226 Clear 13 1013 87 10000 3.1 290 10:39 09.09.2019
2227 Clear 13 1013 87 10000 3.1 290 10:20 09.09.2019
2228 Clear 13 1013 87 10000 2.6 280 09:56 09.09.2019
2229 Clear 12 1014 87 10000 2.6 290 09:37 09.09.2019
2230 Clear 12 1014 93 10000 2.1 290 09:18 09.09.2019
2231 Clear 12 1014 87 10000 2.1 310 08:38 09.09.2019
2232 Clouds 12 1014 87 10000 2.1 290 08:19 09.09.2019
2233 Clear 11 1014 87 10000 1.5 0 07:46 09.09.2019
2234 Clear 11 1014 87 10000 1.5 0 07:22 09.09.2019
2235 Clouds 11 1014 93 10000 1 0 06:56 09.09.2019
2236 Clouds 11 1014 93 10000 1 0 06:56 09.09.2019
2237 Clouds 11 1014 93 10000 1 0 06:32 09.09.2019
2238 Clouds 12 1015 93 10000 1 0 04:55 09.09.2019
2239 -273 0 0 0 0 0 04:55 09.09.2019
2240 Clouds 12 1015 93 10000 1 0 04:55 09.09.2019
2241 Clouds 12 1016 87 10000 1.5 320 02:54 09.09.2019
2242 Clouds 12 1016 87 10000 2.1 270 02:34 09.09.2019
2243 Clouds 13 1016 87 10000 1 280 00:43 09.09.2019
2244 Clouds 13 1017 87 10000 1 0 00:22 09.09.2019
2245 Clouds 13 1017 87 10000 1.5 240 23:45 08.09.2019
2246 Clouds 14 1017 87 10000 1.5 240 23:24 08.09.2019
2247 Clouds 14 1017 71 10000 1 330 22:56 08.09.2019
2248 Clear 14 1017 82 10000 1 0 22:38 08.09.2019
2249 Clear 14 1017 82 10000 1 0 22:19 08.09.2019
2250 Clear 15 1017 55 10000 1.5 0 21:42 08.09.2019
2251 Clear 15 1017 55 10000 1.5 0 21:23 08.09.2019
2252 Clear 15 1017 55 10000 1.5 0 20:58 08.09.2019
2253 Clear 16 1017 55 10000 1.5 0 20:39 08.09.2019
2254 Clear 16 1017 55 10000 1.5 0 20:20 08.09.2019
2255 Clear 17 1016 52 10000 1 360 19:59 08.09.2019
2256 Clouds 17 1017 63 10000 2.1 330 19:38 08.09.2019
2257 Clear 17 1016 52 10000 1.5 0 19:20 08.09.2019
2258 Clear 18 1016 48 10000 1 0 18:57 08.09.2019
2259 Clouds 18 1017 52 10000 1.5 350 18:38 08.09.2019
2260 Clear 19 1016 45 10000 1.5 0 18:18 08.09.2019
2261 Clear 19 1016 45 10000 1.5 0 17:56 08.09.2019
2262 Clouds 19 1016 45 10000 2.1 20 17:36 08.09.2019
2263 Clouds 19 1017 45 10000 1.5 0 17:18 08.09.2019
2264 Clouds 19 1017 42 10000 1.5 0 16:44 08.09.2019
2265 Clouds 20 1017 42 10000 1.5 0 16:22 08.09.2019
2266 Clear 20 1017 42 10000 2.6 0 15:58 08.09.2019
2267 Clear 19 1017 42 10000 2.1 0 15:40 08.09.2019
2268 Clear 19 1017 42 10000 2.1 0 15:21 08.09.2019
2269 Clouds 19 1017 45 10000 2.1 130 14:57 08.09.2019
2270 Clouds 19 1017 42 10000 2.1 0 14:39 08.09.2019
2271 Clouds 19 1017 42 10000 2.1 0 14:20 08.09.2019
2272 Clouds 19 1017 48 10000 2.1 0 13:56 08.09.2019
2273 Clear 18 1018 55 10000 2.1 80 13:37 08.09.2019
2274 Clouds 18 1018 59 10000 2.1 0 13:19 08.09.2019
2275 Clouds 18 1018 55 10000 1 0 12:42 08.09.2019
2276 Clouds 18 1018 55 10000 1 0 12:42 08.09.2019
2277 Clouds 18 1018 59 10000 1.5 0 12:23 08.09.2019
2278 Clear 17 1018 63 10000 1 0 11:58 08.09.2019
2279 Clear 17 1018 63 10000 1 0 11:40 08.09.2019
2280 Clear 17 1018 63 10000 1 0 11:40 08.09.2019
2281 Clear 16 1018 63 10000 1 0 11:20 08.09.2019
2282 Clear 16 1018 72 10000 0.5 0 10:58 08.09.2019
2283 Clear 15 1018 76 10000 1 0 10:40 08.09.2019
2284 Clear 14 1018 76 10000 1 0 10:21 08.09.2019
2285 Clouds 13 1018 93 10000 3.1 290 09:39 08.09.2019
2286 Clear 11 1018 93 10000 1 100 09:21 08.09.2019
2287 Clear 11 1018 93 10000 1 100 08:57 08.09.2019
2288 Clouds 10 1018 100 10000 0.5 0 08:39 08.09.2019
2289 Fog 9 1018 93 3000 1 70 08:18 08.09.2019
2290 Fog 8 1018 93 2500 0.92 205.983 07:40 08.09.2019
2291 Fog 8 1018 93 2500 0.92 205.983 07:21 08.09.2019
2292 Fog 7 1018 93 700 0.5 0 06:53 08.09.2019
2293 Fog 8 1018 93 700 0.5 0 06:34 08.09.2019
2294 Clear 8 1018 93 10000 1.46 192.989 05:39 08.09.2019
2295 Fog 9 1018 93 10000 1 90 04:27 08.09.2019
2296 Clear 9 1018 93 10000 1 0 03:19 08.09.2019
2297 Clear 9 1018 93 10000 1 0 03:19 08.09.2019
2298 Clear 10 1018 93 10000 0.5 150 02:29 08.09.2019
2299 Clouds 10 1018 100 10000 0.5 0 01:53 08.09.2019
2300 Clear 10 1018 93 10000 0.5 0 01:25 08.09.2019
2301 Clear 10 1018 93 10000 0.5 360 00:47 08.09.2019
2302 Clear 10 1018 93 10000 0.5 360 00:28 08.09.2019
2303 Clouds 10 1018 93 10000 1 260 23:55 07.09.2019
2304 Rain 11 1018 87 10000 1.5 230 23:36 07.09.2019
2305 Rain 11 1018 87 10000 1.5 230 23:36 07.09.2019
2306 Rain 11 1018 93 10000 1 0 23:18 07.09.2019
2307 Rain 11 1018 87 10000 1.5 260 22:42 07.09.2019
2308 Rain 11 1018 87 10000 1.5 260 22:23 07.09.2019
2309 Rain 12 1018 87 10000 2.46 161.366 21:56 07.09.2019
2310 Rain 12 1018 71 10000 2.1 270 21:37 07.09.2019
2311 Rain 12 1018 71 10000 2.1 270 21:19 07.09.2019
2312 Rain 14 1017 67 10000 2.6 260 20:39 07.09.2019
2313 Clear 14 1017 67 10000 2.6 250 20:21 07.09.2019
2314 Clear 15 1017 67 10000 2.6 250 19:56 07.09.2019
2315 Clear 16 1017 63 10000 3.1 240 19:38 07.09.2019
2316 Clear 16 1017 67 10000 3.1 240 19:19 07.09.2019
2317 Clear 17 1017 67 10000 3.1 240 18:58 07.09.2019
2318 Clear 17 1018 63 10000 3.6 230 18:39 07.09.2019
2319 Clouds 17 1018 67 10000 3.1 250 18:20 07.09.2019
2320 Clouds 16 1018 67 10000 3.1 250 17:58 07.09.2019
2321 Clouds 16 1018 67 10000 3.1 250 17:58 07.09.2019
2322 Clouds 16 1018 67 10000 3.1 250 17:58 07.09.2019
2323 Clouds 16 1018 67 10000 4.1 260 17:39 07.09.2019
2324 Clouds 16 1018 67 10000 4.1 260 17:18 07.09.2019
2325 Clouds 17 1018 67 10000 4.6 250 16:56 07.09.2019
2326 Clear 17 1018 63 10000 4.6 240 16:38 07.09.2019
2327 Clear 17 1018 63 10000 4.6 240 16:18 07.09.2019
2328 Clear 16 1018 63 10000 4.1 230 15:44 07.09.2019
2329 Clear 16 1018 63 10000 4.1 230 15:25 07.09.2019
2330 Clear 15 1018 67 10000 4.6 230 14:56 07.09.2019
2331 Clear 15 1018 67 10000 4.1 240 14:36 07.09.2019
2332 Drizzle 14 1018 76 10000 3.6 230 14:18 07.09.2019
2333 Drizzle 14 1018 76 10000 3.6 230 13:56 07.09.2019
2334 Drizzle 14 1018 76 10000 3.6 230 13:56 07.09.2019
2335 Drizzle 14 1018 76 10000 4.6 230 13:37 07.09.2019
2336 Drizzle 14 1018 67 10000 4.6 250 13:19 07.09.2019
2337 Rain 14 1018 87 10000 1.5 160 12:44 07.09.2019
2338 Rain 14 1018 87 10000 1.5 160 12:24 07.09.2019
2339 Clouds 15 1018 59 10000 4.1 270 11:42 07.09.2019
2340 Clouds 15 1018 59 10000 4.1 270 11:22 07.09.2019
2341 Clear 15 1018 59 10000 4.1 260 10:59 07.09.2019
2342 Rain 15 1018 62 10000 3.1 270 10:38 07.09.2019
2343 Rain 14 1018 62 10000 3.1 270 10:19 07.09.2019
2344 Rain 14 1018 58 10000 2.6 230 09:43 07.09.2019
2345 Rain 14 1018 58 10000 2.6 230 09:25 07.09.2019
2346 Rain 13 1017 82 10000 1 140 08:59 07.09.2019
2347 Rain 13 1017 82 10000 2.1 290 08:40 07.09.2019
2348 Rain 13 1017 82 10000 2.1 290 08:22 07.09.2019
2349 Rain 13 1017 67 10000 2.6 250 07:45 07.09.2019
2350 Rain 13 1017 67 10000 2.6 250 07:25 07.09.2019
2351 Rain 13 1017 58 10000 2.6 230 06:47 07.09.2019
2352 Rain 13 1017 58 10000 2.6 230 06:19 07.09.2019
2353 Clear 13 1017 58 10000 2.1 240 04:48 07.09.2019
2354 Clear 13 1017 54 10000 2.6 240 04:20 07.09.2019
2355 Clear 12 1018 54 10000 2.1 190 02:45 07.09.2019
2356 Clear 12 1018 54 10000 2.1 190 01:46 07.09.2019
2357 Clear 13 1018 54 10000 2.1 190 01:21 07.09.2019
2358 Clear 14 1018 58 10000 2.1 190 00:40 07.09.2019
2359 Clear 14 1018 58 10000 2.1 190 00:19 07.09.2019
2360 Clear 14 1019 51 10000 1 0 23:40 06.09.2019
2361 Clear 14 1019 51 10000 1 0 23:22 06.09.2019
2362 Clouds 15 1018 51 10000 0.5 200 22:58 06.09.2019
2363 Clear 15 1019 54 10000 1.5 0 22:38 06.09.2019
2364 Clear 15 1019 54 10000 1.5 0 22:19 06.09.2019
2365 Clear 15 1019 54 10000 1.5 0 22:19 06.09.2019
2366 Clear 15 1019 54 10000 1.5 0 21:57 06.09.2019
2367 Clear 15 1019 48 10000 1.5 180 21:39 06.09.2019
2368 Clear 15 1019 48 10000 1.5 180 21:20 06.09.2019
2369 Clear 15 1019 51 10000 1.5 180 20:57 06.09.2019
2370 Clear 16 1019 45 10000 1.5 220 20:39 06.09.2019
2371 Clear 16 1019 45 10000 1.5 220 20:39 06.09.2019
2372 Clear 16 1019 45 10000 1.5 220 20:21 06.09.2019
2373 Clear 17 1019 42 10000 2.6 220 19:57 06.09.2019
2374 Clear 18 1020 39 10000 3.6 240 19:39 06.09.2019
2375 Clear 19 1020 39 10000 4.1 230 19:20 06.09.2019
2376 Clouds 19 1019 39 10000 3.6 220 18:46 06.09.2019
2377 Clear 20 1020 34 10000 3.6 250 18:25 06.09.2019
2378 Clear 20 1020 39 10000 4.1 250 17:59 06.09.2019
2379 Clear 19 1020 39 10000 4.1 250 17:59 06.09.2019
2380 Clear 20 1020 37 10000 3.1 240 17:38 06.09.2019
2381 Clear 20 1020 37 10000 3.1 240 17:19 06.09.2019
2382 Clear 20 1021 37 10000 4.6 240 16:41 06.09.2019
2383 Clear 20 1022 37 10000 3.1 240 16:19 06.09.2019
2384 Clear 19 1022 37 10000 3.6 220 15:44 06.09.2019
2385 Clear 19 1022 37 10000 3.6 220 15:26 06.09.2019
2386 Clear 19 1022 37 10000 4.6 240 14:59 06.09.2019
2387 Clear 19 1023 39 10000 4.1 280 14:39 06.09.2019
2388 Clear 19 1023 39 10000 4.1 240 14:18 06.09.2019
2389 Clouds 18 1023 42 10000 4.6 270 13:43 06.09.2019
2390 Clouds 18 1023 42 10000 4.6 270 13:43 06.09.2019
2391 Clouds 18 1023 42 10000 4.6 270 13:22 06.09.2019
2392 Clouds 17 1024 51 10000 5.1 250 12:39 06.09.2019
2393 Clouds 17 1024 51 10000 5.1 250 12:21 06.09.2019
2394 Clouds 17 1024 54 10000 5.7 260 11:58 06.09.2019
2395 Clear 16 1024 58 10000 5.1 240 11:40 06.09.2019
2396 Clear 15 1024 58 10000 5.1 240 11:21 06.09.2019
2397 Clear 14 1024 67 10000 4.1 220 10:43 06.09.2019
2398 Clear 14 1024 67 10000 4.1 220 10:22 06.09.2019
2399 Clear 13 1024 71 10000 4.1 220 09:58 06.09.2019
2400 Clear 12 1024 76 10000 3.1 210 09:37 06.09.2019
2401 Clear 11 1024 81 10000 2.1 220 09:19 06.09.2019
2402 Fog 10 1024 87 10000 1.5 230 08:45 06.09.2019
2403 Fog 9 1024 87 10000 1.5 230 08:26 06.09.2019
2404 Fog 9 1024 87 10000 1 0 07:51 06.09.2019
2405 Fog 8 1024 87 10000 1 0 07:28 06.09.2019
2406 Fog 8 1024 100 10000 1.5 210 06:59 06.09.2019
2407 Fog 8 1024 100 10000 1.5 210 06:41 06.09.2019
2408 Clear 8 1024 87 10000 1.5 230 05:47 06.09.2019
2409 Clear 8 1024 87 10000 2.1 240 04:56 06.09.2019
2410 Clear 8 1024 87 10000 2.6 250 04:25 06.09.2019
2411 Clear 9 1024 81 10000 2.6 230 02:46 06.09.2019
2412 Clear 10 1024 81 10000 3.1 260 01:31 06.09.2019
2413 Clear 11 1023 76 10000 3.1 260 00:23 06.09.2019
2414 Clouds 11 1023 76 10000 3.1 250 23:42 05.09.2019
2415 Clouds 12 1023 76 10000 3.1 250 23:22 05.09.2019
2416 Clear 12 1022 62 10000 2.6 290 22:46 05.09.2019
2417 Clear 12 1022 62 10000 2.6 290 22:28 05.09.2019
2418 Clear 13 1021 62 10000 3.6 310 21:58 05.09.2019
2419 Rain 13 1021 62 10000 4.1 320 21:40 05.09.2019
2420 Rain 13 1021 62 10000 4.1 320 21:21 05.09.2019
2421 Rain 14 1020 58 10000 5.7 300 20:58 05.09.2019
2422 Clouds 14 1020 59 10000 5.7 280 20:40 05.09.2019
2423 Clouds 14 1020 59 10000 5.7 280 20:22 05.09.2019
2424 Clouds 15 1019 59 10000 5.7 290 20:00 05.09.2019
2425 Clouds 15 1020 62 10000 4.6 310 19:41 05.09.2019
2426 Clouds 15 1018 55 10000 6.2 290 19:22 05.09.2019
2427 Clouds 15 1018 55 10000 6.2 290 18:57 05.09.2019
2428 Clouds 15 1018 55 10000 5.7 270 18:38 05.09.2019
2429 Rain 16 1018 59 10000 4.6 300 18:19 05.09.2019
2430 Clouds 17 1018 63 10000 7.7 310 17:41 05.09.2019
2431 Clouds 16 1018 63 10000 7.7 310 17:22 05.09.2019
2432 Rain 17 1017 52 10000 6.2 290 16:58 05.09.2019
2433 Rain 17 1017 52 10000 6.2 290 16:58 05.09.2019
2434 Rain 17 1017 52 10000 7.2 300 16:40 05.09.2019
2435 Rain 17 1017 52 10000 7.2 300 16:20 05.09.2019
2436 Rain 18 1016 48 10000 7.7 290 15:56 05.09.2019
2437 Clouds 18 1016 55 10000 5.1 300 15:38 05.09.2019
2438 Rain 18 1016 59 10000 7.2 290 15:18 05.09.2019
2439 Rain 18 1016 59 10000 7.2 290 15:18 05.09.2019
2440 Rain 19 1016 59 10000 6.7 270 14:42 05.09.2019
2441 Rain 18 1016 59 10000 6.7 270 14:21 05.09.2019
2442 Clouds 18 1015 59 10000 8.7 270 13:44 05.09.2019
2443 Clouds 18 1015 59 10000 8.7 270 13:23 05.09.2019
2444 Clouds 17 1014 55 10000 8.7 270 12:59 05.09.2019
2445 Clouds 18 1014 59 10000 9.3 240 12:40 05.09.2019
2446 Clouds 17 1014 63 10000 8.7 260 12:21 05.09.2019
2447 Clouds 17 1014 67 10000 7.2 260 11:44 05.09.2019
2448 Clouds 16 1014 67 10000 7.2 260 11:20 05.09.2019
2449 Clouds 16 1013 63 10000 7.7 240 10:55 05.09.2019
2450 Clear 16 1013 67 10000 6.2 250 10:36 05.09.2019
2451 Clouds 16 1013 67 10000 10.3 240 10:18 05.09.2019
2452 Clear 15 1013 82 10000 3.6 210 09:40 05.09.2019
2453 Clear 15 1013 82 10000 3.6 210 09:20 05.09.2019
2454 Clear 14 1013 87 10000 3.1 200 08:55 05.09.2019
2455 Clear 14 1013 87 10000 3.1 200 08:55 05.09.2019
2456 Clear 14 1013 87 10000 2.6 200 08:37 05.09.2019
2457 Clouds 13 1013 93 10000 2.1 200 08:19 05.09.2019
2458 Clear 12 1013 87 10000 2.1 160 07:42 05.09.2019
2459 Clear 12 1013 87 10000 2.1 160 07:23 05.09.2019
2460 Clouds 12 1012 93 10000 1.5 200 06:46 05.09.2019
2461 Clear 12 1012 87 10000 2.6 190 06:25 05.09.2019
2462 Clear 12 1012 87 10000 2.1 220 05:43 05.09.2019
2463 Clear 12 1012 87 10000 2.1 220 05:25 05.09.2019
2464 Clear 13 1013 87 10000 3.6 240 04:30 05.09.2019
2465 Clouds 14 1012 87 10000 3.1 270 03:47 05.09.2019
2466 Clouds 14 1012 87 10000 2.1 250 02:57 05.09.2019
2467 Clouds 14 1012 82 10000 3.6 260 02:29 05.09.2019
2468 Clouds 15 1012 82 10000 4.1 240 01:57 05.09.2019
2469 Clouds 16 1012 87 10000 4.6 230 00:58 05.09.2019
2470 Clouds 16 1012 87 10000 4.6 230 00:39 05.09.2019
2471 Clouds 16 1012 87 10000 4.1 250 00:19 05.09.2019
2472 Rain 16 1012 87 10000 2.6 240 23:41 04.09.2019
2473 Rain 16 1012 87 10000 2.6 240 23:22 04.09.2019
2474 Rain 16 1012 77 10000 4.6 290 22:49 04.09.2019
2475 Rain 16 1012 77 10000 8.2 300 22:21 04.09.2019
2476 Rain 17 1012 77 10000 8.2 300 21:57 04.09.2019
2477 Rain 17 1012 82 8000 1.5 240 21:38 04.09.2019
2478 Rain 17 1012 82 8000 1.5 240 21:38 04.09.2019
2479 Drizzle 18 1012 77 7000 6.7 260 21:19 04.09.2019
2480 Drizzle 19 1011 46 10000 2.1 270 20:55 04.09.2019
2481 Rain 20 1011 46 10000 3.1 240 20:37 04.09.2019
2482 Rain 20 1011 40 10000 3.6 250 20:18 04.09.2019
2483 Clear 21 1011 40 10000 3.6 250 20:18 04.09.2019
2484 Clouds 21 1011 49 10000 3.1 260 19:43 04.09.2019
2485 Clear 22 1011 43 10000 3.6 250 19:23 04.09.2019
2486 Clear 22 1011 40 10000 4.6 250 18:55 04.09.2019
2487 Clouds 23 1011 43 10000 5.1 240 18:37 04.09.2019
2488 Clear 24 1011 38 10000 4.6 230 18:19 04.09.2019
2489 Clear 24 1012 38 10000 6.2 250 17:41 04.09.2019
2490 Clear 24 1012 38 10000 6.2 250 17:23 04.09.2019
2491 Clear 24 1012 40 10000 6.7 250 16:57 04.09.2019
2492 Clouds 24 1013 40 10000 5.7 230 16:39 04.09.2019
2493 Clouds 24 1013 40 10000 5.7 230 16:20 04.09.2019
2494 -273 0 0 0 0 0 15:55 04.09.2019
2495 Clouds 23 1013 46 10000 4.6 250 15:37 04.09.2019
2496 Clouds 23 1014 46 10000 5.7 240 15:18 04.09.2019
2497 Clouds 23 1014 46 10000 5.7 240 14:54 04.09.2019
2498 Clouds 22 1014 49 10000 5.1 240 14:36 04.09.2019
2499 Clouds 22 1015 52 10000 4.1 230 14:18 04.09.2019
2500 Clouds 21 1014 49 10000 5.7 180 13:39 04.09.2019
2501 Clouds 20 1016 55 10000 4.1 230 13:21 04.09.2019
2502 Clouds 19 1015 52 10000 5.1 180 12:45 04.09.2019
2503 Clouds 19 1015 52 10000 5.1 180 12:27 04.09.2019
2504 Clouds 19 1017 59 10000 4.1 220 11:59 04.09.2019
2505 Clouds 19 1017 63 10000 2.1 200 11:40 04.09.2019
2506 Clouds 18 1017 63 10000 2.1 200 11:21 04.09.2019
2507 Clouds 18 1017 67 10000 2.6 180 10:58 04.09.2019
2508 Clouds 18 1017 67 10000 2.6 170 10:39 04.09.2019
2509 Clouds 18 1017 67 10000 2.6 170 10:21 04.09.2019
2510 Clear 17 1018 72 10000 2.1 160 09:46 04.09.2019
2511 Clear 16 1018 72 10000 2.1 160 09:22 04.09.2019
2512 Clear 16 1018 77 10000 2.1 160 08:58 04.09.2019
2513 Clouds 16 1018 77 10000 2.6 170 08:39 04.09.2019
2514 Clouds 15 1018 77 10000 2.6 170 08:19 04.09.2019
2515 Clear 15 1019 77 10000 2.1 160 07:43 04.09.2019
2516 Clear 15 1019 77 10000 2.1 160 07:24 04.09.2019
2517 Clouds 14 1018 82 10000 1.5 190 06:39 04.09.2019
2518 Clouds 14 1019 87 10000 0.5 180 04:57 04.09.2019
2519 Clouds 14 1020 87 10000 1.5 200 04:25 04.09.2019
2520 Clear 14 1020 87 10000 2.1 200 03:45 04.09.2019
2521 Clear 15 1021 82 10000 1.5 240 01:22 04.09.2019
2522 Clouds 15 1021 77 10000 2.6 230 00:50 04.09.2019
2523 Clouds 15 1021 77 10000 2.6 230 00:32 04.09.2019
2524 Clouds 16 1021 77 10000 2.1 240 23:54 03.09.2019
2525 Clouds 16 1021 77 10000 2.1 240 23:54 03.09.2019
2526 Clear 16 1022 72 10000 3.1 250 23:28 03.09.2019
2527 Clouds 17 1021 72 10000 2.6 220 22:59 03.09.2019
2528 Clouds 17 1022 72 10000 3.6 260 22:40 03.09.2019
2529 Clouds 17 1022 72 10000 3.6 260 22:21 03.09.2019
2530 Clouds 17 1022 72 10000 4.1 260 21:56 03.09.2019
2531 Clouds 17 1022 72 10000 4.1 260 21:56 03.09.2019
2532 Clouds 17 1022 72 10000 4.1 260 21:56 03.09.2019
2533 Clouds 17 1022 72 10000 4.1 260 21:37 03.09.2019
2534 Clouds 17 1022 68 10000 4.1 250 21:18 03.09.2019
2535 Rain 18 1021 77 10000 1.5 250 20:42 03.09.2019
2536 Rain 18 1021 77 10000 1.5 250 20:42 03.09.2019
2537 Clouds 18 1022 63 10000 3.6 260 20:24 03.09.2019
2538 Clouds 18 1022 63 10000 3.6 260 20:24 03.09.2019
2539 Clouds 18 1021 63 10000 4.6 260 19:56 03.09.2019
2540 Rain 18 1021 77 10000 1.5 240 19:38 03.09.2019
2541 Rain 18 1021 77 10000 1.5 240 19:38 03.09.2019
2542 Clouds 18 1022 59 10000 6.2 270 19:19 03.09.2019
2543 Rain 19 1021 63 10000 6.2 240 18:47 03.09.2019
2544 Clouds 19 1021 59 10000 6.2 260 18:27 03.09.2019
2545 Clouds 19 1022 59 10000 5.7 250 17:59 03.09.2019
2546 Clouds 19 1022 59 10000 6.2 270 17:41 03.09.2019
2547 Clouds 19 1022 59 10000 6.2 270 17:20 03.09.2019
2548 Clouds 19 1022 56 10000 5.1 270 16:59 03.09.2019
2549 Clouds 19 1021 56 10000 5.1 280 16:39 03.09.2019
2550 Clouds 20 1021 56 10000 6.2 270 16:20 03.09.2019
2551 Clouds 20 1021 56 10000 6.7 280 15:41 03.09.2019
2552 Clouds 20 1021 56 10000 6.7 280 15:22 03.09.2019
2553 Clear 20 1022 55 10000 5.7 270 14:58 03.09.2019
2554 Clouds 20 1022 59 10000 5.1 260 14:40 03.09.2019
2555 Clouds 20 1022 59 10000 5.1 260 14:21 03.09.2019
2556 Clouds 19 1022 55 10000 5.1 260 13:58 03.09.2019
2557 Clouds 19 1021 59 10000 7.2 240 13:37 03.09.2019
2558 Clouds 19 1022 51 10000 6.7 240 13:19 03.09.2019
2559 Clouds 18 1022 51 10000 6.7 240 12:57 03.09.2019
2560 Clouds 18 1021 55 10000 6.2 230 12:38 03.09.2019
2561 Clear 18 1022 59 10000 4.6 240 12:20 03.09.2019
2562 Clear 17 1022 59 10000 4.6 250 11:42 03.09.2019
2563 Clear 16 1022 59 10000 4.6 250 11:23 03.09.2019
2564 Drizzle 16 1022 59 10000 4.1 250 10:57 03.09.2019
2565 Rain 16 1022 51 10000 4.6 240 10:39 03.09.2019
2566 Rain 16 1022 51 10000 4.6 240 10:20 03.09.2019
2567 Clear 15 1022 62 10000 1.5 0 09:44 03.09.2019
2568 Clear 15 1022 62 10000 1.5 0 09:26 03.09.2019
2569 Clear 15 1022 66 10000 1.5 0 08:56 03.09.2019
2570 Clear 14 1022 66 10000 1.5 0 08:37 03.09.2019
2571 Clear 13 1022 76 10000 1 110 08:19 03.09.2019
2572 Clear 13 1022 71 10000 4.7 220.9 07:42 03.09.2019
2573 Clear 13 1022 71 10000 4.7 220.9 07:23 03.09.2019
2574 Clouds 12 1021 81 10000 1.5 180 06:45 03.09.2019
2575 Clouds 12 1021 81 10000 1.5 180 06:27 03.09.2019
2576 Clear 11 1022 66 10000 2.1 190 03:44 03.09.2019
2577 Clear 11 1023 71 10000 1.5 200 02:47 03.09.2019
2578 Clear 11 1023 71 10000 1.5 200 02:26 03.09.2019
2579 Clouds 10 1023 87 10000 0.5 220 01:53 03.09.2019
2580 Clouds 11 1023 87 10000 0.5 220 01:34 03.09.2019
2581 Clear 11 1023 66 10000 1.5 180 00:57 03.09.2019
2582 Clouds 11 1023 87 10000 1 230 00:27 03.09.2019
2583 Clear 11 1023 76 10000 0.5 0 23:41 02.09.2019
2584 Clear 11 1023 76 10000 0.5 0 23:41 02.09.2019
2585 Clear 12 1023 76 10000 0.5 0 23:20 02.09.2019
2586 Clouds 13 1023 76 10000 0.5 170 22:58 02.09.2019
2587 Clear 13 1023 62 10000 1.6 279.586 22:39 02.09.2019
2588 Clear 13 1023 58 10000 0.5 0 22:21 02.09.2019
2589 Clear 14 1023 58 10000 0.5 0 21:58 02.09.2019
2590 Clear 14 1022 58 10000 1.71 249.393 21:40 02.09.2019
2591 Clear 14 1022 58 10000 1.71 249.393 21:40 02.09.2019
2592 Clear 15 1022 58 10000 2.17 290.287 21:20 02.09.2019
2593 Clear 15 1022 48 10000 0.5 350 20:59 02.09.2019
2594 Clouds 16 1022 59 10000 0.5 310 20:40 02.09.2019
2595 Clear 17 1022 42 10000 2.1 330 20:21 02.09.2019
2596 Clear 18 1022 39 10000 4.1 280 19:57 02.09.2019
2597 Clear 19 1022 39 10000 4.1 280 19:39 02.09.2019
2598 Clear 19 1022 34 10000 4.6 300 19:21 02.09.2019
2599 Clear 20 1022 42 10000 3.6 320 18:41 02.09.2019
2600 Clear 20 1021 35 10000 5.1 290 18:23 02.09.2019
2601 Clear 20 1021 37 10000 5.7 290 17:59 02.09.2019
2602 Clear 20 1021 37 10000 6.2 310 17:40 02.09.2019
2603 Clear 21 1021 37 10000 6.2 310 17:21 02.09.2019
2604 Clear 20 1021 40 10000 6.2 270 16:59 02.09.2019
2605 Clear 21 1021 40 10000 5.1 270 16:38 02.09.2019
2606 Clear 21 1021 40 10000 5.1 270 16:20 02.09.2019
2607 Clear 21 1021 42 10000 4.6 300 15:45 02.09.2019
2608 Clear 20 1021 42 10000 4.6 300 15:27 02.09.2019
2609 Clear 20 1021 42 10000 4.6 300 15:27 02.09.2019
2610 Clear 20 1022 42 10000 5.7 310 14:58 02.09.2019
2611 Clear 20 1022 42 10000 5.7 270 14:39 02.09.2019
2612 Clear 20 1022 42 10000 5.7 270 14:21 02.09.2019
2613 Clear 20 1022 42 10000 6.2 270 13:56 02.09.2019
2614 Clouds 19 1021 42 10000 5.7 250 13:37 02.09.2019
2615 Clouds 19 1021 48 10000 5.1 260 13:19 02.09.2019
2616 Clouds 18 1021 48 10000 6.2 250 12:45 02.09.2019
2617 Clouds 18 1021 48 10000 6.2 250 12:25 02.09.2019
2618 Clouds 18 1021 48 10000 6.2 250 12:25 02.09.2019
2619 Clouds 18 1021 55 10000 5.1 270 11:59 02.09.2019
2620 Clouds 17 1021 59 10000 4.6 290 11:39 02.09.2019
2621 Clouds 17 1021 59 10000 4.6 290 11:21 02.09.2019
2622 Clear 17 1021 59 10000 4.6 280 10:57 02.09.2019
2623 Clear 16 1021 67 10000 5.1 270 10:38 02.09.2019
2624 Clear 16 1021 67 10000 5.1 270 10:20 02.09.2019
2625 Clear 15 1021 72 10000 5.1 260 09:55 02.09.2019
2626 Clear 14 1020 76 10000 3.6 250 09:37 02.09.2019
2627 Clear 14 1020 82 10000 3.1 270 09:18 02.09.2019
2628 Clear 13 1020 87 10000 2.6 270 08:39 02.09.2019
2629 Clear 13 1020 87 10000 2.6 270 08:39 02.09.2019
2630 Clear 13 1020 87 10000 2.6 270 08:39 02.09.2019
2631 Clear 12 1020 87 10000 2.6 270 08:18 02.09.2019
2632 Clouds 11 1020 93 10000 2.6 220 07:41 02.09.2019
2633 Fog 11 1020 81 10000 3.1 250 07:21 02.09.2019
2634 Fog 10 1019 93 10000 2.1 230 06:48 02.09.2019
2635 Fog 10 1019 93 10000 2.1 230 06:29 02.09.2019
2636 Fog 10 1019 93 10000 1.5 250 05:49 02.09.2019
2637 Fog 10 1019 93 10000 1.5 250 05:19 02.09.2019
2638 Fog 11 1019 87 10000 2.6 250 04:21 02.09.2019
2639 Fog 12 1018 87 10000 1.5 230 01:48 02.09.2019
2640 Clouds 13 1018 81 10000 1 0 00:53 02.09.2019
2641 Clouds 13 1017 87 10000 1.5 230 00:32 02.09.2019
2642 Clouds 13 1017 82 10000 2.1 280 23:48 01.09.2019
2643 Clouds 14 1017 82 10000 2.1 280 23:23 01.09.2019
2644 Clouds 14 1016 71 10000 1 240 22:59 01.09.2019
2645 Clear 14 1016 87 10000 3.1 270 22:40 01.09.2019
2646 Clear 15 1016 77 10000 3.1 260 22:20 01.09.2019
2647 Clear 15 1016 77 10000 3.1 260 21:59 01.09.2019
2648 Clear 15 1016 77 10000 2.1 250 21:40 01.09.2019
2649 Clear 16 1016 77 10000 2.1 250 21:22 01.09.2019
2650 Clear 16 1015 72 10000 2.1 240 20:57 01.09.2019
2651 Clouds 16 1015 55 10000 1.5 280 20:38 01.09.2019
2652 Clear 17 1015 77 10000 1 0 20:19 01.09.2019
2653 Clear 17 1015 77 10000 1 0 19:58 01.09.2019
2654 Clear 17 1015 77 10000 1 0 19:39 01.09.2019
2655 Clear 17 1015 77 10000 2.6 270 19:20 01.09.2019
2656 Drizzle 17 1015 67 10000 3.1 310 18:44 01.09.2019
2657 Drizzle 18 1015 67 10000 3.1 310 18:25 01.09.2019
2658 Clouds 18 1014 72 10000 4.1 310 17:57 01.09.2019
2659 Clouds 18 1014 68 10000 7.2 300 17:38 01.09.2019
2660 Clouds 19 1013 56 10000 7.2 300 17:19 01.09.2019
2661 Clouds 19 1013 60 10000 7.2 300 16:41 01.09.2019
2662 Clouds 19 1013 60 10000 7.2 300 16:21 01.09.2019
2663 Clouds 19 1012 60 10000 6.2 310 15:58 01.09.2019
2664 Clouds 20 1012 53 10000 7.2 280 15:39 01.09.2019
2665 Clouds 21 1012 53 10000 7.2 280 15:20 01.09.2019
2666 Clouds 22 1012 53 10000 6.2 290 14:42 01.09.2019
2667 Clouds 22 1012 53 10000 6.2 290 14:22 01.09.2019
2668 Clouds 22 1012 60 10000 6.2 290 13:59 01.09.2019
2669 Clouds 22 1012 56 10000 6.2 290 13:40 01.09.2019
2670 Clouds 22 1012 56 10000 6.2 290 13:21 01.09.2019
2671 Clouds 21 1012 68 10000 5.7 280 12:43 01.09.2019
2672 Clouds 21 1012 68 10000 5.7 280 12:25 01.09.2019
2673 Clouds 21 1012 68 10000 5.7 290 11:56 01.09.2019
2674 Clouds 20 1011 72 10000 6.2 300 11:38 01.09.2019
2675 Clouds 21 1011 77 10000 4.6 290 11:18 01.09.2019
2676 Clouds 20 1011 77 10000 5.1 290 10:44 01.09.2019
2677 Clouds 20 1011 77 10000 5.1 290 10:23 01.09.2019
2678 Clouds 20 1010 73 10000 5.7 290 09:47 01.09.2019
2679 Clouds 20 1010 73 10000 5.7 290 09:26 01.09.2019
2680 Clouds 20 1010 82 10000 3.6 260 08:56 01.09.2019
2681 Clouds 20 1010 82 10000 5.1 280 08:38 01.09.2019
2682 Clouds 20 1009 77 10000 4.6 250 08:19 01.09.2019
2683 Clouds 20 1009 82 10000 6.2 270 07:41 01.09.2019
2684 Clouds 20 1009 82 10000 6.2 270 07:20 01.09.2019
2685 Clouds 20 1008 73 10000 3.6 250 06:38 01.09.2019
2686 Clouds 20 1008 77 10000 5.7 270 05:59 01.09.2019
2687 Clear 20 1008 77 10000 2.1 200 04:43 01.09.2019
2688 Clear 21 1007 73 10000 1 230 03:49 01.09.2019
2689 Clear 21 1007 73 10000 1 230 03:30 01.09.2019
2690 Clear 22 1008 64 10000 3.6 280 02:37 01.09.2019
2691 Clear 22 1008 64 10000 3.6 280 02:19 01.09.2019
2692 Rain 22 1007 68 10000 0.5 170 01:29 01.09.2019
2693 Rain 23 1007 60 10000 2.1 120 00:57 01.09.2019
2694 Rain 23 1007 60 10000 2.1 120 00:38 01.09.2019
2695 Clear 23 1007 53 10000 2.1 170 00:19 01.09.2019
2696 Clear 23 1008 50 10000 1 0 23:41 31.08.2019
2697 Clear 23 1008 64 10000 1.5 110 23:21 31.08.2019
2698 Clear 23 1008 64 10000 1.5 110 22:55 31.08.2019
2699 Clear 23 1008 60 10000 1.5 100 22:37 31.08.2019
2700 Clear 24 1009 61 10000 0.5 0 22:19 31.08.2019
2701 Clear 25 1010 44 10000 1.5 120 21:44 31.08.2019
2702 Clear 26 1010 44 10000 1.5 120 21:23 31.08.2019
2703 Clear 27 1010 44 10000 1.5 120 20:59 31.08.2019
2704 Clear 27 1010 39 10000 1.5 140 20:41 31.08.2019
2705 Clear 27 1010 39 10000 1.5 140 20:41 31.08.2019
2706 Clear 28 1010 39 10000 1.5 140 20:23 31.08.2019
2707 Clear 28 1010 39 10000 1.5 140 20:23 31.08.2019
2708 Clouds 31 1009 35 10000 2.1 150 19:43 31.08.2019
2709 Clear 31 1010 33 10000 3.1 150 19:23 31.08.2019
2710 Clear 31 1010 33 10000 3.1 150 18:58 31.08.2019
2711 Clouds 31 1009 33 10000 4.1 170 18:38 31.08.2019
2712 -273 0 0 0 0 0 18:19 31.08.2019
2713 Clear 32 1011 35 10000 3.1 150 17:55 31.08.2019
2714 Clear 32 1011 31 10000 3.6 180 17:37 31.08.2019
2715 Clear 32 1011 31 10000 3.6 180 17:37 31.08.2019
2716 Clear 32 1011 31 10000 3.6 180 17:18 31.08.2019
2717 Clear 32 1012 35 10000 3.6 150 16:55 31.08.2019
2718 Clear 32 1012 33 10000 3.6 160 16:37 31.08.2019
2719 Clear 32 1013 33 10000 4.1 190 16:18 31.08.2019
2720 Clear 32 1013 38 10000 1.5 0 15:41 31.08.2019
2721 Clear 32 1013 38 10000 1.5 0 15:19 31.08.2019
2722 Clear 32 1014 43 10000 3.6 160 14:55 31.08.2019
2723 Clear 32 1014 40 10000 3.6 140 14:36 31.08.2019
2724 Clear 31 1014 43 10000 4.1 150 14:18 31.08.2019
2725 Clear 31 1015 45 10000 3.6 170 13:40 31.08.2019
2726 Clear 30 1015 45 10000 3.6 170 13:21 31.08.2019
2727 Clear 30 1015 45 10000 2.6 170 12:58 31.08.2019
2728 Clouds 29 1015 48 10000 3.6 140 12:38 31.08.2019
2729 Clear 29 1016 51 10000 2.1 150 12:19 31.08.2019
2730 Clear 29 1016 51 10000 2.1 150 12:19 31.08.2019
2731 Clear 28 1016 61 10000 1 0 11:48 31.08.2019
2732 Clear 27 1016 61 10000 1 0 11:29 31.08.2019
2733 Clear 26 1017 64 10000 1.5 0 10:59 31.08.2019
2734 Clear 25 1017 68 10000 2.1 130 10:41 31.08.2019
2735 Clear 24 1017 77 10000 2.1 130 10:19 31.08.2019
2736 Clear 22 1017 77 10000 2.1 130 09:56 31.08.2019
2737 Clear 21 1017 73 10000 1.5 0 09:37 31.08.2019
2738 Clouds 20 1017 82 10000 1.5 60 09:19 31.08.2019
2739 Fog 19 1017 88 9000 0.5 0 08:42 31.08.2019
2740 Fog 18 1017 88 9000 0.5 0 08:23 31.08.2019
2741 Fog 16 1017 93 9000 1.5 80 07:40 31.08.2019
2742 Fog 15 1017 93 9000 1.5 80 07:22 31.08.2019
2743 Fog 15 1018 93 10000 0.5 90 06:41 31.08.2019
2744 Fog 15 1018 93 10000 0.5 90 06:41 31.08.2019
2745 Fog 15 1018 93 9000 1 0 06:18 31.08.2019
2746 Fog 15 1018 93 9000 1 0 05:34 31.08.2019
2747 Fog 16 1019 93 10000 0.5 0 04:36 31.08.2019
2748 Fog 16 1019 87 10000 0.5 0 03:45 31.08.2019
2749 Clear 17 1020 93 10000 0.5 0 02:50 31.08.2019
2750 Clouds 17 1020 88 10000 1.52 65.769 01:56 31.08.2019
2751 Clouds 18 1020 88 10000 1.86 68.187 01:36 31.08.2019
2752 Clouds 18 1021 88 10000 0.5 0 01:18 31.08.2019
2753 Clouds 18 1021 88 10000 0.5 0 00:41 31.08.2019
2754 Clouds 19 1021 82 10000 0.5 60 00:23 31.08.2019
2755 Clear 19 1021 82 10000 0.5 0 23:40 30.08.2019
2756 Clear 19 1021 82 10000 0.5 0 23:18 30.08.2019
2757 Clouds 19 1021 82 10000 1.37 33.063 22:55 30.08.2019
2758 Clear 20 1021 68 10000 1.5 0 22:37 30.08.2019
2759 Clear 20 1021 68 10000 1.5 0 22:18 30.08.2019
2760 Clear 20 1021 68 10000 1.5 0 21:54 30.08.2019
2761 Clear 21 1021 68 10000 1.5 340 21:36 30.08.2019
2762 Clear 21 1021 68 10000 1.5 340 21:18 30.08.2019
2763 Clouds 23 1021 57 10000 1 10 20:41 30.08.2019
2764 Clear 23 1021 54 10000 1.5 0 20:21 30.08.2019
2765 Clear 24 1021 54 10000 1.5 0 19:59 30.08.2019
2766 Clouds 25 1021 53 10000 1 290 19:40 30.08.2019
2767 Clear 26 1020 51 10000 2.1 330 19:21 30.08.2019
2768 Clear 26 1020 51 10000 2.1 330 18:58 30.08.2019
2769 Clouds 26 1021 50 10000 0.5 0 18:39 30.08.2019
2770 Clouds 26 1021 51 10000 1.5 0 18:20 30.08.2019
2771 Clouds 27 1021 48 10000 1 0 17:56 30.08.2019
2772 Clouds 27 1021 48 10000 1 0 17:56 30.08.2019
2773 Clouds 27 1021 51 10000 1 0 17:37 30.08.2019
2774 Clouds 27 1021 51 10000 1 0 17:37 30.08.2019
2775 Clouds 27 1021 51 10000 1 0 17:37 30.08.2019
2776 Clouds 27 1021 51 10000 1 0 17:18 30.08.2019
2777 Clear 27 1021 51 10000 1 0 16:43 30.08.2019
2778 Clear 27 1021 51 10000 1 0 16:25 30.08.2019
2779 Clouds 27 1022 51 10000 1.5 0 15:54 30.08.2019
2780 Clouds 27 1022 54 10000 1.5 0 15:36 30.08.2019
2781 Clouds 26 1022 54 10000 1.5 0 15:18 30.08.2019
2782 Clouds 26 1022 53 10000 2.1 0 14:42 30.08.2019
2783 Clouds 25 1022 53 10000 2.1 0 14:23 30.08.2019
2784 -273 0 0 0 0 0 13:56 30.08.2019
2785 Clouds 25 1022 60 10000 1.5 0 13:56 30.08.2019
2786 Clouds 25 1023 60 10000 2.1 300 13:36 30.08.2019
2787 Clouds 24 1023 60 10000 1.5 0 13:18 30.08.2019
2788 Clear 24 1023 60 10000 1 0 12:42 30.08.2019
2789 Clear 23 1023 60 10000 1 0 12:22 30.08.2019
2790 Clear 23 1023 68 10000 1 0 11:43 30.08.2019
2791 Clear 22 1023 68 10000 1 0 11:25 30.08.2019
2792 Clear 22 1023 73 10000 0.5 0 10:59 30.08.2019
2793 Clear 21 1023 77 10000 1 0 10:37 30.08.2019
2794 Clear 21 1023 82 10000 2.1 310 10:18 30.08.2019
2795 Clear 21 1022 82 10000 2.1 290 09:42 30.08.2019
2796 Clear 20 1022 82 10000 2.1 290 09:20 30.08.2019
2797 Clear 20 1022 88 10000 1 340 08:59 30.08.2019
2798 Clear 19 1022 93 10000 1.04 256.595 08:40 30.08.2019
2799 Clear 18 1022 93 10000 1.04 256.595 08:21 30.08.2019
2800 Mist 17 1022 93 10000 1.04 256.595 07:44 30.08.2019
2801 Mist 17 1022 93 10000 1.04 256.595 07:23 30.08.2019
2802 Mist 16 1022 100 5000 0.5 180 06:49 30.08.2019
2803 Mist 17 1022 100 5000 0.5 180 06:30 30.08.2019
2804 Fog 17 1021 93 10000 1 180 05:59 30.08.2019
2805 Fog 17 1021 93 10000 0.5 0 04:53 30.08.2019
2806 Fog 17 1021 100 10000 0.5 0 03:55 30.08.2019
2807 Fog 18 1022 93 10000 1.29 250.451 03:34 30.08.2019
2808 Fog 18 1022 87 10000 0.5 0 02:35 30.08.2019
2809 Fog 18 1021 88 10000 1.5 290 01:40 30.08.2019
2810 Fog 19 1021 88 10000 1 220 00:46 30.08.2019
2811 Fog 19 1021 93 10000 1.75 308.4 00:18 30.08.2019
2812 Clear 19 1021 88 10000 0.5 230 23:46 29.08.2019
2813 Clear 19 1021 88 10000 0.5 230 23:22 29.08.2019
2814 Clear 19 1021 88 10000 0.5 230 23:22 29.08.2019
2815 Clear 20 1020 73 10000 0.5 0 22:45 29.08.2019
2816 Clear 20 1020 73 10000 0.5 0 22:27 29.08.2019
2817 Clear 21 1020 68 10000 2.6 310 21:59 29.08.2019
2818 Clear 21 1020 68 10000 3.1 310 21:40 29.08.2019
2819 Clear 21 1020 68 10000 3.1 310 21:21 29.08.2019
2820 Clear 22 1020 64 10000 3.1 310 20:58 29.08.2019
2821 Clear 23 1020 64 10000 3.1 310 20:39 29.08.2019
2822 Clear 23 1019 69 10000 3.1 320 20:19 29.08.2019
2823 Clouds 24 1019 64 10000 4.1 310 19:47 29.08.2019
2824 Clear 24 1019 61 10000 4.1 300 19:26 29.08.2019
2825 Clear 25 1018 65 10000 5.1 300 18:59 29.08.2019
2826 Clear 25 1018 65 10000 5.1 300 18:41 29.08.2019
2827 Clear 25 1018 61 10000 3.6 300 18:19 29.08.2019
2828 Clouds 26 1018 57 10000 4.6 280 17:56 29.08.2019
2829 Clouds 26 1018 57 10000 4.6 280 17:36 29.08.2019
2830 Clouds 26 1018 57 10000 4.6 280 17:18 29.08.2019
2831 Clouds 26 1018 61 10000 4.1 260 16:43 29.08.2019
2832 Clear 26 1018 61 10000 3.6 260 16:23 29.08.2019
2833 Clear 26 1018 61 10000 3.6 260 15:57 29.08.2019
2834 Clear 26 1018 61 10000 3.6 270 15:37 29.08.2019
2835 Clear 26 1018 65 10000 2.1 0 15:18 29.08.2019
2836 Clear 25 1018 73 10000 2.1 210 14:43 29.08.2019
2837 Clear 25 1018 73 10000 2.1 210 14:21 29.08.2019
2838 Clear 25 1018 73 10000 2.6 160 13:58 29.08.2019
2839 Clouds 24 1018 73 10000 3.6 270 13:39 29.08.2019
2840 Clouds 25 1018 73 10000 3.6 270 13:20 29.08.2019
2841 Clouds 24 1018 78 10000 3.6 210 12:58 29.08.2019
2842 Clouds 24 1018 78 10000 3.6 210 12:39 29.08.2019
2843 Rain 22 1018 93 10000 1.5 0 12:20 29.08.2019
2844 Rain 22 1018 93 10000 1.5 0 11:58 29.08.2019
2845 Thunderstorm 21 1018 82 10000 3.1 290 11:37 29.08.2019
2846 Rain 21 1018 82 10000 1 0 11:18 29.08.2019
2847 Rain 21 1017 82 10000 1.5 0 10:44 29.08.2019
2848 Rain 20 1017 82 10000 1.5 0 10:24 29.08.2019
2849 Thunderstorm 20 1018 88 5000 4.6 270 09:42 29.08.2019
2850 Thunderstorm 19 1018 88 5000 4.6 270 09:21 29.08.2019
2851 Rain 19 1017 93 5000 2.6 10 08:59 29.08.2019
2852 Rain 18 1016 93 10000 1.5 100 08:40 29.08.2019
2853 Rain 18 1016 93 10000 1.5 100 08:22 29.08.2019
2854 Fog 18 1016 93 10000 0.5 0 07:50 29.08.2019
2855 Fog 17 1015 93 10000 1 0 07:26 29.08.2019
2856 Mist 17 1015 100 4500 1.5 130 06:48 29.08.2019
2857 Mist 18 1015 100 4500 1.5 130 06:30 29.08.2019
2858 Fog 17 1014 100 800 0.5 290 05:43 29.08.2019
2859 Mist 18 1014 93 7000 0.5 280 04:51 29.08.2019
2860 Mist 18 1014 93 7000 1 240 04:30 29.08.2019
2861 Clear 18 1014 93 10000 0.5 0 03:35 29.08.2019
2862 Clouds 19 1015 93 10000 1 0 01:52 29.08.2019
2863 Clouds 19 1015 93 10000 1 0 01:32 29.08.2019
2864 Thunderstorm 20 1015 77 10000 2.1 250 00:45 29.08.2019
2865 Thunderstorm 21 1014 73 10000 1 80 00:21 29.08.2019
2866 Clear 22 1014 68 10000 2.6 330 23:44 28.08.2019
2867 Clear 22 1014 68 10000 2.6 330 23:26 28.08.2019
2868 Clouds 22 1014 64 10000 2.1 60 22:59 28.08.2019
2869 Clear 22 1014 64 10000 1.45 105.543 22:39 28.08.2019
2870 Clear 22 1014 64 10000 1.45 105.543 22:19 28.08.2019
2871 Clear 23 1014 60 10000 0.5 0 21:59 28.08.2019
2872 Clear 23 1013 53 10000 2.2 228.168 21:39 28.08.2019
2873 Clear 23 1013 53 10000 2.2 228.168 21:39 28.08.2019
2874 Clear 24 1013 53 10000 5.13 248.568 21:21 28.08.2019
2875 Clear 25 1014 50 10000 5.13 248.568 20:56 28.08.2019
2876 Clouds 25 1013 64 10000 1 0 20:37 28.08.2019
2877 Clear 26 1013 45 10000 2.6 300 20:19 28.08.2019
2878 Rain 26 1013 61 10000 1 320 19:40 28.08.2019
2879 Rain 27 1013 53 10000 1 0 19:21 28.08.2019
2880 Clear 27 1013 40 10000 2.1 170 18:56 28.08.2019
2881 Clear 27 1013 40 10000 2.1 170 18:37 28.08.2019
2882 Rain 29 1013 37 10000 2.1 190 18:18 28.08.2019
2883 Thunderstorm 30 1012 38 10000 2.6 200 17:37 28.08.2019
2884 Thunderstorm 30 1012 38 10000 2.6 200 17:37 28.08.2019
2885 Thunderstorm 30 1012 38 10000 2.6 200 17:19 28.08.2019
2886 Thunderstorm 31 1013 38 10000 4.1 0 16:44 28.08.2019
2887 Thunderstorm 32 1013 38 10000 4.1 0 16:23 28.08.2019
2888 Clear 32 1013 31 10000 3.1 260 15:59 28.08.2019
2889 Clear 32 1013 36 10000 2.6 250 15:38 28.08.2019
2890 Clear 32 1013 36 10000 2.6 250 15:19 28.08.2019
2891 Clear 33 1013 38 10000 3.6 200 14:57 28.08.2019
2892 Clear 32 1013 40 10000 3.1 240 14:38 28.08.2019
2893 Clear 32 1013 40 10000 3.1 240 14:20 28.08.2019
2894 Clear 32 1013 45 10000 3.1 240 13:58 28.08.2019
2895 Clear 32 1014 45 10000 2.6 220 13:38 28.08.2019
2896 Clear 31 1014 45 10000 2.6 220 13:19 28.08.2019
2897 Clear 30 1014 51 10000 2.6 220 12:42 28.08.2019
2898 Clear 29 1014 51 10000 2.6 220 12:23 28.08.2019
2899 Clear 28 1014 54 10000 2.6 220 11:57 28.08.2019
2900 Clear 28 1014 57 10000 2.1 190 11:38 28.08.2019
2901 Clear 27 1014 57 10000 2.1 190 11:20 28.08.2019
2902 Clear 27 1014 65 10000 1.5 0 10:55 28.08.2019
2903 Clear 26 1014 64 10000 2.1 180 10:37 28.08.2019
2904 Clear 25 1014 69 10000 2.1 150 10:18 28.08.2019
2905 Clear 24 1014 69 10000 1 0 09:41 28.08.2019
2906 Clear 24 1014 69 10000 1 0 09:41 28.08.2019
2907 Clear 22 1014 69 10000 1 0 09:20 28.08.2019
2908 Clear 21 1014 88 10000 1.5 90 08:40 28.08.2019
2909 Clear 21 1014 88 10000 1.5 90 08:21 28.08.2019
2910 Clear 20 1014 88 10000 1.5 0 07:57 28.08.2019
2911 Clear 19 1013 82 10000 1 0 07:36 28.08.2019
2912 Clouds 19 1014 88 9000 1 70 07:18 28.08.2019
2913 Clouds 18 1014 88 9000 1 70 06:40 28.08.2019
2914 Clear 18 1013 77 10000 1.5 90 05:47 28.08.2019
2915 Clear 19 1014 82 10000 2.1 110 04:28 28.08.2019
2916 Clouds 20 1014 77 10000 1 80 01:56 28.08.2019
2917 Clear 20 1015 73 10000 2.1 100 01:30 28.08.2019
2918 Clouds 20 1015 68 10000 2.1 70 00:43 28.08.2019
2919 Clear 21 1015 73 10000 3.6 100 00:22 28.08.2019
2920 Clear 22 1015 64 10000 1.5 110 23:44 27.08.2019
2921 Clear 22 1015 64 10000 1.5 110 23:22 27.08.2019
2922 Clouds 22 1015 60 10000 2.1 110 22:59 27.08.2019
2923 Clear 23 1016 73 10000 1 0 22:39 27.08.2019
2924 Clear 23 1016 73 10000 1 0 22:39 27.08.2019
2925 Clear 23 1016 73 10000 1 0 22:20 27.08.2019
2926 Clear 23 1015 69 10000 2.1 140 21:56 27.08.2019
2927 Clear 23 1015 64 10000 2.1 110 21:38 27.08.2019
2928 Clear 24 1015 60 10000 2.1 100 21:19 27.08.2019
2929 Clear 24 1015 60 10000 2.1 100 20:56 27.08.2019
2930 Clear 24 1015 60 10000 2.1 100 20:56 27.08.2019
2931 Clear 25 1015 57 10000 2.6 120 20:37 27.08.2019
2932 Clear 26 1015 54 10000 3.6 110 20:19 27.08.2019
2933 Clear 26 1015 57 10000 3.6 120 19:43 27.08.2019
2934 Clear 27 1015 57 10000 3.6 120 19:24 27.08.2019
2935 Clear 27 1015 57 10000 1.5 100 18:56 27.08.2019
2936 Clouds 27 1014 45 10000 4.1 90 18:37 27.08.2019
2937 Clouds 28 1015 60 10000 4.1 170 18:18 27.08.2019
2938 Rain 29 1016 54 10000 3.6 160 17:43 27.08.2019
2939 Rain 30 1016 54 10000 3.6 160 17:24 27.08.2019
2940 Thunderstorm 30 1016 54 10000 5.1 180 16:57 27.08.2019
2941 Thunderstorm 31 1015 42 10000 2.6 220 16:38 27.08.2019
2942 Clouds 30 1015 42 10000 2.6 220 16:19 27.08.2019
2943 Clouds 31 1016 33 10000 2.6 160 15:42 27.08.2019
2944 Clouds 31 1016 33 10000 2.6 160 15:23 27.08.2019
2945 Clear 31 1016 33 10000 3.1 190 14:59 27.08.2019
2946 Clear 31 1016 33 10000 3.1 190 14:59 27.08.2019
2947 Clear 31 1016 35 10000 3.6 180 14:41 27.08.2019
2948 Clear 31 1016 35 10000 3.6 180 14:23 27.08.2019
2949 Clear 31 1017 45 10000 3.1 150 13:43 27.08.2019
2950 Clear 31 1017 45 10000 3.1 150 13:24 27.08.2019
2951 Clear 30 1017 45 10000 2.1 0 12:58 27.08.2019
2952 Clear 30 1017 48 10000 2.1 0 12:39 27.08.2019
2953 Clear 29 1017 51 10000 2.1 120 12:19 27.08.2019
2954 Clear 28 1017 57 10000 1 0 11:46 27.08.2019
2955 Clear 27 1017 57 10000 1 0 11:26 27.08.2019
2956 Clear 26 1017 57 10000 1.5 0 10:55 27.08.2019
2957 Clear 25 1017 64 10000 1.5 0 10:37 27.08.2019
2958 Clear 25 1018 73 10000 1.5 100 10:18 27.08.2019
2959 Clear 22 1018 73 10000 1.5 0 09:39 27.08.2019
2960 Clear 22 1018 77 10000 1.5 120 09:21 27.08.2019
2961 Clear 21 1018 77 10000 1.5 120 08:56 27.08.2019
2962 Clear 20 1017 82 10000 1 100 08:38 27.08.2019
2963 Clear 19 1017 82 10000 1 100 08:18 27.08.2019
2964 Clear 19 1018 88 10000 2.1 120 07:41 27.08.2019
2965 Clear 18 1018 88 10000 2.1 120 07:20 27.08.2019
2966 Clear 18 1017 82 10000 2.6 90 06:54 27.08.2019
2967 Clouds 18 1017 77 10000 1.5 60 06:28 27.08.2019
2968 Clear 18 1017 72 10000 1.5 100 05:52 27.08.2019
2969 Clear 18 1017 72 10000 1 50 05:20 27.08.2019
2970 Clear 19 1017 68 10000 2.6 100 03:40 27.08.2019
2971 Clear 20 1017 60 10000 2.1 80 02:26 27.08.2019
2972 Rain 21 1018 68 10000 1 50 01:45 27.08.2019
2973 Clear 21 1018 60 10000 2.6 90 01:23 27.08.2019
2974 Rain 22 1018 64 10000 1.5 100 00:46 27.08.2019
2975 Rain 22 1018 64 10000 1.5 100 00:25 27.08.2019
2976 Clear 23 1017 53 10000 1.5 100 23:40 26.08.2019
2977 Clear 23 1017 53 10000 1.5 100 23:21 26.08.2019
2978 Clouds 24 1018 50 10000 1.5 40 22:57 26.08.2019
2979 Clear 24 1018 56 10000 1 0 22:36 26.08.2019
2980 Clear 24 1018 56 10000 1 0 22:18 26.08.2019
2981 Clear 25 1018 53 10000 2.1 80 21:39 26.08.2019
2982 Clear 26 1017 44 10000 2.1 60 21:21 26.08.2019
2983 Clear 27 1017 42 10000 2.6 70 20:58 26.08.2019
2984 Clear 27 1017 42 10000 2.6 70 20:39 26.08.2019
2985 Clear 27 1017 42 10000 2.6 70 20:39 26.08.2019
2986 Clear 29 1017 37 10000 2.6 80 20:19 26.08.2019
2987 Clear 29 1017 35 10000 2.6 80 19:56 26.08.2019
2988 Clear 31 1017 35 10000 2.6 80 19:38 26.08.2019
2989 Clear 31 1017 33 10000 3.1 80 19:18 26.08.2019
2990 Clear 31 1017 31 10000 1.5 0 18:39 26.08.2019
2991 Clear 31 1017 31 10000 1.5 0 18:39 26.08.2019
2992 Clear 32 1017 31 10000 3.6 100 18:21 26.08.2019
2993 Clear 32 1017 31 10000 3.6 70 17:59 26.08.2019
2994 Clear 32 1017 31 10000 3.6 70 17:41 26.08.2019
2995 Clear 32 1018 29 10000 3.6 80 17:19 26.08.2019
2996 Clear 33 1018 31 10000 3.1 130 16:56 26.08.2019
2997 Clear 32 1018 31 10000 3.1 130 16:38 26.08.2019
2998 Clear 32 1018 29 10000 3.6 120 16:18 26.08.2019
2999 Clear 32 1018 29 10000 4.1 100 15:42 26.08.2019
3000 Clear 32 1018 29 10000 2.6 0 15:22 26.08.2019
3001 Clear 32 1019 31 10000 4.6 90 14:57 26.08.2019
3002 Clear 32 1019 31 10000 4.6 90 14:37 26.08.2019
3003 Clear 32 1019 31 10000 3.6 110 14:19 26.08.2019
3004 Clear 32 1019 35 10000 4.6 100 13:42 26.08.2019
3005 Clear 31 1019 37 10000 4.6 110 13:21 26.08.2019
3006 Clear 31 1020 37 10000 4.1 120 12:54 26.08.2019
3007 Clear 31 1020 37 10000 4.1 120 12:36 26.08.2019
3008 Clear 30 1020 45 10000 4.1 110 12:18 26.08.2019
3009 Clear 29 1020 45 10000 5.1 100 11:38 26.08.2019
3010 Clear 28 1020 51 10000 3.6 100 11:19 26.08.2019
3011 Clear 28 1020 50 10000 3.1 100 10:57 26.08.2019
3012 Clear 27 1020 50 10000 3.1 100 10:39 26.08.2019
3013 Clear 26 1020 53 10000 2.6 100 10:18 26.08.2019
3014 Clear 25 1020 57 10000 2.6 90 09:41 26.08.2019
3015 Clear 24 1020 60 10000 2.6 100 09:23 26.08.2019
3016 Clear 22 1020 68 10000 1.5 120 08:56 26.08.2019
3017 Clear 22 1020 68 10000 1.5 120 08:37 26.08.2019
3018 Clear 21 1019 73 10000 1 0 08:19 26.08.2019
3019 Clear 19 1020 77 10000 2.1 100 07:42 26.08.2019
3020 Clear 19 1020 77 10000 1.5 150 07:24 26.08.2019
3021 Clouds 18 1019 68 10000 2.6 70 06:57 26.08.2019
3022 Clear 19 1019 77 10000 2.1 90 06:38 26.08.2019
3023 Clear 18 1019 77 10000 1.5 70 06:18 26.08.2019
3024 Clear 19 1019 68 10000 1.5 70 04:54 26.08.2019
3025 Clear 20 1019 77 10000 3.1 100 04:22 26.08.2019
3026 Clear 21 1019 73 10000 3.6 90 02:39 26.08.2019
3027 Clear 22 1019 69 10000 2.6 80 01:23 26.08.2019
3028 Rain 23 1019 57 10000 1.5 50 00:45 26.08.2019
3029 Clear 23 1019 69 10000 1.5 50 00:26 26.08.2019
3030 Clear 24 1020 57 10000 2.1 50 23:45 25.08.2019
3031 Clear 24 1019 64 10000 0.5 100 23:21 25.08.2019
3032 Clear 24 1019 57 10000 1.5 20 22:59 25.08.2019
3033 Clear 24 1019 64 10000 1 0 22:40 25.08.2019
3034 Clear 24 1019 64 10000 0.5 0 22:20 25.08.2019
3035 Clear 25 1019 57 10000 0.5 20 21:58 25.08.2019
3036 Clear 25 1019 57 10000 0.5 20 21:58 25.08.2019
3037 Clear 25 1019 64 10000 1 0 21:40 25.08.2019
3038 Clear 26 1019 48 10000 1.5 0 21:19 25.08.2019
3039 Clear 27 1019 48 10000 1.5 0 20:56 25.08.2019
3040 Clear 27 1019 48 10000 1.5 0 20:38 25.08.2019
3041 Clear 29 1019 45 10000 0.94 110.756 20:19 25.08.2019
3042 Clear 30 1018 38 10000 1 0 19:55 25.08.2019
3043 Clear 30 1018 38 10000 1 0 19:36 25.08.2019
3044 Clear 30 1018 35 10000 1 0 19:18 25.08.2019
3045 -273 0 0 0 0 0 18:55 25.08.2019
3046 Clear 31 1018 40 10000 2.6 70 18:37 25.08.2019
3047 Clear 31 1018 38 10000 1.5 0 18:18 25.08.2019
3048 Clear 31 1018 38 10000 1.5 0 17:40 25.08.2019
3049 Clear 31 1018 40 10000 3.6 110 17:21 25.08.2019
3050 Clear 31 1018 38 10000 2.6 0 16:41 25.08.2019
3051 Clear 31 1019 40 10000 2.6 150 16:23 25.08.2019
3052 Clear 31 1019 40 10000 2.6 120 15:57 25.08.2019
3053 Clear 31 1019 40 10000 2.6 120 15:38 25.08.2019
3054 Clear 30 1019 43 10000 3.6 110 15:20 25.08.2019
3055 Clear 30 1019 45 10000 3.1 110 14:40 25.08.2019
3056 Clear 30 1019 45 10000 2.6 0 14:22 25.08.2019
3057 Clear 30 1020 45 10000 3.1 0 13:46 25.08.2019
3058 Clear 30 1020 45 10000 2.1 120 13:22 25.08.2019
3059 Clear 28 1020 51 10000 2.1 100 12:57 25.08.2019
3060 Clear 28 1020 51 10000 2.1 100 12:39 25.08.2019
3061 Clear 28 1020 50 10000 2.1 100 12:20 25.08.2019
3062 Clear 27 1020 50 10000 3.1 110 11:57 25.08.2019
3063 Clear 26 1020 50 10000 3.1 110 11:37 25.08.2019
3064 Clear 26 1020 57 10000 2.6 100 11:18 25.08.2019
3065 Clear 26 1020 57 10000 2.6 100 11:18 25.08.2019
3066 Clear 25 1020 53 10000 1.5 0 10:55 25.08.2019
3067 Clear 24 1020 53 10000 1.5 0 10:36 25.08.2019
3068 Clear 24 1021 60 10000 2.6 100 10:18 25.08.2019
3069 Clear 22 1020 56 10000 3.1 90 09:42 25.08.2019
3070 Clear 21 1020 64 10000 3.1 100 09:23 25.08.2019
3071 Clear 20 1020 68 10000 2.6 90 08:44 25.08.2019
3072 Clear 19 1020 72 10000 2.1 90 08:25 25.08.2019
3073 Clear 18 1020 77 10000 1.5 0 07:49 25.08.2019
3074 Clear 17 1020 87 10000 1.5 0 07:30 25.08.2019
3075 Clear 16 1020 77 10000 1.5 100 06:37 25.08.2019
3076 Clear 16 1020 72 10000 3.1 80 05:27 25.08.2019
3077 Clear 18 1020 63 10000 2.1 60 03:43 25.08.2019
3078 Clear 18 1020 63 10000 2.1 60 03:43 25.08.2019
3079 Clouds 18 1020 72 10000 1.5 50 02:42 25.08.2019
3080 Clouds 19 1021 60 10000 2.1 60 01:49 25.08.2019
3081 Clouds 20 1021 56 10000 2.1 50 00:45 25.08.2019
3082 Clear 20 1020 64 10000 2.1 100 00:23 25.08.2019
3083 Clouds 21 1021 53 10000 2.1 60 23:57 24.08.2019
3084 Clouds 21 1021 53 10000 2.1 60 23:57 24.08.2019
3085 Clear 21 1020 60 10000 2.1 100 23:39 24.08.2019
3086 Clear 21 1020 64 10000 2.6 90 23:21 24.08.2019
3087 Clouds 21 1021 49 10000 2.1 50 22:40 24.08.2019
3088 Clear 21 1020 60 10000 2.1 70 22:19 24.08.2019
3089 Clouds 23 1020 44 10000 2.1 50 21:59 24.08.2019
3090 Clouds 23 1020 44 10000 2.1 50 21:39 24.08.2019
3091 Clear 24 1020 44 10000 1.5 0 21:21 24.08.2019
3092 Clear 24 1020 44 10000 1.5 0 20:57 24.08.2019
3093 Clear 25 1020 44 10000 1.5 0 20:39 24.08.2019
3094 Clear 26 1020 39 10000 2.6 90 20:19 24.08.2019
3095 Clear 27 1020 37 10000 3.6 120 19:57 24.08.2019
3096 Clear 28 1020 37 10000 3.6 120 19:38 24.08.2019
3097 Clear 28 1020 34 10000 3.6 130 19:20 24.08.2019
3098 Clear 29 1021 30 10000 4.6 110 18:46 24.08.2019
3099 Clear 29 1021 30 10000 5.1 130 18:25 24.08.2019
3100 Clear 29 1021 32 10000 4.6 120 17:57 24.08.2019
3101 Clear 29 1021 32 10000 4.6 120 17:39 24.08.2019
3102 Clear 29 1021 32 10000 4.1 100 17:21 24.08.2019
3103 Clear 29 1021 35 10000 3.6 90 16:40 24.08.2019
3104 Clear 29 1022 32 10000 4.6 80 16:19 24.08.2019
3105 Clear 29 1022 34 10000 4.1 120 15:44 24.08.2019
3106 Clear 28 1022 37 10000 5.1 90 15:26 24.08.2019
3107 Clear 28 1022 36 10000 4.6 100 14:59 24.08.2019
3108 Clear 28 1022 36 10000 4.6 100 14:59 24.08.2019
3109 Clear 28 1022 36 10000 4.6 100 14:40 24.08.2019
3110 Clear 28 1023 39 10000 6.2 100 14:19 24.08.2019
3111 Clear 28 1023 39 10000 4.6 100 13:55 24.08.2019
3112 Clear 28 1023 39 10000 4.6 100 13:36 24.08.2019
3113 Clear 27 1023 39 10000 5.7 100 13:18 24.08.2019
3114 Clear 27 1023 41 10000 4.6 110 12:42 24.08.2019
3115 Clear 27 1023 41 10000 4.6 110 12:42 24.08.2019
3116 Clear 26 1024 44 10000 4.6 100 12:23 24.08.2019
3117 Clear 26 1024 44 10000 4.1 100 11:55 24.08.2019
3118 Clear 25 1024 44 10000 4.1 100 11:37 24.08.2019
3119 Clear 25 1024 50 10000 4.6 100 11:18 24.08.2019
3120 Clear 24 1024 53 10000 3.1 90 10:41 24.08.2019
3121 Clear 22 1024 53 10000 3.1 100 10:21 24.08.2019
3122 Clear 21 1024 56 10000 2.6 100 09:44 24.08.2019
3123 Clear 19 1024 63 10000 1.5 0 09:20 24.08.2019
3124 Clouds 19 1024 72 10000 2.6 80 08:56 24.08.2019
3125 Clear 17 1024 72 10000 2.1 90 08:36 24.08.2019
3126 Clear 16 1024 82 10000 3.1 90 08:18 24.08.2019
3127 Clear 14 1024 82 10000 2.6 90 07:41 24.08.2019
3128 Clear 14 1024 82 10000 1.5 80 07:22 24.08.2019
3129 Clear 13 1024 82 10000 0.5 0 06:24 24.08.2019
3130 Clear 13 1024 82 10000 0.5 0 05:40 24.08.2019
3131 Clouds 14 1024 67 10000 1.5 60 03:54 24.08.2019
3132 Clear 14 1024 72 10000 1.5 110 03:34 24.08.2019
3133 Clear 16 1024 67 10000 3.1 90 02:25 24.08.2019
3134 Clear 16 1024 67 10000 3.1 90 02:25 24.08.2019
3135 Clear 17 1024 63 10000 4.1 50 01:30 24.08.2019
3136 Clouds 17 1024 56 10000 2.6 30 00:52 24.08.2019
3137 Clear 18 1024 63 10000 3.6 50 00:25 24.08.2019
3138 Clouds 18 1025 56 10000 3.1 20 23:57 23.08.2019
3139 Clear 18 1024 59 10000 3.6 40 23:37 23.08.2019
3140 Clear 19 1024 56 10000 3.6 40 23:18 23.08.2019
3141 Clouds 19 1024 52 10000 3.1 20 22:42 23.08.2019
3142 Clear 20 1024 52 10000 1.5 0 22:23 23.08.2019
3143 Clear 20 1024 49 10000 0.5 0 21:40 23.08.2019
3144 Clear 22 1024 43 10000 1 0 21:21 23.08.2019
3145 Clear 23 1024 31 10000 1.5 0 20:56 23.08.2019
3146 Clear 24 1024 31 10000 1.5 0 20:38 23.08.2019
3147 Clear 25 1024 29 10000 1 0 20:19 23.08.2019
3148 Clear 27 1024 30 10000 1.5 0 19:43 23.08.2019
3149 Clear 27 1024 28 10000 1.5 0 19:18 23.08.2019
3150 Clear 28 1024 28 10000 2.6 360 18:46 23.08.2019
3151 Clear 28 1024 25 10000 1.5 0 18:28 23.08.2019
3152 Clear 28 1024 23 10000 2.1 0 17:56 23.08.2019
3153 Clear 28 1024 23 10000 2.1 0 17:38 23.08.2019
3154 Clear 29 1024 25 10000 1.5 0 17:20 23.08.2019
3155 Clear 28 1024 26 10000 2.1 0 16:47 23.08.2019
3156 Clear 28 1025 26 10000 2.6 270 16:29 23.08.2019
3157 Clear 28 1025 26 10000 1.5 0 15:56 23.08.2019
3158 Clear 28 1025 26 10000 1.5 0 15:37 23.08.2019
3159 Clear 28 1025 26 10000 2.1 0 15:19 23.08.2019
3160 Clear 28 1025 28 10000 1.5 0 14:41 23.08.2019
3161 Clear 28 1025 30 10000 2.6 0 14:21 23.08.2019
3162 Clear 28 1025 30 10000 2.6 0 14:21 23.08.2019
3163 Clear 28 1026 30 10000 2.1 0 13:58 23.08.2019
3164 Clear 28 1026 30 10000 2.1 0 13:40 23.08.2019
3165 Clear 27 1026 30 10000 1.5 0 13:22 23.08.2019
3166 Clear 27 1026 31 10000 1 0 12:58 23.08.2019
3167 Clear 26 1026 31 10000 1 0 12:40 23.08.2019
3168 Clear 26 1026 36 10000 1.5 0 12:21 23.08.2019
3169 Clear 25 1026 44 10000 1.5 0 11:56 23.08.2019
3170 Clear 25 1026 44 10000 1.5 0 11:38 23.08.2019
3171 Clear 24 1026 43 10000 2.1 240 11:18 23.08.2019
3172 Clear 24 1026 43 10000 2.1 240 11:18 23.08.2019
3173 Clear 23 1026 46 10000 2.1 250 10:44 23.08.2019
3174 Clear 22 1026 52 10000 2.1 270 10:23 23.08.2019
3175 Clear 20 1026 52 10000 1.5 0 09:58 23.08.2019
3176 Clear 19 1026 52 10000 1.5 0 09:40 23.08.2019
3177 Clear 18 1026 59 10000 1 0 09:20 23.08.2019
3178 Clear 16 1026 67 10000 1 0 08:44 23.08.2019
3179 Clear 15 1026 76 10000 1 90 08:20 23.08.2019
3180 Fog 13 1026 76 10000 1 0 07:44 23.08.2019
3181 Fog 12 1026 81 10000 1 110 07:24 23.08.2019
3182 Fog 12 1026 87 10000 0.5 220 06:59 23.08.2019
3183 Fog 12 1026 87 10000 1.41 225.23 06:40 23.08.2019
3184 Fog 11 1026 87 10000 0.5 0 06:21 23.08.2019
3185 Fog 11 1025 87 10000 0.5 0 05:44 23.08.2019
3186 Clear 11 1025 81 10000 1 300 05:23 23.08.2019
3187 Clear 12 1025 81 10000 0.5 0 03:38 23.08.2019
3188 Clear 13 1025 82 10000 0.5 0 02:37 23.08.2019
3189 Clear 13 1025 76 10000 0.5 0 02:19 23.08.2019
3190 Clouds 15 1025 72 10000 0.5 110 00:57 23.08.2019
3191 Clear 15 1025 76 10000 0.5 0 00:37 23.08.2019
3192 Clear 15 1025 76 10000 0.5 0 00:18 23.08.2019
3193 Clear 16 1025 67 10000 0.5 0 23:40 22.08.2019
3194 Clear 17 1025 59 10000 0.5 0 23:21 22.08.2019
3195 Clouds 17 1025 59 10000 2.62 150.824 22:42 22.08.2019
3196 Clear 18 1025 59 10000 1.5 90 22:23 22.08.2019
3197 Clear 19 1025 52 10000 1.5 100 21:58 22.08.2019
3198 Clear 19 1025 52 10000 1.5 100 21:40 22.08.2019
3199 Clear 20 1024 46 10000 1.85 168.003 21:22 22.08.2019
3200 Clear 22 1024 38 10000 1 340 20:58 22.08.2019
3201 Clear 22 1024 38 10000 1 340 20:39 22.08.2019
3202 Clear 24 1024 31 10000 2.1 300 20:20 22.08.2019
3203 Clear 24 1024 29 10000 2.1 270 19:56 22.08.2019
3204 Clear 26 1024 29 10000 2.1 270 19:38 22.08.2019
3205 Clear 26 1024 27 10000 2.1 270 19:20 22.08.2019
3206 Clear 26 1024 27 10000 2.1 270 18:57 22.08.2019
3207 Clear 26 1024 27 10000 2.1 270 18:39 22.08.2019
3208 Clear 26 1024 26 10000 2.1 280 18:19 22.08.2019
3209 Clear 27 1024 26 10000 1.5 0 17:54 22.08.2019
3210 Clouds 27 1024 27 10000 2.6 200 17:36 22.08.2019
3211 Clear 27 1025 27 10000 2.1 0 17:18 22.08.2019
3212 Clear 27 1025 27 10000 2.1 0 16:55 22.08.2019
3213 Clear 27 1025 27 10000 2.1 0 16:37 22.08.2019
3214 Clear 27 1025 28 10000 2.6 170 16:18 22.08.2019
3215 Clear 27 1025 28 10000 2.6 170 16:18 22.08.2019
3216 Clear 27 1025 27 10000 1.5 0 15:41 22.08.2019
3217 Clear 27 1025 27 10000 1.5 0 15:41 22.08.2019
3218 Clear 27 1025 27 10000 1.5 0 15:41 22.08.2019
3219 Clear 26 1025 27 10000 2.6 0 15:22 22.08.2019
3220 Clear 26 1025 29 10000 2.1 0 14:57 22.08.2019
3221 Clear 26 1025 29 10000 2.1 0 14:39 22.08.2019
3222 Clear 26 1026 29 10000 3.1 170 14:20 22.08.2019
3223 Clear 26 1026 29 10000 3.1 170 14:20 22.08.2019
3224 Clear 26 1026 29 10000 2.1 140 13:56 22.08.2019
3225 Clear 26 1026 29 10000 2.1 140 13:38 22.08.2019
3226 Clear 26 1026 31 10000 2.6 0 13:18 22.08.2019
3227 Clear 25 1027 31 10000 2.6 0 12:41 22.08.2019
3228 Clear 24 1027 31 10000 3.1 180 12:23 22.08.2019
3229 Clear 24 1027 40 10000 3.1 190 11:58 22.08.2019
3230 Clear 24 1027 40 10000 3.1 190 11:58 22.08.2019
3231 Clear 23 1027 40 10000 3.1 190 11:40 22.08.2019
3232 Clear 23 1027 40 10000 3.1 180 11:20 22.08.2019
3233 Clear 23 1027 40 10000 3.1 180 11:20 22.08.2019
3234 Clear 23 1027 40 10000 3.1 180 11:20 22.08.2019
3235 Clear 22 1027 46 10000 3.1 160 10:58 22.08.2019
3236 Clear 21 1027 46 10000 3.1 160 10:38 22.08.2019
3237 Clear 21 1027 52 10000 3.1 160 10:20 22.08.2019
3238 Clear 18 1027 55 10000 2.1 150 09:56 22.08.2019
3239 Clear 18 1027 55 10000 2.1 150 09:37 22.08.2019
3240 Clear 17 1027 67 10000 1 0 09:19 22.08.2019
3241 Clear 15 1027 82 10000 1.5 100 08:41 22.08.2019
3242 Clear 14 1027 82 10000 1.5 100 08:22 22.08.2019
3243 Clear 13 1027 87 10000 2.1 100 07:58 22.08.2019
3244 Clear 11 1027 81 10000 1.5 90 07:39 22.08.2019
3245 Clear 11 1027 81 10000 1.5 90 07:19 22.08.2019
3246 Clear 10 1027 87 10000 2.1 90 06:47 22.08.2019
3247 Clear 10 1027 87 10000 1.5 80 06:22 22.08.2019
3248 Clear 10 1027 81 10000 1.5 70 05:29 22.08.2019
3249 Clouds 10 1027 81 10000 1.5 60 03:44 22.08.2019
3250 Clear 11 1027 76 10000 1 80 02:37 22.08.2019
3251 Clear 12 1028 81 10000 1.5 110 01:39 22.08.2019
3252 Clear 12 1028 76 10000 1 90 01:20 22.08.2019
3253 Clear 13 1028 71 10000 1 80 00:41 22.08.2019
3254 Clear 13 1028 67 10000 0.5 90 00:22 22.08.2019
3255 Clouds 14 1028 71 10000 1 73.4 23:44 21.08.2019
3256 -273 0 0 0 0 0 23:25 21.08.2019
3257 Clouds 14 1028 62 10000 0.5 120 22:58 21.08.2019
3258 Clear 15 1028 67 10000 0.5 20 22:40 21.08.2019
3259 Clear 15 1028 55 10000 1 100 22:21 21.08.2019
3260 Clear 16 1028 55 10000 1 100 21:56 21.08.2019
3261 Clear 17 1028 55 10000 1 100 21:38 21.08.2019
3262 Clear 17 1028 55 10000 1 100 21:38 21.08.2019
3263 Clear 17 1027 45 10000 1.5 0 21:19 21.08.2019
3264 Clear 18 1027 42 10000 1.5 0 20:56 21.08.2019
3265 Clear 19 1027 42 10000 1.5 0 20:38 21.08.2019
3266 Clear 19 1027 40 10000 1 0 20:20 21.08.2019
3267 Clear 20 1027 33 10000 0.5 0 19:44 21.08.2019
3268 Clear 21 1027 33 10000 0.5 0 19:44 21.08.2019
3269 Clear 22 1027 30 10000 2.1 300 19:25 21.08.2019
3270 Clear 22 1027 33 10000 2.1 270 18:58 21.08.2019
3271 Clear 22 1027 33 10000 2.1 270 18:39 21.08.2019
3272 Clear 22 1028 33 10000 2.1 260 18:20 21.08.2019
3273 Clear 23 1027 33 10000 3.1 0 17:45 21.08.2019
3274 Clear 22 1027 33 10000 2.6 0 17:23 21.08.2019
3275 Clear 23 1027 33 10000 3.6 280 16:59 21.08.2019
3276 Clear 23 1027 33 10000 3.6 280 16:40 21.08.2019
3277 Clear 22 1028 33 10000 2.6 290 16:21 21.08.2019
3278 Clear 22 1028 40 10000 3.6 260 15:58 21.08.2019
3279 Clear 22 1028 40 10000 3.6 260 15:58 21.08.2019
3280 Clear 22 1028 40 10000 3.6 260 15:39 21.08.2019
3281 Clear 22 1028 42 10000 3.1 290 15:20 21.08.2019
3282 Clear 21 1028 40 10000 3.6 300 14:57 21.08.2019
3283 Clear 21 1028 40 10000 3.6 300 14:38 21.08.2019
3284 Clouds 21 1028 43 10000 3.1 260 14:20 21.08.2019
3285 Clouds 21 1028 43 10000 3.1 260 14:20 21.08.2019
3286 Clouds 21 1028 43 10000 3.1 260 14:20 21.08.2019
3287 Clouds 21 1028 45 10000 3.6 260 13:45 21.08.2019
3288 Clear 21 1028 45 10000 3.6 270 13:22 21.08.2019
3289 Clouds 21 1028 52 10000 4.1 300 12:59 21.08.2019
3290 Clouds 20 1028 52 10000 4.1 300 12:40 21.08.2019
3291 Clouds 20 1028 55 10000 4.1 290 12:22 21.08.2019
3292 Clouds 19 1028 59 10000 3.1 300 11:59 21.08.2019
3293 Clouds 19 1028 59 10000 3.1 300 11:40 21.08.2019
3294 Clouds 18 1028 59 10000 3.6 300 11:22 21.08.2019
3295 Clouds 18 1028 67 10000 2.6 280 10:56 21.08.2019
3296 Clouds 18 1028 67 10000 2.6 280 10:38 21.08.2019
3297 Clear 17 1028 67 10000 3.1 280 10:19 21.08.2019
3298 Clear 16 1028 77 10000 3.1 290 09:55 21.08.2019
3299 Clear 16 1028 77 10000 3.1 290 09:37 21.08.2019
3300 Clear 16 1028 82 10000 3.1 280 09:18 21.08.2019
3301 Fog 15 1028 82 10000 2.1 270 08:42 21.08.2019
3302 Fog 14 1028 93 10000 1 0 08:23 21.08.2019
3303 Fog 12 1027 93 10000 1 90 07:42 21.08.2019
3304 Fog 12 1027 93 10000 2.58 263.225 07:23 21.08.2019
3305 Fog 11 1027 93 100 0.5 240 06:50 21.08.2019
3306 Fog 11 1027 87 10000 2.1 260 06:24 21.08.2019
3307 Fog 11 1026 100 10000 1.5 250 05:47 21.08.2019
3308 Fog 12 1026 87 10000 3.6 260 05:25 21.08.2019
3309 Fog 13 1026 93 10000 1.5 230 03:56 21.08.2019
3310 Clouds 14 1025 93 10000 1.5 250 01:52 21.08.2019
3311 Clear 15 1025 82 10000 2.1 280 01:23 21.08.2019
3312 Clear 15 1025 82 10000 1.5 240 00:38 21.08.2019
3313 Clear 16 1025 82 10000 2.1 290 00:18 21.08.2019
3314 Clouds 16 1024 67 10000 2.1 280 23:44 20.08.2019
3315 Clear 16 1024 63 10000 3.6 290 23:19 20.08.2019
3316 Clouds 16 1024 63 10000 1.5 0 22:58 20.08.2019
3317 Clouds 16 1024 63 10000 1.5 0 22:58 20.08.2019
3318 Clear 16 1024 67 10000 3.6 280 22:40 20.08.2019
3319 Clear 17 1023 59 10000 1.5 0 22:21 20.08.2019
3320 Clear 17 1023 59 10000 1.5 0 22:21 20.08.2019
3321 Clear 17 1023 59 10000 1.5 0 21:58 20.08.2019
3322 Clear 17 1023 59 10000 1.5 0 21:38 20.08.2019
3323 Clear 18 1023 55 10000 2.18 242.284 21:19 20.08.2019
3324 Clear 18 1023 52 10000 2.1 250 20:58 20.08.2019
3325 Clear 19 1023 52 10000 2.1 250 20:39 20.08.2019
3326 Clear 20 1022 45 10000 2.6 250 20:21 20.08.2019
3327 Clear 20 1022 45 10000 2.6 270 19:39 20.08.2019
3328 Clear 20 1022 42 10000 3.1 260 19:21 20.08.2019
3329 Clear 21 1022 40 10000 3.1 250 18:56 20.08.2019
3330 Clear 21 1022 40 10000 3.1 250 18:38 20.08.2019
3331 Clear 21 1022 40 10000 3.1 240 18:19 20.08.2019
3332 Clear 21 1022 40 10000 3.1 240 18:19 20.08.2019
3333 Clear 21 1022 40 10000 3.1 240 17:56 20.08.2019
3334 Clear 21 1022 43 10000 3.1 250 17:38 20.08.2019
3335 Clear 21 1022 37 10000 4.6 260 17:19 20.08.2019
3336 Clear 21 1022 43 10000 4.1 250 16:44 20.08.2019
3337 Clear 22 1022 43 10000 4.1 250 16:25 20.08.2019
3338 Clear 22 1022 40 10000 3.1 270 15:55 20.08.2019
3339 Clear 22 1022 40 10000 3.6 260 15:37 20.08.2019
3340 Clear 21 1022 40 10000 3.1 270 15:18 20.08.2019
3341 Clear 21 1022 43 10000 4.1 250 14:42 20.08.2019
3342 Clear 21 1022 43 10000 4.1 250 14:22 20.08.2019
3343 Clear 21 1022 43 10000 4.1 260 13:57 20.08.2019
3344 Clear 21 1022 43 10000 4.1 250 13:38 20.08.2019
3345 Clear 21 1022 43 10000 4.1 240 13:20 20.08.2019
3346 Clear 21 1022 43 10000 4.1 240 12:51 20.08.2019
3347 Clear 21 1022 52 10000 3.6 240 12:30 20.08.2019
3348 Clear 21 1022 49 10000 3.6 250 11:59 20.08.2019
3349 Clear 20 1022 59 10000 3.6 240 11:38 20.08.2019
3350 Clear 20 1021 55 10000 3.1 260 11:20 20.08.2019
3351 Clear 19 1021 55 10000 3.1 260 10:57 20.08.2019
3352 Clear 19 1021 63 10000 3.1 250 10:38 20.08.2019
3353 Clear 18 1021 63 10000 2.6 250 10:20 20.08.2019
3354 Clear 18 1021 63 10000 2.6 250 09:54 20.08.2019
3355 Clear 17 1021 72 10000 1.5 0 09:36 20.08.2019
3356 Clear 17 1021 72 10000 1.5 0 09:18 20.08.2019
3357 Clear 15 1021 87 10000 0.5 0 08:41 20.08.2019
3358 Clear 14 1021 87 10000 0.5 0 08:21 20.08.2019
3359 Clear 13 1020 87 10000 1 0 07:57 20.08.2019
3360 Fog 12 1020 87 10000 1 0 07:38 20.08.2019
3361 Fog 12 1020 87 10000 1 0 07:20 20.08.2019
3362 Clear 12 1020 82 10000 1 0 06:43 20.08.2019
3363 Clear 11 1020 82 10000 1 0 06:19 20.08.2019
3364 Clear 11 1019 82 10000 1 150 05:41 20.08.2019
3365 Clear 12 1019 82 10000 1 0 04:23 20.08.2019
3366 Clear 13 1019 82 10000 1.5 270 02:48 20.08.2019
3367 Rain 13 1019 82 10000 2.1 240 01:53 20.08.2019
3368 Clear 13 1019 76 10000 2.6 270 01:20 20.08.2019
3369 Clear 13 1018 76 10000 0.5 160 00:44 20.08.2019
3370 Clear 14 1018 76 10000 0.5 160 00:24 20.08.2019
3371 Clear 14 1018 63 10000 1 0 23:44 19.08.2019
3372 Clear 15 1018 63 10000 1 0 23:19 19.08.2019
3373 Clouds 15 1018 72 10000 0.5 190 22:58 19.08.2019
3374 Clear 16 1018 71 10000 1.6 233.058 22:40 19.08.2019
3375 Clear 16 1018 71 10000 1.6 233.058 22:20 19.08.2019
3376 Clear 17 1018 55 10000 1.6 233.058 21:57 19.08.2019
3377 Clear 18 1018 55 10000 0.5 0 21:38 19.08.2019
3378 Clear 18 1018 55 10000 0.5 0 21:19 19.08.2019
3379 Clear 19 1017 49 10000 2.1 270 20:54 19.08.2019
3380 Clear 20 1017 46 10000 2.6 280 20:36 19.08.2019
3381 Clear 20 1017 46 10000 3.6 280 20:18 19.08.2019
3382 Clear 21 1017 46 10000 3.6 280 19:54 19.08.2019
3383 Clear 21 1017 46 10000 3.6 280 19:36 19.08.2019
3384 Clear 21 1017 46 10000 3.6 280 19:36 19.08.2019
3385 Clear 22 1017 40 10000 4.1 280 19:18 19.08.2019
3386 Clouds 22 1016 40 10000 5.1 230 18:41 19.08.2019
3387 Clear 22 1017 38 10000 6.2 270 18:22 19.08.2019
3388 Clear 23 1017 38 10000 6.2 270 17:56 19.08.2019
3389 Clear 23 1016 35 10000 6.7 260 17:38 19.08.2019
3390 Clear 23 1016 35 10000 6.7 260 17:19 19.08.2019
3391 Clear 23 1016 37 10000 6.2 250 16:54 19.08.2019
3392 Clear 22 1016 37 10000 6.2 250 16:36 19.08.2019
3393 Clear 23 1016 40 10000 6.7 250 16:18 19.08.2019
3394 Clear 23 1016 38 10000 6.7 250 15:45 19.08.2019
3395 Clear 22 1016 37 10000 7.2 250 15:19 19.08.2019
3396 Clouds 22 1016 46 10000 6.2 260 14:55 19.08.2019
3397 Clouds 22 1016 46 10000 6.2 260 14:36 19.08.2019
3398 Clouds 22 1015 49 10000 6.2 250 14:18 19.08.2019
3399 Clouds 21 1015 46 10000 6.7 250 13:54 19.08.2019
3400 Clouds 21 1015 46 10000 6.7 250 13:36 19.08.2019
3401 Clouds 21 1015 49 10000 6.7 250 13:18 19.08.2019
3402 Clouds 21 1015 56 10000 5.7 260 12:43 19.08.2019
3403 Clouds 20 1015 59 10000 6.2 260 12:22 19.08.2019
3404 Clouds 20 1015 59 10000 7.2 260 11:55 19.08.2019
3405 Clouds 20 1015 59 10000 7.2 260 11:36 19.08.2019
3406 Clouds 19 1014 59 10000 5.7 270 11:18 19.08.2019
3407 Clouds 18 1014 63 10000 7.2 250 10:39 19.08.2019
3408 Clouds 18 1014 63 10000 6.2 240 10:19 19.08.2019
3409 Clouds 18 1014 68 10000 5.7 250 09:56 19.08.2019
3410 Clouds 18 1014 68 10000 5.7 250 09:38 19.08.2019
3411 Clear 17 1013 72 10000 4.6 240 09:20 19.08.2019
3412 Clear 16 1013 77 10000 4.1 230 08:46 19.08.2019
3413 Clear 16 1013 82 10000 3.1 230 08:25 19.08.2019
3414 Clear 16 1013 87 10000 4.1 230 07:59 19.08.2019
3415 Clear 15 1013 87 10000 4.1 230 07:40 19.08.2019
3416 Clear 15 1013 93 10000 2.6 220 07:21 19.08.2019
3417 Clouds 15 1012 82 10000 3.1 230 06:40 19.08.2019
3418 Clouds 15 1012 93 7000 1.5 220 05:54 19.08.2019
3419 Clouds 15 1012 87 10000 3.6 230 04:35 19.08.2019
3420 Clouds 15 1011 100 7000 2.6 160 03:59 19.08.2019
3421 Mist 15 1010 87 10000 1.5 190 03:19 19.08.2019
3422 Fog 15 1010 100 4000 1.5 190 01:46 19.08.2019
3423 Fog 15 1010 100 4000 1 190 01:21 19.08.2019
3424 Fog 15 1010 93 6000 1.5 220 00:41 19.08.2019
3425 Clear 15 1010 93 10000 2.6 240 00:18 19.08.2019
3426 Clouds 16 1009 88 10000 3.1 280 23:41 18.08.2019
3427 Clouds 16 1009 88 10000 3.1 280 23:20 18.08.2019
3428 Clouds 16 1009 88 10000 3.6 300 22:40 18.08.2019
3429 Clear 17 1009 93 10000 1.5 260 22:22 18.08.2019
3430 Clouds 17 1008 100 10000 2.1 240 21:58 18.08.2019
3431 Clouds 17 1009 93 10000 3.1 260 21:40 18.08.2019
3432 Clouds 17 1007 82 10000 5.1 290 21:21 18.08.2019
3433 Clouds 17 1007 82 10000 5.1 290 21:21 18.08.2019
3434 Clouds 18 1007 82 10000 5.1 290 20:59 18.08.2019
3435 Clouds 18 1007 82 10000 5.1 290 20:41 18.08.2019
3436 Rain 18 1007 88 10000 4.6 280 20:23 18.08.2019
3437 Drizzle 18 1007 82 10000 4.6 280 19:43 18.08.2019
3438 Clouds 19 1006 83 10000 5.1 270 19:25 18.08.2019
3439 Clouds 19 1006 83 10000 3.1 280 18:59 18.08.2019
3440 Clouds 19 1006 83 10000 3.1 280 18:41 18.08.2019
3441 Clear 19 1005 77 10000 4.6 250 18:23 18.08.2019
3442 Clear 19 1005 83 10000 5.1 250 17:56 18.08.2019
3443 Clear 19 1005 83 10000 5.1 250 17:38 18.08.2019
3444 Clear 19 1005 93 10000 5.1 230 17:19 18.08.2019
3445 Rain 19 1003 93 10000 4.6 280 16:56 18.08.2019
3446 Rain 19 1003 93 10000 4.6 280 16:37 18.08.2019
3447 Rain 18 1004 88 5000 5.1 280 16:18 18.08.2019
3448 Rain 20 1004 77 10000 2.1 0 15:55 18.08.2019
3449 Rain 20 1004 77 10000 2.1 0 15:36 18.08.2019
3450 Rain 20 1004 77 10000 2.1 140 15:18 18.08.2019
3451 Drizzle 20 1005 77 10000 2.1 160 14:40 18.08.2019
3452 Drizzle 20 1005 82 10000 3.1 170 14:20 18.08.2019
3453 Rain 21 1006 73 4000 3.6 220 13:59 18.08.2019
3454 Rain 19 1006 73 4000 3.6 220 13:40 18.08.2019
3455 Rain 19 1006 77 10000 4.1 210 13:22 18.08.2019
3456 Clouds 19 1006 77 10000 3.1 210 12:57 18.08.2019
3457 Clouds 19 1006 77 10000 3.1 210 12:38 18.08.2019
3458 Clouds 19 1006 77 10000 3.1 210 12:38 18.08.2019
3459 Clouds 19 1006 82 10000 2.1 250 12:20 18.08.2019
3460 Rain 18 1006 82 10000 3.1 250 11:42 18.08.2019
3461 Drizzle 18 1006 82 10000 4.1 240 11:23 18.08.2019
3462 Drizzle 18 1006 82 10000 4.1 240 11:23 18.08.2019
3463 Drizzle 19 1006 77 10000 3.6 220 10:57 18.08.2019
3464 Rain 19 1006 77 10000 3.6 220 10:39 18.08.2019
3465 Rain 19 1006 82 10000 3.1 190 10:19 18.08.2019
3466 Rain 19 1006 82 10000 2.6 190 09:43 18.08.2019
3467 Rain 19 1006 88 10000 2.1 170 09:20 18.08.2019
3468 Rain 19 1006 82 10000 3.1 180 08:44 18.08.2019
3469 Rain 19 1006 82 10000 3.1 180 08:44 18.08.2019
3470 Rain 18 1006 82 10000 2.6 180 08:25 18.08.2019
3471 Rain 18 1006 82 10000 2.6 180 08:25 18.08.2019
3472 Rain 18 1006 88 10000 3.1 180 07:57 18.08.2019
3473 Rain 19 1006 88 10000 2.6 190 07:30 18.08.2019
3474 Rain 19 1006 82 10000 2.6 180 06:47 18.08.2019
3475 Clouds 19 1006 82 10000 2.6 170 05:43 18.08.2019
3476 Clouds 19 1007 82 10000 3.1 190 04:18 18.08.2019
3477 Clouds 19 1007 82 10000 3.6 190 03:20 18.08.2019
3478 Clouds 19 1007 82 10000 3.1 170 02:42 18.08.2019
3479 Clouds 19 1007 82 10000 2.6 190 02:18 18.08.2019
3480 Clouds 19 1007 82 10000 3.6 210 01:28 18.08.2019
3481 Clouds 19 1008 82 10000 1 150 00:43 18.08.2019
3482 Clouds 19 1008 82 10000 3.1 230 00:24 18.08.2019
3483 Clouds 19 1007 82 10000 1.5 170 23:58 17.08.2019
3484 Rain 20 1008 82 10000 3.1 210 23:38 17.08.2019
3485 Rain 20 1008 82 10000 3.6 210 23:20 17.08.2019
3486 Rain 19 1008 72 10000 5.1 210 22:58 17.08.2019
3487 Clouds 20 1008 82 10000 3.6 220 22:40 17.08.2019
3488 Clouds 20 1008 77 10000 3.6 220 22:21 17.08.2019
3489 -273 0 0 0 0 0 21:55 17.08.2019
3490 Rain 21 1008 68 10000 5.1 220 21:37 17.08.2019
3491 Clouds 21 1008 64 10000 4.6 230 21:19 17.08.2019
3492 Clouds 22 1008 64 10000 4.6 230 20:39 17.08.2019
3493 Clouds 22 1008 60 10000 4.1 220 20:20 17.08.2019
3494 Clouds 22 1008 60 10000 4.1 220 19:56 17.08.2019
3495 Clouds 22 1008 60 10000 4.1 220 19:38 17.08.2019
3496 Clouds 22 1008 56 10000 5.1 210 19:19 17.08.2019
3497 Clouds 22 1008 56 10000 4.1 220 18:41 17.08.2019
3498 Clouds 23 1008 53 10000 4.1 230 18:19 17.08.2019
3499 Clouds 23 1008 53 10000 4.6 220 17:58 17.08.2019
3500 Clouds 23 1008 53 10000 4.6 220 17:40 17.08.2019
3501 Clear 23 1008 53 10000 3.6 250 17:21 17.08.2019
3502 Clear 23 1008 53 10000 3.6 270 16:45 17.08.2019
3503 Clouds 23 1008 53 10000 4.6 260 16:26 17.08.2019
3504 Clouds 24 1008 50 10000 5.1 250 15:59 17.08.2019
3505 Clouds 23 1008 50 10000 5.1 250 15:40 17.08.2019
3506 Clouds 24 1008 50 10000 4.1 250 15:21 17.08.2019
3507 Clear 23 1008 53 10000 5.1 230 14:43 17.08.2019
3508 Clear 23 1008 50 10000 5.7 230 14:24 17.08.2019
3509 Clear 23 1008 53 10000 5.1 230 13:56 17.08.2019
3510 Clear 23 1008 53 10000 5.1 230 13:37 17.08.2019
3511 Clear 23 1008 53 10000 4.1 220 13:19 17.08.2019
3512 Clear 22 1008 56 10000 3.6 210 12:42 17.08.2019
3513 Clear 22 1009 56 10000 4.1 210 12:19 17.08.2019
3514 Clear 22 1009 68 10000 2.6 180 11:58 17.08.2019
3515 Clear 21 1009 68 10000 2.6 180 11:38 17.08.2019
3516 Rain 21 1009 64 10000 3.1 170 11:19 17.08.2019
3517 Rain 20 1009 68 10000 3.6 170 10:39 17.08.2019
3518 Rain 20 1009 72 10000 2.6 140 10:20 17.08.2019
3519 Clear 19 1009 72 10000 4.1 150 09:55 17.08.2019
3520 Clear 19 1009 72 10000 4.1 150 09:36 17.08.2019
3521 Rain 18 1009 77 10000 3.1 140 09:18 17.08.2019
3522 Rain 18 1008 68 10000 3.1 150 08:41 17.08.2019
3523 Rain 17 1008 68 10000 3.1 150 08:20 17.08.2019
3524 Rain 17 1008 72 10000 2.1 140 07:42 17.08.2019
3525 Clear 17 1009 72 10000 2.1 110 07:19 17.08.2019
3526 Rain 17 1010 72 10000 1.5 160 05:59 17.08.2019
3527 Rain 17 1010 63 10000 2.6 160 04:32 17.08.2019
3528 Rain 17 1010 63 10000 2.6 160 04:32 17.08.2019
3529 Clouds 17 1010 67 10000 2.6 150 03:51 17.08.2019
3530 Clear 16 1011 63 10000 2.6 160 02:38 17.08.2019
3531 Clear 16 1012 63 10000 1.5 170 01:38 17.08.2019
3532 Clear 16 1012 63 10000 1.5 190 01:19 17.08.2019
3533 Clear 16 1012 63 10000 1.5 190 01:19 17.08.2019
3534 Clouds 16 1012 63 10000 2.1 120 00:45 17.08.2019
3535 Clear 16 1012 63 10000 1 0 00:21 17.08.2019
3536 Clouds 16 1013 67 10000 1.5 120 23:44 16.08.2019
3537 Clear 16 1013 59 10000 0.5 0 23:24 16.08.2019
3538 Clear 17 1014 67 10000 2.1 90 22:43 16.08.2019
3539 Clear 17 1014 67 10000 2.1 90 22:20 16.08.2019
3540 Clear 17 1014 63 10000 1.5 90 21:59 16.08.2019
3541 Clear 17 1014 63 10000 1.5 90 21:39 16.08.2019
3542 Clear 18 1014 55 10000 0.96 161.754 21:19 16.08.2019
3543 Clear 19 1014 55 10000 1 50 20:43 16.08.2019
3544 Clear 21 1014 40 10000 1.5 270 20:21 16.08.2019
3545 Clear 21 1014 43 10000 2.6 270 19:59 16.08.2019
3546 Clear 21 1014 43 10000 2.6 270 19:39 16.08.2019
3547 Clear 22 1014 43 10000 2.6 240 19:20 16.08.2019
3548 Clear 22 1014 37 10000 2.6 270 18:42 16.08.2019
3549 Clear 22 1014 37 10000 2.6 270 18:42 16.08.2019
3550 Clear 22 1014 40 10000 3.1 240 18:23 16.08.2019
3551 Clear 23 1015 40 10000 3.6 250 17:49 16.08.2019
3552 Clear 22 1015 38 10000 4.1 270 17:31 16.08.2019
3553 Clear 22 1015 40 10000 3.6 280 16:59 16.08.2019
3554 Clear 23 1015 40 10000 3.6 280 16:41 16.08.2019
3555 Clear 22 1015 37 10000 4.6 260 16:21 16.08.2019
3556 Clear 23 1015 43 10000 4.6 270 15:57 16.08.2019
3557 Clear 23 1015 43 10000 4.6 270 15:39 16.08.2019
3558 Clouds 22 1016 46 10000 4.1 270 15:21 16.08.2019
3559 Clouds 22 1016 46 10000 4.6 270 14:57 16.08.2019
3560 Clouds 22 1016 46 10000 4.6 270 14:38 16.08.2019
3561 Clouds 21 1016 49 10000 5.1 280 14:18 16.08.2019
3562 Clouds 21 1016 56 10000 5.1 260 13:41 16.08.2019
3563 Clouds 20 1016 56 10000 5.7 270 13:23 16.08.2019
3564 Clouds 20 1016 63 10000 5.7 270 12:56 16.08.2019
3565 Clouds 19 1016 63 10000 5.7 270 12:37 16.08.2019
3566 Clouds 19 1016 68 10000 6.2 270 12:19 16.08.2019
3567 Clouds 19 1016 68 10000 6.2 270 12:19 16.08.2019
3568 Clouds 19 1016 68 10000 6.7 260 11:42 16.08.2019
3569 Clouds 18 1016 72 10000 5.7 270 11:24 16.08.2019
3570 Clouds 18 1016 72 10000 5.7 270 11:24 16.08.2019
3571 Clouds 18 1016 77 10000 5.1 260 10:43 16.08.2019
3572 Clouds 17 1016 82 10000 5.1 250 10:25 16.08.2019
3573 Clouds 17 1016 93 10000 4.1 240 09:56 16.08.2019
3574 Clouds 16 1016 93 10000 4.1 240 09:37 16.08.2019
3575 Clouds 16 1016 93 10000 4.1 240 09:37 16.08.2019
3576 Rain 16 1016 87 9000 4.1 250 09:18 16.08.2019
3577 Rain 16 1016 87 9000 4.1 250 09:18 16.08.2019
3578 Clouds 16 1016 82 10000 4.1 250 08:41 16.08.2019
3579 Clouds 15 1016 87 10000 3.6 250 08:21 16.08.2019
3580 Clouds 15 1015 87 10000 3.1 250 07:55 16.08.2019
3581 Clear 15 1015 87 10000 3.1 270 07:33 16.08.2019
3582 Clouds 14 1015 93 10000 3.1 230 06:59 16.08.2019
3583 Clouds 14 1015 87 10000 3.1 240 06:31 16.08.2019
3584 Clear 14 1015 87 0 2.6 250 05:42 16.08.2019
3585 Clouds 15 1015 87 10000 4.1 250 04:32 16.08.2019
3586 Clouds 15 1013 100 10000 2.1 230 02:47 16.08.2019
3587 Clouds 15 1013 93 10000 2.6 240 01:42 16.08.2019
3588 Clear 15 1013 93 10000 3.6 260 01:19 16.08.2019
3589 Clear 15 1013 87 10000 3.6 260 00:41 16.08.2019
3590 Clear 15 1013 87 10000 2.6 250 00:21 16.08.2019
3591 Clouds 16 1012 87 10000 3.1 240 23:45 15.08.2019
3592 Clear 16 1012 82 10000 4.1 260 23:22 15.08.2019
3593 Clouds 16 1012 93 10000 2.6 230 22:58 15.08.2019
3594 Clear 16 1012 93 10000 3.1 260 22:40 15.08.2019
3595 Clear 16 1012 93 10000 3.1 260 22:21 15.08.2019
3596 Clear 16 1011 87 10000 2.6 250 21:56 15.08.2019
3597 Clear 16 1011 87 10000 2.6 250 21:38 15.08.2019
3598 Clear 16 1011 87 10000 2.6 230 21:18 15.08.2019
3599 Clear 17 1011 93 10000 3.6 240 20:43 15.08.2019
3600 Clouds 17 1011 93 10000 3.6 250 20:22 15.08.2019
3601 Clouds 17 1011 93 10000 3.6 250 20:22 15.08.2019
3602 Clouds 17 1010 88 10000 4.1 250 19:58 15.08.2019
3603 Rain 17 1010 88 10000 4.1 250 19:39 15.08.2019
3604 Rain 17 1010 93 10000 4.1 290 19:21 15.08.2019
3605 Thunderstorm 17 1010 88 5000 5.1 250 18:48 15.08.2019
3606 Thunderstorm 17 1010 93 10000 2.6 240 18:24 15.08.2019
3607 Thunderstorm 18 1009 93 5000 6.2 260 17:58 15.08.2019
3608 Thunderstorm 19 1009 60 10000 4.1 220 17:38 15.08.2019
3609 Thunderstorm 21 1009 60 10000 4.1 220 17:20 15.08.2019
3610 Clouds 21 1009 64 10000 4.6 230 16:58 15.08.2019
3611 Rain 22 1009 64 10000 4.6 230 16:40 15.08.2019
3612 Rain 22 1009 64 10000 5.1 210 16:22 15.08.2019
3613 Clouds 21 1009 64 10000 5.1 210 15:39 15.08.2019
3614 Rain 21 1009 68 10000 3.6 220 15:20 15.08.2019
3615 Clouds 21 1009 68 10000 4.6 230 14:58 15.08.2019
3616 Clouds 20 1009 68 10000 4.6 230 14:40 15.08.2019
3617 Clouds 20 1009 68 10000 5.7 230 14:21 15.08.2019
3618 Clouds 20 1009 64 10000 4.6 230 13:56 15.08.2019
3619 Clouds 20 1009 64 10000 4.6 230 13:38 15.08.2019
3620 Clouds 19 1009 68 10000 5.1 210 13:19 15.08.2019
3621 Clouds 19 1009 68 10000 5.1 210 13:19 15.08.2019
3622 Drizzle 19 1009 68 10000 5.7 230 12:40 15.08.2019
3623 Clouds 18 1009 68 10000 4.6 200 12:22 15.08.2019
3624 Clouds 19 1009 77 10000 3.1 180 11:59 15.08.2019
3625 Clouds 18 1009 77 10000 3.1 180 11:39 15.08.2019
3626 Clouds 18 1009 77 10000 3.1 180 11:39 15.08.2019
3627 Clouds 17 1009 82 10000 3.1 150 11:20 15.08.2019
3628 Rain 17 1010 82 10000 2.6 190 10:59 15.08.2019
3629 Rain 16 1010 82 10000 2.6 190 10:38 15.08.2019
3630 Rain 16 1010 77 10000 3.1 170 10:20 15.08.2019
3631 Rain 15 1010 77 10000 3.6 160 09:45 15.08.2019
3632 Rain 15 1010 82 10000 2.6 150 09:23 15.08.2019
3633 Clear 15 1010 77 10000 2.6 150 08:56 15.08.2019
3634 Clear 15 1010 77 10000 2.6 150 08:37 15.08.2019
3635 Drizzle 15 1011 87 10000 2.6 130 08:18 15.08.2019
3636 Drizzle 14 1011 87 10000 3.1 120 07:44 15.08.2019
3637 Rain 14 1011 87 10000 3.1 120 07:26 15.08.2019
3638 Rain 14 1011 87 7000 3.6 140 06:54 15.08.2019
3639 Rain 14 1011 82 10000 2.6 150 06:33 15.08.2019
3640 Rain 14 1011 82 10000 3.1 140 05:51 15.08.2019
3641 Rain 14 1011 77 10000 1.5 140 05:29 15.08.2019
3642 Rain 15 1012 72 10000 2.1 120 04:35 15.08.2019
3643 Rain 15 1012 67 10000 2.1 170 03:45 15.08.2019
3644 Clouds 15 1013 55 10000 2.6 130 02:45 15.08.2019
3645 Clouds 15 1014 58 10000 2.1 120 01:54 15.08.2019
3646 Clear 15 1013 51 10000 2.6 160 01:36 15.08.2019
3647 Clear 15 1014 51 10000 1.5 150 00:42 15.08.2019
3648 Clear 15 1014 51 10000 1.5 160 00:22 15.08.2019
3649 Clouds 15 1014 51 10000 1 120 23:59 14.08.2019
3650 Clear 15 1014 51 10000 1.5 160 23:38 14.08.2019
3651 Clear 15 1014 51 10000 1.5 160 23:38 14.08.2019
3652 Clear 15 1014 48 10000 1.5 150 23:19 14.08.2019
3653 Clouds 14 1015 58 10000 0.5 130 22:57 14.08.2019
3654 Clouds 15 1015 62 10000 1.5 90 22:39 14.08.2019
3655 Clouds 15 1015 62 10000 1.5 90 22:21 14.08.2019
3656 Clear 16 1015 48 10000 1 0 21:56 14.08.2019
3657 Clear 16 1015 48 10000 1 0 21:37 14.08.2019
3658 Clear 17 1015 42 10000 2.45 191.2 21:18 14.08.2019
3659 Clear 19 1015 39 10000 2.6 250 20:42 14.08.2019
3660 Clear 20 1015 30 10000 3.6 250 20:23 14.08.2019
3661 Clear 21 1015 32 10000 2.6 270 19:59 14.08.2019
3662 Clear 21 1015 32 10000 2.6 270 19:39 14.08.2019
3663 Clear 21 1015 32 10000 3.6 250 19:21 14.08.2019
3664 Clear 22 1016 30 10000 4.1 270 18:57 14.08.2019
3665 Clear 22 1016 30 10000 4.1 270 18:39 14.08.2019
3666 Clear 22 1016 30 10000 4.1 270 18:39 14.08.2019
3667 Clear 22 1016 33 10000 4.6 270 18:20 14.08.2019
3668 Clear 22 1016 33 10000 4.6 270 18:20 14.08.2019
3669 Clear 21 1016 32 10000 4.6 280 17:58 14.08.2019
3670 Clear 21 1016 32 10000 4.6 280 17:37 14.08.2019
3671 Clear 21 1016 32 10000 4.6 280 17:37 14.08.2019
3672 Clear 22 1016 28 10000 4.6 290 17:19 14.08.2019
3673 Clear 22 1016 30 10000 5.7 280 16:55 14.08.2019
3674 Clear 22 1016 30 10000 5.7 280 16:37 14.08.2019
3675 Clear 21 1016 32 10000 5.1 270 16:18 14.08.2019
3676 Clear 21 1017 32 10000 4.6 270 15:42 14.08.2019
3677 Clear 20 1017 45 10000 4.1 270 15:18 14.08.2019
3678 Clear 21 1017 37 10000 4.6 270 14:55 14.08.2019
3679 Clear 21 1017 37 10000 4.6 270 14:36 14.08.2019
3680 Clouds 19 1017 45 10000 4.6 240 14:18 14.08.2019
3681 Clouds 20 1017 40 10000 5.7 270 13:43 14.08.2019
3682 Clouds 20 1017 40 10000 5.7 270 13:43 14.08.2019
3683 Clouds 20 1017 45 10000 4.6 250 13:24 14.08.2019
3684 Clouds 20 1017 45 10000 4.6 250 13:24 14.08.2019
3685 Clouds 19 1017 52 10000 3.6 240 12:57 14.08.2019
3686 Clouds 19 1017 52 10000 3.6 240 12:38 14.08.2019
3687 Clouds 18 1018 52 10000 5.1 250 12:20 14.08.2019
3688 Clouds 18 1018 52 10000 5.7 270 11:55 14.08.2019
3689 Clouds 17 1018 52 10000 5.7 270 11:37 14.08.2019
3690 Clouds 17 1018 63 10000 4.6 260 11:19 14.08.2019
3691 Clouds 16 1018 67 10000 4.6 250 10:42 14.08.2019
3692 Clear 16 1018 67 10000 4.1 250 10:24 14.08.2019
3693 Clear 15 1018 72 10000 3.6 260 09:57 14.08.2019
3694 Clear 14 1018 72 10000 3.6 260 09:38 14.08.2019
3695 Clear 14 1018 76 10000 3.6 250 09:19 14.08.2019
3696 Clear 12 1018 76 10000 4.6 240 08:39 14.08.2019
3697 Clear 12 1018 82 10000 3.1 240 08:21 14.08.2019
3698 Clear 11 1017 81 10000 3.1 240 07:51 14.08.2019
3699 Fog 11 1017 81 10000 3.1 240 07:32 14.08.2019
3700 Fog 10 1017 93 7000 1 220 06:46 14.08.2019
3701 Fog 10 1017 93 10000 1.5 230 05:54 14.08.2019
3702 Fog 10 1017 87 10000 2.6 240 05:24 14.08.2019
3703 Clear 10 1017 87 10000 2.1 220 03:38 14.08.2019
3704 Clear 12 1017 81 10000 2.1 200 02:33 14.08.2019
3705 Clouds 11 1017 76 10000 2.6 230 01:49 14.08.2019
3706 Clear 12 1017 81 10000 2.1 210 01:18 14.08.2019
3707 Clouds 14 1017 71 10000 2.6 210 23:55 13.08.2019
3708 Rain 14 1017 76 10000 3.1 240 23:37 13.08.2019
3709 Rain 14 1017 76 10000 3.1 240 23:18 13.08.2019
3710 Rain 15 1017 71 10000 3.1 220 22:42 13.08.2019
3711 Rain 15 1017 62 10000 2.6 270 22:24 13.08.2019
3712 Clear 15 1017 55 10000 3.6 280 21:59 13.08.2019
3713 Clear 15 1017 55 10000 3.6 280 21:39 13.08.2019
3714 Clear 15 1017 48 10000 5.1 280 21:19 13.08.2019
3715 Clear 16 1016 48 10000 3.6 270 20:57 13.08.2019
3716 Rain 16 1016 48 10000 3.6 270 20:38 13.08.2019
3717 Rain 17 1016 45 10000 4.6 270 20:18 13.08.2019
3718 Rain 17 1016 42 10000 5.1 270 19:54 13.08.2019
3719 Clear 17 1016 42 10000 5.1 270 19:36 13.08.2019
3720 Clear 18 1016 45 10000 5.1 270 19:18 13.08.2019
3721 Clear 18 1016 52 10000 5.1 290 18:41 13.08.2019
3722 Clear 19 1016 52 10000 5.7 300 18:21 13.08.2019
3723 Clear 19 1016 55 10000 6.7 310 17:43 13.08.2019
3724 Rain 19 1015 40 10000 7.2 260 17:23 13.08.2019
3725 Rain 19 1015 42 10000 7.2 250 16:58 13.08.2019
3726 Rain 19 1015 42 10000 7.2 250 16:40 13.08.2019
3727 Rain 19 1015 48 10000 7.2 270 16:21 13.08.2019
3728 Rain 20 1015 45 10000 8.2 250 15:59 13.08.2019
3729 Clouds 20 1015 45 10000 8.2 250 15:38 13.08.2019
3730 Clouds 20 1015 45 10000 7.2 250 15:19 13.08.2019
3731 Clouds 20 1016 52 10000 6.7 270 14:45 13.08.2019
3732 Clouds 19 1016 52 10000 7.7 270 14:20 13.08.2019
3733 Clouds 19 1016 59 10000 7.7 280 13:59 13.08.2019
3734 Clouds 19 1016 59 10000 7.7 280 13:59 13.08.2019
3735 Clouds 18 1016 59 10000 7.7 280 13:40 13.08.2019
3736 Clouds 18 1015 63 10000 7.2 260 13:20 13.08.2019
3737 Clouds 17 1015 72 10000 7.2 260 12:57 13.08.2019
3738 Clouds 17 1015 72 10000 7.2 260 12:39 13.08.2019
3739 Clouds 16 1015 67 10000 7.7 250 12:20 13.08.2019
3740 Clouds 16 1015 72 10000 4.1 240 11:42 13.08.2019
3741 Clouds 16 1015 72 10000 4.1 240 11:23 13.08.2019
3742 Clouds 16 1015 82 10000 5.1 240 10:58 13.08.2019
3743 Clouds 16 1015 82 10000 5.1 240 10:38 13.08.2019
3744 Clouds 16 1015 82 10000 5.1 240 10:38 13.08.2019
3745 Clouds 16 1015 82 10000 4.6 240 10:20 13.08.2019
3746 Clouds 16 1015 82 10000 4.6 240 10:20 13.08.2019
3747 Clouds 16 1015 82 10000 4.6 240 09:56 13.08.2019
3748 Clouds 16 1015 82 10000 4.6 240 09:38 13.08.2019
3749 Clouds 15 1015 82 10000 5.1 240 09:19 13.08.2019
3750 Clouds 14 1014 87 10000 4.1 250 08:41 13.08.2019
3751 Clouds 14 1014 87 10000 3.1 240 08:21 13.08.2019
3752 Clear 13 1014 87 10000 3.1 240 07:51 13.08.2019
3753 Clear 13 1014 87 10000 3.1 240 07:31 13.08.2019
3754 Clouds 13 1014 93 10000 1 200 06:45 13.08.2019
3755 Clear 13 1014 87 10000 2.1 220 06:19 13.08.2019
3756 Clear 12 1014 87 10000 0.5 0 05:33 13.08.2019
3757 Clear 13 1014 82 10000 3.1 250 02:37 13.08.2019
3758 Clouds 14 1014 87 10000 1.5 260 01:55 13.08.2019
3759 Clouds 14 1014 93 10000 1 200 00:55 13.08.2019
3760 Clear 14 1014 82 10000 3.1 240 00:36 13.08.2019
3761 Clouds 15 1014 87 10000 1.5 210 23:49 12.08.2019
3762 Rain 15 1014 77 10000 3.6 240 23:24 12.08.2019
3763 Clouds 15 1014 87 10000 0.5 210 22:58 12.08.2019
3764 Rain 15 1014 77 10000 3.1 250 22:39 12.08.2019
3765 Rain 16 1014 87 10000 3.6 250 22:19 12.08.2019
3766 Rain 15 1014 87 10000 3.6 250 21:55 12.08.2019
3767 Rain 15 1014 87 10000 3.6 250 21:55 12.08.2019
3768 Rain 15 1014 87 10000 3.6 250 21:37 12.08.2019
3769 Rain 16 1014 87 10000 6.7 260 21:18 12.08.2019
3770 Rain 16 1013 45 10000 6.2 290 20:56 12.08.2019
3771 Rain 16 1013 45 10000 6.2 290 20:55 12.08.2019
3772 Rain 17 1013 45 10000 6.2 290 20:36 12.08.2019
3773 Rain 17 1012 46 10000 5.1 280 20:18 12.08.2019
3774 Rain 19 1012 43 10000 2.6 250 19:55 12.08.2019
3775 Rain 20 1012 43 10000 2.6 250 19:36 12.08.2019
3776 Rain 22 1012 40 10000 2.6 250 19:18 12.08.2019
3777 Clear 23 1012 40 10000 2.6 240 18:54 12.08.2019
3778 Clear 24 1012 40 10000 2.6 240 18:36 12.08.2019
3779 Clear 24 1012 40 10000 3.1 230 18:18 12.08.2019
3780 Clear 24 1012 40 10000 3.1 230 17:46 12.08.2019
3781 Clear 24 1013 36 10000 2.6 210 17:28 12.08.2019
3782 Clear 24 1013 38 10000 2.1 210 16:56 12.08.2019
3783 Clear 24 1013 38 10000 2.1 210 16:38 12.08.2019
3784 Clear 24 1013 35 10000 3.6 230 16:20 12.08.2019
3785 Clear 24 1013 35 10000 3.6 230 16:20 12.08.2019
3786 Clear 24 1013 35 10000 3.6 230 16:20 12.08.2019
3787 Clear 24 1013 33 10000 4.1 270 15:58 12.08.2019
3788 -273 0 0 0 0 0 15:39 12.08.2019
3789 -273 0 0 0 0 0 15:38 12.08.2019
3790 Clear 24 1013 33 10000 4.1 270 15:38 12.08.2019
3791 Clear 24 1013 33 10000 4.1 270 15:20 12.08.2019
3792 Clear 24 1014 35 10000 5.7 260 14:55 12.08.2019
3793 Clear 24 1014 35 10000 5.7 260 14:36 12.08.2019
3794 Clear 24 1014 33 10000 5.7 260 14:18 12.08.2019
3795 Clear 24 1014 33 10000 5.7 260 14:18 12.08.2019
3796 Clear 24 1015 40 10000 5.7 260 13:42 12.08.2019
3797 Clouds 23 1015 43 10000 5.7 260 13:23 12.08.2019
3798 Clouds 23 1015 43 10000 5.7 260 12:44 12.08.2019
3799 Clouds 22 1014 43 10000 5.1 270 12:22 12.08.2019
3800 Clouds 22 1015 43 10000 5.7 280 11:56 12.08.2019
3801 Clouds 22 1015 43 10000 5.7 280 11:56 12.08.2019
3802 -273 0 0 0 0 0 11:38 12.08.2019
3803 Clouds 21 1015 52 10000 5.7 250 11:19 12.08.2019
3804 Clouds 21 1014 52 10000 5.1 250 10:41 12.08.2019
3805 Clear 21 1015 56 10000 5.1 240 10:23 12.08.2019
3806 Clear 20 1015 59 10000 5.1 260 09:56 12.08.2019
3807 Clear 19 1015 59 10000 5.1 260 09:37 12.08.2019
3808 Clear 18 1015 63 10000 5.1 250 09:19 12.08.2019
3809 Clouds 18 1014 63 10000 4.6 220 08:55 12.08.2019
3810 Clear 18 1015 63 10000 3.6 250 08:37 12.08.2019
3811 Clear 17 1015 63 10000 3.6 250 08:19 12.08.2019
3812 Clear 16 1014 63 10000 3.1 250 07:42 12.08.2019
3813 Clear 16 1015 67 10000 2.6 260 07:20 12.08.2019
3814 Clouds 16 1014 72 10000 1.5 220 06:44 12.08.2019
3815 Clear 16 1014 63 10000 2.6 240 05:37 12.08.2019
3816 Clouds 18 1013 59 10000 2.1 190 02:44 12.08.2019
3817 Clouds 18 1013 59 10000 1 220 01:54 12.08.2019
3818 Clear 19 1013 52 10000 2.6 260 01:20 12.08.2019
3819 Clouds 19 1013 67 10000 1 200 00:57 12.08.2019
3820 Clear 19 1013 52 10000 2.6 250 00:38 12.08.2019
3821 Clear 19 1013 52 10000 3.1 260 00:19 12.08.2019
3822 Clouds 19 1013 59 10000 1 240 23:54 11.08.2019
3823 Clear 20 1013 55 10000 2.1 250 23:36 11.08.2019
3824 Clear 20 1013 52 10000 0.5 0 23:18 11.08.2019
3825 Clear 20 1013 55 10000 1 260 22:40 11.08.2019
3826 Clear 21 1013 49 10000 1.5 260 22:19 11.08.2019
3827 Clouds 21 1013 43 10000 1 230 21:59 11.08.2019
3828 Clouds 21 1013 43 10000 1 230 21:41 11.08.2019
3829 Clear 22 1012 52 10000 2.42 313.826 21:21 11.08.2019
3830 Clear 22 1012 52 10000 2.42 313.826 20:57 11.08.2019
3831 Clear 22 1012 52 10000 2.42 313.826 20:57 11.08.2019
3832 Clear 22 1012 52 10000 2.42 313.826 20:39 11.08.2019
3833 Clear 22 1012 49 10000 2.42 313.826 20:20 11.08.2019
3834 Clear 23 1012 40 10000 2.1 320 19:44 11.08.2019
3835 Clear 23 1012 38 10000 2.6 310 19:20 11.08.2019
3836 Clear 24 1012 38 10000 3.6 310 18:54 11.08.2019
3837 Clear 24 1012 38 10000 3.6 310 18:36 11.08.2019
3838 Clear 24 1012 36 10000 3.6 310 18:18 11.08.2019
3839 Clear 25 1012 33 10000 3.6 270 17:41 11.08.2019
3840 Clear 25 1012 31 10000 2.6 0 17:20 11.08.2019
3841 Clear 26 1013 27 10000 5.1 250 16:57 11.08.2019
3842 Clear 26 1013 27 10000 5.1 250 16:38 11.08.2019
3843 Clear 26 1013 27 10000 5.1 250 16:38 11.08.2019
3844 Clear 26 1013 31 10000 4.1 260 16:20 11.08.2019
3845 Clear 26 1013 31 10000 3.6 260 15:44 11.08.2019
3846 Clear 26 1013 31 10000 4.6 240 15:26 11.08.2019
3847 Clear 26 1013 31 10000 4.6 240 15:26 11.08.2019
3848 Clear 25 1013 31 10000 6.2 250 14:59 11.08.2019
3849 Clear 25 1013 31 10000 6.2 250 14:40 11.08.2019
3850 Clear 25 1014 33 10000 5.1 230 14:22 11.08.2019
3851 Clear 25 1014 36 10000 6.2 250 13:46 11.08.2019
3852 Clear 25 1014 38 10000 5.1 270 13:26 11.08.2019
3853 Clear 25 1015 41 10000 5.7 240 12:59 11.08.2019
3854 Clear 25 1015 41 10000 5.7 240 12:41 11.08.2019
3855 Clouds 24 1015 41 10000 5.1 240 12:21 11.08.2019
3856 Clouds 24 1015 46 10000 4.1 220 11:40 11.08.2019
3857 Clouds 23 1015 49 10000 4.1 250 11:22 11.08.2019
3858 Clear 22 1015 52 10000 4.1 230 10:57 11.08.2019
3859 Clear 22 1015 52 10000 4.1 230 10:39 11.08.2019
3860 Clear 22 1015 49 10000 4.1 230 10:20 11.08.2019
3861 Clear 21 1015 49 10000 3.6 220 09:55 11.08.2019
3862 Clear 21 1015 49 10000 3.6 220 09:37 11.08.2019
3863 Clear 20 1015 52 10000 3.6 240 09:18 11.08.2019
3864 Clear 19 1015 55 10000 4.1 200 08:41 11.08.2019
3865 Clear 19 1015 55 10000 3.6 210 08:22 11.08.2019
3866 Clouds 18 1014 55 10000 2.6 190 07:47 11.08.2019
3867 Clear 17 1015 55 10000 3.1 200 07:20 11.08.2019
3868 Clear 17 1015 59 10000 3.1 210 06:38 11.08.2019
3869 Clear 17 1014 55 10000 4.1 240 05:34 11.08.2019
3870 Clouds 18 1013 59 10000 1 230 02:54 11.08.2019
3871 Clear 19 1013 55 10000 2.6 210 02:26 11.08.2019
3872 Clear 19 1013 52 10000 3.1 200 01:35 11.08.2019
3873 Clear 19 1013 55 10000 2.6 190 00:59 11.08.2019
3874 Clear 19 1013 55 10000 2.6 190 00:40 11.08.2019
3875 Clear 19 1013 49 10000 3.6 210 00:22 11.08.2019
3876 Clear 19 1013 49 10000 3.1 210 23:39 10.08.2019
3877 Clear 20 1013 49 10000 3.6 220 23:20 10.08.2019
3878 Clear 20 1012 49 10000 2.1 200 22:43 10.08.2019
3879 Clear 21 1012 49 10000 3.1 220 22:24 10.08.2019
3880 Clear 22 1012 43 10000 3.1 220 21:57 10.08.2019
3881 Clear 23 1012 46 10000 2.6 230 21:38 10.08.2019
3882 Clear 23 1012 47 10000 3.6 240 21:18 10.08.2019
3883 Clear 23 1012 47 10000 3.6 240 20:56 10.08.2019
3884 Clear 24 1012 47 10000 3.6 240 20:37 10.08.2019
3885 Clear 24 1011 44 10000 4.6 220 20:18 10.08.2019
3886 Clear 24 1011 44 10000 4.6 230 19:39 10.08.2019
3887 Clear 25 1011 44 10000 5.7 220 19:20 10.08.2019
3888 Clear 25 1011 41 10000 6.2 230 18:40 10.08.2019
3889 Clear 25 1011 41 10000 6.2 230 18:40 10.08.2019
3890 Clear 25 1011 44 10000 6.7 220 18:22 10.08.2019
3891 Clear 25 1011 44 10000 6.7 230 17:45 10.08.2019
3892 Clear 25 1011 44 10000 7.2 220 17:25 10.08.2019
3893 Clear 25 1010 44 10000 5.1 230 16:47 10.08.2019
3894 Clear 25 1010 44 10000 6.7 240 16:28 10.08.2019
3895 Clear 25 1010 39 10000 7.2 240 15:58 10.08.2019
3896 Clear 26 1010 39 10000 7.2 240 15:40 10.08.2019
3897 Clear 25 1010 41 10000 7.2 250 15:21 10.08.2019
3898 Clear 25 1010 44 10000 7.2 260 14:43 10.08.2019
3899 Clear 24 1010 44 10000 7.2 250 14:18 10.08.2019
3900 Clear 25 1010 44 10000 7.2 250 13:39 10.08.2019
3901 Clear 25 1010 47 10000 7.7 250 13:18 10.08.2019
3902 Clouds 24 1010 47 10000 7.2 240 12:42 10.08.2019
3903 Clouds 24 1009 50 10000 7.2 250 12:23 10.08.2019
3904 Clouds 24 1009 53 10000 6.7 250 11:57 10.08.2019
3905 Clouds 24 1009 53 10000 6.7 250 11:39 10.08.2019
3906 Clouds 24 1009 53 10000 5.7 240 11:20 10.08.2019
3907 Clouds 23 1009 56 10000 5.7 250 10:39 10.08.2019
3908 Clouds 23 1009 56 10000 6.7 250 10:20 10.08.2019
3909 Clouds 23 1009 69 10000 5.7 230 10:00 10.08.2019
3910 Clouds 23 1009 69 10000 5.7 230 09:39 10.08.2019
3911 Clear 22 1009 73 10000 5.7 240 09:21 10.08.2019
3912 Clouds 22 1008 64 10000 7.2 230 08:39 10.08.2019
3913 Clouds 21 1008 68 10000 5.7 230 08:20 10.08.2019
3914 Clouds 21 1007 68 10000 3.1 210 07:54 10.08.2019
3915 Clear 20 1007 72 10000 4.1 220 07:28 10.08.2019
3916 Clouds 20 1007 77 10000 4.6 220 06:49 10.08.2019
3917 Clear 20 1007 68 10000 4.6 230 06:25 10.08.2019
3918 Fog 20 1007 68 10000 5.7 240 05:25 10.08.2019
3919 Clear 20 1006 77 10000 3.1 260 04:31 10.08.2019
3920 Clouds 20 1006 83 10000 1 0 02:54 10.08.2019
3921 Clear 20 1007 78 10000 5.7 180 02:26 10.08.2019
3922 Clouds 20 1007 83 10000 2.6 230 01:42 10.08.2019
3923 Rain 20 1007 78 10000 4.1 200 01:22 10.08.2019
3924 Rain 20 1006 83 10000 4.6 110 00:49 10.08.2019
3925 Clear 20 1007 78 10000 2.6 180 00:25 10.08.2019
3926 Clouds 20 1007 77 10000 3.1 170 23:57 09.08.2019
3927 Clear 20 1007 78 10000 4.6 190 23:36 09.08.2019
3928 Clear 21 1006 69 10000 3.1 150 23:18 09.08.2019
3929 Clear 21 1008 94 10000 1.5 150 22:40 09.08.2019
3930 Clear 21 1008 94 10000 1.5 150 22:40 09.08.2019
3931 Clear 21 1008 94 10000 1.5 150 22:22 09.08.2019
3932 Clear 21 1008 88 10000 2.1 90 21:57 09.08.2019
3933 Clear 21 1008 88 10000 2.1 90 21:39 09.08.2019
3934 Clear 21 1008 94 10000 3.1 100 21:21 09.08.2019
3935 Clear 21 1008 88 10000 2.1 90 20:56 09.08.2019
3936 Clear 22 1008 88 10000 2.1 90 20:38 09.08.2019
3937 Clear 22 1008 83 10000 1.5 90 20:18 09.08.2019
3938 Rain 22 1008 83 10000 2.1 90 19:41 09.08.2019
3939 Rain 22 1009 73 10000 1 0 19:22 09.08.2019
3940 Rain 23 1009 60 10000 4.6 220 18:54 09.08.2019
3941 Rain 23 1009 60 10000 4.6 220 18:36 09.08.2019
3942 Rain 24 1009 50 10000 1 0 18:18 09.08.2019
3943 Rain 26 1008 44 10000 2.1 130 17:42 09.08.2019
3944 Rain 26 1009 42 10000 2.6 150 17:23 09.08.2019
3945 -273 0 0 0 0 0 16:54 09.08.2019
3946 Rain 27 1009 42 10000 2.6 160 16:36 09.08.2019
3947 Clear 28 1009 39 10000 3.1 160 16:18 09.08.2019
3948 Clear 28 1009 42 10000 2.1 150 15:41 09.08.2019
3949 Clear 28 1010 42 10000 3.1 140 15:21 09.08.2019
3950 Clear 27 1010 44 10000 2.1 160 14:57 09.08.2019
3951 Clear 27 1010 44 10000 2.1 160 14:38 09.08.2019
3952 Clear 27 1010 44 10000 3.1 150 14:19 09.08.2019
3953 Clear 27 1011 44 10000 2.6 140 13:44 09.08.2019
3954 Clear 27 1011 47 10000 3.1 120 13:21 09.08.2019
3955 Clear 26 1011 47 10000 2.1 0 12:56 09.08.2019
3956 Clear 26 1011 47 10000 2.1 0 12:37 09.08.2019
3957 Clear 25 1011 47 10000 2.6 130 12:18 09.08.2019
3958 Clear 24 1011 53 10000 2.6 130 11:41 09.08.2019
3959 Clear 23 1011 49 10000 2.1 0 11:20 09.08.2019
3960 Clear 23 1011 56 10000 2.6 140 10:54 09.08.2019
3961 Clear 23 1011 56 10000 2.6 140 10:36 09.08.2019
3962 Clear 22 1012 60 10000 2.1 130 10:18 09.08.2019
3963 Clear 21 1012 64 10000 2.1 120 09:40 09.08.2019
3964 Clear 20 1012 77 10000 1.5 0 09:19 09.08.2019
3965 Clear 17 1012 87 10000 1 0 08:45 09.08.2019
3966 Clear 16 1012 87 10000 1 0 08:25 09.08.2019
3967 Clear 15 1012 93 10000 1.5 90 07:58 09.08.2019
3968 Clear 15 1012 93 10000 1.5 90 07:40 09.08.2019
3969 Clear 15 1012 93 10000 1.5 90 07:40 09.08.2019
3970 Fog 14 1012 93 10000 1 0 07:20 09.08.2019
3971 Fog 13 1012 93 10000 0.5 120 06:44 09.08.2019
3972 Fog 12 1012 93 10000 0.5 80 06:21 09.08.2019
3973 Clear 13 1012 93 10000 0.5 0 05:37 09.08.2019
3974 Clear 15 1012 87 10000 0.5 350 02:29 09.08.2019
3975 Clear 16 1012 82 10000 0.5 290 01:26 09.08.2019
3976 Clouds 16 1012 77 10000 0.5 210 00:42 09.08.2019
3977 Clear 17 1012 77 10000 1 220 00:23 09.08.2019
3978 Clouds 17 1011 67 10000 1 220 23:57 08.08.2019
3979 Clear 18 1012 77 10000 1 0 23:37 08.08.2019
3980 Clear 18 1012 68 10000 1 230 23:19 08.08.2019
3981 Clouds 18 1011 63 10000 1 220 22:56 08.08.2019
3982 Clear 18 1011 63 10000 2.03 257.864 22:36 08.08.2019
3983 Clear 19 1011 63 10000 2.03 257.864 22:18 08.08.2019
3984 Clear 20 1011 49 10000 2.1 310 21:43 08.08.2019
3985 Clear 21 1011 46 10000 2.1 300 21:24 08.08.2019
3986 Clear 22 1011 43 10000 3.6 280 20:59 08.08.2019
3987 Clear 22 1011 43 10000 3.6 280 20:41 08.08.2019
3988 Clear 23 1010 40 10000 4.1 280 20:20 08.08.2019
3989 Clear 23 1010 38 10000 5.1 280 19:56 08.08.2019
3990 Clear 23 1010 38 10000 5.1 280 19:36 08.08.2019
3991 Clear 23 1010 38 10000 6.7 260 19:18 08.08.2019
3992 Clear 24 1010 36 10000 6.7 260 18:41 08.08.2019
3993 Clear 25 1010 38 10000 6.2 270 18:20 08.08.2019
3994 Clear 25 1010 38 10000 5.7 260 17:42 08.08.2019
3995 Clear 25 1010 36 10000 6.2 270 17:24 08.08.2019
3996 Clear 25 1010 38 10000 5.7 270 16:59 08.08.2019
3997 Clear 25 1010 38 10000 5.7 270 16:41 08.08.2019
3998 Clear 25 1010 36 10000 5.7 270 16:23 08.08.2019
3999 Clear 25 1010 36 10000 6.2 260 15:57 08.08.2019
4000 Clear 25 1010 36 10000 6.2 260 15:38 08.08.2019
4001 Clear 25 1010 38 10000 6.2 270 15:20 08.08.2019
4002 Clear 25 1010 38 10000 6.2 270 15:20 08.08.2019
4003 Clear 24 1010 43 10000 5.7 270 14:40 08.08.2019
4004 Clear 24 1010 41 10000 5.7 250 14:22 08.08.2019
4005 Clear 24 1010 44 10000 6.2 250 13:57 08.08.2019
4006 Clear 24 1010 44 10000 6.2 250 13:36 08.08.2019
4007 Clear 24 1010 43 10000 6.2 250 13:18 08.08.2019
4008 Clouds 23 1010 41 10000 7.2 250 12:38 08.08.2019
4009 Clouds 23 1010 46 10000 7.2 260 12:19 08.08.2019
4010 Clouds 23 1010 46 10000 7.2 260 12:19 08.08.2019
4011 Clouds 22 1010 49 10000 5.7 260 11:47 08.08.2019
4012 Clouds 22 1010 49 10000 6.7 250 11:26 08.08.2019
4013 Clouds 22 1010 49 10000 6.7 250 11:26 08.08.2019
4014 Clouds 21 1010 52 10000 5.7 250 10:57 08.08.2019
4015 Clouds 21 1010 52 10000 5.7 250 10:39 08.08.2019
4016 Clear 21 1010 60 10000 4.6 250 10:20 08.08.2019
4017 Clear 20 1010 68 10000 4.6 240 09:43 08.08.2019
4018 Clear 18 1010 68 10000 5.7 240 09:23 08.08.2019
4019 Clear 18 1010 72 10000 4.6 220 08:54 08.08.2019
4020 Clear 18 1010 72 10000 4.6 220 08:36 08.08.2019
4021 Clear 17 1009 77 10000 3.1 220 08:18 08.08.2019
4022 Clear 16 1009 87 10000 1.5 0 07:39 08.08.2019
4023 Fog 15 1009 87 10000 1 0 07:19 08.08.2019
4024 Fog 15 1009 93 10000 4.24 224.503 06:46 08.08.2019
4025 Fog 14 1009 77 10000 2.1 190 06:19 08.08.2019
4026 Fog 14 1009 100 10000 0.5 0 05:51 08.08.2019
4027 Fog 15 1009 100 10000 0.5 240 04:48 08.08.2019
4028 Fog 15 1008 100 10000 1 230 03:51 08.08.2019
4029 Fog 15 1008 93 10000 1 240 01:59 08.08.2019
4030 Fog 15 1008 93 10000 0.5 0 01:35 08.08.2019
4031 Fog 16 1008 93 10000 2.52 265.624 00:26 08.08.2019
4032 Fog 17 1008 93 10000 1.5 230 23:46 07.08.2019
4033 Clear 17 1008 93 10000 0.5 0 23:19 07.08.2019
4034 Clouds 18 1007 88 10000 0.5 120 22:56 07.08.2019
4035 Rain 18 1007 68 10000 2.52 265.624 22:38 07.08.2019
4036 Rain 18 1007 68 10000 2.52 265.624 22:19 07.08.2019
4037 Rain 18 1007 63 10000 2.52 265.624 21:55 07.08.2019
4038 Rain 19 1007 63 10000 2.52 265.624 21:37 07.08.2019
4039 Rain 20 1006 56 10000 2.6 320 21:18 07.08.2019
4040 Rain 21 1006 46 10000 3.1 290 20:42 07.08.2019
4041 Clear 22 1006 43 10000 3.6 290 20:23 07.08.2019
4042 Clear 22 1006 40 10000 4.6 290 19:58 07.08.2019
4043 Rain 23 1006 40 10000 4.6 290 19:39 07.08.2019
4044 Rain 23 1006 43 10000 4.6 280 19:21 07.08.2019
4045 Clear 23 1006 46 10000 4.6 270 18:44 07.08.2019
4046 Clear 24 1006 44 10000 4.6 260 18:21 07.08.2019
4047 Clear 24 1006 44 10000 5.1 260 17:59 07.08.2019
4048 Clear 24 1006 44 10000 5.1 260 17:40 07.08.2019
4049 Clear 24 1006 44 10000 5.1 260 17:40 07.08.2019
4050 Clear 24 1006 44 10000 5.7 260 17:21 07.08.2019
4051 Clear 24 1006 44 10000 5.7 260 17:21 07.08.2019
4052 Clear 25 1006 41 10000 5.7 280 16:57 07.08.2019
4053 Clear 24 1006 41 10000 5.7 280 16:39 07.08.2019
4054 Clear 25 1006 44 10000 6.7 270 16:21 07.08.2019
4055 Clear 25 1006 44 10000 5.7 250 15:57 07.08.2019
4056 Clear 24 1006 44 10000 5.7 250 15:38 07.08.2019
4057 Clouds 24 1006 50 10000 5.1 260 15:19 07.08.2019
4058 Clouds 24 1006 47 10000 6.2 260 14:49 07.08.2019
4059 Clouds 24 1006 47 10000 6.2 270 14:29 07.08.2019
4060 Clouds 24 1006 56 10000 5.1 280 13:57 07.08.2019
4061 Clouds 24 1006 56 10000 5.1 280 13:38 07.08.2019
4062 Clouds 23 1006 60 10000 4.1 260 13:18 07.08.2019
4063 Clouds 23 1006 60 10000 5.1 280 12:56 07.08.2019
4064 Clouds 23 1006 60 10000 5.1 280 12:36 07.08.2019
4065 Clouds 22 1006 64 10000 5.1 270 12:18 07.08.2019
4066 Clouds 22 1006 68 10000 4.6 260 11:43 07.08.2019
4067 Clouds 21 1006 68 10000 4.6 260 11:21 07.08.2019
4068 Clouds 21 1006 68 10000 4.6 250 10:58 07.08.2019
4069 Clouds 21 1006 68 10000 4.6 250 10:39 07.08.2019
4070 Clear 20 1006 73 10000 4.6 250 10:19 07.08.2019
4071 Rain 20 1006 72 10000 5.1 250 09:46 07.08.2019
4072 Clouds 20 1006 77 10000 3.6 230 09:22 07.08.2019
4073 Rain 19 1006 82 10000 1.5 0 08:59 07.08.2019
4074 Rain 19 1006 82 10000 1.5 0 08:41 07.08.2019
4075 Clouds 18 1006 82 10000 2.1 130 08:23 07.08.2019
4076 Clouds 18 1006 87 10000 1 100 07:43 07.08.2019
4077 Clouds 17 1006 87 10000 3.83 201.629 07:21 07.08.2019
4078 Clear 17 1006 82 10000 1 0 06:41 07.08.2019
4079 Clear 17 1006 93 10000 2.6 90 06:20 07.08.2019
4080 Clouds 17 1006 93 10000 1.5 80 05:40 07.08.2019
4081 Clear 17 1007 68 10000 1 0 03:26 07.08.2019
4082 Rain 17 1007 82 10000 1.34 142.933 02:51 07.08.2019
4083 Clear 18 1007 72 10000 1 100 02:30 07.08.2019
4084 Clouds 17 1008 82 10000 0.5 0 01:49 07.08.2019
4085 Clouds 17 1008 77 10000 0.5 260 00:53 07.08.2019
4086 Clear 18 1008 67 10000 1.26 306.296 00:23 07.08.2019
4087 Clouds 18 1008 72 10000 1 160 23:57 06.08.2019
4088 Clear 18 1008 63 10000 0.5 0 23:36 06.08.2019
4089 Clear 18 1008 63 10000 0.5 0 23:18 06.08.2019
4090 Clouds 19 1008 63 10000 1 320 22:40 06.08.2019
4091 Clear 20 1008 63 10000 1 330 22:21 06.08.2019
4092 Clear 20 1008 56 10000 2.1 310 21:57 06.08.2019
4093 Clear 21 1008 56 10000 2.1 310 21:38 06.08.2019
4094 Clear 21 1008 56 10000 2.1 300 21:19 06.08.2019
4095 Clear 22 1008 53 10000 2.6 310 20:46 06.08.2019
4096 Clear 22 1008 46 10000 3.1 320 20:27 06.08.2019
4097 Clear 23 1008 47 10000 3.6 320 19:57 06.08.2019
4098 Clear 24 1008 47 10000 3.6 320 19:38 06.08.2019
4099 Clear 24 1008 44 10000 4.6 280 19:19 06.08.2019
4100 Clear 24 1008 47 10000 4.1 290 18:41 06.08.2019
4101 Clear 25 1008 47 10000 4.6 310 18:23 06.08.2019
4102 Clear 25 1008 47 10000 4.6 300 17:58 06.08.2019
4103 Clear 25 1008 47 10000 4.6 300 17:38 06.08.2019
4104 Clear 25 1009 50 10000 5.7 280 17:19 06.08.2019
4105 Clear 25 1009 50 10000 6.2 280 16:54 06.08.2019
4106 Clear 25 1009 50 10000 6.2 280 16:36 06.08.2019
4107 Clouds 25 1009 50 10000 6.7 270 16:18 06.08.2019
4108 Clouds 25 1009 57 10000 5.7 270 15:54 06.08.2019
4109 Clouds 25 1009 57 10000 5.7 270 15:36 06.08.2019
4110 Clouds 24 1009 64 10000 4.6 260 15:18 06.08.2019
4111 Clouds 24 1009 69 10000 4.1 260 14:40 06.08.2019
4112 Clouds 24 1010 73 10000 4.6 270 14:21 06.08.2019
4113 Clouds 22 1010 77 10000 4.1 250 13:55 06.08.2019
4114 Clouds 22 1010 77 10000 4.1 250 13:37 06.08.2019
4115 Clouds 22 1010 88 10000 2.6 280 13:18 06.08.2019
4116 Rain 21 1010 93 10000 3.1 280 12:41 06.08.2019
4117 Rain 21 1010 93 10000 3.1 280 12:41 06.08.2019
4118 Rain 21 1010 93 10000 3.1 280 12:41 06.08.2019
4119 Rain 21 1011 82 7000 5.7 300 12:23 06.08.2019
4120 Rain 21 1010 64 10000 3.1 230 11:59 06.08.2019
4121 -273 0 0 0 0 0 11:59 06.08.2019
4122 Rain 21 1010 64 10000 3.1 230 11:40 06.08.2019
4123 Rain 21 1010 73 10000 2.6 230 11:18 06.08.2019
4124 Rain 21 1010 68 10000 3.6 220 10:41 06.08.2019
4125 Rain 21 1010 64 10000 2.6 230 10:22 06.08.2019
4126 Rain 21 1010 68 10000 3.1 220 09:47 06.08.2019
4127 Clear 20 1010 82 10000 1.5 0 09:24 06.08.2019
4128 Clear 20 1010 88 10000 2.1 180 08:57 06.08.2019
4129 Clear 19 1010 88 10000 2.1 180 08:37 06.08.2019
4130 Clear 19 1010 93 10000 1.5 0 08:19 06.08.2019
4131 Clear 18 1010 100 10000 1.5 0 07:35 06.08.2019
4132 Clouds 17 1009 93 10000 1 230 06:51 06.08.2019
4133 Fog 17 1010 82 10000 0.5 0 06:29 06.08.2019
4134 Fog 16 1009 100 10000 1 210 05:47 06.08.2019
4135 Fog 17 1010 100 10000 0.5 140 02:59 06.08.2019
4136 Fog 18 1010 100 10000 0.5 200 01:46 06.08.2019
4137 Clear 18 1010 88 10000 2.24 248.858 01:22 06.08.2019
4138 Clear 18 1010 88 10000 1 250 00:29 06.08.2019
4139 Clouds 18 1010 93 10000 1 220 23:44 05.08.2019
4140 Clear 18 1010 93 10000 1 220 23:18 05.08.2019
4141 Clouds 18 1010 100 10000 1.5 100 22:40 05.08.2019
4142 Clouds 19 1010 100 10000 1.5 100 22:22 05.08.2019
4143 Clouds 19 1010 93 10000 1.5 90 21:54 05.08.2019
4144 Clouds 19 1010 93 10000 1.5 90 21:36 05.08.2019
4145 Clouds 19 1010 100 10000 2.1 0 21:18 05.08.2019
4146 Rain 20 1010 100 10000 1 0 20:54 05.08.2019
4147 Rain 20 1010 100 10000 1 0 20:36 05.08.2019
4148 Rain 20 1010 88 4500 8.7 250 20:18 05.08.2019
4149 Thunderstorm 21 1009 57 10000 1.5 0 19:40 05.08.2019
4150 Thunderstorm 21 1009 47 10000 1 0 19:22 05.08.2019
4151 Thunderstorm 23 1009 47 10000 2.6 260 18:57 05.08.2019
4152 Thunderstorm 23 1009 47 10000 2.6 260 18:57 05.08.2019
4153 Thunderstorm 23 1009 47 10000 2.6 260 18:39 05.08.2019
4154 Thunderstorm 26 1009 47 10000 3.6 290 18:18 05.08.2019
4155 Clear 26 1009 50 10000 3.1 260 17:41 05.08.2019
4156 Clear 26 1009 50 10000 4.6 250 17:22 05.08.2019
4157 Clear 26 1009 50 10000 4.6 230 16:46 05.08.2019
4158 Clear 26 1009 50 10000 4.1 240 16:25 05.08.2019
4159 Clear 26 1009 53 10000 4.1 230 15:46 05.08.2019
4160 Clear 25 1009 50 10000 4.6 220 15:28 05.08.2019
4161 Clear 25 1010 53 10000 3.6 210 14:59 05.08.2019
4162 Rain 25 1010 53 10000 3.6 210 14:38 05.08.2019
4163 Rain 24 1010 60 10000 2.1 190 14:19 05.08.2019
4164 Rain 24 1010 68 10000 1.5 0 13:44 05.08.2019
4165 Clear 23 1010 73 10000 1.5 0 13:22 05.08.2019
4166 Clear 22 1010 68 10000 1.5 0 12:48 05.08.2019
4167 Clear 22 1010 68 10000 1 0 12:20 05.08.2019
4168 Clear 21 1011 64 10000 2.1 170 11:47 05.08.2019
4169 Clear 21 1011 64 10000 3.1 140 11:28 05.08.2019
4170 Clear 20 1011 64 10000 3.1 150 10:59 05.08.2019
4171 Clear 20 1011 64 10000 3.1 150 10:41 05.08.2019
4172 Clear 19 1011 68 10000 3.1 160 10:21 05.08.2019
4173 Clear 19 1011 72 10000 2.1 180 09:43 05.08.2019
4174 Rain 19 1011 88 10000 1.5 120 09:24 05.08.2019
4175 Rain 18 1011 93 10000 2.6 100 08:59 05.08.2019
4176 Rain 18 1011 93 10000 2.6 100 08:40 05.08.2019
4177 Clear 18 1012 87 10000 0.5 0 08:20 05.08.2019
4178 Clear 18 1012 87 10000 0.5 0 08:20 05.08.2019
4179 Clear 17 1012 93 10000 2.6 110 07:42 05.08.2019
4180 Clouds 17 1012 87 10000 3.1 120 07:22 05.08.2019
4181 Rain 17 1011 68 10000 1.5 120 06:35 05.08.2019
4182 Clouds 17 1012 72 10000 1.5 90 05:52 05.08.2019
4183 Clear 17 1012 68 10000 1.5 110 05:20 05.08.2019
4184 Clear 17 1012 63 10000 2.6 110 04:27 05.08.2019
4185 Clear 17 1013 63 10000 2.1 120 03:38 05.08.2019
4186 Clear 16 1013 59 10000 1.5 130 02:37 05.08.2019
4187 Clear 16 1013 68 10000 1.5 110 01:36 05.08.2019
4188 Clouds 17 1014 72 10000 1 70 00:54 05.08.2019
4189 Clear 17 1013 63 10000 1.5 120 00:36 05.08.2019
4190 Clear 17 1014 63 10000 1 0 00:18 05.08.2019
4191 Clear 18 1014 60 10000 1 0 23:41 04.08.2019
4192 Clear 18 1014 60 10000 1.5 120 23:20 04.08.2019
4193 Clouds 18 1014 63 10000 0.5 70 22:56 04.08.2019
4194 Clear 18 1014 60 10000 1.5 110 22:37 04.08.2019
4195 Clear 19 1014 56 10000 1 90 22:19 04.08.2019
4196 Clouds 20 1014 56 10000 1.5 80 21:45 04.08.2019
4197 Clear 21 1014 49 10000 1 70 21:23 04.08.2019
4198 Clouds 22 1014 46 10000 3.1 90 20:57 04.08.2019
4199 Clear 22 1014 46 10000 1.5 0 20:38 04.08.2019
4200 Clear 23 1014 46 10000 1.5 0 20:18 04.08.2019
4201 Clear 23 1014 46 10000 2.1 330 19:48 04.08.2019
4202 Clouds 24 1015 46 10000 1.5 0 19:26 04.08.2019
4203 Clouds 24 1015 46 10000 2.1 0 18:57 04.08.2019
4204 Clouds 24 1015 46 10000 2.1 0 18:39 04.08.2019
4205 Clouds 24 1015 46 10000 3.1 340 18:19 04.08.2019
4206 Clouds 24 1015 46 10000 2.6 0 17:42 04.08.2019
4207 Clouds 24 1015 46 10000 2.1 290 17:21 04.08.2019
4208 Clouds 24 1016 49 10000 2.6 290 16:45 04.08.2019
4209 Clear 24 1016 46 10000 3.1 290 16:26 04.08.2019
4210 Clear 24 1016 46 10000 3.1 290 16:26 04.08.2019
4211 Clouds 23 1016 49 10000 2.6 270 15:55 04.08.2019
4212 Clouds 23 1016 49 10000 2.6 270 15:37 04.08.2019
4213 Clouds 23 1016 49 10000 2.6 270 15:37 04.08.2019
4214 Clouds 23 1016 52 10000 3.6 290 15:18 04.08.2019
4215 Clouds 22 1017 52 10000 2.6 300 14:42 04.08.2019
4216 Clouds 22 1017 56 10000 4.1 290 14:21 04.08.2019
4217 Clouds 22 1017 52 10000 4.1 320 13:43 04.08.2019
4218 Clouds 21 1017 49 10000 3.6 300 13:24 04.08.2019
4219 Clouds 21 1017 52 10000 4.1 290 12:55 04.08.2019
4220 Clouds 20 1017 52 10000 3.6 310 12:37 04.08.2019
4221 Clouds 20 1017 52 10000 3.6 310 12:37 04.08.2019
4222 Clouds 20 1017 52 10000 3.6 310 12:19 04.08.2019
4223 Clouds 20 1017 52 10000 5.1 300 11:41 04.08.2019
4224 Clouds 20 1017 59 10000 4.1 280 11:22 04.08.2019
4225 Clouds 19 1017 68 10000 3.1 280 10:47 04.08.2019
4226 Clear 19 1017 72 10000 2.6 290 10:22 04.08.2019
4227 Clear 17 1017 77 10000 2.1 270 09:46 04.08.2019
4228 Clear 17 1017 82 10000 2.1 280 09:26 04.08.2019
4229 Clouds 16 1017 82 10000 2.1 220 08:58 04.08.2019
4230 Clouds 16 1017 87 10000 1 0 08:34 04.08.2019
4231 Clouds 15 1017 93 10000 1.5 240 07:55 04.08.2019
4232 Clouds 15 1017 93 10000 0.5 230 07:28 04.08.2019
4233 Fog 14 1017 93 10000 0.5 0 06:40 04.08.2019
4234 Fog 14 1017 93 10000 1 0 06:18 04.08.2019
4235 Clear 15 1017 87 10000 2.1 310 03:36 04.08.2019
4236 Clouds 16 1017 77 10000 1.5 290 01:52 04.08.2019
4237 Clouds 16 1017 82 10000 1.5 300 01:32 04.08.2019
4238 Clouds 17 1017 77 10000 2.1 320 00:42 04.08.2019
4239 Clouds 17 1017 72 10000 1.5 340 00:24 04.08.2019
4240 Clouds 17 1016 72 10000 2.1 300 23:55 03.08.2019
4241 Clouds 18 1017 72 10000 2.1 330 23:36 03.08.2019
4242 Clouds 18 1017 72 10000 3.1 320 23:18 03.08.2019
4243 Rain 18 1017 72 10000 3.1 330 22:39 03.08.2019
4244 Rain 18 1016 72 10000 3.1 330 22:19 03.08.2019
4245 Clouds 19 1016 72 10000 2.6 330 21:39 03.08.2019
4246 Clear 19 1015 60 10000 3.1 310 21:21 03.08.2019
4247 Clear 20 1015 60 10000 3.1 310 20:45 03.08.2019
4248 Clear 21 1015 53 10000 2.1 320 20:24 03.08.2019
4249 Clear 21 1015 53 10000 2.1 330 19:56 03.08.2019
4250 Clear 21 1015 53 10000 2.1 330 19:38 03.08.2019
4251 Clear 21 1015 53 10000 4.1 310 19:20 03.08.2019
4252 Rain 21 1015 53 10000 5.1 310 18:45 03.08.2019
4253 Rain 22 1015 56 10000 4.6 280 18:24 03.08.2019
4254 Clouds 23 1015 56 10000 4.6 300 17:43 03.08.2019
4255 Rain 23 1015 56 10000 5.1 290 17:20 03.08.2019
4256 Rain 23 1015 53 10000 4.6 260 16:39 03.08.2019
4257 Rain 23 1015 53 10000 4.6 260 16:39 03.08.2019
4258 Rain 23 1015 56 10000 3.1 280 16:21 03.08.2019
4259 Rain 23 1015 60 10000 2.1 280 15:59 03.08.2019
4260 Rain 22 1015 60 10000 2.1 280 15:39 03.08.2019
4261 Clear 22 1015 60 10000 0.5 0 15:20 03.08.2019
4262 Clear 23 1015 72 10000 1.5 0 14:37 03.08.2019
4263 Clouds 22 1015 72 10000 2.1 320 14:18 03.08.2019
4264 Clouds 22 1015 72 10000 2.1 320 14:18 03.08.2019
4265 Rain 23 1015 64 10000 4.1 320 13:47 03.08.2019
4266 Clouds 22 1015 60 10000 2.6 0 13:23 03.08.2019
4267 Clouds 23 1015 73 10000 2.6 290 12:56 03.08.2019
4268 Clouds 22 1015 73 10000 2.6 290 12:37 03.08.2019
4269 Clouds 21 1015 100 10000 2.1 290 12:19 03.08.2019
4270 Clouds 20 1015 100 10000 2.1 290 11:40 03.08.2019
4271 Clouds 20 1015 100 10000 2.1 300 11:22 03.08.2019
4272 Clouds 18 1015 100 6000 2.1 270 10:39 03.08.2019
4273 Mist 17 1015 100 3200 2.1 280 10:20 03.08.2019
4274 Mist 17 1015 100 1700 1.5 0 09:38 03.08.2019
4275 Fog 16 1015 100 350 2.1 310 09:19 03.08.2019
4276 Fog 16 1015 88 8000 1 0 08:46 03.08.2019
4277 Mist 15 1014 100 3100 1.5 0 07:41 03.08.2019
4278 Fog 15 1015 93 600 2.6 300 07:22 03.08.2019
4279 Fog 14 1014 100 2200 2.1 300 06:21 03.08.2019
4280 Fog 14 1014 100 9000 1 0 03:36 03.08.2019
4281 Fog 15 1014 93 10000 1 250 02:28 03.08.2019
4282 Clear 16 1014 87 10000 1.85 13.766 01:22 03.08.2019
4283 Clear 16 1014 87 10000 1 340 00:32 03.08.2019
4284 Clear 16 1014 82 10000 0.5 0 00:32 03.08.2019
4285 Rain 16 1014 82 10000 1 0 23:57 02.08.2019
4286 Rain 17 1014 88 10000 1 0 23:37 02.08.2019
4287 Rain 17 1014 82 10000 2.1 220 23:18 02.08.2019
4288 Rain 17 1013 72 10000 0.5 0 22:54 02.08.2019
4289 Rain 17 1014 93 10000 3.6 300 22:36 02.08.2019
4290 Rain 17 1013 82 10000 1.5 0 22:18 02.08.2019
4291 Thunderstorm 18 1013 82 10000 1.5 0 21:41 02.08.2019
4292 Thunderstorm 19 1013 77 10000 2.6 70 21:22 02.08.2019
4293 Thunderstorm 19 1014 82 10000 3.6 30 20:45 02.08.2019
4294 Thunderstorm 19 1013 82 10000 3.1 80 20:27 02.08.2019
4295 Thunderstorm 20 1013 82 10000 2.6 70 19:56 02.08.2019
4296 Thunderstorm 20 1012 82 10000 4.1 90 19:34 02.08.2019
4297 Thunderstorm 22 1012 49 10000 5.1 80 18:57 02.08.2019
4298 Thunderstorm 22 1012 49 10000 5.1 80 18:39 02.08.2019
4299 Thunderstorm 24 1012 36 10000 2.1 0 18:20 02.08.2019
4300 Thunderstorm 24 1013 41 10000 3.6 290 17:42 02.08.2019
4301 Clear 25 1013 41 10000 3.1 290 17:24 02.08.2019
4302 Clear 25 1013 41 10000 4.1 230 16:56 02.08.2019
4303 Clear 25 1013 41 10000 4.1 230 16:37 02.08.2019
4304 Clear 25 1013 36 10000 3.1 310 16:18 02.08.2019
4305 Clear 25 1013 36 10000 3.1 0 15:38 02.08.2019
4306 Clear 25 1013 41 10000 2.1 0 15:19 02.08.2019
4307 Clouds 25 1014 44 10000 3.6 240 14:45 02.08.2019
4308 Clouds 25 1014 53 10000 3.1 270 14:18 02.08.2019
4309 Clouds 24 1014 44 10000 3.1 320 13:48 02.08.2019
4310 Clouds 24 1014 44 10000 2.1 0 13:25 02.08.2019
4311 Clouds 24 1014 47 10000 2.1 0 12:45 02.08.2019
4312 Clear 23 1014 53 10000 2.6 310 12:21 02.08.2019
4313 Clouds 23 1015 53 10000 2.6 310 11:51 02.08.2019
4314 Clouds 23 1015 53 10000 2.6 310 11:32 02.08.2019
4315 Clear 22 1015 72 10000 2.6 290 10:57 02.08.2019
4316 Clear 22 1015 72 10000 2.6 290 10:39 02.08.2019
4317 Clear 21 1015 72 10000 2.6 290 10:20 02.08.2019
4318 Clear 21 1015 68 10000 2.6 290 09:52 02.08.2019
4319 Clear 19 1015 72 10000 1.5 0 09:25 02.08.2019
4320 Clear 18 1015 77 10000 1 260 08:49 02.08.2019
4321 Clear 18 1015 77 10000 1 260 08:49 02.08.2019
4322 Clear 18 1015 77 10000 1 0 08:22 02.08.2019
4323 Clear 17 1015 87 10000 1.24 279.638 07:50 02.08.2019
4324 Clear 16 1015 87 10000 1.24 279.638 07:31 02.08.2019
4325 Clouds 16 1014 82 10000 0.5 0 06:46 02.08.2019
4326 Clear 15 1015 87 10000 1 260 06:24 02.08.2019
4327 Clear 16 1015 82 10000 1.5 250 05:25 02.08.2019
4328 Clear 17 1015 77 10000 1.5 250 03:28 02.08.2019
4329 Clear 16 1015 77 10000 1 0 02:33 02.08.2019
4330 Clear 17 1016 72 10000 0.5 0 00:41 02.08.2019
4331 Clear 18 1016 77 10000 0.5 0 00:18 02.08.2019
4332 Clouds 18 1015 72 10000 0.5 100 23:43 01.08.2019
4333 Clear 18 1015 68 10000 0.5 0 23:19 01.08.2019
4334 Clear 19 1015 68 10000 0.92 129.639 22:40 01.08.2019
4335 Clear 20 1015 68 10000 0.92 129.639 22:21 01.08.2019
4336 Clear 20 1015 56 10000 0.92 129.639 21:54 01.08.2019
4337 Clear 21 1015 56 10000 0.92 129.639 21:36 01.08.2019
4338 Clear 21 1015 56 10000 0.88 306.542 21:18 01.08.2019
4339 Clear 23 1015 46 10000 0.5 360 20:41 01.08.2019
4340 Clear 23 1015 40 10000 1.5 0 20:22 01.08.2019
4341 Clear 23 1015 40 10000 2.6 330 19:44 01.08.2019
4342 Clear 24 1015 40 10000 2.6 300 19:22 01.08.2019
4343 Clear 24 1015 38 10000 3.1 250 18:55 01.08.2019
4344 Clear 24 1015 38 10000 3.1 250 18:36 01.08.2019
4345 Clear 24 1015 36 10000 3.6 240 18:18 01.08.2019
4346 Clear 24 1016 36 10000 2.6 270 17:44 01.08.2019
4347 Clear 24 1016 40 10000 4.6 260 17:26 01.08.2019
4348 Clear 24 1016 38 10000 4.6 220 16:44 01.08.2019
4349 Clear 24 1016 38 10000 3.6 240 16:22 01.08.2019
4350 Clear 24 1016 38 10000 3.6 240 16:22 01.08.2019
4351 Clear 23 1016 44 10000 2.1 0 15:45 01.08.2019
4352 Clear 24 1016 41 10000 3.6 270 15:20 01.08.2019
4353 Clear 24 1016 43 10000 2.1 230 14:55 01.08.2019
4354 Clear 23 1016 43 10000 2.1 230 14:37 01.08.2019
4355 Clear 23 1016 49 10000 2.6 260 14:18 01.08.2019
4356 Clear 23 1017 52 10000 4.1 250 13:41 01.08.2019
4357 Clouds 23 1017 46 10000 4.1 270 13:22 01.08.2019
4358 Clouds 23 1017 53 10000 3.6 230 12:59 01.08.2019
4359 Clouds 23 1017 53 10000 3.6 230 12:41 01.08.2019
4360 Clouds 22 1017 53 10000 3.6 240 12:21 01.08.2019
4361 Clear 22 1017 56 10000 3.1 240 11:42 01.08.2019
4362 Clear 22 1017 53 10000 3.6 240 11:22 01.08.2019
4363 Clear 21 1017 53 10000 3.6 240 11:22 01.08.2019
4364 Clouds 20 1017 60 10000 3.1 210 10:46 01.08.2019
4365 Clear 20 1017 64 10000 2.6 210 10:28 01.08.2019
4366 Clouds 19 1017 68 10000 2.6 230 09:59 01.08.2019
4367 Clear 19 1017 68 10000 2.1 210 09:40 01.08.2019
4368 Clear 19 1017 68 10000 2.1 210 09:22 01.08.2019
4369 Clear 18 1017 93 10000 1 0 08:43 01.08.2019
4370 Clouds 17 1017 93 10000 0.5 0 08:20 01.08.2019
4371 Clouds 16 1017 93 10000 0.5 0 07:47 01.08.2019
4372 Fog 15 1017 100 10000 1.65 246.383 07:24 01.08.2019
4373 Fog 14 1017 93 10000 1 230 06:48 01.08.2019
4374 Fog 14 1017 87 10000 0.5 140 05:50 01.08.2019
4375 Clear 15 1017 87 10000 0.5 0 04:23 01.08.2019
4376 Clouds 15 1017 77 10000 2.1 160 02:33 01.08.2019
4377 Clouds 16 1017 82 10000 0.5 280 00:43 01.08.2019
4378 Clear 16 1017 82 10000 0.5 0 00:24 01.08.2019
4379 Clouds 17 1017 72 10000 0.5 200 23:43 31.07.2019
4380 Clear 17 1017 77 10000 1.5 310 23:21 31.07.2019
4381 Clouds 18 1016 68 10000 1 0 22:56 31.07.2019
4382 Clouds 18 1017 72 10000 1.5 360 22:38 31.07.2019
4383 Clear 18 1016 63 10000 4.1 320 22:19 31.07.2019
4384 Clear 18 1016 63 10000 4.1 320 21:38 31.07.2019
4385 Clear 19 1016 88 10000 3.1 0 21:18 31.07.2019
4386 Clear 20 1015 88 10000 2.6 90 20:43 31.07.2019
4387 Rain 21 1014 88 10000 1.5 0 20:22 31.07.2019
4388 Rain 22 1014 82 10000 2.6 80 19:43 31.07.2019
4389 Rain 22 1014 77 10000 3.1 140 19:24 31.07.2019
4390 Thunderstorm 23 1015 68 10000 5.7 180 18:53 31.07.2019
4391 Clear 25 1014 56 10000 3.6 160 18:28 31.07.2019
4392 Clear 25 1014 57 10000 4.1 130 17:59 31.07.2019
4393 Clear 25 1014 57 10000 4.1 130 17:40 31.07.2019
4394 Clear 25 1014 60 10000 3.6 130 17:20 31.07.2019
4395 Clear 25 1014 56 10000 5.1 0 16:46 31.07.2019
4396 Clear 25 1014 36 10000 2.6 0 16:20 31.07.2019
4397 Clouds 24 1014 53 10000 2.6 250 15:45 31.07.2019
4398 Clear 24 1014 44 10000 3.6 270 15:26 31.07.2019
4399 Clouds 25 1015 44 10000 3.6 280 14:59 31.07.2019
4400 Clouds 25 1015 44 10000 3.6 280 14:40 31.07.2019
4401 Clouds 25 1015 44 10000 3.6 270 14:18 31.07.2019
4402 Clouds 25 1015 53 10000 3.1 280 13:45 31.07.2019
4403 Clouds 25 1015 53 10000 3.1 300 13:26 31.07.2019
4404 Clouds 24 1015 56 10000 3.6 300 12:57 31.07.2019
4405 Clouds 24 1015 56 10000 3.6 300 12:38 31.07.2019
4406 Clear 23 1015 60 10000 4.6 290 12:18 31.07.2019
4407 Rain 22 1015 60 10000 4.1 310 11:39 31.07.2019
4408 Clear 22 1015 68 10000 3.6 280 11:20 31.07.2019
4409 Clear 22 1015 68 10000 3.6 270 10:44 31.07.2019
4410 Clear 21 1014 68 10000 4.1 280 10:21 31.07.2019
4411 Clear 21 1014 68 10000 3.6 260 09:58 31.07.2019
4412 Clear 20 1014 68 10000 3.6 260 09:39 31.07.2019
4413 Clear 20 1014 72 10000 2.6 250 09:21 31.07.2019
4414 Clear 19 1014 77 10000 3.6 260 08:42 31.07.2019
4415 Rain 19 1013 77 10000 2.6 260 08:22 31.07.2019
4416 Clear 19 1014 88 10000 1.5 230 07:40 31.07.2019
4417 Clear 18 1013 93 10000 1.5 0 07:22 31.07.2019
4418 Rain 18 1012 93 10000 2.6 290 04:56 31.07.2019
4419 Thunderstorm 19 1013 88 10000 1 0 03:33 31.07.2019
4420 Clear 21 1012 60 10000 3.6 100 00:30 31.07.2019
4421 Clear 22 1012 60 10000 3.6 90 23:42 30.07.2019
4422 Clear 22 1011 60 10000 4.6 90 23:20 30.07.2019
4423 Clouds 22 1011 56 10000 3.6 70 22:48 30.07.2019
4424 Clear 23 1011 60 10000 2.6 80 22:26 30.07.2019
4425 Clear 24 1011 57 10000 3.1 80 21:57 30.07.2019
4426 Clear 24 1011 57 10000 3.1 80 21:37 30.07.2019
4427 Clear 25 1011 50 10000 2.1 60 21:19 30.07.2019
4428 Clouds 27 1010 37 10000 2.1 10 20:55 30.07.2019
4429 Clear 27 1010 32 10000 1.5 0 20:36 30.07.2019
4430 Clear 28 1010 32 10000 1.5 0 20:18 30.07.2019
4431 Clear 29 1010 35 10000 2.1 0 19:42 30.07.2019
4432 Clear 29 1010 35 10000 3.1 0 19:24 30.07.2019
4433 Clear 29 1010 35 10000 3.1 330 18:45 30.07.2019
4434 Clear 29 1010 35 10000 3.6 300 18:21 30.07.2019
4435 Clear 29 1010 32 10000 3.6 310 17:57 30.07.2019
4436 Clear 29 1010 32 10000 3.6 310 17:39 30.07.2019
4437 Clear 29 1011 35 10000 3.1 310 17:18 30.07.2019
4438 Clear 29 1011 37 10000 2.6 0 16:41 30.07.2019
4439 Clear 29 1011 37 10000 4.1 330 16:19 30.07.2019
4440 Clear 29 1011 39 10000 2.6 0 15:39 30.07.2019
4441 Clear 28 1011 39 10000 2.1 0 15:19 30.07.2019
4442 Clear 28 1011 39 10000 2.1 0 15:19 30.07.2019
4443 Clear 28 1011 44 10000 3.1 320 14:43 30.07.2019
4444 Clear 27 1012 42 10000 3.6 310 14:22 30.07.2019
4445 Clouds 28 1012 50 10000 4.1 300 13:56 30.07.2019
4446 Clouds 27 1012 50 10000 4.1 300 13:37 30.07.2019
4447 Clear 27 1012 50 10000 3.6 270 13:19 30.07.2019
4448 Clear 26 1012 54 10000 4.6 310 12:43 30.07.2019
4449 Clear 26 1012 57 10000 4.6 280 12:25 30.07.2019
4450 Clear 24 1012 64 10000 3.6 300 11:47 30.07.2019
4451 Clear 24 1012 68 10000 2.1 290 11:29 30.07.2019
4452 Clear 24 1012 68 10000 2.1 290 10:59 30.07.2019
4453 Clear 23 1012 68 10000 2.1 290 10:39 30.07.2019
4454 Clear 22 1012 68 10000 2.6 300 10:20 30.07.2019
4455 Clouds 22 1012 72 10000 2.1 300 09:48 30.07.2019
4456 Clouds 20 1012 77 10000 2.6 280 09:28 30.07.2019
4457 Clouds 20 1012 72 10000 2.6 290 08:42 30.07.2019
4458 Clouds 19 1012 77 10000 3.1 290 08:19 30.07.2019
4459 Clouds 19 1012 77 10000 3.1 290 07:44 30.07.2019
4460 Clouds 18 1011 77 10000 2.6 290 07:23 30.07.2019
4461 Clouds 18 1012 72 10000 2.1 300 06:45 30.07.2019
4462 Clouds 18 1011 72 10000 2.1 280 05:47 30.07.2019
4463 Clouds 18 1012 72 10000 2.6 310 05:25 30.07.2019
4464 Clear 19 1012 72 10000 2.99 285.484 01:38 30.07.2019
4465 Clear 19 1012 72 10000 2.1 320 00:40 30.07.2019
4466 Clear 20 1011 68 10000 2.6 320 00:19 30.07.2019
4467 Clouds 20 1011 68 10000 2.6 310 23:44 29.07.2019
4468 Clear 21 1012 68 10000 2.6 310 23:25 29.07.2019
4469 Clouds 21 1011 77 10000 2.1 280 22:57 29.07.2019
4470 Clouds 21 1011 88 10000 2.1 310 22:38 29.07.2019
4471 Clouds 21 1011 88 10000 2.1 310 22:38 29.07.2019
4472 Clouds 21 1011 88 10000 2.1 310 22:19 29.07.2019
4473 Clouds 21 1010 83 10000 2.6 280 21:55 29.07.2019
4474 Clouds 22 1010 83 10000 2.6 280 21:37 29.07.2019
4475 Clouds 22 1010 83 10000 2.6 290 21:18 29.07.2019
4476 Clouds 22 1010 83 10000 2.6 280 20:43 29.07.2019
4477 Clouds 22 1010 83 10000 2.6 290 20:22 29.07.2019
4478 Clouds 23 1010 83 10000 2.6 320 19:55 29.07.2019
4479 Clouds 23 1010 83 10000 2.6 320 19:36 29.07.2019
4480 Clouds 23 1010 83 10000 3.1 310 19:18 29.07.2019
4481 Clouds 23 1010 83 10000 3.1 320 18:41 29.07.2019
4482 Clouds 23 1010 83 10000 3.1 300 18:21 29.07.2019
4483 Clouds 23 1010 88 10000 4.6 300 17:50 29.07.2019
4484 Clouds 23 1010 88 10000 3.6 280 17:32 29.07.2019
4485 Clouds 22 1010 88 10000 3.6 290 16:58 29.07.2019
4486 Mist 22 1010 88 10000 3.6 290 16:39 29.07.2019
4487 Mist 21 1010 83 10000 3.6 300 16:20 29.07.2019
4488 Mist 22 1010 88 10000 3.6 270 15:50 29.07.2019
4489 Rain 21 1010 88 10000 3.1 280 15:31 29.07.2019
4490 Rain 21 1010 88 10000 4.6 290 14:46 29.07.2019
4491 Rain 20 1010 94 7000 3.6 290 14:21 29.07.2019
4492 Rain 20 1010 94 5000 4.6 300 13:59 29.07.2019
4493 Rain 20 1010 94 5000 4.6 300 13:41 29.07.2019
4494 Rain 20 1010 93 3700 4.6 290 13:23 29.07.2019
4495 Rain 20 1010 93 7000 4.1 280 12:42 29.07.2019
4496 Rain 20 1010 88 8000 5.1 270 12:22 29.07.2019
4497 Rain 19 1010 82 10000 6.2 270 11:43 29.07.2019
4498 Clouds 20 1010 82 10000 5.7 280 11:22 29.07.2019
4499 Clouds 20 1010 82 10000 5.7 280 10:45 29.07.2019
4500 Clouds 20 1009 82 10000 5.7 280 10:24 29.07.2019
4501 Clouds 19 1009 82 10000 5.1 290 09:48 29.07.2019
4502 Clouds 19 1009 82 9000 5.7 290 09:28 29.07.2019
4503 Clouds 20 1008 82 9000 5.1 280 08:57 29.07.2019
4504 Clouds 20 1008 82 8000 4.6 290 08:31 29.07.2019
4505 Clouds 20 1008 82 10000 5.1 300 07:58 29.07.2019
4506 Clouds 20 1008 82 10000 5.1 300 07:36 29.07.2019
4507 Clouds 20 1008 82 7000 3.6 280 06:53 29.07.2019
4508 Clouds 20 1007 82 9000 3.1 270 05:46 29.07.2019
4509 Clouds 20 1007 83 10000 3.1 270 04:51 29.07.2019
4510 Clear 21 1007 77 10000 3.6 270 02:26 29.07.2019
4511 Clear 21 1006 77 10000 3.1 270 01:43 29.07.2019
4512 Rain 21 1006 73 10000 4.1 270 01:22 29.07.2019
4513 Rain 21 1006 73 10000 3.6 240 00:43 29.07.2019
4514 Rain 22 1005 73 10000 3.1 260 00:20 29.07.2019
4515 Clear 23 1005 68 10000 2.6 260 23:41 28.07.2019
4516 Clear 23 1005 64 10000 2.1 260 23:18 28.07.2019
4517 Clear 22 1004 68 10000 2.1 300 22:40 28.07.2019
4518 Clear 23 1004 57 10000 2.1 280 22:22 28.07.2019
4519 Clouds 24 1003 47 10000 1 290 21:48 28.07.2019
4520 Clear 26 1003 39 10000 1 0 21:19 28.07.2019
4521 Clear 27 1003 39 10000 1 0 20:48 28.07.2019
4522 Rain 28 1002 35 10000 1.5 0 20:29 28.07.2019
4523 Rain 28 1002 33 10000 1.5 0 19:54 28.07.2019
4524 Clear 28 1002 33 10000 1.5 0 19:36 28.07.2019
4525 Clear 28 1002 35 10000 3.1 110 19:18 28.07.2019
4526 Clear 28 1001 33 10000 3.1 60 18:42 28.07.2019
4527 Clear 29 1001 35 10000 4.1 140 18:19 28.07.2019
4528 Clear 29 1001 35 10000 3.6 110 17:42 28.07.2019
4529 Clear 29 1001 33 10000 4.6 130 17:22 28.07.2019
4530 Clear 29 1001 33 10000 3.6 0 16:58 28.07.2019
4531 Clear 29 1001 33 10000 3.6 0 16:39 28.07.2019
4532 Clear 29 1001 37 10000 4.1 120 16:21 28.07.2019
4533 Clear 29 1001 37 10000 4.1 90 15:43 28.07.2019
4534 Clear 29 1001 38 10000 3.1 0 15:22 28.07.2019
4535 Clear 29 1001 39 10000 4.1 110 14:38 28.07.2019
4536 Clear 29 1001 45 10000 3.1 0 14:19 28.07.2019
4537 Clouds 28 1001 42 10000 3.6 100 13:55 28.07.2019
4538 Clouds 28 1001 42 10000 3.6 100 13:36 28.07.2019
4539 Clouds 28 1001 47 10000 3.6 90 13:18 28.07.2019
4540 Clouds 27 1001 50 10000 3.1 90 12:41 28.07.2019
4541 Clear 26 1001 47 10000 3.1 0 12:23 28.07.2019
4542 Clear 26 1001 53 10000 3.1 80 11:48 28.07.2019
4543 Clear 25 1001 53 10000 3.1 100 11:27 28.07.2019
4544 Clear 24 1001 60 10000 3.1 100 10:42 28.07.2019
4545 Clear 23 1001 60 10000 3.6 100 10:23 28.07.2019
4546 Clear 23 1001 60 10000 3.6 100 10:23 28.07.2019
4547 Clear 23 1001 60 10000 3.6 100 10:23 28.07.2019
4548 Clear 23 1001 64 10000 4.1 90 09:59 28.07.2019
4549 Clear 22 1001 64 10000 4.1 90 09:39 28.07.2019
4550 Clear 21 1002 68 10000 4.1 100 09:19 28.07.2019
4551 Clouds 21 1002 68 10000 4.1 60 08:41 28.07.2019
4552 Clear 20 1002 68 10000 5.1 70 08:21 28.07.2019
4553 Clear 18 1002 72 10000 3.6 70 07:40 28.07.2019
4554 Clouds 18 1002 72 10000 3.6 50 06:59 28.07.2019
4555 Clear 17 1002 77 10000 3.6 70 06:32 28.07.2019
4556 Clear 17 1001 77 10000 3.1 70 05:19 28.07.2019
4557 Clear 20 1002 68 10000 4.1 70 02:37 28.07.2019
4558 Clear 21 1002 64 10000 5.1 80 01:32 28.07.2019
4559 Clouds 22 1003 60 10000 5.1 60 00:52 28.07.2019
4560 Clear 22 1003 60 10000 5.7 70 00:30 28.07.2019
4561 Clouds 22 1003 56 10000 4.6 60 23:53 27.07.2019
4562 Clear 23 1003 49 10000 4.6 60 23:28 27.07.2019
4563 Clouds 23 1003 50 10000 5.7 50 22:46 27.07.2019
4564 Clear 23 1003 47 10000 5.7 70 22:28 27.07.2019
4565 Clouds 24 1003 44 10000 4.6 60 21:59 27.07.2019
4566 Clear 25 1003 44 10000 3.1 70 21:37 27.07.2019
4567 Clear 26 1003 44 10000 3.1 70 21:18 27.07.2019
4568 Clear 26 1003 36 10000 4.1 80 20:44 27.07.2019
4569 Clear 27 1003 36 10000 4.1 80 20:19 27.07.2019
4570 Clear 28 1003 32 10000 4.6 100 19:41 27.07.2019
4571 Clear 28 1003 34 10000 5.7 90 19:22 27.07.2019
4572 Clear 28 1003 32 10000 5.1 80 18:48 27.07.2019
4573 Clear 29 1003 32 10000 5.1 0 18:30 27.07.2019
4574 Clear 29 1003 34 10000 5.7 90 17:52 27.07.2019
4575 Clear 29 1003 32 10000 5.7 80 17:32 27.07.2019
4576 Clear 29 1004 32 10000 5.1 80 16:57 27.07.2019
4577 Clear 29 1004 32 10000 5.7 110 16:38 27.07.2019
4578 Clear 29 1004 32 10000 5.7 110 16:18 27.07.2019
4579 Clear 29 1004 32 10000 6.2 110 15:43 27.07.2019
4580 Clear 29 1005 35 10000 6.2 120 15:19 27.07.2019
4581 Clear 29 1005 32 10000 6.7 100 14:46 27.07.2019
4582 Clear 29 1005 34 10000 6.2 80 14:27 27.07.2019
4583 Clear 28 1006 34 10000 6.7 90 13:51 27.07.2019
4584 Clear 28 1006 36 10000 6.2 100 13:25 27.07.2019
4585 Clear 28 1006 39 10000 6.2 100 12:56 27.07.2019
4586 Clear 27 1006 39 10000 6.2 100 12:37 27.07.2019
4587 Clear 27 1007 39 10000 6.2 90 12:19 27.07.2019
4588 Clear 27 1007 44 10000 5.7 100 11:40 27.07.2019
4589 Clear 27 1007 47 10000 5.1 90 11:21 27.07.2019
4590 Clear 26 1007 44 10000 5.1 90 10:41 27.07.2019
4591 Clear 25 1007 50 10000 5.7 100 10:23 27.07.2019
4592 Clear 24 1008 53 10000 5.1 100 09:42 27.07.2019
4593 Clear 23 1007 56 10000 5.1 90 09:23 27.07.2019
4594 Clear 23 1008 64 10000 6.2 90 08:50 27.07.2019
4595 Clear 22 1007 68 10000 4.6 90 08:32 27.07.2019
4596 Clear 20 1007 72 10000 5.1 90 07:57 27.07.2019
4597 Clear 20 1007 72 10000 5.1 90 07:38 27.07.2019
4598 Clear 20 1007 77 10000 4.1 90 07:18 27.07.2019
4599 Clear 18 1007 77 10000 4.6 80 06:49 27.07.2019
4600 Clear 18 1007 77 10000 3.1 80 06:20 27.07.2019
4601 Clear 18 1007 77 10000 3.6 90 05:35 27.07.2019
4602 Clouds 18 1008 72 10000 2.6 70 04:41 27.07.2019
4603 Clouds 19 1008 68 10000 3.6 60 03:45 27.07.2019
4604 Clear 20 1009 60 10000 3.1 100 02:43 27.07.2019
4605 Clouds 20 1009 56 10000 4.1 60 01:57 27.07.2019
4606 Clouds 20 1009 56 10000 4.1 60 01:57 27.07.2019
4607 Clear 21 1009 49 10000 6.2 70 01:32 27.07.2019
4608 Clouds 22 1009 46 10000 5.1 60 00:41 27.07.2019
4609 Clear 23 1009 46 10000 5.7 70 00:22 27.07.2019
4610 Clouds 24 1010 44 10000 5.7 60 23:44 26.07.2019
4611 Clear 24 1009 41 10000 7.2 80 23:26 26.07.2019
4612 Clouds 24 1010 44 10000 5.7 60 22:43 26.07.2019
4613 Clear 25 1010 36 10000 4.1 70 22:25 26.07.2019
4614 Clear 26 1010 36 10000 4.1 70 21:52 26.07.2019
4615 Clear 28 1010 32 10000 2.6 80 21:21 26.07.2019
4616 Clouds 28 1010 30 10000 6.2 50 20:58 26.07.2019
4617 Clear 29 1010 30 10000 5.7 100 20:39 26.07.2019
4618 Clear 29 1010 30 10000 5.7 100 20:21 26.07.2019
4619 Clear 30 1010 30 10000 5.7 90 19:41 26.07.2019
4620 Clear 30 1010 31 10000 4.6 90 19:22 26.07.2019
4621 Clear 31 1010 31 10000 5.7 80 18:44 26.07.2019
4622 Clear 32 1010 25 10000 6.2 100 18:21 26.07.2019
4623 Clear 31 1011 29 10000 5.7 90 17:58 26.07.2019
4624 Clear 31 1011 29 10000 5.7 90 17:38 26.07.2019
4625 Clear 32 1011 29 10000 4.6 100 17:18 26.07.2019
4626 Clear 32 1011 29 10000 5.1 80 16:55 26.07.2019
4627 Clear 32 1011 29 10000 5.1 80 16:37 26.07.2019
4628 Clear 32 1012 29 10000 5.7 100 16:18 26.07.2019
4629 Clear 32 1012 29 10000 5.1 90 15:45 26.07.2019
4630 Clear 32 1012 33 10000 5.7 80 15:22 26.07.2019
4631 Clear 31 1013 33 10000 5.7 100 14:58 26.07.2019
4632 Clear 31 1013 33 10000 5.7 100 14:40 26.07.2019
4633 Clear 31 1013 37 10000 5.1 100 14:21 26.07.2019
4634 Clear 31 1013 37 10000 6.2 90 13:40 26.07.2019
4635 Clear 30 1013 40 10000 6.7 110 13:21 26.07.2019
4636 Clear 30 1014 45 10000 6.2 100 12:45 26.07.2019
4637 Clear 29 1014 48 10000 5.7 100 12:20 26.07.2019
4638 Clear 29 1014 48 10000 6.2 90 11:40 26.07.2019
4639 Clear 28 1014 54 10000 4.6 100 11:20 26.07.2019
4640 Clear 27 1015 53 10000 3.1 90 10:55 26.07.2019
4641 Clear 27 1015 53 10000 3.1 90 10:37 26.07.2019
4642 Clear 25 1015 60 10000 3.6 90 09:55 26.07.2019
4643 Clear 25 1015 60 10000 3.6 90 09:37 26.07.2019
4644 Clear 23 1015 64 10000 4.1 90 08:44 26.07.2019
4645 Clear 22 1015 64 10000 4.6 90 08:23 26.07.2019
4646 Clear 21 1015 68 10000 4.6 90 07:59 26.07.2019
4647 Clear 21 1015 68 10000 4.1 90 07:29 26.07.2019
4648 Clouds 19 1015 68 10000 4.1 70 06:56 26.07.2019
4649 Clear 20 1014 60 10000 3.1 100 05:23 26.07.2019
4650 Clear 21 1015 56 10000 4.1 80 04:29 26.07.2019
4651 Clouds 21 1015 56 10000 3.1 80 03:43 26.07.2019
4652 Clouds 25 1015 50 10000 3.1 70 01:45 26.07.2019
4653 Clouds 26 1015 44 10000 4.6 80 00:49 26.07.2019
4654 Clear 27 1015 42 10000 4.6 90 00:23 26.07.2019
4655 Clear 28 1015 42 10000 3.1 80 23:26 25.07.2019
4656 Clear 28 1015 42 10000 3.1 80 23:26 25.07.2019
4657 Clouds 28 1015 37 10000 5.1 60 22:59 25.07.2019
4658 Clear 29 1015 32 10000 3.1 80 22:41 25.07.2019
4659 Clear 29 1015 32 10000 3.1 80 22:21 25.07.2019
4660 Clear 29 1015 30 10000 3.1 70 21:47 25.07.2019
4661 Clear 31 1015 29 10000 2.6 70 21:23 25.07.2019
4662 Clear 32 1015 27 10000 2.1 60 20:49 25.07.2019
4663 Clear 32 1015 27 10000 2.1 60 20:31 25.07.2019
4664 Clear 34 1015 24 10000 3.1 70 19:57 25.07.2019
4665 Clear 34 1015 24 10000 3.1 70 19:39 25.07.2019
4666 Clear 34 1015 23 10000 3.1 70 19:21 25.07.2019
4667 Clear 36 1015 22 10000 2.1 60 18:41 25.07.2019
4668 Clear 36 1015 21 10000 3.1 90 18:22 25.07.2019
4669 Clear 36 1015 23 10000 3.1 70 17:48 25.07.2019
4670 Clear 36 1016 19 10000 3.1 60 17:30 25.07.2019
4671 Clear 36 1016 20 10000 3.1 90 16:56 25.07.2019
4672 Clear 37 1016 20 10000 3.1 90 16:37 25.07.2019
4673 Clear 37 1016 22 10000 3.6 80 16:19 25.07.2019
4674 Clear 37 1016 22 10000 3.6 0 15:43 25.07.2019
4675 Clear 37 1016 20 10000 3.6 0 15:19 25.07.2019
4676 Clear 36 1016 22 10000 3.6 90 14:42 25.07.2019
4677 Clear 36 1016 22 10000 4.1 120 14:23 25.07.2019
4678 Clear 36 1016 24 10000 3.1 110 13:55 25.07.2019
4679 Clear 36 1016 24 10000 3.1 110 13:36 25.07.2019
4680 Clear 36 1017 23 10000 3.6 120 13:18 25.07.2019
4681 Clear 36 1017 23 10000 3.6 120 13:18 25.07.2019
4682 Clear 35 1017 26 10000 4.1 110 12:30 25.07.2019
4683 Clear 34 1017 28 10000 3.1 110 11:54 25.07.2019
4684 Clear 33 1017 28 10000 3.1 110 11:36 25.07.2019
4685 Clear 33 1017 31 10000 3.6 80 11:18 25.07.2019
4686 Clear 31 1017 31 10000 2.6 110 10:42 25.07.2019
4687 Clear 30 1017 35 10000 2.6 100 10:23 25.07.2019
4688 Clear 29 1017 37 10000 2.6 110 09:44 25.07.2019
4689 Clear 27 1017 42 10000 2.1 110 09:26 25.07.2019
4690 Clear 25 1017 47 10000 2.6 80 08:47 25.07.2019
4691 Clear 24 1017 50 10000 2.6 100 08:20 25.07.2019
4692 Clear 22 1017 60 10000 1 110 07:37 25.07.2019
4693 Clouds 21 1017 56 10000 2.6 70 06:45 25.07.2019
4694 Clouds 20 1016 53 10000 2.1 70 05:53 25.07.2019
4695 Clear 21 1016 60 10000 3.1 100 05:31 25.07.2019
4696 Clouds 21 1016 53 10000 2.6 80 04:44 25.07.2019
4697 Clear 24 1016 60 10000 3.1 90 02:24 25.07.2019
4698 Clear 24 1016 57 10000 2.6 90 01:21 25.07.2019
4699 Clear 26 1016 53 10000 2.6 90 00:23 25.07.2019
4700 Clouds 26 1016 39 10000 3.1 80 23:56 24.07.2019
4701 Clear 26 1016 50 10000 1.5 70 23:37 24.07.2019
4702 Clear 27 1015 47 10000 2.6 90 23:18 24.07.2019
4703 Clouds 26 1015 39 10000 3.1 70 22:43 24.07.2019
4704 Clear 28 1016 42 10000 2.6 90 22:22 24.07.2019
4705 Clear 30 1015 39 10000 2.1 80 21:55 24.07.2019
4706 Clear 29 1015 39 10000 2.1 80 21:37 24.07.2019
4707 Clear 31 1015 33 10000 2.6 80 21:18 24.07.2019
4708 Clear 33 1015 29 10000 3.1 100 20:40 24.07.2019
4709 Clear 33 1015 28 10000 4.1 100 20:22 24.07.2019
4710 Clear 34 1015 28 10000 3.6 90 19:57 24.07.2019
4711 Clear 35 1015 28 10000 3.6 90 19:39 24.07.2019
4712 Clear 35 1015 26 10000 2.6 80 19:19 24.07.2019
4713 Clear 35 1015 26 10000 3.6 0 18:42 24.07.2019
4714 Clear 35 1015 24 10000 4.1 120 18:23 24.07.2019
4715 Clear 35 1015 24 10000 2.6 0 17:46 24.07.2019
4716 Clear 36 1015 25 10000 3.1 140 17:20 24.07.2019
4717 Clear 36 1015 24 10000 4.1 120 16:44 24.07.2019
4718 Clear 36 1016 24 10000 2.6 0 16:23 24.07.2019
4719 Clear 35 1016 23 10000 3.6 160 15:59 24.07.2019
4720 Clear 35 1016 23 10000 3.6 160 15:36 24.07.2019
4721 Clear 35 1016 24 10000 4.6 130 15:18 24.07.2019
4722 Clear 35 1016 24 10000 3.6 150 14:43 24.07.2019
4723 Clear 34 1016 26 10000 2.6 0 14:20 24.07.2019
4724 Clear 34 1016 26 10000 2.1 0 13:40 24.07.2019
4725 Clear 34 1017 28 10000 3.1 0 13:19 24.07.2019
4726 Clear 33 1017 27 10000 2.1 0 12:52 24.07.2019
4727 Clear 32 1017 29 10000 2.6 100 12:34 24.07.2019
4728 Clear 31 1017 31 10000 2.6 170 11:55 24.07.2019
4729 Clear 31 1017 31 10000 2.6 170 11:36 24.07.2019
4730 Clear 31 1017 37 10000 3.1 90 11:18 24.07.2019
4731 Clear 29 1018 40 10000 2.1 130 10:39 24.07.2019
4732 Clear 28 1018 45 10000 3.1 110 10:18 24.07.2019
4733 Clouds 27 1017 47 10000 3.6 100 09:43 24.07.2019
4734 Clear 26 1017 57 10000 4.1 100 09:22 24.07.2019
4735 Clear 24 1017 57 10000 4.1 100 08:43 24.07.2019
4736 Clouds 23 1018 60 10000 4.1 90 08:22 24.07.2019
4737 Clear 22 1018 68 10000 4.6 90 07:46 24.07.2019
4738 Clear 20 1017 72 10000 3.6 90 07:20 24.07.2019
4739 Clear 18 1017 77 10000 3.1 90 06:28 24.07.2019
4740 Clear 18 1017 72 10000 3.1 90 05:22 24.07.2019
4741 Clouds 21 1019 64 10000 2.1 70 01:55 24.07.2019
4742 Clouds 22 1019 57 10000 2.1 70 00:58 24.07.2019
4743 Clear 22 1019 64 10000 2.6 80 00:39 24.07.2019
4744 Clouds 23 1019 53 10000 2.1 40 23:57 23.07.2019
4745 Clear 23 1019 57 10000 2.6 80 23:37 23.07.2019
4746 Clear 24 1019 57 10000 2.6 50 23:18 23.07.2019
4747 Clear 23 1019 50 10000 1.5 0 22:38 23.07.2019
4748 Clear 24 1019 50 10000 1.5 0 22:19 23.07.2019
4749 Clear 26 1019 39 10000 1.5 0 21:45 23.07.2019
4750 Clear 26 1019 39 10000 1.5 0 21:45 23.07.2019
4751 Clear 28 1019 37 10000 1 0 21:27 23.07.2019
4752 Clear 30 1019 35 10000 1 0 20:57 23.07.2019
4753 Clear 30 1019 35 10000 1 0 20:39 23.07.2019
4754 Clear 31 1019 33 10000 1 0 20:19 23.07.2019
4755 Clear 31 1019 31 10000 1.5 0 19:37 23.07.2019
4756 Clear 32 1019 31 10000 2.6 310 19:18 23.07.2019
4757 Clear 32 1019 31 10000 2.6 310 18:42 23.07.2019
4758 Clear 32 1019 29 10000 2.6 0 18:22 23.07.2019
4759 Clear 32 1019 29 10000 2.6 270 17:44 23.07.2019
4760 Clear 32 1020 31 10000 1.5 0 17:24 23.07.2019
4761 Clear 32 1020 31 10000 2.6 330 16:50 23.07.2019
4762 Clear 32 1020 31 10000 3.1 290 16:28 23.07.2019
4763 Clear 31 1020 31 10000 3.1 350 15:59 23.07.2019
4764 Clear 31 1020 31 10000 3.1 350 15:40 23.07.2019
4765 Clear 31 1021 35 10000 2.6 0 15:21 23.07.2019
4766 Clear 31 1021 37 10000 2.1 0 14:38 23.07.2019
4767 Clear 30 1021 37 10000 2.1 0 14:19 23.07.2019
4768 Clear 30 1021 39 10000 2.1 0 13:57 23.07.2019
4769 Clear 30 1021 39 10000 2.1 0 13:38 23.07.2019
4770 Clear 29 1022 45 10000 2.6 300 13:20 23.07.2019
4771 Clear 29 1022 48 10000 2.6 0 12:47 23.07.2019
4772 Clear 28 1022 48 10000 2.1 330 12:25 23.07.2019
4773 Clear 27 1022 54 10000 2.6 300 11:47 23.07.2019
4774 Clear 27 1022 54 10000 2.6 270 11:29 23.07.2019
4775 Clear 26 1022 61 10000 2.6 0 10:57 23.07.2019
4776 Clear 25 1022 61 10000 2.6 0 10:38 23.07.2019
4777 Clear 25 1022 64 10000 1.5 0 10:20 23.07.2019
4778 Clear 24 1022 64 10000 1.5 0 09:40 23.07.2019
4779 Clear 23 1022 64 10000 1.5 0 09:19 23.07.2019
4780 Clear 22 1023 68 10000 2.1 240 08:42 23.07.2019
4781 Clear 20 1022 77 10000 1.5 0 08:19 23.07.2019
4782 Clear 20 1022 93 10000 2.12 267.108 07:55 23.07.2019
4783 Fog 18 1022 100 10000 1 90 07:33 23.07.2019
4784 Fog 16 1022 87 10000 2.12 267.108 06:44 23.07.2019
4785 Fog 16 1022 93 10000 0.5 0 06:26 23.07.2019
4786 Clouds 18 1022 88 10000 2.34 241.364 02:44 23.07.2019
4787 Clear 18 1022 82 10000 0.5 320 01:31 23.07.2019
4788 Clear 20 1022 72 10000 0.5 320 00:30 23.07.2019
4789 Clouds 21 1022 68 10000 1 250 23:43 22.07.2019
4790 Clear 21 1022 64 10000 1 0 23:22 22.07.2019
4791 Clouds 21 1021 57 10000 2.1 250 22:59 22.07.2019
4792 Clouds 21 1021 57 10000 2.1 250 22:41 22.07.2019
4793 Clear 22 1021 64 10000 1.53 259.028 22:20 22.07.2019
4794 Clear 23 1021 64 10000 1.53 259.028 21:43 22.07.2019
4795 Clear 24 1021 60 10000 0.5 70 21:23 22.07.2019
4796 Clear 25 1021 57 10000 2.56 259.331 20:50 22.07.2019
4797 Clear 25 1021 57 10000 2.56 259.331 20:32 22.07.2019
4798 Clear 26 1021 53 10000 1.5 0 19:57 22.07.2019
4799 Clear 25 1021 53 10000 1.5 0 19:37 22.07.2019
4800 Clouds 25 1021 57 10000 2.1 330 19:19 22.07.2019
4801 Clouds 25 1022 56 10000 3.6 270 18:46 22.07.2019
4802 Rain 25 1021 50 10000 4.6 270 18:27 22.07.2019
4803 Rain 25 1021 44 10000 4.6 260 17:55 22.07.2019
4804 Clear 25 1021 44 10000 4.6 260 17:36 22.07.2019
4805 Clear 26 1021 41 10000 4.6 240 17:18 22.07.2019
4806 Clear 26 1021 41 10000 5.1 260 16:39 22.07.2019
4807 Clear 26 1021 39 10000 5.7 270 16:20 22.07.2019
4808 Clear 26 1022 41 10000 5.7 270 15:44 22.07.2019
4809 Clear 25 1022 41 10000 6.2 250 15:20 22.07.2019
4810 Clouds 25 1021 47 10000 5.7 220 14:44 22.07.2019
4811 Clouds 25 1022 41 10000 6.2 240 14:24 22.07.2019
4812 Clouds 24 1022 50 10000 3.6 280 13:51 22.07.2019
4813 Clouds 24 1022 53 10000 3.1 270 13:31 22.07.2019
4814 Clear 23 1023 56 10000 3.1 280 12:55 22.07.2019
4815 Clear 23 1023 60 10000 2.6 260 12:32 22.07.2019
4816 Rain 22 1023 60 10000 3.1 260 11:57 22.07.2019
4817 Rain 22 1023 60 10000 3.1 260 11:39 22.07.2019
4818 Clear 22 1023 64 10000 3.6 250 11:19 22.07.2019
4819 Clear 21 1023 64 10000 3.6 260 10:38 22.07.2019
4820 Clear 21 1023 64 10000 2.6 250 10:20 22.07.2019
4821 Clear 20 1023 64 10000 1.5 0 09:40 22.07.2019
4822 Clear 19 1022 64 10000 1.5 0 09:21 22.07.2019
4823 Clouds 17 1022 72 10000 1 0 08:40 22.07.2019
4824 Clouds 17 1022 77 10000 1.5 0 08:22 22.07.2019
4825 Clear 16 1022 93 10000 1 0 07:53 22.07.2019
4826 Clouds 15 1022 87 10000 1 0 07:31 22.07.2019
4827 Clouds 13 1022 93 10000 0.5 150 05:51 22.07.2019
4828 Clouds 14 1023 87 10000 0.5 0 03:46 22.07.2019
4829 Clouds 15 1023 82 10000 1.38 326.83 01:49 22.07.2019
4830 Clouds 16 1022 77 10000 1.46 289.588 00:50 22.07.2019
4831 Clear 16 1023 77 10000 2.57 287.441 00:24 22.07.2019
4832 Clouds 17 1022 72 10000 2.57 287.441 23:54 21.07.2019
4833 Clear 18 1022 67 10000 1 310 23:26 21.07.2019
4834 Clouds 18 1022 63 10000 1 270 22:41 21.07.2019
4835 Clear 19 1022 59 10000 1.5 300 22:22 21.07.2019
4836 Clouds 20 1021 52 10000 1.5 290 21:57 21.07.2019
4837 Clear 22 1021 56 10000 2.1 310 21:37 21.07.2019
4838 Clear 22 1021 46 10000 4.1 310 21:18 21.07.2019
4839 Clear 23 1021 46 10000 4.1 310 20:44 21.07.2019
4840 Clear 23 1020 44 10000 4.6 300 20:25 21.07.2019
4841 Clear 23 1020 44 10000 4.6 300 20:25 21.07.2019
4842 Clear 23 1020 44 10000 5.1 300 19:55 21.07.2019
4843 Clear 24 1020 44 10000 5.1 300 19:36 21.07.2019
4844 Clear 24 1020 41 10000 5.1 300 19:18 21.07.2019
4845 Clear 25 1020 41 10000 6.2 290 18:44 21.07.2019
4846 Clear 25 1020 41 10000 4.6 280 18:25 21.07.2019
4847 Clear 25 1020 41 10000 4.6 280 18:25 21.07.2019
4848 Clear 25 1020 38 10000 5.1 270 17:42 21.07.2019
4849 Clear 25 1020 41 10000 7.2 290 17:20 21.07.2019
4850 Clouds 25 1020 41 10000 6.7 280 16:45 21.07.2019
4851 Clouds 25 1020 50 10000 5.7 280 16:25 21.07.2019
4852 Clouds 25 1019 47 10000 6.7 280 15:57 21.07.2019
4853 Clouds 25 1019 47 10000 6.7 280 15:37 21.07.2019
4854 Clouds 25 1019 47 10000 5.7 280 15:18 21.07.2019
4855 Clouds 24 1019 50 10000 6.7 270 14:41 21.07.2019
4856 Clouds 24 1019 53 10000 5.7 280 14:22 21.07.2019
4857 Clouds 24 1019 56 10000 6.2 270 13:49 21.07.2019
4858 Clouds 23 1019 56 10000 6.2 270 13:29 21.07.2019
4859 Clouds 23 1019 60 10000 7.2 260 12:43 21.07.2019
4860 Clouds 22 1018 64 10000 6.7 250 12:24 21.07.2019
4861 Clouds 22 1018 68 10000 6.7 260 11:49 21.07.2019
4862 Clouds 21 1018 73 10000 6.7 250 11:30 21.07.2019
4863 Clouds 21 1017 73 10000 6.7 260 10:58 21.07.2019
4864 Clouds 21 1017 73 10000 6.7 260 10:40 21.07.2019
4865 Clouds 20 1017 77 10000 6.2 270 10:22 21.07.2019
4866 Clouds 19 1017 82 10000 6.2 270 09:38 21.07.2019
4867 Clouds 19 1017 88 10000 6.2 260 09:20 21.07.2019
4868 Clouds 19 1016 88 10000 5.1 240 08:45 21.07.2019
4869 Clouds 18 1017 88 10000 3.6 250 08:25 21.07.2019
4870 Clouds 17 1016 93 10000 2.1 230 07:38 21.07.2019
4871 Clouds 16 1015 93 10000 1.5 250 06:50 21.07.2019
4872 Clouds 16 1014 93 10000 1.5 240 05:41 21.07.2019
4873 Fog 16 1013 93 50 1.5 240 02:52 21.07.2019
4874 Fog 16 1013 100 10000 1 0 01:19 21.07.2019
4875 Clear 17 1013 93 10000 1.5 130 00:40 21.07.2019
4876 Clear 17 1013 93 10000 1.5 100 00:18 21.07.2019
4877 Clear 17 1013 93 10000 1 120 23:41 20.07.2019
4878 Clear 17 1013 93 10000 1 0 23:21 20.07.2019
4879 Clouds 17 1013 93 10000 2.1 110 22:45 20.07.2019
4880 Thunderstorm 18 1012 93 10000 1.5 130 22:22 20.07.2019
4881 Thunderstorm 18 1012 93 10000 2.6 100 21:56 20.07.2019
4882 Thunderstorm 18 1014 93 10000 5.1 300 21:37 20.07.2019
4883 Thunderstorm 18 1014 93 10000 5.1 300 21:18 20.07.2019
4884 Thunderstorm 18 1013 93 10000 4.1 220 20:40 20.07.2019
4885 Rain 18 1012 93 10000 2.1 260 20:19 20.07.2019
4886 Thunderstorm 20 1011 77 10000 2.1 0 19:45 20.07.2019
4887 Rain 20 1011 77 10000 5.1 330 19:20 20.07.2019
4888 Rain 22 1011 50 10000 6.7 320 18:43 20.07.2019
4889 Thunderstorm 24 1010 37 10000 5.1 220 18:20 20.07.2019
4890 Thunderstorm 24 1010 37 10000 5.1 200 17:54 20.07.2019
4891 Thunderstorm 24 1010 35 10000 4.6 220 17:25 20.07.2019
4892 Clear 29 1010 37 10000 4.1 210 16:44 20.07.2019
4893 Clear 29 1011 39 10000 4.6 210 16:26 20.07.2019
4894 Clear 28 1011 39 10000 5.1 240 15:58 20.07.2019
4895 Clear 28 1011 39 10000 5.1 240 15:39 20.07.2019
4896 Clear 29 1011 37 10000 4.1 220 15:20 20.07.2019
4897 Clear 29 1011 37 10000 4.6 190 14:48 20.07.2019
4898 Clear 29 1012 37 10000 4.1 220 14:28 20.07.2019
4899 Clear 29 1012 37 10000 3.1 170 13:40 20.07.2019
4900 Clouds 29 1012 35 10000 4.1 200 13:21 20.07.2019
4901 Clear 28 1012 37 10000 4.6 210 12:59 20.07.2019
4902 Clear 28 1012 37 10000 4.6 210 12:38 20.07.2019
4903 Clear 27 1012 39 10000 4.6 220 12:18 20.07.2019
4904 Clear 26 1013 39 10000 4.1 170 11:40 20.07.2019
4905 Clear 26 1013 41 10000 3.1 190 11:19 20.07.2019
4906 Clear 24 1013 44 10000 4.1 190 10:37 20.07.2019
4907 Clear 24 1013 50 10000 2.6 140 10:19 20.07.2019
4908 Clear 23 1013 56 10000 3.1 160 09:46 20.07.2019
4909 Clear 21 1013 64 10000 2.6 160 09:24 20.07.2019
4910 Clouds 20 1013 68 10000 2.6 130 08:49 20.07.2019
4911 Clear 19 1013 72 10000 2.1 150 08:22 20.07.2019
4912 Clear 17 1013 82 10000 1.5 130 07:34 20.07.2019
4913 Clouds 15 1013 82 10000 1.5 80 06:43 20.07.2019
4914 Clear 14 1013 87 10000 2.1 100 05:21 20.07.2019
4915 Clear 14 1013 87 10000 2.1 110 04:30 20.07.2019
4916 Clear 16 1014 72 10000 1.5 150 01:30 20.07.2019
4917 Clouds 17 1014 68 10000 1 10 00:50 20.07.2019
4918 Clear 17 1014 72 10000 0.5 0 00:29 20.07.2019
4919 Clouds 17 1014 68 10000 0.5 340 23:57 19.07.2019
4920 Clear 18 1014 72 10000 0.5 0 23:39 19.07.2019
4921 Clear 18 1014 72 10000 1 80 23:20 19.07.2019
4922 Clear 19 1014 64 10000 0.5 130 22:41 19.07.2019
4923 Clear 19 1014 64 10000 1 0 22:20 19.07.2019
4924 Clear 19 1014 64 10000 1 0 22:20 19.07.2019
4925 Clear 20 1014 64 10000 1 0 21:43 19.07.2019
4926 Clear 21 1013 64 10000 1.5 0 21:25 19.07.2019
4927 Clear 22 1013 60 10000 2.6 220 20:44 19.07.2019
4928 Clear 23 1013 56 10000 3.6 240 20:25 19.07.2019
4929 Clear 23 1013 56 10000 3.6 230 19:40 19.07.2019
4930 Clear 23 1013 60 10000 3.6 220 19:19 19.07.2019
4931 Clouds 23 1013 60 10000 4.6 240 18:41 19.07.2019
4932 Clear 23 1013 44 10000 3.6 270 18:20 19.07.2019
4933 Clear 24 1013 44 10000 3.6 260 17:50 19.07.2019
4934 Clear 24 1013 38 10000 4.1 300 17:27 19.07.2019
4935 Clear 25 1013 44 10000 3.1 320 16:48 19.07.2019
4936 Clear 25 1013 44 10000 3.1 320 16:48 19.07.2019
4937 Clear 24 1013 41 10000 3.6 290 16:26 19.07.2019
4938 Clouds 25 1013 41 10000 5.1 300 15:50 19.07.2019
4939 Clear 24 1013 41 10000 3.1 290 15:31 19.07.2019
4940 Clouds 24 1013 49 10000 3.1 280 14:57 19.07.2019
4941 Clouds 23 1013 49 10000 3.1 280 14:38 19.07.2019
4942 Clouds 23 1013 53 10000 4.1 310 14:20 19.07.2019
4943 Clouds 24 1013 53 10000 2.6 240 13:44 19.07.2019
4944 Clouds 24 1013 53 10000 2.6 240 13:44 19.07.2019
4945 Clouds 24 1013 53 10000 2.6 240 13:44 19.07.2019
4946 Clouds 24 1013 53 10000 2.6 240 13:44 19.07.2019
4947 Clouds 24 1013 53 10000 2.6 240 13:44 19.07.2019
4948 Clouds 23 1013 56 10000 3.6 260 13:25 19.07.2019
4949 Clouds 23 1013 64 10000 3.6 250 12:55 19.07.2019
4950 Clouds 21 1013 60 10000 4.1 250 12:31 19.07.2019
4951 Clouds 21 1013 64 10000 4.1 250 11:59 19.07.2019
4952 Clouds 20 1013 64 10000 4.1 250 11:41 19.07.2019
4953 Clouds 20 1013 64 10000 4.6 280 11:18 19.07.2019
4954 Clouds 20 1013 64 10000 5.1 260 10:42 19.07.2019
4955 Clear 20 1013 68 10000 5.1 260 10:22 19.07.2019
4956 Clear 19 1013 72 10000 4.1 260 09:57 19.07.2019
4957 Clear 20 1013 72 10000 4.1 260 09:39 19.07.2019
4958 Clear 19 1013 72 10000 3.6 260 09:21 19.07.2019
4959 Clouds 19 1012 77 10000 3.1 270 08:47 19.07.2019
4960 Clear 18 1012 88 10000 1.5 250 07:53 19.07.2019
4961 Clear 18 1012 88 10000 3.86 245.894 07:29 19.07.2019
4962 Clouds 17 1011 93 10000 1 190 05:56 19.07.2019
4963 Clear 19 1012 56 10000 3.6 240 02:23 19.07.2019
4964 Clear 19 1012 56 10000 3.6 240 02:23 19.07.2019
4965 Clear 19 1011 56 10000 2.1 230 01:20 19.07.2019
4966 Clear 19 1011 56 10000 2.6 210 00:42 19.07.2019
4967 Clouds 20 1010 52 10000 2.33 168.27 23:57 18.07.2019
4968 Clear 20 1011 52 10000 2.6 210 23:39 18.07.2019
4969 Clear 20 1011 49 10000 2.6 230 23:19 18.07.2019
4970 Clear 20 1011 49 10000 2.6 230 23:19 18.07.2019
4971 Clear 20 1011 55 10000 2.33 168.27 22:40 18.07.2019
4972 Clear 20 1011 55 10000 2.33 168.27 22:20 18.07.2019
4973 Clear 21 1011 46 10000 2.33 168.27 21:44 18.07.2019
4974 Clear 22 1010 38 10000 2.1 260 21:26 18.07.2019
4975 Clear 24 1010 36 10000 2.6 260 20:54 18.07.2019
4976 Clear 24 1010 36 10000 2.6 260 20:36 18.07.2019
4977 Clear 24 1010 33 10000 2.6 260 20:18 18.07.2019
4978 Clear 25 1010 33 10000 1.5 0 19:43 18.07.2019
4979 Clear 25 1010 33 10000 2.6 240 19:20 18.07.2019
4980 Clear 25 1010 34 10000 2.1 240 18:43 18.07.2019
4981 Rain 25 1010 36 10000 2.6 250 18:21 18.07.2019
4982 Clear 26 1010 31 10000 2.6 280 17:44 18.07.2019
4983 Clear 25 1011 33 10000 2.1 0 17:25 18.07.2019
4984 Clear 26 1011 33 10000 2.6 210 16:58 18.07.2019
4985 Clear 26 1011 33 10000 2.6 210 16:40 18.07.2019
4986 Clear 25 1011 33 10000 2.1 0 16:19 18.07.2019
4987 Clear 25 1011 36 10000 3.1 130 15:53 18.07.2019
4988 Clear 25 1011 36 10000 3.1 130 15:34 18.07.2019
4989 Clear 25 1011 34 10000 2.6 0 14:55 18.07.2019
4990 Clear 25 1011 34 10000 2.6 0 14:36 18.07.2019
4991 Clear 25 1011 36 10000 2.6 130 13:54 18.07.2019
4992 Clear 24 1011 41 10000 1.5 0 13:36 18.07.2019
4993 Clear 24 1011 41 10000 1.5 0 13:18 18.07.2019
4994 Clear 24 1011 43 10000 1.5 0 12:42 18.07.2019
4995 Clear 23 1012 44 10000 2.1 0 12:18 18.07.2019
4996 Clear 23 1012 53 10000 2.1 110 11:49 18.07.2019
4997 Clear 22 1012 56 10000 2.6 0 11:27 18.07.2019
4998 Clear 21 1012 60 10000 1 0 10:52 18.07.2019
4999 Clear 20 1012 63 10000 1 0 10:18 18.07.2019
5000 Clear 19 1012 68 10000 1 0 09:44 18.07.2019
5001 Clear 18 1012 77 10000 1 0 09:21 18.07.2019
5002 Clear 17 1012 82 10000 1.5 90 08:43 18.07.2019
5003 Clear 16 1012 77 10000 1.5 90 08:19 18.07.2019
5004 Clouds 15 1012 72 10000 1.5 70 07:37 18.07.2019
5005 Clouds 13 1012 82 10000 1.04 149.008 06:59 18.07.2019
5006 Clear 13 1013 87 10000 0.5 0 06:35 18.07.2019
5007 Clear 12 1013 87 10000 0.5 240 04:20 18.07.2019
5008 Clouds 12 1013 82 10000 1.71 65.084 02:52 18.07.2019
5009 Clear 13 1013 76 10000 1 0 01:37 18.07.2019
5010 Clear 15 1013 59 10000 1.5 330 00:28 18.07.2019
5011 Clear 15 1013 59 10000 1.5 330 23:49 17.07.2019
5012 Clear 16 1013 63 10000 1 340 23:19 17.07.2019
5013 Clear 16 1013 59 10000 1 0 22:54 17.07.2019
5014 Clear 17 1013 59 10000 1 0 22:36 17.07.2019
5015 Clear 17 1013 55 10000 1.75 319.977 22:18 17.07.2019
5016 Clear 18 1013 52 10000 1 0 21:43 17.07.2019
5017 Clear 20 1013 40 10000 2.6 300 21:25 17.07.2019
5018 Clear 20 1013 35 10000 1.5 0 20:58 17.07.2019
5019 Clear 21 1013 35 10000 1.5 0 20:39 17.07.2019
5020 Clear 22 1013 35 10000 2.6 340 20:20 17.07.2019
5021 Clear 22 1013 35 10000 3.1 270 19:43 17.07.2019
5022 Clear 22 1013 35 10000 3.1 320 19:22 17.07.2019
5023 Clear 22 1013 35 10000 3.6 280 18:59 17.07.2019
5024 Clear 22 1013 35 10000 3.6 280 18:40 17.07.2019
5025 Clear 22 1013 35 10000 2.6 280 18:40 17.07.2019
5026 Clear 23 1013 35 10000 2.6 280 18:20 17.07.2019
5027 Clear 23 1014 35 10000 2.1 0 17:49 17.07.2019
5028 Clear 22 1014 35 10000 2.1 0 17:25 17.07.2019
5029 Clear 23 1014 38 10000 3.1 300 16:55 17.07.2019
5030 Clear 22 1014 43 10000 2.1 0 16:37 17.07.2019
5031 Clear 23 1014 43 10000 2.1 0 16:18 17.07.2019
5032 Clear 22 1014 40 10000 3.6 310 15:44 17.07.2019
5033 Clear 21 1014 40 10000 3.6 310 15:25 17.07.2019
5034 Clouds 22 1015 43 10000 2.6 280 14:54 17.07.2019
5035 Clouds 21 1015 49 10000 3.6 290 14:36 17.07.2019
5036 Clouds 21 1015 49 10000 3.6 290 14:18 17.07.2019
5037 Clouds 19 1015 55 10000 3.1 0 13:40 17.07.2019
5038 Clouds 19 1015 55 10000 3.1 0 13:20 17.07.2019
5039 Clouds 19 1015 55 10000 2.1 0 12:40 17.07.2019
5040 Clouds 18 1015 55 10000 2.1 0 12:20 17.07.2019
5041 Clouds 18 1015 63 10000 3.1 320 11:45 17.07.2019
5042 Clouds 17 1015 63 10000 3.1 320 11:21 17.07.2019
5043 Clouds 17 1015 67 10000 2.6 330 10:50 17.07.2019
5044 Clouds 16 1015 67 10000 2.6 300 10:29 17.07.2019
5045 Clouds 16 1015 67 10000 3.1 310 09:58 17.07.2019
5046 Clouds 16 1015 77 10000 2.6 310 09:40 17.07.2019
5047 Clouds 15 1015 77 10000 2.6 310 09:20 17.07.2019
5048 Clouds 15 1015 82 10000 2.6 340 08:42 17.07.2019
5049 Clouds 15 1015 82 10000 2.6 340 08:22 17.07.2019
5050 Clouds 14 1015 87 10000 2.1 330 07:50 17.07.2019
5051 Clouds 14 1015 87 10000 2.1 320 07:24 17.07.2019
5052 Clouds 14 1015 93 10000 1 340 06:55 17.07.2019
5053 Clouds 14 1016 87 10000 1.5 310 06:29 17.07.2019
5054 Clouds 13 1016 93 10000 2.1 310 05:48 17.07.2019
5055 Clouds 13 1016 93 10000 2.1 310 05:28 17.07.2019
5056 Clouds 13 1016 93 10000 2.6 300 04:42 17.07.2019
5057 Clouds 14 1016 93 10000 1 240 03:19 17.07.2019
5058 Clouds 14 1016 93 10000 1.5 230 01:59 17.07.2019
5059 Clouds 13 1016 87 10000 2.6 280 01:26 17.07.2019
5060 Clouds 14 1016 93 10000 1 250 00:55 17.07.2019
5061 Clouds 14 1016 82 10000 2.6 270 00:36 17.07.2019
5062 Clouds 14 1016 82 10000 2.6 270 00:18 17.07.2019
5063 Clouds 14 1016 82 10000 2.6 270 23:38 16.07.2019
5064 Clouds 15 1016 82 10000 2.6 270 23:18 16.07.2019
5065 Clouds 15 1016 82 10000 3.6 270 22:42 16.07.2019
5066 Clouds 15 1016 82 10000 3.6 270 22:24 16.07.2019
5067 Clouds 16 1016 77 10000 3.6 280 21:47 16.07.2019
5068 Clouds 16 1016 82 10000 4.6 280 21:22 16.07.2019
5069 Clouds 16 1016 72 10000 5.7 270 20:58 16.07.2019
5070 Clouds 17 1016 72 10000 5.7 280 20:40 16.07.2019
5071 Clouds 17 1016 72 10000 5.7 280 20:21 16.07.2019
5072 Clouds 17 1016 72 10000 5.7 280 19:53 16.07.2019
5073 Clouds 17 1016 77 10000 5.7 270 19:29 16.07.2019
5074 Clouds 17 1016 77 10000 4.6 270 18:58 16.07.2019
5075 Clouds 17 1016 77 10000 5.7 280 18:39 16.07.2019
5076 Clouds 17 1016 77 10000 5.7 280 18:20 16.07.2019
5077 Clouds 17 1016 77 10000 6.2 280 17:44 16.07.2019
5078 Clouds 17 1016 77 10000 6.2 280 17:26 16.07.2019
5079 Drizzle 17 1016 72 10000 5.7 280 16:49 16.07.2019
5080 Drizzle 16 1016 82 10000 6.2 280 16:25 16.07.2019
5081 Drizzle 17 1016 82 10000 5.1 280 15:57 16.07.2019
5082 Drizzle 17 1016 77 10000 5.7 280 15:38 16.07.2019
5083 Drizzle 17 1016 77 10000 5.7 280 15:38 16.07.2019
5084 Drizzle 17 1016 77 10000 5.7 280 15:38 16.07.2019
5085 Drizzle 16 1016 72 10000 6.2 290 15:19 16.07.2019
5086 Drizzle 16 1016 72 10000 6.2 290 14:55 16.07.2019
5087 Clouds 16 1016 82 10000 6.2 270 14:36 16.07.2019
5088 Clouds 16 1016 82 10000 6.2 270 14:18 16.07.2019
5089 Drizzle 16 1016 77 10000 5.7 280 13:38 16.07.2019
5090 Drizzle 16 1016 77 10000 5.1 280 13:18 16.07.2019
5091 Drizzle 16 1016 77 10000 5.1 280 12:43 16.07.2019
5092 Drizzle 15 1016 77 10000 5.1 280 12:20 16.07.2019
5093 Drizzle 15 1016 77 10000 6.2 270 11:54 16.07.2019
5094 Drizzle 15 1016 77 10000 5.7 290 11:36 16.07.2019
5095 Drizzle 15 1016 77 10000 5.7 290 11:36 16.07.2019
5096 Drizzle 14 1016 82 10000 5.1 280 11:18 16.07.2019
5097 Drizzle 14 1016 82 10000 5.1 280 11:18 16.07.2019
5098 Drizzle 14 1016 77 10000 6.2 290 10:43 16.07.2019
5099 Drizzle 14 1016 77 10000 6.2 290 10:20 16.07.2019
5100 Drizzle 14 1016 82 10000 6.2 280 09:44 16.07.2019
5101 Drizzle 14 1016 82 10000 6.2 280 09:21 16.07.2019
5102 Drizzle 13 1016 87 10000 4.6 280 08:49 16.07.2019
5103 Drizzle 13 1016 87 10000 5.1 280 08:29 16.07.2019
5104 Drizzle 13 1016 87 7000 4.6 280 07:58 16.07.2019
5105 Drizzle 13 1016 93 7000 5.1 280 07:39 16.07.2019
5106 Drizzle 13 1016 93 7000 5.1 280 07:18 16.07.2019
5107 Drizzle 13 1016 87 10000 3.6 280 06:43 16.07.2019
5108 Drizzle 13 1016 87 8000 3.1 250 05:57 16.07.2019
5109 Drizzle 13 1017 82 10000 5.1 280 05:31 16.07.2019
5110 Clouds 13 1017 82 10000 4.1 290 04:52 16.07.2019
5111 Clouds 13 1017 82 10000 5.7 290 03:44 16.07.2019
5112 Clouds 13 1016 76 10000 2.6 260 02:53 16.07.2019
5113 Clouds 13 1017 82 10000 3.6 270 02:28 16.07.2019
5114 Clouds 13 1017 76 10000 2.6 280 01:40 16.07.2019
5115 Clouds 13 1017 81 10000 3.6 280 00:41 16.07.2019
5116 Clouds 14 1016 71 10000 2.1 250 00:19 16.07.2019
5117 Clouds 13 1016 67 10000 4.1 260 23:44 15.07.2019
5118 Clouds 14 1016 67 10000 4.1 260 23:25 15.07.2019
5119 Clouds 14 1016 67 10000 3.6 260 22:47 15.07.2019
5120 Clouds 14 1016 67 10000 3.6 260 22:22 15.07.2019
5121 Clouds 15 1016 63 10000 3.1 260 21:58 15.07.2019
5122 Clouds 15 1016 59 10000 4.6 270 21:39 15.07.2019
5123 Clouds 16 1016 59 10000 4.6 270 21:20 15.07.2019
5124 Clouds 16 1016 59 10000 4.1 280 20:55 15.07.2019
5125 Clouds 16 1017 63 10000 4.6 290 20:36 15.07.2019
5126 Clouds 16 1017 63 10000 4.6 290 20:18 15.07.2019
5127 Clouds 16 1017 59 10000 4.1 290 19:39 15.07.2019
5128 Clouds 17 1017 59 10000 4.1 290 19:20 15.07.2019
5129 Clouds 16 1017 63 10000 6.2 290 18:54 15.07.2019
5130 Clouds 16 1017 63 10000 6.2 290 18:36 15.07.2019
5131 Clouds 16 1017 63 10000 6.2 290 18:18 15.07.2019
5132 Clouds 16 1017 63 10000 5.1 280 17:42 15.07.2019
5133 Clouds 16 1017 63 10000 5.1 280 17:22 15.07.2019
5134 Clouds 16 1017 63 10000 5.1 290 16:58 15.07.2019
5135 Clouds 16 1017 63 10000 5.7 280 16:38 15.07.2019
5136 Clouds 16 1017 63 10000 5.7 280 16:20 15.07.2019
5137 Clouds 16 1017 67 10000 4.6 270 15:54 15.07.2019
5138 Clouds 16 1017 63 10000 5.1 280 15:36 15.07.2019
5139 Clouds 16 1017 63 10000 5.1 280 15:18 15.07.2019
5140 Clouds 16 1018 63 10000 5.1 290 14:41 15.07.2019
5141 Clouds 16 1018 63 10000 5.1 290 14:22 15.07.2019
5142 Clouds 15 1018 63 10000 5.7 280 13:49 15.07.2019
5143 Clouds 16 1018 63 10000 5.7 280 13:21 15.07.2019
5144 Clouds 15 1018 63 10000 5.1 290 12:57 15.07.2019
5145 Clouds 15 1018 67 10000 4.6 300 12:39 15.07.2019
5146 Clouds 15 1018 67 10000 4.1 280 12:20 15.07.2019
5147 Clouds 15 1018 76 10000 4.1 290 11:41 15.07.2019
5148 Clouds 14 1018 76 10000 4.1 290 11:21 15.07.2019
5149 Drizzle 14 1018 76 10000 4.1 300 10:45 15.07.2019
5150 Drizzle 14 1018 76 10000 4.1 300 10:25 15.07.2019
5151 Clouds 14 1018 76 10000 3.6 280 09:44 15.07.2019
5152 Clouds 14 1018 76 10000 3.6 280 09:25 15.07.2019
5153 Clouds 13 1018 82 10000 2.6 290 08:49 15.07.2019
5154 Clouds 13 1018 82 10000 2.6 290 08:27 15.07.2019
5155 Clouds 13 1018 87 10000 2.6 300 07:58 15.07.2019
5156 Clouds 13 1018 87 10000 2.6 290 07:36 15.07.2019
5157 Clouds 13 1018 87 10000 2.1 250 06:55 15.07.2019
5158 Clouds 13 1018 87 10000 2.1 270 06:33 15.07.2019
5159 Clouds 13 1018 87 10000 2.1 250 05:44 15.07.2019
5160 Clouds 13 1018 87 10000 2.1 250 05:22 15.07.2019
5161 Clouds 13 1018 87 10000 1.5 250 04:41 15.07.2019
5162 Clouds 14 1018 87 10000 2.1 300 03:35 15.07.2019
5163 Rain 14 1019 82 10000 2.6 310 02:32 15.07.2019
5164 Clouds 14 1019 82 10000 2.1 320 01:41 15.07.2019
5165 Clouds 14 1019 82 10000 2.1 320 01:23 15.07.2019
5166 Clouds 14 1019 82 10000 3.1 310 00:48 15.07.2019
5167 Clouds 15 1019 82 10000 3.1 310 00:19 15.07.2019
5168 Clouds 15 1018 72 10000 2.6 300 23:54 14.07.2019
5169 Clouds 15 1019 82 10000 1.5 290 23:36 14.07.2019
5170 Clouds 15 1019 82 10000 1.5 290 23:18 14.07.2019
5171 Clouds 15 1019 77 10000 2.1 290 22:40 14.07.2019
5172 Clouds 15 1019 77 10000 2.1 290 22:22 14.07.2019
5173 Clouds 15 1018 72 10000 1.5 250 21:58 14.07.2019
5174 Clouds 16 1018 77 10000 1.5 320 21:40 14.07.2019
5175 Clouds 16 1018 72 10000 2.1 280 21:18 14.07.2019
5176 Clouds 16 1018 72 10000 2.1 280 20:55 14.07.2019
5177 Clouds 16 1018 72 10000 2.1 320 20:36 14.07.2019
5178 Clouds 16 1018 63 10000 3.6 300 20:18 14.07.2019
5179 Clouds 16 1018 67 10000 3.1 310 19:43 14.07.2019
5180 Clouds 16 1018 67 10000 3.1 310 19:24 14.07.2019
5181 Clouds 17 1018 67 10000 3.1 320 18:57 14.07.2019
5182 Clouds 17 1018 67 10000 3.6 310 18:38 14.07.2019
5183 Clouds 17 1018 67 10000 2.6 280 18:18 14.07.2019
5184 Clouds 17 1018 72 10000 4.1 270 17:47 14.07.2019
5185 Clouds 17 1018 72 10000 4.1 270 17:20 14.07.2019
5186 Clouds 17 1018 72 10000 4.1 320 16:46 14.07.2019
5187 Clouds 16 1018 72 10000 4.1 320 16:24 14.07.2019
5188 Clouds 17 1018 67 10000 3.6 290 15:54 14.07.2019
5189 Clouds 17 1018 72 10000 3.6 280 15:29 14.07.2019
5190 Clouds 16 1018 67 10000 2.6 320 14:49 14.07.2019
5191 Clouds 16 1018 72 10000 4.1 300 14:22 14.07.2019
5192 Clouds 16 1018 72 10000 4.1 300 13:49 14.07.2019
5193 Clouds 16 1018 72 10000 3.1 290 13:26 14.07.2019
5194 Clouds 16 1018 77 10000 2.1 330 12:59 14.07.2019
5195 Clouds 15 1018 72 10000 3.1 320 12:41 14.07.2019
5196 Clouds 15 1018 72 10000 1 0 12:21 14.07.2019
5197 Clouds 15 1018 72 10000 1 0 11:52 14.07.2019
5198 Clouds 15 1018 77 10000 2.1 330 11:27 14.07.2019
5199 Clouds 15 1018 87 10000 2.6 330 10:58 14.07.2019
5200 Clouds 15 1018 87 10000 2.1 340 10:40 14.07.2019
5201 Clouds 14 1018 87 10000 2.1 340 10:19 14.07.2019
5202 Clouds 14 1017 82 10000 3.1 330 09:42 14.07.2019
5203 Clouds 14 1017 82 10000 3.1 330 09:23 14.07.2019
5204 Drizzle 14 1018 93 2800 3.1 290 08:41 14.07.2019
5205 Drizzle 14 1017 93 9000 2.1 260 07:57 14.07.2019
5206 Drizzle 13 1018 93 10000 2.6 280 07:35 14.07.2019
5207 Drizzle 13 1017 93 9000 2.1 260 06:55 14.07.2019
5208 Drizzle 13 1017 100 9000 3.1 300 05:44 14.07.2019
5209 Clouds 13 1017 82 10000 3.1 290 03:48 14.07.2019
5210 Clouds 13 1017 82 10000 3.1 290 03:29 14.07.2019
5211 Clouds 14 1017 82 10000 3.6 290 02:41 14.07.2019
5212 Clouds 14 1017 82 10000 3.6 290 02:21 14.07.2019
5213 Clouds 14 1018 87 10000 2.1 300 01:33 14.07.2019
5214 Clouds 14 1017 87 10000 1.5 240 00:57 14.07.2019
5215 Clouds 14 1017 87 10000 1 0 00:38 14.07.2019
5216 Clouds 15 1017 87 10000 1 0 00:19 14.07.2019
5217 Clouds 15 1017 87 10000 1 360 23:44 13.07.2019
5218 Clouds 15 1017 87 10000 1 360 23:25 13.07.2019
5219 Clouds 15 1017 82 10000 2.1 300 22:55 13.07.2019
5220 Clouds 15 1017 87 10000 3.1 340 22:37 13.07.2019
5221 Clouds 16 1017 77 10000 3.6 320 22:18 13.07.2019
5222 Clouds 16 1017 82 10000 3.1 310 21:42 13.07.2019
5223 Clouds 16 1017 82 10000 3.1 310 21:19 13.07.2019
5224 Clouds 17 1015 77 10000 6.2 300 20:42 13.07.2019
5225 Clouds 17 1015 77 10000 6.2 300 20:24 13.07.2019
5226 Clouds 17 1015 77 10000 6.2 290 19:45 13.07.2019
5227 Clouds 17 1015 77 10000 6.2 290 19:26 13.07.2019
5228 Clouds 18 1015 72 10000 6.7 310 18:44 13.07.2019
5229 Clouds 18 1014 68 10000 6.2 310 18:21 13.07.2019
5230 Clouds 19 1014 72 10000 5.7 310 17:38 13.07.2019
5231 Clouds 19 1014 72 10000 5.7 310 17:20 13.07.2019
5232 Clouds 19 1014 68 10000 6.7 300 16:56 13.07.2019
5233 Clouds 19 1014 72 10000 6.7 290 16:37 13.07.2019
5234 Clouds 19 1014 68 10000 6.7 300 16:19 13.07.2019
5235 Thunderstorm 19 1014 68 10000 6.7 300 15:42 13.07.2019
5236 Thunderstorm 18 1014 68 10000 6.7 300 15:20 13.07.2019
5237 Rain 19 1014 68 10000 3.1 300 14:42 13.07.2019
5238 Rain 19 1014 68 10000 3.1 300 14:22 13.07.2019
5239 Rain 19 1014 77 10000 2.6 310 13:46 13.07.2019
5240 Rain 18 1014 77 10000 2.6 310 13:24 13.07.2019
5241 Rain 18 1014 88 6000 2.6 290 12:56 13.07.2019
5242 Clouds 17 1014 82 10000 3.1 300 12:36 13.07.2019
5243 Clouds 17 1014 82 10000 3.1 300 12:18 13.07.2019
5244 Clouds 16 1014 88 10000 3.1 300 11:40 13.07.2019
5245 Clouds 16 1014 88 10000 3.1 300 11:19 13.07.2019
5246 Mist 16 1013 93 9000 3.1 290 10:43 13.07.2019
5247 Mist 16 1013 93 9000 3.1 290 10:23 13.07.2019
5248 Mist 16 1013 93 9000 3.1 290 09:53 13.07.2019
5249 Mist 15 1013 100 8000 3.6 290 09:31 13.07.2019
5250 Mist 15 1013 93 8000 2.6 290 08:58 13.07.2019
5251 Mist 15 1012 93 8000 3.6 290 08:32 13.07.2019
5252 Mist 15 1012 93 6000 4.1 280 07:58 13.07.2019
5253 Mist 15 1012 93 4500 2.1 270 07:30 13.07.2019
5254 Drizzle 14 1012 100 4000 2.1 250 06:39 13.07.2019
5255 Mist 14 1012 100 5000 2.6 240 05:58 13.07.2019
5256 Clouds 14 1012 93 6000 3.1 270 04:49 13.07.2019
5257 Drizzle 14 1012 93 6000 3.1 280 04:22 13.07.2019
5258 Clouds 14 1012 93 8000 1 0 03:56 13.07.2019
5259 Clouds 14 1012 100 10000 2.1 260 03:37 13.07.2019
5260 Clouds 14 1012 93 10000 1.5 280 01:55 13.07.2019
5261 Clouds 14 1012 93 10000 2.6 290 01:37 13.07.2019
5262 Clouds 14 1011 93 10000 2.1 240 01:18 13.07.2019
5263 Clouds 15 1012 93 10000 2.6 280 00:51 13.07.2019
5264 Clouds 15 1012 93 10000 2.6 280 00:19 13.07.2019
5265 Clouds 15 1010 93 8000 1.5 250 23:46 12.07.2019
5266 Clouds 15 1010 93 8000 1.5 250 23:28 12.07.2019
5267 Rain 15 1011 87 10000 3.6 270 22:46 12.07.2019
5268 Rain 15 1010 93 10000 2.1 290 22:24 12.07.2019
5269 Drizzle 16 1010 93 10000 2.6 270 21:43 12.07.2019
5270 Drizzle 16 1010 93 10000 2.6 270 21:23 12.07.2019
5271 Rain 17 1010 93 10000 3.1 270 20:57 12.07.2019
5272 Rain 17 1010 93 10000 3.6 280 20:39 12.07.2019
5273 Rain 17 1010 93 10000 3.6 280 20:21 12.07.2019
5274 Rain 17 1010 93 10000 2.6 260 19:42 12.07.2019
5275 Rain 17 1010 93 10000 2.6 260 19:24 12.07.2019
5276 Rain 18 1009 77 10000 5.1 230 18:46 12.07.2019
5277 Rain 18 1009 77 10000 5.1 230 18:22 12.07.2019
5278 Rain 18 1009 72 10000 4.6 230 17:55 12.07.2019
5279 Rain 19 1009 64 10000 4.6 220 17:30 12.07.2019
5280 Rain 19 1009 64 10000 4.6 220 17:30 12.07.2019
5281 Rain 21 1008 44 10000 3.1 350 16:59 12.07.2019
5282 Rain 22 1009 46 10000 4.1 300 16:27 12.07.2019
5283 Rain 22 1009 46 10000 3.6 320 15:57 12.07.2019
5284 Rain 22 1009 44 10000 4.1 290 15:37 12.07.2019
5285 Clouds 23 1009 50 10000 3.6 0 15:18 12.07.2019
5286 Rain 23 1009 47 10000 5.1 310 14:44 12.07.2019
5287 Rain 22 1009 47 10000 5.1 310 14:21 12.07.2019
5288 Rain 21 1010 60 10000 3.6 250 13:47 12.07.2019
5289 Rain 22 1010 60 10000 3.6 250 13:23 12.07.2019
5290 Rain 21 1010 60 10000 3.1 260 12:43 12.07.2019
5291 Rain 21 1010 60 10000 3.1 260 12:23 12.07.2019
5292 -273 0 0 0 0 0 11:57 12.07.2019
5293 Rain 21 1010 64 10000 3.6 260 11:38 12.07.2019
5294 Rain 20 1010 64 10000 3.6 260 11:19 12.07.2019
5295 Clouds 19 1011 72 10000 3.1 250 10:41 12.07.2019
5296 Clouds 18 1011 72 10000 3.1 250 10:23 12.07.2019
5297 Clouds 18 1011 77 10000 2.6 260 09:53 12.07.2019
5298 Mist 17 1011 82 10000 3.1 260 09:28 12.07.2019
5299 Clouds 17 1011 82 10000 3.1 250 08:51 12.07.2019
5300 Clear 17 1011 77 10000 3.6 250 08:24 12.07.2019
5301 Clouds 16 1011 82 10000 3.1 250 07:52 12.07.2019
5302 Clouds 15 1011 87 10000 2.1 260 07:31 12.07.2019
5303 Clear 14 1010 93 10000 1 0 06:44 12.07.2019
5304 Clear 14 1010 93 10000 1 0 06:25 12.07.2019
5305 Clouds 15 1010 93 7000 1 240 04:55 12.07.2019
5306 Clouds 15 1011 93 7000 1.43 213.512 02:55 12.07.2019
5307 Rain 16 1011 93 8000 1 220 01:38 12.07.2019
5308 Rain 16 1012 93 10000 1 0 00:49 12.07.2019
5309 Rain 16 1012 93 10000 1 0 00:20 12.07.2019
5310 Rain 16 1012 88 10000 1 200 23:43 11.07.2019
5311 Rain 16 1012 88 10000 1 200 23:24 11.07.2019
5312 Rain 16 1012 88 10000 2.1 230 22:52 11.07.2019
5313 Rain 17 1012 77 10000 3.1 250 22:26 11.07.2019
5314 Rain 17 1011 77 10000 3.1 260 21:59 11.07.2019
5315 Rain 17 1011 72 10000 4.6 270 21:40 11.07.2019
5316 Rain 17 1011 72 10000 4.1 280 21:18 11.07.2019
5317 Rain 18 1011 60 10000 3.1 280 20:42 11.07.2019
5318 Rain 18 1011 60 10000 3.1 280 20:24 11.07.2019
5319 Clouds 19 1011 56 10000 2.1 270 19:59 11.07.2019
5320 Rain 19 1011 53 10000 2.1 260 19:40 11.07.2019
5321 Rain 19 1011 53 10000 2.1 260 19:22 11.07.2019
5322 Rain 19 1011 49 10000 1.5 0 18:43 11.07.2019
5323 Rain 20 1011 49 10000 1.5 0 18:25 11.07.2019
5324 Rain 20 1011 49 10000 2.6 270 17:54 11.07.2019
5325 Rain 20 1012 53 10000 2.1 330 17:36 11.07.2019
5326 Rain 20 1012 53 10000 2.1 330 17:18 11.07.2019
5327 Rain 21 1012 53 10000 3.1 290 16:42 11.07.2019
5328 Rain 21 1012 53 10000 3.1 290 16:42 11.07.2019
5329 Rain 21 1012 53 10000 3.1 290 16:19 11.07.2019
5330 Clouds 21 1012 56 10000 1.5 0 15:44 11.07.2019
5331 Clouds 21 1012 56 10000 1.5 0 15:24 11.07.2019
5332 Clouds 22 1012 53 10000 2.6 240 14:58 11.07.2019
5333 Clouds 21 1013 52 10000 2.6 190 14:38 11.07.2019
5334 Clouds 21 1013 56 10000 2.1 0 14:19 11.07.2019
5335 Clouds 21 1013 56 10000 2.6 0 13:45 11.07.2019
5336 Clouds 20 1013 56 10000 2.6 0 13:25 11.07.2019
5337 Clouds 20 1014 63 10000 2.1 170 12:39 11.07.2019
5338 Clouds 19 1014 63 10000 1.5 0 12:20 11.07.2019
5339 Clouds 18 1014 63 10000 1.5 0 11:52 11.07.2019
5340 Clouds 18 1014 72 10000 2.1 200 11:30 11.07.2019
5341 Clouds 17 1014 72 10000 2.1 220 10:55 11.07.2019
5342 Clouds 16 1014 67 10000 1.5 0 10:21 11.07.2019
5343 Clouds 16 1014 72 10000 1.5 0 09:59 11.07.2019
5344 Clouds 16 1014 77 10000 1 0 09:41 11.07.2019
5345 Clouds 15 1014 77 10000 1 0 09:22 11.07.2019
5346 Clouds 15 1014 82 10000 1.5 0 08:50 11.07.2019
5347 Clouds 15 1014 87 10000 1 0 08:24 11.07.2019
5348 Rain 14 1014 93 10000 1 0 07:52 11.07.2019
5349 Rain 14 1015 87 10000 1 90 07:32 11.07.2019
5350 Drizzle 14 1015 93 10000 1.07 121.386 06:35 11.07.2019
5351 Rain 13 1015 87 10000 0.5 0 05:48 11.07.2019
5352 Rain 13 1015 87 10000 0.5 0 05:29 11.07.2019
5353 Rain 13 1015 93 10000 1 190 04:54 11.07.2019
5354 Rain 14 1016 76 10000 2.6 270 02:41 11.07.2019
5355 Rain 15 1016 63 10000 2.1 240 01:27 11.07.2019
5356 Clouds 16 1017 59 10000 2.1 30 00:27 11.07.2019
5357 Clear 16 1017 63 10000 1 0 23:37 10.07.2019
5358 Clouds 17 1016 55 10000 1 300 23:18 10.07.2019
5359 Clear 17 1016 52 10000 1.5 330 22:46 10.07.2019
5360 Clear 17 1016 52 10000 1.5 330 22:21 10.07.2019
5361 Clear 19 1016 48 10000 3.6 310 21:45 10.07.2019
5362 Clear 18 1016 48 10000 3.6 310 21:26 10.07.2019
5363 Clear 19 1017 48 10000 3.1 300 20:58 10.07.2019
5364 Clear 19 1017 45 10000 4.1 290 20:39 10.07.2019
5365 Clear 19 1017 45 10000 4.1 290 20:19 10.07.2019
5366 Clear 19 1017 45 10000 3.6 280 19:53 10.07.2019
5367 Clouds 20 1017 45 10000 2.6 320 19:22 10.07.2019
5368 Clear 20 1017 43 10000 3.6 280 18:58 10.07.2019
5369 Clear 20 1017 43 10000 3.1 280 18:39 10.07.2019
5370 Clear 20 1017 43 10000 3.1 280 18:21 10.07.2019
5371 Clouds 20 1018 43 10000 3.6 300 17:42 10.07.2019
5372 Clouds 20 1018 43 10000 3.6 300 17:21 10.07.2019
5373 Clouds 20 1018 45 10000 3.6 300 16:38 10.07.2019
5374 Clouds 20 1018 45 10000 4.1 270 16:19 10.07.2019
5375 Clear 20 1018 43 10000 3.1 300 15:46 10.07.2019
5376 Clear 20 1018 43 10000 3.1 300 15:22 10.07.2019
5377 Clouds 20 1019 43 10000 3.1 300 14:43 10.07.2019
5378 Clouds 19 1019 43 10000 3.1 300 14:24 10.07.2019
5379 Clouds 19 1019 48 10000 3.6 300 13:53 10.07.2019
5380 Clouds 19 1019 52 10000 4.1 270 13:19 10.07.2019
5381 Clouds 18 1019 52 10000 4.1 270 12:58 10.07.2019
5382 Clouds 18 1019 55 10000 3.6 290 12:39 10.07.2019
5383 Clouds 17 1019 55 10000 3.6 290 12:20 10.07.2019
5384 Clouds 16 1019 55 10000 3.6 280 11:47 10.07.2019
5385 Clouds 16 1019 55 10000 3.6 280 11:21 10.07.2019
5386 Clouds 15 1019 59 10000 3.6 290 10:56 10.07.2019
5387 Clouds 15 1019 62 10000 3.6 290 10:24 10.07.2019
5388 Clouds 14 1019 62 10000 4.1 280 09:55 10.07.2019
5389 Clouds 14 1019 62 10000 3.6 290 09:36 10.07.2019
5390 Clouds 13 1019 62 10000 3.6 290 09:18 10.07.2019
5391 Clouds 13 1019 71 10000 3.1 290 08:45 10.07.2019
5392 Clouds 12 1019 71 10000 3.1 290 08:22 10.07.2019
5393 Clouds 12 1019 76 10000 2.6 280 07:45 10.07.2019
5394 Clouds 12 1019 76 10000 2.6 280 07:23 10.07.2019
5395 Clouds 11 1020 76 10000 1.5 280 06:36 10.07.2019
5396 Clouds 10 1020 81 10000 2.1 260 05:40 10.07.2019
5397 Clouds 10 1020 81 10000 1.5 260 04:30 10.07.2019
5398 Clouds 10 1020 81 10000 1.5 270 02:18 10.07.2019
5399 Clear 10 1020 76 10000 1.5 270 00:44 10.07.2019
5400 Clouds 11 1020 71 10000 2.1 310 23:42 09.07.2019
5401 Clouds 12 1020 71 10000 2.1 310 23:23 09.07.2019
5402 Clouds 12 1019 62 10000 1.5 300 22:57 09.07.2019
5403 Clouds 12 1019 58 10000 3.1 310 22:38 09.07.2019
5404 Clouds 13 1019 58 10000 3.1 310 22:20 09.07.2019
5405 Clear 14 1018 55 10000 3.1 340 21:47 09.07.2019
5406 Clear 15 1018 55 10000 3.1 340 21:26 09.07.2019
5407 Clouds 15 1018 55 10000 3.6 330 20:56 09.07.2019
5408 Clouds 16 1018 48 10000 3.1 330 20:36 09.07.2019
5409 Clouds 16 1018 48 10000 3.1 330 20:18 09.07.2019
5410 Clouds 16 1018 48 10000 4.6 320 19:37 09.07.2019
5411 Clouds 16 1018 45 10000 5.7 290 19:19 09.07.2019
5412 Clear 17 1018 45 10000 4.1 300 18:39 09.07.2019
5413 Clouds 17 1018 51 10000 4.1 310 18:19 09.07.2019
5414 Clouds 17 1018 51 10000 3.6 290 17:44 09.07.2019
5415 Clouds 17 1018 51 10000 3.6 290 17:22 09.07.2019
5416 Clouds 17 1018 51 10000 3.6 310 16:59 09.07.2019
5417 Clouds 17 1018 51 10000 5.1 310 16:41 09.07.2019
5418 Clouds 17 1018 51 10000 5.1 310 16:22 09.07.2019
5419 Clouds 17 1018 51 10000 4.6 290 15:44 09.07.2019
5420 Clouds 17 1018 51 10000 4.6 290 15:25 09.07.2019
5421 Clouds 16 1018 55 10000 6.7 290 14:45 09.07.2019
5422 Clouds 16 1018 55 10000 6.7 290 14:24 09.07.2019
5423 Rain 16 1018 51 10000 5.1 290 13:57 09.07.2019
5424 Clouds 16 1018 51 10000 5.1 290 13:39 09.07.2019
5425 Clouds 16 1018 51 10000 5.1 290 13:39 09.07.2019
5426 Clouds 16 1018 51 10000 5.1 290 13:20 09.07.2019
5427 Clouds 15 1018 62 10000 4.6 300 12:39 09.07.2019
5428 Clouds 15 1018 62 10000 4.6 300 12:19 09.07.2019
5429 Clouds 15 1018 62 10000 5.1 300 11:57 09.07.2019
5430 Clouds 14 1018 71 10000 5.1 290 11:38 09.07.2019
5431 Clouds 14 1018 71 10000 5.1 290 11:20 09.07.2019
5432 Clouds 14 1018 71 10000 5.1 280 10:48 09.07.2019
5433 Clouds 14 1018 71 10000 4.1 290 10:26 09.07.2019
5434 Clouds 13 1018 81 10000 4.1 300 09:39 09.07.2019
5435 Clouds 12 1018 81 10000 4.1 300 09:20 09.07.2019
5436 Clouds 12 1018 81 10000 4.1 300 09:20 09.07.2019
5437 Rain 12 1018 81 10000 4.1 280 08:45 09.07.2019
5438 Rain 12 1018 81 10000 4.1 280 08:21 09.07.2019
5439 Clouds 16 1016 63 10000 3.1 260 03:54 05.07.2019
5440 Clear 16 1017 63 10000 4.1 270 03:25 05.07.2019
5441 Clouds 16 1017 63 10000 2.1 260 02:59 05.07.2019
5442 Clear 16 1017 63 10000 2.6 270 02:37 05.07.2019
5443 Clear 16 1017 63 10000 2.6 250 01:37 05.07.2019
5444 Clouds 16 1017 59 10000 2.1 250 01:18 05.07.2019
5445 Clear 16 1018 63 10000 2.1 250 00:40 05.07.2019
5446 Clear 17 1018 59 10000 2.1 260 23:51 04.07.2019
5447 Clear 17 1018 52 10000 2.1 290 23:21 04.07.2019
5448 Clear 18 1019 48 10000 2.1 290 22:45 04.07.2019
5449 Clear 19 1019 48 10000 2.1 290 22:25 04.07.2019
5450 Clear 19 1018 45 10000 2.1 280 21:57 04.07.2019
5451 Clear 21 1019 40 10000 2.6 300 21:39 04.07.2019
5452 Clear 20 1019 40 10000 2.6 300 21:21 04.07.2019
5453 Clear 20 1019 40 10000 3.6 290 20:54 04.07.2019
5454 Clear 21 1019 40 10000 3.6 290 20:36 04.07.2019
5455 Clear 21 1019 37 10000 4.1 300 20:18 04.07.2019
5456 Clear 21 1020 35 10000 3.6 290 19:41 04.07.2019
5457 Clear 21 1020 35 10000 3.6 290 19:20 04.07.2019
5458 Clear 21 1020 35 10000 4.1 300 18:44 04.07.2019
5459 Clear 22 1020 35 10000 4.1 300 18:25 04.07.2019
5460 Clear 22 1021 35 10000 4.6 290 17:47 04.07.2019
5461 Clear 22 1021 35 10000 4.6 290 17:19 04.07.2019
5462 Clear 21 1022 33 10000 3.6 260 15:59 04.07.2019
5463 Clear 21 1022 35 10000 4.1 310 15:41 04.07.2019
5464 Clear 21 1022 35 10000 4.1 310 15:23 04.07.2019
5465 Clear 21 1023 35 10000 3.6 0 14:56 04.07.2019
5466 Clear 20 1023 37 10000 3.6 270 14:37 04.07.2019
5467 Clear 20 1023 37 10000 3.6 270 14:18 04.07.2019
5468 Clear 21 1023 37 10000 4.1 0 13:55 04.07.2019
5469 Clear 20 1024 39 10000 4.6 260 13:37 04.07.2019
5470 Clear 19 1024 39 10000 4.6 260 13:18 04.07.2019
5471 Clear 18 1024 42 10000 3.6 230 12:38 04.07.2019
5472 Clear 18 1024 42 10000 3.6 230 12:19 04.07.2019
5473 Clouds 17 1024 45 10000 3.1 290 11:42 04.07.2019
5474 Clouds 17 1024 45 10000 3.1 290 11:20 04.07.2019
5475 Clouds 17 1025 48 10000 3.6 270 10:45 04.07.2019
5476 Clouds 16 1025 48 10000 3.6 270 10:27 04.07.2019
5477 Clouds 16 1025 54 10000 3.6 280 09:56 04.07.2019
5478 Clear 14 1025 62 10000 2.6 280 09:38 04.07.2019
5479 Clear 14 1025 62 10000 2.6 280 09:18 04.07.2019
5480 Clear 13 1025 71 10000 2.6 290 08:41 04.07.2019
5481 Clear 13 1025 71 10000 2.6 290 08:18 04.07.2019
5482 Clear 12 1024 81 10000 1 0 07:38 04.07.2019
5483 Clear 10 1024 87 10000 1 300 07:18 04.07.2019
5484 Fog 8 1025 93 10000 0.5 260 06:20 04.07.2019
5485 Clear 7 1025 87 10000 1 270 05:41 04.07.2019
5486 Clear 8 1025 87 10000 1 0 03:48 04.07.2019
5487 Clouds 10 1024 76 10000 1.5 310 01:52 04.07.2019
5488 Clear 10 1025 71 10000 1 270 01:26 04.07.2019
5489 Clear 11 1025 66 10000 3.1 260 00:41 04.07.2019
5490 Clear 12 1025 66 10000 2.6 250 23:52 03.07.2019
5491 Clear 13 1025 62 10000 2.6 0 23:21 03.07.2019
5492 Clouds 13 1024 54 10000 1.5 340 22:56 03.07.2019
5493 Clear 15 1023 39 10000 3.6 320 22:38 03.07.2019
5494 Clear 15 1023 39 10000 3.6 320 22:20 03.07.2019
5495 Clear 15 1023 39 10000 3.6 320 22:20 03.07.2019
5496 Clear 15 1023 39 10000 3.6 320 21:54 03.07.2019
5497 Clear 17 1023 39 10000 4.1 320 21:36 03.07.2019
5498 Clear 18 1023 42 10000 4.1 320 20:55 03.07.2019
5499 Clear 18 1023 37 10000 5.1 310 20:36 03.07.2019
5500 Clear 18 1023 37 10000 3.6 320 20:18 03.07.2019
5501 Clear 18 1023 32 10000 4.6 320 19:44 03.07.2019
5502 Clear 19 1023 32 10000 4.6 320 19:25 03.07.2019
5503 Clear 19 1023 34 10000 7.2 250 18:45 03.07.2019
5504 Clear 19 1023 32 10000 5.1 300 18:22 03.07.2019
5505 Clear 20 1023 37 10000 4.1 310 17:49 03.07.2019
5506 Clear 20 1023 37 10000 4.1 310 17:19 03.07.2019
5507 Clear 20 1023 35 10000 4.6 300 16:58 03.07.2019
5508 Clear 20 1023 35 10000 5.1 290 16:39 03.07.2019
5509 Clouds 20 1023 37 10000 4.6 300 16:18 03.07.2019
5510 Clear 20 1023 42 10000 3.1 360 15:46 03.07.2019
5511 Clear 20 1023 42 10000 3.1 360 15:27 03.07.2019
5512 Clear 19 1023 42 10000 4.1 290 14:49 03.07.2019
5513 Clear 19 1023 42 10000 4.1 290 14:22 03.07.2019
5514 Clear 19 1023 42 10000 3.6 290 13:50 03.07.2019
5515 Clear 19 1023 42 10000 3.6 290 13:31 03.07.2019
5516 Clouds 19 1023 45 10000 4.1 290 12:54 03.07.2019
5517 Clouds 18 1023 48 10000 4.6 300 12:20 03.07.2019
5518 Clouds 18 1023 48 10000 4.6 300 11:58 03.07.2019
5519 Clouds 18 1023 48 10000 3.6 320 11:39 03.07.2019
5520 Clouds 17 1023 48 10000 3.6 320 11:20 03.07.2019
5521 Clouds 17 1023 55 10000 3.6 290 10:41 03.07.2019
5522 Clouds 17 1023 55 10000 3.6 290 10:22 03.07.2019
5523 Clouds 16 1023 62 10000 3.1 280 09:42 03.07.2019
5524 Clouds 15 1023 62 10000 3.1 280 09:21 03.07.2019
5525 Clear 14 1023 67 10000 3.1 270 08:53 03.07.2019
5526 Clear 14 1023 67 10000 2.1 250 08:32 03.07.2019
5527 Clear 13 1023 76 10000 2.6 260 07:57 03.07.2019
5528 Clear 12 1023 87 10000 2.88 267.95 07:36 03.07.2019
5529 Clouds 10 1023 87 10000 1 220 06:55 03.07.2019
5530 Fog 8 1023 93 10000 1 240 05:56 03.07.2019
5531 Clear 8 1023 93 10000 1 270 05:24 03.07.2019
5532 Clear 9 1023 93 10000 0.5 260 03:50 03.07.2019
5533 Clouds 10 1023 87 10000 1.5 260 02:47 03.07.2019
5534 Clouds 11 1023 71 10000 1 0 01:37 03.07.2019
5535 Clear 11 1023 71 10000 2.1 260 01:19 03.07.2019
5536 Clear 12 1023 71 10000 2.6 250 00:40 03.07.2019
5537 Clouds 13 1022 67 10000 1.5 290 23:55 02.07.2019
5538 Clouds 13 1022 67 10000 1.5 290 23:37 02.07.2019
5539 Clear 14 1022 66 10000 2.1 250 23:18 02.07.2019
5540 Clouds 15 1022 62 10000 1.5 320 22:41 02.07.2019
5541 Clear 15 1021 51 10000 3.1 330 22:23 02.07.2019
5542 Clear 16 1021 51 10000 3.1 330 21:58 02.07.2019
5543 Clouds 17 1021 55 10000 3.1 310 21:39 02.07.2019
5544 Clear 17 1022 51 10000 4.6 250 21:20 02.07.2019
5545 Clear 18 1021 42 10000 4.1 320 20:57 02.07.2019
5546 Clear 18 1021 42 10000 4.1 320 20:38 02.07.2019
5547 Clear 19 1021 42 10000 4.1 320 20:19 02.07.2019
5548 Clear 19 1021 39 10000 3.6 320 19:41 02.07.2019
5549 Clear 19 1021 34 10000 3.1 330 19:22 02.07.2019
5550 Clear 19 1021 32 10000 4.1 310 18:46 02.07.2019
5551 Clear 20 1021 32 10000 4.1 330 18:18 02.07.2019
5552 Clear 21 1021 30 10000 5.1 300 17:41 02.07.2019
5553 Clear 20 1021 30 10000 5.1 300 17:22 02.07.2019
5554 Clear 20 1021 32 10000 5.7 300 16:52 02.07.2019
5555 Clear 21 1021 30 10000 6.2 300 16:34 02.07.2019
5556 Clear 21 1021 30 10000 6.2 290 15:46 02.07.2019
5557 Clear 20 1021 30 10000 6.2 290 15:26 02.07.2019
5558 Clear 21 1021 32 10000 6.7 290 14:57 02.07.2019
5559 Clear 21 1021 32 10000 6.7 290 14:57 02.07.2019
5560 Clouds 20 1021 34 10000 7.7 290 14:38 02.07.2019
5561 Clear 20 1021 39 10000 7.2 300 14:20 02.07.2019
5562 Clouds 20 1021 37 10000 7.2 300 13:40 02.07.2019
5563 Clear 20 1021 39 10000 6.2 310 13:18 02.07.2019
5564 Clouds 20 1021 42 10000 6.2 300 12:44 02.07.2019
5565 Clouds 19 1020 40 10000 6.7 300 12:22 02.07.2019
5566 Clouds 18 1020 48 10000 6.2 300 11:44 02.07.2019
5567 Clouds 18 1020 48 10000 6.2 300 11:44 02.07.2019
5568 Clouds 18 1020 48 10000 6.2 300 11:23 02.07.2019
5569 Clouds 18 1020 55 10000 5.7 300 10:54 02.07.2019
5570 Rain 18 1020 63 10000 4.6 300 10:27 02.07.2019
5571 Clouds 17 1020 63 10000 3.6 320 09:57 02.07.2019
5572 Clouds 17 1020 72 10000 4.6 290 09:22 02.07.2019
5573 Clouds 17 1020 72 10000 4.6 290 08:58 02.07.2019
5574 Clouds 16 1020 63 10000 5.1 310 08:38 02.07.2019
5575 Clouds 16 1019 72 10000 4.6 280 07:59 02.07.2019
5576 Clouds 16 1019 72 10000 4.6 280 07:38 02.07.2019
5577 Clouds 15 1019 72 10000 4.6 280 07:18 02.07.2019
5578 Clouds 14 1019 77 10000 4.1 250 06:37 02.07.2019
5579 Clouds 14 1019 76 10000 3.6 240 05:35 02.07.2019
5580 Clouds 15 1018 67 10000 2.6 240 02:41 02.07.2019
5581 Clear 16 1019 55 10000 5.1 290 00:28 02.07.2019
5582 Clear 17 1018 52 10000 4.6 300 23:39 01.07.2019
5583 Clear 17 1018 52 10000 4.6 300 23:19 01.07.2019
5584 Clear 19 1016 45 10000 4.6 310 22:42 01.07.2019
5585 Clear 18 1016 45 10000 4.6 310 22:24 01.07.2019
5586 Clear 21 1015 40 10000 5.1 310 21:45 01.07.2019
5587 Clear 21 1015 40 10000 5.1 310 21:25 01.07.2019
5588 Clear 22 1015 33 10000 4.6 300 20:51 01.07.2019
5589 Clear 23 1015 33 10000 6.7 290 20:21 01.07.2019
5590 Clear 24 1014 31 10000 6.7 290 19:57 01.07.2019
5591 Clouds 23 1015 36 10000 6.2 270 19:38 01.07.2019
5592 Clear 24 1014 29 10000 6.7 290 19:20 01.07.2019
5593 Clear 25 1014 29 10000 6.7 290 18:50 01.07.2019
5594 Clear 25 1013 33 10000 6.2 280 18:28 01.07.2019
5595 Clear 26 1014 31 10000 6.7 280 17:55 01.07.2019
5596 Clear 25 1014 36 10000 6.2 290 17:37 01.07.2019
5597 Clear 26 1014 36 10000 6.2 290 17:19 01.07.2019
5598 Clear 25 1014 36 10000 6.2 290 16:44 01.07.2019
5599 Clear 25 1014 34 10000 7.2 250 16:24 01.07.2019
5600 Clear 26 1014 30 10000 8.2 260 15:46 01.07.2019
5601 Clear 25 1014 33 10000 7.7 260 15:26 01.07.2019
5602 Clear 25 1014 34 10000 5.7 270 14:45 01.07.2019
5603 Clear 25 1014 34 10000 5.7 270 14:45 01.07.2019
5604 Clear 25 1014 34 10000 6.7 270 14:24 01.07.2019
5605 Clear 25 1014 36 10000 6.7 270 13:55 01.07.2019
5606 Clear 25 1014 36 10000 6.7 270 13:37 01.07.2019
5607 Clear 25 1014 41 10000 7.2 260 13:18 01.07.2019
5608 Clear 25 1014 41 10000 6.7 270 12:39 01.07.2019
5609 Clear 25 1014 41 10000 6.7 270 12:39 01.07.2019
5610 Clouds 24 1015 41 10000 6.7 260 12:20 01.07.2019
5611 Clouds 24 1015 44 10000 6.2 260 11:56 01.07.2019
5612 Clouds 24 1015 44 10000 6.2 260 11:56 01.07.2019
5613 Clouds 23 1015 44 10000 6.2 260 11:37 01.07.2019
5614 Clouds 23 1015 49 10000 5.7 270 11:18 01.07.2019
5615 Clouds 23 1015 53 10000 5.1 270 10:42 01.07.2019
5616 Clouds 22 1015 56 10000 4.1 250 10:20 01.07.2019
5617 Clear 21 1015 60 10000 2.6 240 09:42 01.07.2019
5618 Clear 20 1015 64 10000 3.1 220 09:24 01.07.2019
5619 Clear 19 1015 68 10000 2.1 210 08:44 01.07.2019
5620 Clear 19 1015 72 10000 1 0 08:25 01.07.2019
5621 Clear 18 1015 77 10000 3.2 242.859 07:34 01.07.2019
5622 Clouds 17 1015 77 10000 3.2 242.859 06:51 01.07.2019
5623 Clouds 16 1014 82 10000 1.5 240 04:45 01.07.2019
5624 Clear 18 1015 72 10000 1.5 330 01:20 01.07.2019
5625 Clear 20 1015 63 10000 2.6 300 00:42 01.07.2019
5626 Clear 21 1015 63 10000 2.1 290 00:21 01.07.2019
5627 Clear 22 1015 56 10000 3.1 320 23:26 30.06.2019
5628 Clouds 23 1014 46 10000 3.1 300 22:58 30.06.2019
5629 Clear 24 1014 49 10000 3.6 330 22:38 30.06.2019
5630 Clear 24 1014 46 10000 4.6 330 22:18 30.06.2019
5631 Clear 28 1013 50 10000 4.6 320 21:41 30.06.2019
5632 Clear 27 1011 48 10000 3.6 320 21:19 30.06.2019
5633 Clear 28 1011 48 10000 3.6 320 20:54 30.06.2019
5634 Clear 29 1011 48 10000 3.6 320 20:36 30.06.2019
5635 Clear 29 1011 45 10000 4.1 310 20:18 30.06.2019
5636 Clear 30 1011 40 10000 5.1 290 19:42 30.06.2019
5637 Clear 32 1011 41 10000 5.1 300 19:24 30.06.2019
5638 Clear 33 1011 34 10000 7.2 270 18:26 30.06.2019
5639 Clear 34 1011 28 10000 7.2 260 17:57 30.06.2019
5640 Clear 35 1011 28 10000 7.2 260 17:38 30.06.2019
5641 Clear 35 1011 25 10000 7.2 250 17:18 30.06.2019
5642 Clear 36 1011 23 10000 6.7 260 16:45 30.06.2019
5643 Clear 36 1011 25 10000 6.7 260 16:25 30.06.2019
5644 Clear 35 1011 24 10000 7.2 250 15:38 30.06.2019
5645 Clear 35 1011 24 10000 5.7 260 15:19 30.06.2019
5646 Clear 35 1011 21 10000 6.2 240 14:50 30.06.2019
5647 Clear 35 1011 21 10000 6.2 240 14:50 30.06.2019
5648 Clear 35 1011 24 10000 5.1 240 14:30 30.06.2019
5649 Clear 34 1011 24 10000 5.1 230 13:48 30.06.2019
5650 Clear 34 1011 24 10000 5.7 220 13:29 30.06.2019
5651 Clear 33 1011 26 10000 6.2 250 12:53 30.06.2019
5652 Clear 33 1012 24 10000 6.2 250 12:29 30.06.2019
5653 Clear 32 1012 22 10000 5.7 220 11:59 30.06.2019
5654 Clear 32 1012 22 10000 5.7 220 11:59 30.06.2019
5655 Clear 31 1012 22 10000 5.7 220 11:41 30.06.2019
5656 Clear 31 1012 25 10000 5.1 240 11:20 30.06.2019
5657 Clear 30 1011 29 10000 4.6 200 10:54 30.06.2019
5658 Clear 30 1012 30 10000 4.6 220 10:36 30.06.2019
5659 Clear 30 1012 30 10000 4.6 220 10:18 30.06.2019
5660 Clear 28 1013 32 10000 3.1 200 09:42 30.06.2019
5661 Clear 25 1012 36 10000 3.6 190 09:20 30.06.2019
5662 Clear 24 1012 39 10000 3.1 180 08:40 30.06.2019
5663 Clear 24 1012 44 10000 2.6 160 08:21 30.06.2019
5664 Clear 22 1012 56 10000 1 0 07:51 30.06.2019
5665 Clear 20 1012 49 10000 2.6 150 07:26 30.06.2019
5666 Clear 18 1013 52 10000 2.6 140 06:37 30.06.2019
5667 Clear 17 1014 68 10000 1.5 100 03:34 30.06.2019
5668 Clear 17 1014 68 10000 1 110 02:27 30.06.2019
5669 Clear 18 1015 64 10000 1.5 110 01:23 30.06.2019
5670 Clear 19 1015 56 10000 1.5 120 00:24 30.06.2019
5671 Clear 20 1015 49 10000 1 130 23:53 29.06.2019
5672 Clear 21 1016 49 10000 1.5 110 23:24 29.06.2019
5673 Clear 21 1016 43 10000 1 150 22:55 29.06.2019
5674 Clear 23 1016 44 10000 1.5 100 22:25 29.06.2019
5675 Clear 25 1016 32 10000 1 140 21:59 29.06.2019
5676 Clear 29 1016 32 10000 1 0 21:40 29.06.2019
5677 Clear 27 1017 28 10000 1.5 150 21:20 29.06.2019
5678 Clear 29 1017 28 10000 1.5 150 20:40 29.06.2019
5679 Clear 30 1017 27 10000 1.5 0 20:22 29.06.2019
5680 Clear 30 1017 23 10000 2.1 160 19:48 29.06.2019
5681 Clear 30 1018 27 10000 3.1 180 19:23 29.06.2019
5682 Clear 31 1018 28 10000 2.1 170 18:51 29.06.2019
5683 Clear 30 1018 28 10000 2.6 120 18:26 29.06.2019
5684 Clear 30 1018 23 10000 2.6 130 17:42 29.06.2019
5685 Clear 31 1019 22 10000 2.1 0 17:22 29.06.2019
5686 Clear 31 1019 22 10000 2.6 180 16:58 29.06.2019
5687 Clear 31 1019 22 10000 2.6 180 16:36 29.06.2019
5688 Clear 30 1019 22 10000 2.6 0 15:50 29.06.2019
5689 Clear 29 1020 26 10000 2.6 140 15:30 29.06.2019
5690 Clear 29 1020 25 10000 2.1 0 14:44 29.06.2019
5691 Clear 28 1020 26 10000 2.6 160 14:25 29.06.2019
5692 Clear 28 1020 28 10000 2.6 0 13:47 29.06.2019
5693 Clear 27 1021 29 10000 2.1 0 13:27 29.06.2019
5694 Clear 27 1021 29 10000 2.1 0 12:53 29.06.2019
5695 Clear 27 1021 34 10000 2.6 0 12:34 29.06.2019
5696 Clear 25 1022 38 10000 1.5 0 11:55 29.06.2019
5697 Clear 25 1022 38 10000 1.5 0 11:37 29.06.2019
5698 Clear 24 1022 41 10000 2.1 200 11:19 29.06.2019
5699 Clear 24 1022 40 10000 2.6 150 10:39 29.06.2019
5700 Clear 23 1022 49 10000 2.6 150 10:20 29.06.2019
5701 Clear 22 1022 49 10000 2.1 170 09:45 29.06.2019
5702 Clear 19 1022 59 10000 1 0 08:54 29.06.2019
5703 Clear 18 1022 72 10000 1.79 203.868 08:25 29.06.2019
5704 Fog 16 1022 77 10000 2.1 80 07:44 29.06.2019
5705 Fog 13 1022 82 10000 1 90 06:47 29.06.2019
5706 Fog 12 1023 87 10000 1 0 06:24 29.06.2019
5707 Clear 13 1023 82 10000 1 0 03:25 29.06.2019
5708 Clear 14 1023 72 10000 0.5 0 01:32 29.06.2019
5709 Clear 15 1023 72 10000 1 0 00:31 29.06.2019
5710 Clear 16 1023 67 10000 2.6 10 23:38 28.06.2019
5711 Clear 17 1023 67 10000 1 0 23:20 28.06.2019
5712 Clouds 17 1023 56 10000 0.5 0 22:46 28.06.2019
5713 Clear 20 1023 46 10000 1 0 21:59 28.06.2019
5714 Clear 23 1023 46 10000 1 0 21:37 28.06.2019
5715 Clear 22 1023 40 10000 1 0 21:18 28.06.2019
5716 Clear 23 1023 40 10000 2.1 70 20:40 28.06.2019
5717 Clear 23 1023 38 10000 2.1 70 20:19 28.06.2019
5718 Clear 24 1023 36 10000 1 0 19:38 28.06.2019
5719 Clear 24 1023 36 10000 2.1 330 19:20 28.06.2019
5720 Clear 24 1023 33 10000 1.5 0 18:41 28.06.2019
5721 Clear 24 1024 36 10000 1.5 0 18:21 28.06.2019
5722 Clear 24 1024 36 10000 2.6 0 17:44 28.06.2019
5723 Clear 24 1024 38 10000 2.1 0 17:25 28.06.2019
5724 Clear 24 1024 33 10000 2.6 0 16:46 28.06.2019
5725 Clear 24 1024 40 10000 2.1 0 16:19 28.06.2019
5726 Clear 23 1024 38 10000 2.1 0 15:44 28.06.2019
5727 Clear 22 1025 43 10000 2.6 0 15:18 28.06.2019
5728 Clear 22 1025 43 10000 2.6 0 14:40 28.06.2019
5729 Clouds 22 1025 43 10000 2.6 0 14:21 28.06.2019
5730 Clouds 21 1025 46 10000 2.6 0 13:47 28.06.2019
5731 Clouds 21 1025 52 10000 3.1 0 13:28 28.06.2019
5732 Clouds 20 1025 52 10000 2.6 280 12:52 28.06.2019
5733 Clouds 19 1025 55 10000 3.1 300 12:33 28.06.2019
5734 Clouds 18 1026 55 10000 2.6 0 11:44 28.06.2019
5735 Clouds 18 1026 55 10000 2.1 310 11:19 28.06.2019
5736 Clouds 16 1026 59 10000 2.6 0 10:42 28.06.2019
5737 Clouds 16 1026 59 10000 2.1 320 10:19 28.06.2019
5738 Clouds 16 1026 62 10000 2.6 300 09:46 28.06.2019
5739 Clouds 15 1026 62 10000 3.1 330 09:28 28.06.2019
5740 Clouds 15 1026 62 10000 2.6 300 08:43 28.06.2019
5741 Clouds 14 1026 67 10000 2.6 310 08:24 28.06.2019
5742 Clouds 14 1026 71 10000 1.5 0 07:43 28.06.2019
5743 Clouds 14 1026 71 10000 1.5 310 06:57 28.06.2019
5744 Clouds 14 1026 71 10000 2.6 340 04:42 28.06.2019
5745 Clouds 14 1026 76 10000 1.5 0 00:48 28.06.2019
5746 Clouds 14 1026 72 10000 3.1 320 00:23 28.06.2019
5747 Clouds 14 1026 76 10000 1.5 280 23:47 27.06.2019
5748 Clouds 15 1026 71 10000 3.6 320 23:25 27.06.2019
5749 Clouds 15 1026 67 10000 3.1 300 22:54 27.06.2019
5750 Clear 15 1025 63 10000 3.6 320 22:36 27.06.2019
5751 Clear 15 1025 63 10000 3.6 320 22:18 27.06.2019
5752 Clear 16 1025 59 10000 4.6 330 21:42 27.06.2019
5753 Clear 17 1025 55 10000 4.6 320 21:21 27.06.2019
5754 Clear 18 1025 52 10000 4.1 320 20:50 27.06.2019
5755 Clouds 19 1025 55 10000 4.6 320 20:31 27.06.2019
5756 Clouds 19 1025 52 10000 5.7 310 19:58 27.06.2019
5757 Clouds 20 1025 52 10000 5.7 310 19:40 27.06.2019
5758 Clouds 20 1025 52 10000 5.7 310 19:22 27.06.2019
5759 Clouds 21 1025 49 10000 5.7 320 18:42 27.06.2019
5760 Clear 21 1025 46 10000 5.1 310 18:19 27.06.2019
5761 Clear 21 1025 49 10000 5.1 300 17:41 27.06.2019
5762 Clear 22 1025 49 10000 5.7 290 17:22 27.06.2019
5763 Clear 22 1025 46 10000 5.1 300 16:39 27.06.2019
5764 Clear 22 1025 46 10000 5.1 280 16:19 27.06.2019
5765 Clear 22 1025 46 10000 5.1 280 16:19 27.06.2019
5766 Clear 22 1025 46 10000 5.1 280 16:19 27.06.2019
5767 Clear 22 1025 43 10000 5.1 310 15:50 27.06.2019
5768 Clear 22 1025 43 10000 5.7 280 15:30 27.06.2019
5769 Clear 21 1025 46 10000 6.7 280 14:57 27.06.2019
5770 Clear 21 1025 46 10000 6.7 280 14:36 27.06.2019
5771 Clear 21 1026 46 10000 5.1 300 14:18 27.06.2019
5772 Clear 21 1026 49 10000 5.1 280 13:42 27.06.2019
5773 Clear 21 1026 49 10000 5.1 280 13:24 27.06.2019
5774 Clear 20 1026 49 10000 5.1 320 12:48 27.06.2019
5775 Clear 19 1026 48 10000 5.1 290 12:24 27.06.2019
5776 Clear 18 1026 55 10000 5.1 290 11:47 27.06.2019
5777 Clouds 19 1027 55 10000 4.6 300 11:23 27.06.2019
5778 Clouds 19 1027 55 10000 4.6 300 11:23 27.06.2019
5779 Clouds 18 1027 59 10000 5.1 270 10:57 27.06.2019
5780 Clouds 17 1027 59 10000 5.1 300 10:37 27.06.2019
5781 Clouds 17 1027 59 10000 5.1 300 10:19 27.06.2019
5782 Clouds 16 1027 63 10000 4.6 280 09:38 27.06.2019
5783 Clouds 15 1026 67 10000 4.1 280 09:20 27.06.2019
5784 Clouds 14 1026 71 10000 4.6 300 08:48 27.06.2019
5785 Clouds 14 1026 71 10000 4.6 300 08:48 27.06.2019
5786 Clouds 14 1026 71 10000 5.7 300 08:27 27.06.2019
5787 Clouds 14 1026 71 10000 4.1 300 07:45 27.06.2019
5788 Clouds 14 1026 71 10000 3.6 310 06:58 27.06.2019
5789 Clouds 14 1027 76 10000 5.1 320 06:32 27.06.2019
5790 Clouds 15 1026 72 10000 4.1 290 03:51 27.06.2019
5791 Clouds 16 1026 82 10000 5.7 300 02:42 27.06.2019
5792 Clouds 16 1026 77 10000 5.7 310 01:39 27.06.2019
5793 Clouds 16 1025 82 10000 2.1 280 00:52 27.06.2019
5794 Clouds 18 1026 77 10000 4.1 300 00:26 27.06.2019
5795 Clouds 18 1025 72 10000 4.6 300 23:51 26.06.2019
5796 Clear 19 1025 77 10000 5.7 320 23:23 26.06.2019
5797 Clouds 19 1025 68 10000 3.6 290 22:59 26.06.2019
5798 Clear 20 1023 53 10000 4.1 330 22:40 26.06.2019
5799 Clear 20 1023 53 10000 4.1 330 22:19 26.06.2019
5800 Clear 22 1023 53 10000 4.1 320 21:43 26.06.2019
5801 Clear 24 1022 50 10000 4.6 320 21:21 26.06.2019
5802 Clear 25 1022 51 10000 4.6 320 20:58 26.06.2019
5803 Clear 26 1022 51 10000 4.6 320 20:39 26.06.2019
5804 Clear 26 1022 51 10000 4.6 320 20:39 26.06.2019
5805 Clear 27 1022 48 10000 4.6 320 20:21 26.06.2019
5806 Clear 27 1022 45 10000 5.1 320 19:44 26.06.2019
5807 Clear 29 1021 45 10000 5.1 330 19:25 26.06.2019
5808 Clear 30 1021 43 10000 5.7 310 18:48 26.06.2019
5809 Clear 30 1021 40 10000 5.1 320 18:23 26.06.2019
5810 Clear 31 1021 41 10000 5.7 310 17:58 26.06.2019
5811 Clear 31 1021 41 10000 5.7 310 17:38 26.06.2019
5812 Clear 31 1021 41 10000 5.7 310 17:19 26.06.2019
5813 Clear 32 1021 36 10000 6.2 300 16:46 26.06.2019
5814 Clear 32 1021 34 10000 6.7 270 16:24 26.06.2019
5815 Clouds 32 1021 43 10000 5.7 290 15:48 26.06.2019
5816 Clear 32 1021 36 10000 5.7 290 15:26 26.06.2019
5817 Clear 33 1021 38 10000 5.7 290 14:38 26.06.2019
5818 Clouds 32 1021 43 10000 6.7 270 14:20 26.06.2019
5819 Clouds 32 1021 43 10000 6.2 280 13:45 26.06.2019
5820 Clouds 32 1021 46 10000 6.2 290 13:21 26.06.2019
5821 Clouds 32 1021 46 10000 6.2 290 13:21 26.06.2019
5822 Clear 32 1021 46 10000 5.1 290 12:43 26.06.2019
5823 Clear 31 1021 49 10000 6.2 280 12:25 26.06.2019
5824 Clear 31 1021 46 10000 5.7 290 11:54 26.06.2019
5825 Clear 31 1021 46 10000 4.6 310 11:23 26.06.2019
5826 Clear 30 1021 48 10000 4.6 290 10:48 26.06.2019
5827 Clear 29 1021 51 10000 4.1 290 10:29 26.06.2019
5828 Clear 29 1020 54 10000 4.6 280 09:51 26.06.2019
5829 Clear 27 1020 58 10000 4.6 280 09:27 26.06.2019
5830 Clear 27 1020 58 10000 4.6 260 08:52 26.06.2019
5831 Clear 26 1019 57 10000 3.6 260 08:21 26.06.2019
5832 Clear 25 1019 61 10000 2.6 250 07:57 26.06.2019
5833 Clear 25 1019 61 10000 2.6 250 07:37 26.06.2019
5834 Clear 22 1019 73 10000 4.01 263.69 06:33 26.06.2019
5835 Clear 22 1019 82 10000 1.5 0 01:36 26.06.2019
5836 Clear 23 1018 65 10000 1.5 100 00:32 26.06.2019
5837 Clouds 23 1019 61 10000 1 90 23:52 25.06.2019
5838 Clear 24 1019 69 10000 2.74 154.473 23:32 25.06.2019
5839 Clear 24 1019 69 10000 2.74 154.473 22:59 25.06.2019
5840 Clear 24 1019 69 10000 2.74 154.473 22:41 25.06.2019
5841 Clear 25 1019 57 10000 2.74 154.473 22:22 25.06.2019
5842 Clear 27 1019 54 10000 2.74 154.473 21:46 25.06.2019
5843 Clear 28 1018 48 10000 1 100 21:25 25.06.2019
5844 Clear 30 1018 45 10000 1.5 100 20:49 25.06.2019
5845 Clear 30 1018 45 10000 1.5 100 20:49 25.06.2019
5846 Clear 30 1018 45 10000 1.5 100 20:49 25.06.2019
5847 Clear 30 1018 45 10000 1.5 100 20:49 25.06.2019
5848 Clear 31 1018 38 10000 2.6 110 20:24 25.06.2019
5849 Clear 31 1018 33 10000 3.6 110 19:57 25.06.2019
5850 Clear 32 1018 33 10000 3.6 110 19:38 25.06.2019
5851 Clear 32 1019 31 10000 4.1 110 19:20 25.06.2019
5852 Clear 32 1019 32 10000 3.6 140 18:42 25.06.2019
5853 Clear 33 1019 31 10000 4.1 150 18:23 25.06.2019
5854 -273 0 0 0 0 0 17:45 25.06.2019
5855 -273 0 0 0 0 0 17:26 25.06.2019
5856 -273 0 0 0 0 0 17:26 25.06.2019
5857 -273 0 0 0 0 0 17:26 25.06.2019
5858 Clear 33 1019 31 10000 4.6 140 16:44 25.06.2019
5859 Clear 33 1019 31 10000 5.7 140 16:26 25.06.2019
5860 Clear 33 1020 35 10000 6.2 120 15:59 25.06.2019
5861 Clear 33 1020 35 10000 6.2 120 15:39 25.06.2019
5862 Clear 32 1020 33 10000 5.7 140 15:20 25.06.2019
5863 Clear 32 1020 33 10000 5.7 160 14:45 25.06.2019
5864 Clear 32 1020 31 10000 5.7 120 14:26 25.06.2019
5865 Clear 32 1020 35 10000 5.7 150 13:43 25.06.2019
5866 Clear 32 1020 33 10000 4.6 160 13:24 25.06.2019
5867 Clear 31 1020 35 10000 4.6 160 12:43 25.06.2019
5868 Clear 29 1020 38 10000 5.1 150 12:24 25.06.2019
5869 Clear 29 1020 37 10000 4.1 160 11:46 25.06.2019
5870 Clear 29 1020 40 10000 4.1 160 11:25 25.06.2019
5871 Clear 29 1020 45 10000 2.6 150 10:58 25.06.2019
5872 Clear 28 1020 45 10000 2.6 150 10:57 25.06.2019
5873 Clear 28 1020 45 10000 2.6 150 10:37 25.06.2019
5874 Clear 27 1020 47 10000 2.6 140 10:18 25.06.2019
5875 Clear 26 1021 50 10000 1.5 0 09:39 25.06.2019
5876 Clear 24 1020 53 10000 2.1 110 09:21 25.06.2019
5877 Clear 23 1020 56 10000 2.1 100 08:54 25.06.2019
5878 Clear 22 1020 56 10000 2.6 100 08:31 25.06.2019
5879 Clear 21 1020 60 10000 2.1 100 07:44 25.06.2019
5880 Clear 20 1020 68 10000 0.5 100 07:26 25.06.2019
5881 Clouds 18 1020 55 10000 2.1 70 06:47 25.06.2019
5882 Clouds 17 1020 55 10000 2.1 70 05:58 25.06.2019
5883 Clear 18 1020 59 10000 4.1 90 02:44 25.06.2019
5884 Clouds 19 1021 46 10000 2.6 70 00:57 25.06.2019
5885 Clear 20 1021 59 10000 2.1 90 00:25 25.06.2019
5886 Rain 20 1021 59 10000 2.1 90 23:52 24.06.2019
5887 Rain 21 1021 59 10000 2.1 90 23:33 24.06.2019
5888 Clear 21 1021 49 10000 2.1 90 22:56 24.06.2019
5889 Clear 22 1021 49 10000 2.1 90 22:37 24.06.2019
5890 Clear 23 1021 43 10000 2.1 90 22:18 24.06.2019
5891 Clear 26 1021 38 10000 2.1 90 21:38 24.06.2019
5892 Clear 26 1021 36 10000 2.1 100 21:18 24.06.2019
5893 Clear 26 1021 32 10000 3.6 110 20:54 24.06.2019
5894 Clear 27 1021 28 10000 4.1 130 20:36 24.06.2019
5895 Clear 28 1021 28 10000 4.1 130 20:18 24.06.2019
5896 Clear 29 1021 32 10000 4.1 120 19:41 24.06.2019
5897 Clear 29 1021 28 10000 5.1 130 19:21 24.06.2019
5898 Clear 29 1021 28 10000 5.1 110 18:43 24.06.2019
5899 Clear 29 1021 28 10000 6.2 110 18:24 24.06.2019
5900 Clear 29 1022 28 10000 5.7 110 17:42 24.06.2019
5901 Clear 29 1022 28 10000 6.2 100 17:24 24.06.2019
5902 Clear 29 1022 30 10000 5.1 120 16:45 24.06.2019
5903 Clear 29 1022 30 10000 6.2 110 16:20 24.06.2019
5904 Clear 29 1022 28 10000 5.7 110 15:47 24.06.2019
5905 Clear 29 1022 30 10000 6.2 120 15:29 24.06.2019
5906 Clear 29 1022 30 10000 6.2 120 14:43 24.06.2019
5907 Clear 28 1022 34 10000 5.7 120 14:24 24.06.2019
5908 Clear 28 1023 32 10000 6.7 120 13:46 24.06.2019
5909 Clear 28 1023 34 10000 6.7 110 13:24 24.06.2019
5910 Clear 27 1023 34 10000 4.6 120 12:43 24.06.2019
5911 Clear 27 1023 30 10000 5.7 140 12:21 24.06.2019
5912 Clear 26 1023 39 10000 4.6 120 11:46 24.06.2019
5913 Clear 26 1023 50 10000 3.6 100 11:28 24.06.2019
5914 Clear 25 1023 57 10000 3.6 100 10:58 24.06.2019
5915 Clear 25 1023 57 10000 3.6 100 10:39 24.06.2019
5916 Clear 24 1023 56 10000 3.1 100 10:20 24.06.2019
5917 Clear 23 1023 64 10000 4.1 100 09:44 24.06.2019
5918 Clear 21 1023 68 10000 4.1 90 09:19 24.06.2019
5919 Clear 21 1023 72 10000 4.6 100 08:50 24.06.2019
5920 Clear 19 1023 77 10000 3.6 90 08:20 24.06.2019
5921 Clear 18 1024 77 10000 2.1 80 07:42 24.06.2019
5922 Clear 17 1023 82 10000 3.1 90 07:23 24.06.2019
5923 Clear 16 1023 77 10000 3.6 90 06:25 24.06.2019
5924 Clouds 15 1023 72 10000 3.1 60 05:52 24.06.2019
5925 Clouds 16 1023 67 10000 2.6 70 04:59 24.06.2019
5926 Clouds 17 1023 63 10000 3.6 80 03:57 24.06.2019
5927 Clouds 18 1023 59 10000 3.6 80 02:52 24.06.2019
5928 Clouds 18 1022 56 10000 4.1 80 01:58 24.06.2019
5929 Clear 18 1022 63 10000 3.6 90 01:40 24.06.2019
5930 Clear 18 1022 59 10000 4.1 90 01:21 24.06.2019
5931 Clear 19 1022 59 10000 3.6 90 00:38 24.06.2019
5932 Clear 20 1022 59 10000 3.6 90 00:18 24.06.2019
5933 Clear 21 1022 56 10000 3.1 80 23:42 23.06.2019
5934 Clear 21 1021 60 10000 2.6 80 23:21 23.06.2019
5935 Clear 21 1021 56 10000 2.6 80 22:42 23.06.2019
5936 Clear 21 1021 53 10000 3.6 80 22:20 23.06.2019
5937 Clear 23 1020 46 10000 3.6 90 21:44 23.06.2019
5938 Clear 24 1021 41 10000 2.6 70 21:25 23.06.2019
5939 Clear 25 1021 41 10000 2.6 70 20:58 23.06.2019
5940 Clear 25 1021 41 10000 2.6 70 20:38 23.06.2019
5941 Clear 26 1021 36 10000 2.1 60 20:20 23.06.2019
5942 Clear 27 1020 34 10000 3.1 90 19:43 23.06.2019
5943 Clear 27 1020 30 10000 3.6 80 19:20 23.06.2019
5944 Clear 27 1020 28 10000 4.1 100 18:48 23.06.2019
5945 Clear 28 1020 28 10000 4.1 100 18:20 23.06.2019
5946 Clear 28 1021 30 10000 3.6 130 17:46 23.06.2019
5947 Clear 27 1021 28 10000 4.6 110 17:25 23.06.2019
5948 Clear 27 1021 31 10000 5.1 100 16:55 23.06.2019
5949 Clear 27 1021 31 10000 5.1 100 16:36 23.06.2019
5950 Clear 27 1021 30 10000 4.6 80 16:18 23.06.2019
5951 Clear 27 1021 36 10000 6.2 110 15:40 23.06.2019
5952 Clear 27 1021 32 10000 5.7 110 15:19 23.06.2019
5953 Clear 27 1022 34 10000 5.1 130 14:40 23.06.2019
5954 Clear 27 1022 36 10000 4.6 130 14:22 23.06.2019
5955 Clouds 26 1022 36 10000 4.6 130 13:56 23.06.2019
5956 Clear 26 1022 41 10000 5.1 110 13:36 23.06.2019
5957 Clear 26 1022 41 10000 5.1 110 13:18 23.06.2019
5958 Clouds 25 1022 47 10000 4.1 100 12:42 23.06.2019
5959 Clear 24 1022 49 10000 4.1 100 12:21 23.06.2019
5960 Clear 24 1022 49 10000 4.1 100 11:52 23.06.2019
5961 Clear 23 1022 52 10000 4.1 90 11:29 23.06.2019
5962 Clear 22 1022 56 10000 4.1 90 10:54 23.06.2019
5963 Clear 21 1022 55 10000 4.1 100 10:22 23.06.2019
5964 Clear 21 1022 59 10000 3.6 90 09:59 23.06.2019
5965 Clear 20 1022 59 10000 3.6 90 09:39 23.06.2019
5966 Clear 19 1022 59 10000 4.1 90 09:19 23.06.2019
5967 Clear 18 1022 63 10000 5.1 100 08:42 23.06.2019
5968 Clear 18 1022 63 10000 5.1 100 08:24 23.06.2019
5969 Clouds 17 1022 63 10000 5.1 60 07:52 23.06.2019
5970 Clear 16 1022 77 10000 4.1 90 07:20 23.06.2019
5971 Clear 16 1022 77 10000 4.1 90 06:54 23.06.2019
5972 Clear 14 1021 82 10000 3.1 80 05:54 23.06.2019
5973 Clear 15 1021 82 10000 2.6 90 03:41 23.06.2019
5974 Clouds 17 1021 63 10000 4.1 40 01:54 23.06.2019
5975 Clear 17 1021 77 10000 3.6 60 01:35 23.06.2019
5976 Clear 18 1021 67 10000 4.6 60 00:36 23.06.2019
5977 Clouds 18 1021 59 10000 5.1 30 23:55 22.06.2019
5978 Clear 19 1021 63 10000 3.6 50 23:37 22.06.2019
5979 Clear 19 1021 68 10000 3.1 50 23:18 22.06.2019
5980 Clear 19 1020 59 10000 4.1 50 22:38 22.06.2019
5981 Clear 20 1020 56 10000 4.1 60 22:19 22.06.2019
5982 Clear 21 1020 56 10000 3.6 60 21:38 22.06.2019
5983 Clear 22 1020 49 10000 2.1 50 21:19 22.06.2019
5984 Clear 22 1020 49 10000 2.1 50 20:50 22.06.2019
5985 Clear 23 1020 46 10000 3.1 50 20:25 22.06.2019
5986 Clear 23 1020 44 10000 2.6 60 19:50 22.06.2019
5987 Clear 23 1020 44 10000 3.1 50 19:28 22.06.2019
5988 Clear 23 1020 44 10000 3.6 60 18:55 22.06.2019
5989 Clear 24 1020 44 10000 4.1 70 18:33 22.06.2019
5990 Clear 24 1020 44 10000 3.1 50 17:57 22.06.2019
5991 Clear 24 1020 44 10000 3.1 50 17:38 22.06.2019
5992 Clear 24 1021 46 10000 4.1 90 17:18 22.06.2019
5993 Clouds 24 1021 44 10000 4.1 90 16:39 22.06.2019
5994 Clouds 24 1021 44 10000 3.6 80 16:20 22.06.2019
5995 Clouds 24 1021 44 10000 3.6 60 15:40 22.06.2019
5996 Clouds 23 1021 46 10000 3.1 0 15:22 22.06.2019
5997 Clouds 23 1022 46 10000 3.6 80 14:41 22.06.2019
5998 Clouds 23 1022 46 10000 3.1 0 14:20 22.06.2019
5999 Clouds 23 1022 46 10000 3.6 90 13:43 22.06.2019
6000 Clear 23 1023 52 10000 3.6 60 13:25 22.06.2019
6001 Clouds 22 1023 49 10000 4.1 80 12:54 22.06.2019
6002 Clouds 22 1023 49 10000 4.1 80 12:35 22.06.2019
6003 Clouds 21 1023 56 10000 3.1 90 11:59 22.06.2019
6004 Clouds 21 1023 60 10000 3.6 90 11:36 22.06.2019
6005 Clouds 20 1023 59 10000 3.6 80 10:54 22.06.2019
6006 Clear 19 1023 63 10000 4.1 90 10:22 22.06.2019
6007 Clear 18 1023 63 10000 4.1 90 09:56 22.06.2019
6008 Clear 17 1023 67 10000 3.6 80 09:28 22.06.2019
6009 Clear 16 1023 67 10000 4.6 60 08:45 22.06.2019
6010 Clear 16 1023 77 10000 3.6 70 08:26 22.06.2019
6011 Clear 14 1023 82 10000 2.1 80 07:44 22.06.2019
6012 Clear 13 1023 82 10000 0.5 0 07:18 22.06.2019
6013 Fog 12 1023 93 10000 0.5 0 06:35 22.06.2019
6014 Clear 12 1023 100 10000 0.5 330 03:42 22.06.2019
6015 Clear 12 1022 93 10000 0.5 0 02:21 22.06.2019
6016 Clouds 14 1022 76 10000 1 340 00:52 22.06.2019
6017 Clear 14 1022 76 10000 1.5 0 00:29 22.06.2019
6018 Clouds 15 1021 72 10000 2.1 340 23:49 21.06.2019
6019 Clear 16 1021 77 10000 1.5 360 23:23 21.06.2019
6020 Clouds 16 1021 63 10000 1.5 330 22:57 21.06.2019
6021 Clear 16 1019 67 10000 0.5 0 22:34 21.06.2019
6022 Clear 18 1019 55 10000 1.5 0 21:58 21.06.2019
6023 Clear 18 1019 55 10000 1.5 0 21:39 21.06.2019
6024 Clear 19 1019 43 10000 2.6 290 21:20 21.06.2019
6025 Clear 20 1018 40 10000 3.1 300 20:48 21.06.2019
6026 Clear 21 1018 37 10000 3.6 290 20:26 21.06.2019
6027 Clear 21 1018 40 10000 4.1 290 19:48 21.06.2019
6028 Clear 22 1018 43 10000 3.6 0 19:22 21.06.2019
6029 Clear 22 1018 43 10000 3.6 300 18:41 21.06.2019
6030 Clear 23 1018 40 10000 4.1 290 18:23 21.06.2019
6031 Clear 22 1018 46 10000 4.1 310 17:31 21.06.2019
6032 Clear 22 1018 43 10000 5.7 270 16:59 21.06.2019
6033 Clear 22 1018 43 10000 5.7 270 16:37 21.06.2019
6034 Clear 22 1018 49 10000 4.6 280 16:18 21.06.2019
6035 Clear 22 1018 46 10000 3.6 300 15:37 21.06.2019
6036 Clouds 22 1018 49 10000 3.6 290 14:57 21.06.2019
6037 Clouds 22 1018 49 10000 3.6 290 14:39 21.06.2019
6038 Clouds 21 1018 56 10000 3.1 300 14:20 21.06.2019
6039 Clouds 21 1018 52 10000 3.6 260 13:40 21.06.2019
6040 Clouds 21 1018 56 10000 4.6 290 13:22 21.06.2019
6041 Clouds 21 1018 52 10000 3.6 250 12:51 21.06.2019
6042 Clouds 20 1018 63 10000 2.6 290 12:23 21.06.2019
6043 Clouds 20 1018 56 10000 3.1 310 11:56 21.06.2019
6044 Clouds 20 1018 56 10000 3.1 310 11:37 21.06.2019
6045 Clouds 20 1018 60 10000 2.6 0 11:19 21.06.2019
6046 Clear 20 1018 68 10000 2.6 310 10:44 21.06.2019
6047 Clouds 20 1018 68 10000 2.6 330 10:21 21.06.2019
6048 Clouds 18 1017 77 10000 2.6 310 09:43 21.06.2019
6049 Clouds 17 1017 77 10000 2.1 320 09:25 21.06.2019
6050 Clouds 17 1017 82 10000 3.1 300 08:58 21.06.2019
6051 Clouds 17 1017 82 10000 3.1 300 08:40 21.06.2019
6052 Clouds 16 1017 93 10000 2.6 290 08:19 21.06.2019
6053 Clear 16 1016 87 10000 3.1 280 07:45 21.06.2019
6054 Clear 16 1016 87 10000 3.1 280 07:45 21.06.2019
6055 Clouds 15 1016 93 8000 1.5 0 07:22 21.06.2019
6056 Clear 15 1016 82 10000 1 0 06:29 21.06.2019
6057 Clouds 15 1016 87 10000 1 0 05:55 21.06.2019
6058 Clouds 15 1015 93 9000 2.1 280 04:53 21.06.2019
6059 Clouds 15 1015 87 10000 2.1 260 03:49 21.06.2019
6060 Clouds 16 1015 93 10000 1.5 280 03:30 21.06.2019
6061 Clouds 16 1015 93 10000 1.5 230 02:42 21.06.2019
6062 Clouds 17 1014 82 10000 2.6 290 01:33 21.06.2019
6063 Clouds 17 1014 77 10000 2.6 280 00:48 21.06.2019
6064 Rain 18 1013 77 10000 2.6 240 23:59 20.06.2019
6065 Rain 18 1014 72 10000 4.6 290 23:41 20.06.2019
6066 Thunderstorm 18 1013 68 10000 4.1 280 23:21 20.06.2019
6067 Thunderstorm 18 1012 68 10000 1 0 22:46 20.06.2019
6068 Thunderstorm 18 1012 68 10000 1 0 22:26 20.06.2019
6069 Thunderstorm 19 1012 64 10000 1.5 0 21:57 20.06.2019
6070 Thunderstorm 19 1012 64 10000 1.5 0 21:57 20.06.2019
6071 Clouds 20 1012 64 10000 1.5 0 21:38 20.06.2019
6072 Rain 20 1011 60 10000 2.6 320 21:19 20.06.2019
6073 Rain 21 1011 53 10000 2.1 290 20:46 20.06.2019
6074 Rain 22 1011 53 10000 3.1 290 20:25 20.06.2019
6075 Clear 22 1011 50 10000 3.1 300 19:55 20.06.2019
6076 Clear 22 1011 50 10000 3.1 300 19:36 20.06.2019
6077 Clouds 23 1010 47 10000 3.6 310 19:18 20.06.2019
6078 Clouds 23 1011 50 10000 4.1 260 18:42 20.06.2019
6079 Clouds 24 1010 53 10000 3.1 300 18:23 20.06.2019
6080 Clouds 24 1011 53 10000 4.6 280 17:51 20.06.2019
6081 Clouds 24 1011 53 10000 4.6 280 17:51 20.06.2019
6082 Clouds 25 1011 50 10000 3.6 280 17:32 20.06.2019
6083 Clouds 25 1011 50 10000 5.1 260 16:49 20.06.2019
6084 Clouds 24 1011 56 10000 4.6 270 16:21 20.06.2019
6085 Clouds 24 1011 56 10000 5.1 280 15:59 20.06.2019
6086 Clouds 24 1011 56 10000 5.1 280 15:41 20.06.2019
6087 Clouds 24 1011 53 10000 5.7 270 15:22 20.06.2019
6088 Clouds 23 1011 57 10000 4.6 280 14:46 20.06.2019
6089 Clouds 23 1011 56 10000 4.6 270 14:23 20.06.2019
6090 Clouds 23 1011 56 10000 5.7 250 13:41 20.06.2019
6091 Clouds 23 1011 60 10000 6.2 260 13:21 20.06.2019
6092 Clouds 23 1011 60 10000 5.1 270 12:50 20.06.2019
6093 Clouds 22 1011 64 10000 4.1 280 12:25 20.06.2019
6094 Clouds 22 1010 64 10000 5.7 260 11:56 20.06.2019
6095 Clouds 21 1010 64 10000 5.7 260 11:38 20.06.2019
6096 Clouds 21 1010 72 10000 5.1 270 11:20 20.06.2019
6097 Clouds 20 1010 73 10000 5.7 270 10:41 20.06.2019
6098 Clouds 20 1010 72 10000 5.7 260 10:22 20.06.2019
6099 Clear 19 1010 77 10000 4.6 230 09:40 20.06.2019
6100 Clear 19 1010 77 10000 3.6 220 09:22 20.06.2019
6101 Clear 18 1010 77 10000 3.6 240 08:47 20.06.2019
6102 Clear 18 1009 82 10000 3.1 250 08:27 20.06.2019
6103 Clear 17 1009 88 10000 2.6 220 07:55 20.06.2019
6104 Clear 17 1009 88 10000 3.6 220 07:31 20.06.2019
6105 Clear 16 1009 93 10000 2.6 240 06:46 20.06.2019
6106 Fog 16 1009 93 10000 2.1 240 06:18 20.06.2019
6107 Clear 16 1008 88 10000 1.5 160 03:37 20.06.2019
6108 Thunderstorm 17 1009 93 10000 2.1 150 00:44 20.06.2019
6109 Thunderstorm 18 1009 88 8000 5.1 280 00:25 20.06.2019
6110 Clouds 18 1009 68 10000 7.7 260 23:42 19.06.2019
6111 Thunderstorm 19 1007 60 10000 2.1 170 23:24 19.06.2019
6112 Thunderstorm 18 1007 60 10000 2.6 110 22:48 19.06.2019
6113 Thunderstorm 18 1008 68 10000 4.1 170 22:24 19.06.2019
6114 Thunderstorm 18 1007 72 10000 4.6 150 21:57 19.06.2019
6115 Thunderstorm 19 1007 72 10000 4.6 150 21:37 19.06.2019
6116 Thunderstorm 20 1007 77 10000 3.6 150 21:18 19.06.2019
6117 Thunderstorm 20 1007 64 10000 4.6 150 20:40 19.06.2019
6118 Thunderstorm 21 1007 47 10000 3.6 200 20:21 19.06.2019
6119 Rain 22 1007 53 10000 2.6 190 19:45 19.06.2019
6120 Thunderstorm 22 1008 64 10000 3.1 280 19:26 19.06.2019
6121 Thunderstorm 23 1007 41 10000 6.2 280 18:56 19.06.2019
6122 Thunderstorm 26 1007 37 10000 4.6 280 18:24 19.06.2019
6123 Thunderstorm 27 1007 35 10000 4.1 260 17:44 19.06.2019
6124 Thunderstorm 29 1007 29 10000 4.6 260 17:25 19.06.2019
6125 Thunderstorm 30 1007 27 10000 4.1 210 16:56 19.06.2019
6126 Clear 30 1007 27 10000 4.1 210 16:36 19.06.2019
6127 Clear 31 1007 29 10000 3.6 200 16:18 19.06.2019
6128 Clear 31 1007 31 10000 4.1 140 15:42 19.06.2019
6129 Clear 31 1007 33 10000 4.6 160 15:22 19.06.2019
6130 Clear 31 1008 33 10000 3.1 150 14:43 19.06.2019
6131 Clear 31 1008 27 10000 4.6 230 14:25 19.06.2019
6132 Clear 31 1008 29 10000 3.1 230 13:48 19.06.2019
6133 Clear 31 1008 33 10000 3.6 240 13:29 19.06.2019
6134 Clear 31 1008 30 10000 4.1 240 12:59 19.06.2019
6135 Clear 30 1008 30 10000 4.1 240 12:41 19.06.2019
6136 Clear 29 1008 33 10000 3.1 180 12:19 19.06.2019
6137 Clear 29 1009 35 10000 2.6 210 11:43 19.06.2019
6138 Clear 29 1009 35 10000 2.6 210 11:43 19.06.2019
6139 Clear 29 1009 39 10000 2.6 140 11:23 19.06.2019
6140 Clear 28 1009 45 10000 2.1 130 10:51 19.06.2019
6141 Clear 28 1009 54 10000 2.1 140 10:30 19.06.2019
6142 Clear 27 1009 57 10000 2.6 150 09:58 19.06.2019
6143 Clear 27 1009 57 10000 2.6 150 09:58 19.06.2019
6144 Clear 25 1009 57 10000 2.6 150 09:38 19.06.2019
6145 Clear 24 1009 57 10000 2.6 150 09:19 19.06.2019
6146 Clear 23 1010 60 10000 1.5 0 08:48 19.06.2019
6147 Clear 22 1010 68 10000 1.5 0 08:27 19.06.2019
6148 Clear 21 1010 68 10000 1.5 0 07:46 19.06.2019
6149 Clear 20 1010 77 10000 2.1 90 07:23 19.06.2019
6150 Clouds 19 1010 72 10000 1.5 60 06:49 19.06.2019
6151 Clear 18 1009 77 10000 2.1 120 06:24 19.06.2019
6152 Clouds 17 1010 77 10000 1.5 60 05:48 19.06.2019
6153 Clear 18 1010 82 10000 1.5 110 04:19 19.06.2019
6154 Clear 18 1010 77 10000 1.5 90 03:27 19.06.2019
6155 Clouds 19 1011 64 10000 0.5 70 01:53 19.06.2019
6156 Clear 20 1011 68 10000 1.5 110 01:18 19.06.2019
6157 Clear 20 1011 68 10000 1.5 110 00:43 19.06.2019
6158 Clear 20 1011 68 10000 1.5 110 00:43 19.06.2019
6159 Clear 20 1012 64 10000 2.1 100 00:20 19.06.2019
6160 Clouds 21 1012 64 10000 2.75 153.826 23:52 18.06.2019
6161 Clear 21 1012 64 10000 2.1 100 23:28 18.06.2019
6162 Clouds 22 1012 57 10000 2.75 153.826 22:49 18.06.2019
6163 Clear 23 1012 64 10000 1.5 90 22:25 18.06.2019
6164 Clear 24 1012 53 10000 1.5 80 21:57 18.06.2019
6165 Clear 25 1012 53 10000 1.5 80 21:39 18.06.2019
6166 Clear 25 1012 50 10000 1 0 21:20 18.06.2019
6167 Clear 26 1012 44 10000 2.6 140 20:44 18.06.2019
6168 Clear 27 1012 39 10000 2.6 130 20:25 18.06.2019
6169 Clear 27 1012 37 10000 3.6 130 19:47 18.06.2019
6170 Clear 28 1012 32 10000 3.1 160 19:25 18.06.2019
6171 Clear 29 1013 35 10000 3.6 130 18:59 18.06.2019
6172 Clear 29 1013 35 10000 3.6 130 18:39 18.06.2019
6173 Clear 29 1013 32 10000 3.6 160 18:21 18.06.2019
6174 Clear 29 1013 30 10000 3.1 140 17:39 18.06.2019
6175 Clear 29 1013 32 10000 4.1 170 17:20 18.06.2019
6176 Clear 29 1014 32 10000 4.6 130 16:47 18.06.2019
6177 Clear 29 1014 32 10000 5.1 110 16:27 18.06.2019
6178 Clear 29 1014 32 10000 4.6 140 15:55 18.06.2019
6179 Clear 29 1014 32 10000 4.6 140 15:55 18.06.2019
6180 Clear 28 1014 32 10000 4.6 130 15:36 18.06.2019
6181 Clear 28 1014 32 10000 4.6 130 15:18 18.06.2019
6182 Clear 28 1015 35 10000 4.6 150 14:42 18.06.2019
6183 Clear 28 1014 39 10000 4.6 170 14:22 18.06.2019
6184 Clear 28 1015 34 10000 5.1 130 13:56 18.06.2019
6185 Clear 28 1015 34 10000 5.1 130 13:38 18.06.2019
6186 Clear 28 1015 37 10000 5.1 140 13:19 18.06.2019
6187 Clear 28 1016 39 10000 5.1 150 12:42 18.06.2019
6188 Clear 26 1016 39 10000 5.7 140 12:24 18.06.2019
6189 Clear 26 1016 42 10000 4.1 130 11:43 18.06.2019
6190 Clear 26 1016 47 10000 3.6 150 11:21 18.06.2019
6191 Clear 25 1016 50 10000 3.1 170 10:57 18.06.2019
6192 Clear 25 1016 50 10000 3.1 170 10:37 18.06.2019
6193 Clear 24 1016 50 10000 3.1 170 10:18 18.06.2019
6194 Clear 23 1017 53 10000 3.1 130 09:48 18.06.2019
6195 Clear 22 1017 60 10000 2.6 130 09:24 18.06.2019
6196 Clear 21 1017 68 10000 2.1 110 08:43 18.06.2019
6197 Clear 20 1017 72 10000 2.1 100 08:21 18.06.2019
6198 Clear 18 1017 77 10000 2.1 110 07:41 18.06.2019
6199 Clear 18 1017 77 10000 2.1 110 07:21 18.06.2019
6200 Clear 16 1016 82 10000 2.6 90 06:44 18.06.2019
6201 Clear 15 1017 87 10000 1.5 70 05:21 18.06.2019
6202 Clouds 15 1017 77 10000 0.5 90 03:58 18.06.2019
6203 Clouds 16 1018 72 10000 1.5 80 01:59 18.06.2019
6204 Clear 17 1018 72 10000 2.1 90 01:25 18.06.2019
6205 Clouds 17 1018 72 10000 1 80 00:56 18.06.2019
6206 Clear 17 1018 68 10000 1.5 80 00:30 18.06.2019
6207 Clear 17 1018 68 10000 1.5 80 00:30 18.06.2019
6208 Clear 18 1018 68 10000 1.5 80 23:42 17.06.2019
6209 Clear 19 1018 64 10000 2.1 80 23:22 17.06.2019
6210 Clouds 19 1018 60 10000 0.5 90 22:58 17.06.2019
6211 Clear 20 1018 60 10000 2.49 121.867 22:38 17.06.2019
6212 Clear 20 1018 60 10000 2.49 121.867 22:20 17.06.2019
6213 Clear 23 1018 60 10000 2.49 121.867 21:42 17.06.2019
6214 Clear 23 1018 53 10000 1.5 0 21:23 17.06.2019
6215 Clear 23 1018 53 10000 1.5 0 21:23 17.06.2019
6216 Clear 25 1019 47 10000 1.5 80 20:40 17.06.2019
6217 Clear 25 1019 44 10000 1.5 0 20:21 17.06.2019
6218 -273 0 0 0 0 0 19:57 17.06.2019
6219 Clear 25 1019 41 10000 2.6 110 19:39 17.06.2019
6220 Clear 25 1019 41 10000 3.1 110 19:20 17.06.2019
6221 Clear 26 1020 41 10000 3.6 140 18:39 17.06.2019
6222 Clear 25 1019 41 10000 2.6 150 18:39 17.06.2019
6223 Clear 26 1020 41 10000 3.6 140 18:18 17.06.2019
6224 Clear 26 1020 41 10000 3.6 140 18:18 17.06.2019
6225 Clear 26 1020 44 10000 4.1 120 17:48 17.06.2019
6226 Clear 25 1020 44 10000 4.1 120 17:30 17.06.2019
6227 Clear 26 1020 47 10000 2.6 160 17:00 17.06.2019
6228 Clouds 26 1020 44 10000 2.6 0 16:41 17.06.2019
6229 Clouds 26 1020 44 10000 2.6 0 16:23 17.06.2019
6230 Clouds 26 1021 41 10000 3.6 150 15:44 17.06.2019
6231 Clouds 25 1021 41 10000 3.6 150 15:20 17.06.2019
6232 Clouds 25 1021 50 10000 3.1 110 14:58 17.06.2019
6233 Clouds 25 1021 50 10000 3.1 160 14:40 17.06.2019
6234 Clouds 25 1021 47 10000 3.1 130 14:21 17.06.2019
6235 Clouds 25 1021 47 10000 3.1 100 13:44 17.06.2019
6236 Clouds 25 1021 47 10000 3.1 100 13:21 17.06.2019
6237 Clouds 24 1022 49 10000 3.1 110 12:47 17.06.2019
6238 Clouds 23 1022 49 10000 3.1 110 12:24 17.06.2019
6239 Clouds 23 1022 60 10000 3.1 90 11:45 17.06.2019
6240 Clouds 23 1022 60 10000 3.1 90 11:26 17.06.2019
6241 Clouds 23 1022 73 10000 2.6 90 10:57 17.06.2019
6242 Clear 22 1022 68 10000 2.6 90 10:39 17.06.2019
6243 Clear 22 1022 68 10000 2.6 90 10:21 17.06.2019
6244 Clear 20 1022 77 10000 0.5 0 09:39 17.06.2019
6245 Clear 19 1022 93 10000 1 0 09:20 17.06.2019
6246 Clear 18 1022 93 10000 1 0 08:41 17.06.2019
6247 Mist 18 1022 93 10000 1 0 08:23 17.06.2019
6248 Clear 16 1022 100 10000 0.5 0 07:42 17.06.2019
6249 Fog 15 1022 100 10000 0.5 0 07:23 17.06.2019
6250 Fog 13 1022 100 600 0.5 150 06:35 17.06.2019
6251 Fog 13 1022 100 1500 0.5 0 05:45 17.06.2019
6252 Fog 13 1022 93 700 1.17 268.13 04:41 17.06.2019
6253 Fog 14 1022 93 4000 1 150 03:47 17.06.2019
6254 Fog 14 1022 93 9000 0.5 80 02:59 17.06.2019
6255 Fog 14 1022 93 9000 0.5 0 02:41 17.06.2019
6256 Fog 14 1021 93 10000 0.5 0 01:55 17.06.2019
6257 Fog 14 1022 93 10000 1.5 310 01:33 17.06.2019
6258 Clear 15 1021 87 10000 0.5 0 00:44 17.06.2019
6259 Clear 15 1021 87 10000 0.5 0 00:23 17.06.2019
6260 Rain 15 1021 87 10000 1.5 20 23:43 16.06.2019
6261 Rain 15 1021 87 10000 1.5 20 23:23 16.06.2019
6262 Rain 16 1021 88 10000 1 200 22:57 16.06.2019
6263 Rain 16 1020 72 10000 1 0 22:39 16.06.2019
6264 Clouds 17 1020 82 10000 2.1 150 22:19 16.06.2019
6265 Clouds 17 1020 82 10000 2.1 150 22:19 16.06.2019
6266 Clouds 17 1020 82 10000 2.1 150 21:56 16.06.2019
6267 Clear 18 1021 88 10000 2.1 180 21:38 16.06.2019
6268 Clear 18 1021 88 10000 2.6 180 21:19 16.06.2019
6269 Clear 19 1021 88 10000 2.1 160 20:37 16.06.2019
6270 Clear 19 1020 77 10000 3.1 130 20:19 16.06.2019
6271 Clear 19 1020 77 10000 3.1 130 19:55 16.06.2019
6272 Rain 19 1020 88 10000 3.6 130 19:37 16.06.2019
6273 Rain 19 1020 88 10000 3.6 130 19:37 16.06.2019
6274 Rain 19 1020 82 10000 3.1 140 19:19 16.06.2019
6275 Clouds 19 1021 77 10000 4.1 150 18:41 16.06.2019
6276 Clouds 19 1020 64 10000 2.1 310 18:21 16.06.2019
6277 Clouds 20 1021 56 10000 2.6 240 17:49 16.06.2019
6278 Clouds 20 1021 56 10000 2.6 240 17:25 16.06.2019
6279 Clouds 20 1021 56 10000 3.1 240 16:58 16.06.2019
6280 Clouds 20 1021 60 10000 3.6 240 16:40 16.06.2019
6281 Clouds 20 1021 60 10000 3.6 240 16:21 16.06.2019
6282 Rain 20 1020 52 10000 3.6 220 15:57 16.06.2019
6283 Clouds 20 1020 56 10000 3.1 220 15:38 16.06.2019
6284 Clouds 20 1020 56 10000 3.1 220 15:19 16.06.2019
6285 Clouds 21 1020 56 10000 2.6 220 14:37 16.06.2019
6286 Clouds 21 1020 56 10000 2.6 220 14:19 16.06.2019
6287 Clouds 21 1020 72 10000 3.1 140 13:46 16.06.2019
6288 Clouds 21 1020 72 10000 3.1 140 13:25 16.06.2019
6289 Clouds 20 1020 64 10000 2.1 170 12:45 16.06.2019
6290 Clouds 20 1020 64 10000 2.1 170 12:23 16.06.2019
6291 Clear 20 1020 64 10000 1.5 0 11:59 16.06.2019
6292 Clear 20 1020 68 10000 2.1 160 11:38 16.06.2019
6293 Clear 20 1020 77 10000 2.1 130 11:19 16.06.2019
6294 Clear 19 1020 77 10000 1.5 0 10:45 16.06.2019
6295 Clear 19 1020 87 10000 1 0 10:20 16.06.2019
6296 Clear 18 1019 87 10000 2.1 90 09:43 16.06.2019
6297 Clear 17 1019 87 10000 2.1 90 09:25 16.06.2019
6298 Clear 16 1018 82 10000 1 0 08:50 16.06.2019
6299 Clouds 15 1018 93 10000 1.5 280 08:22 16.06.2019
6300 Clear 15 1018 100 10000 0.5 0 07:49 16.06.2019
6301 Clear 15 1018 100 10000 0.5 0 07:49 16.06.2019
6302 Clear 15 1018 100 10000 0.5 0 07:49 16.06.2019
6303 Clear 14 1018 100 10000 0.5 0 07:31 16.06.2019
6304 Fog 13 1018 93 10000 0.5 0 06:55 16.06.2019
6305 Fog 13 1018 93 10000 0.5 0 06:20 16.06.2019
6306 Fog 12 1018 100 10000 1 40 05:26 16.06.2019
6307 Fog 12 1018 100 10000 0.5 290 04:33 16.06.2019
6308 Fog 13 1018 100 10000 1 0 03:45 16.06.2019
6309 Fog 13 1018 100 10000 1 0 03:26 16.06.2019
6310 Clouds 14 1017 93 10000 1 250 01:55 16.06.2019
6311 Clear 14 1017 93 10000 0.5 0 01:37 16.06.2019
6312 Clouds 14 1016 87 10000 1 330 01:18 16.06.2019
6313 Clear 15 1016 93 10000 0.5 0 00:39 16.06.2019
6314 Clouds 16 1016 82 10000 1 290 00:19 16.06.2019
6315 Clear 16 1015 77 10000 1 290 23:40 15.06.2019
6316 Clear 16 1015 77 10000 1 290 23:21 15.06.2019
6317 Clear 17 1015 68 10000 3.1 280 22:49 15.06.2019
6318 Clear 18 1015 68 10000 3.1 280 22:26 15.06.2019
6319 Clear 19 1014 56 10000 5.7 280 21:45 15.06.2019
6320 Clear 20 1014 56 10000 5.7 280 21:27 15.06.2019
6321 Clear 21 1014 56 10000 5.7 280 20:56 15.06.2019
6322 Clouds 21 1014 56 10000 6.2 290 20:36 15.06.2019
6323 Clouds 21 1014 60 10000 6.2 260 20:18 15.06.2019
6324 Clouds 22 1013 64 10000 7.2 270 19:40 15.06.2019
6325 Clouds 22 1013 64 10000 7.2 270 19:22 15.06.2019
6326 Clear 22 1012 56 10000 7.7 280 18:39 15.06.2019
6327 Clear 23 1012 56 10000 7.7 280 18:20 15.06.2019
6328 Clouds 23 1012 57 10000 6.2 280 17:43 15.06.2019
6329 Clouds 23 1012 57 10000 6.2 280 17:22 15.06.2019
6330 Clouds 23 1012 64 10000 4.6 300 16:48 15.06.2019
6331 Clouds 23 1012 64 10000 4.6 300 16:20 15.06.2019
6332 Clouds 23 1011 64 10000 7.7 270 15:44 15.06.2019
6333 Clouds 23 1011 64 10000 7.7 270 15:23 15.06.2019
6334 Clouds 24 1011 64 10000 7.7 260 14:43 15.06.2019
6335 Clouds 24 1010 57 10000 9.3 260 14:19 15.06.2019
6336 Clouds 24 1010 57 10000 9.3 260 13:57 15.06.2019
6337 Clouds 24 1009 57 10000 7.7 250 13:39 15.06.2019
6338 Clouds 25 1008 54 10000 6.7 250 13:18 15.06.2019
6339 Clear 25 1008 54 10000 6.2 240 12:47 15.06.2019
6340 Clear 25 1008 54 10000 6.2 240 12:25 15.06.2019
6341 Clouds 24 1008 61 10000 5.1 220 11:51 15.06.2019
6342 Clear 24 1007 69 10000 4.1 160 11:32 15.06.2019
6343 Clear 24 1007 78 10000 3.1 90 10:47 15.06.2019
6344 Clear 24 1007 78 10000 3.1 90 10:26 15.06.2019
6345 Clouds 22 1007 77 10000 2.6 60 09:58 15.06.2019
6346 Drizzle 21 1008 82 10000 1 0 09:39 15.06.2019
6347 Clouds 20 1007 88 10000 4.6 40 09:19 15.06.2019
6348 Clear 20 1007 93 10000 4.1 80 08:44 15.06.2019
6349 Clear 20 1007 93 10000 4.1 80 08:25 15.06.2019
6350 Thunderstorm 20 1009 88 10000 3.1 360 07:41 15.06.2019
6351 Thunderstorm 19 1008 88 10000 5.1 60 07:20 15.06.2019
6352 Thunderstorm 19 1008 88 10000 5.1 60 07:20 15.06.2019
6353 Thunderstorm 19 1008 93 8000 8.2 40 06:38 15.06.2019
6354 Thunderstorm 19 1010 72 10000 3.1 310 05:48 15.06.2019
6355 Thunderstorm 20 1009 64 10000 1 320 05:20 15.06.2019
6356 Thunderstorm 20 1009 77 10000 2.1 70 04:34 15.06.2019
6357 Clear 20 1011 72 10000 3.1 70 03:38 15.06.2019
6358 Clear 20 1012 77 10000 1 0 02:48 15.06.2019
6359 Clouds 20 1012 60 10000 4.23 114.4 01:59 15.06.2019
6360 Rain 20 1012 77 10000 1 0 01:40 15.06.2019
6361 Clear 21 1012 68 10000 1.5 60 00:47 15.06.2019
6362 Clear 22 1012 68 10000 1.5 60 00:28 15.06.2019
6363 Clouds 22 1013 56 10000 1 50 23:53 14.06.2019
6364 Clear 22 1013 68 10000 0.5 0 23:25 14.06.2019
6365 Clear 22 1013 73 10000 1.5 90 22:43 14.06.2019
6366 Clear 22 1013 73 10000 1.5 90 22:23 14.06.2019
6367 Clear 22 1013 73 10000 1.5 90 22:23 14.06.2019
6368 Clear 22 1013 73 10000 1.5 90 22:23 14.06.2019
6369 Clear 22 1013 73 10000 1.5 90 22:23 14.06.2019
6370 Clear 24 1014 60 10000 1 0 21:58 14.06.2019
6371 Clear 25 1014 53 10000 2.1 90 21:39 14.06.2019
6372 Clear 25 1014 53 10000 1.5 0 21:21 14.06.2019
6373 Clear 25 1014 53 10000 2.1 100 20:42 14.06.2019
6374 Clear 25 1014 47 10000 3.6 110 20:18 14.06.2019
6375 Clear 26 1014 47 10000 3.6 110 19:51 14.06.2019
6376 Clear 27 1014 41 10000 3.6 110 19:23 14.06.2019
6377 Clear 27 1014 41 10000 3.6 110 19:23 14.06.2019
6378 Clear 27 1014 39 10000 4.6 140 18:58 14.06.2019
6379 Clear 28 1014 39 10000 5.1 140 18:40 14.06.2019
6380 Clear 28 1014 39 10000 5.1 140 18:22 14.06.2019
6381 Thunderstorm 28 1014 37 10000 5.1 140 17:46 14.06.2019
6382 Thunderstorm 28 1014 37 10000 5.1 140 17:27 14.06.2019
6383 Thunderstorm 28 1015 34 10000 6.7 140 16:58 14.06.2019
6384 Thunderstorm 28 1015 30 10000 6.2 140 16:40 14.06.2019
6385 Thunderstorm 28 1015 30 10000 6.2 140 16:40 14.06.2019
6386 Clear 28 1015 28 10000 5.7 140 16:19 14.06.2019
6387 Clear 28 1015 32 10000 6.7 130 15:40 14.06.2019
6388 Clear 28 1015 32 10000 6.7 130 15:22 14.06.2019
6389 Clear 28 1016 37 10000 5.7 130 14:54 14.06.2019
6390 Clear 28 1016 42 10000 5.7 140 14:35 14.06.2019
6391 Clear 28 1016 42 10000 5.7 140 14:35 14.06.2019
6392 Clear 28 1016 44 10000 5.7 150 13:57 14.06.2019
6393 Clear 28 1016 44 10000 6.7 140 13:38 14.06.2019
6394 Clear 27 1016 47 10000 6.2 120 13:20 14.06.2019
6395 Clear 27 1016 47 10000 6.2 120 13:20 14.06.2019
6396 Clear 26 1017 50 10000 7.2 130 12:42 14.06.2019
6397 Clear 26 1017 50 10000 7.2 130 12:42 14.06.2019
6398 Clear 26 1017 50 10000 7.2 130 12:23 14.06.2019
6399 Clear 25 1017 50 10000 6.2 130 11:57 14.06.2019
6400 Clear 25 1017 44 10000 6.7 140 11:38 14.06.2019
6401 Clear 25 1017 43 10000 6.2 120 11:20 14.06.2019
6402 Clear 23 1017 46 10000 5.1 130 10:42 14.06.2019
6403 Clear 23 1017 53 10000 4.6 130 10:18 14.06.2019
6404 Clear 22 1017 60 10000 4.1 130 09:43 14.06.2019
6405 Clear 20 1017 60 10000 4.1 130 09:22 14.06.2019
6406 Clear 19 1016 87 10000 3.1 100 08:47 14.06.2019
6407 Clear 18 1016 87 10000 3.1 100 08:19 14.06.2019
6408 Clear 16 1017 93 10000 2.1 100 07:51 14.06.2019
6409 Clear 14 1016 100 10000 2.1 100 07:21 14.06.2019
6410 Fog 12 1016 81 10000 2.1 100 06:35 14.06.2019
6411 Fog 12 1016 93 10000 0.5 20 05:58 14.06.2019
6412 Clear 11 1016 81 10000 1 0 05:26 14.06.2019
6413 Clear 11 1015 81 10000 2.6 90 04:48 14.06.2019
6414 Clouds 12 1015 82 10000 1.5 60 03:56 14.06.2019
6415 Clear 12 1015 76 10000 1.5 0 03:26 14.06.2019
6416 -273 0 0 0 0 0 02:58 14.06.2019
6417 Clear 13 1015 71 10000 0.5 0 02:28 14.06.2019
6418 Clear 13 1015 71 10000 0.5 0 02:28 14.06.2019
6419 Clear 14 1015 59 10000 1 140 01:26 14.06.2019
6420 Clear 15 1015 59 10000 2.6 160 00:36 14.06.2019
6421 Clouds 15 1015 67 10000 3.81 167.732 00:18 14.06.2019
6422 Clear 16 1014 55 10000 2.1 190 23:48 13.06.2019
6423 Clear 16 1014 55 10000 2.1 190 23:24 13.06.2019
6424 Clear 17 1014 77 10000 2.1 160 22:40 13.06.2019
6425 Clear 18 1014 77 10000 2.1 160 22:22 13.06.2019
6426 Clear 18 1014 88 10000 2.1 140 21:58 13.06.2019
6427 Clear 19 1013 82 10000 1.5 100 21:36 13.06.2019
6428 Clear 20 1013 82 10000 1.5 90 21:18 13.06.2019
6429 Thunderstorm 20 1013 72 10000 3.1 140 20:44 13.06.2019
6430 Thunderstorm 22 1013 38 10000 3.6 230 20:20 13.06.2019
6431 Clear 21 1013 38 10000 3.1 220 19:43 13.06.2019
6432 Clear 23 1013 38 10000 3.1 220 19:25 13.06.2019
6433 Clear 23 1013 38 10000 4.1 210 18:59 13.06.2019
6434 Clear 23 1013 40 10000 3.1 180 18:40 13.06.2019
6435 Clear 24 1013 38 10000 4.1 190 18:22 13.06.2019
6436 Clear 24 1013 38 10000 4.1 200 17:45 13.06.2019
6437 Clear 24 1013 40 10000 3.1 210 17:22 13.06.2019
6438 Clear 24 1013 35 10000 5.1 210 16:59 13.06.2019
6439 Clear 24 1013 35 10000 5.1 210 16:40 13.06.2019
6440 Clear 24 1013 35 10000 5.1 210 16:20 13.06.2019
6441 Clear 24 1013 33 10000 6.2 200 15:41 13.06.2019
6442 Clear 24 1013 33 10000 6.2 200 15:22 13.06.2019
6443 Clear 23 1013 38 10000 4.6 200 14:52 13.06.2019
6444 Clear 23 1013 35 10000 5.1 220 14:31 13.06.2019
6445 Clouds 24 1013 49 10000 3.1 170 13:59 13.06.2019
6446 Clouds 23 1014 53 10000 4.1 160 13:39 13.06.2019
6447 Clouds 23 1014 60 10000 3.6 150 13:21 13.06.2019
6448 Clear 22 1014 60 10000 3.6 160 12:42 13.06.2019
6449 Clear 22 1014 60 10000 3.6 160 12:22 13.06.2019
6450 Clear 21 1014 63 10000 2.6 150 11:47 13.06.2019
6451 Clear 20 1014 63 10000 2.6 150 11:29 13.06.2019
6452 Clear 19 1014 64 10000 1.5 0 10:55 13.06.2019
6453 Clear 19 1014 64 10000 1.5 0 10:55 13.06.2019
6454 Clear 20 1014 68 10000 1.5 0 10:37 13.06.2019
6455 Clear 18 1014 72 10000 2.6 150 10:18 13.06.2019
6456 Clear 17 1013 82 10000 2.6 150 09:42 13.06.2019
6457 Clear 17 1013 82 10000 2.6 150 09:22 13.06.2019
6458 Clear 16 1013 82 10000 2.1 150 08:44 13.06.2019
6459 Clear 16 1013 82 10000 2.1 150 08:25 13.06.2019
6460 Clear 15 1013 82 10000 2.6 180 07:52 13.06.2019
6461 Clear 14 1013 93 10000 1.5 0 07:25 13.06.2019
6462 Clear 13 1012 76 10000 2.6 170 06:47 13.06.2019
6463 Clear 13 1012 76 10000 2.6 170 06:23 13.06.2019
6464 Clouds 12 1012 87 10000 2.1 190 05:55 13.06.2019
6465 Clear 12 1012 76 10000 3.1 170 05:37 13.06.2019
6466 Clouds 13 1012 93 10000 1.5 200 04:57 13.06.2019
6467 Fog 12 1012 87 10000 1.5 130 02:33 13.06.2019
6468 Fog 13 1011 100 10000 0.5 200 00:55 13.06.2019
6469 Clear 13 1012 93 10000 1 0 00:27 13.06.2019
6470 Clear 14 1011 93 10000 1 0 23:24 12.06.2019
6471 Clear 14 1011 87 10000 1.5 0 22:45 12.06.2019
6472 Clear 15 1011 87 10000 1.5 0 22:27 12.06.2019
6473 Clear 15 1010 82 10000 2.6 260 21:57 12.06.2019
6474 Clouds 16 1009 77 10000 4.1 250 21:39 12.06.2019
6475 Clouds 17 1009 77 10000 4.1 260 21:19 12.06.2019
6476 Clouds 17 1009 72 10000 5.1 260 20:40 12.06.2019
6477 Clouds 18 1009 82 10000 3.6 230 20:21 12.06.2019
6478 Clouds 17 1009 87 10000 3.6 240 19:56 12.06.2019
6479 Rain 17 1009 82 10000 4.1 240 19:37 12.06.2019
6480 Rain 17 1008 82 10000 2.1 220 19:18 12.06.2019
6481 Clear 18 1009 88 10000 2.6 140 18:40 12.06.2019
6482 Clear 18 1009 88 10000 2.6 140 18:22 12.06.2019
6483 Rain 19 1009 88 10000 5.1 260 17:45 12.06.2019
6484 Rain 19 1009 88 10000 5.1 260 17:21 12.06.2019
6485 Rain 19 1009 82 10000 4.6 240 16:43 12.06.2019
6486 Rain 19 1009 82 10000 4.6 240 16:25 12.06.2019
6487 -273 0 0 0 0 0 15:58 12.06.2019
6488 Rain 19 1007 77 10000 1.5 0 15:33 12.06.2019
6489 Rain 20 1007 77 10000 1 0 14:55 12.06.2019
6490 Rain 20 1007 77 10000 1 0 14:32 12.06.2019
6491 Rain 20 1007 77 10000 1.5 0 13:57 12.06.2019
6492 Rain 20 1007 77 10000 1.5 0 13:38 12.06.2019
6493 Rain 20 1007 77 10000 1.5 0 13:19 12.06.2019
6494 Clouds 20 1008 82 10000 1.5 0 13:19 12.06.2019
6495 Clouds 19 1008 82 10000 1.5 0 12:40 12.06.2019
6496 Clouds 19 1008 88 10000 1.5 0 12:21 12.06.2019
6497 Clouds 19 1008 88 10000 1.5 0 11:55 12.06.2019
6498 Rain 19 1008 88 10000 1.5 0 11:37 12.06.2019
6499 Mist 18 1008 88 10000 1.5 0 11:19 12.06.2019
6500 Mist 18 1008 93 10000 1.5 0 10:42 12.06.2019
6501 Mist 18 1008 93 10000 1.5 0 10:19 12.06.2019
6502 Mist 17 1008 100 10000 2.1 10 09:41 12.06.2019
6503 Mist 17 1008 100 10000 2.1 10 09:22 12.06.2019
6504 Fog 17 1009 93 700 1 0 08:38 12.06.2019
6505 Fog 16 1009 93 700 1 0 08:19 12.06.2019
6506 Fog 16 1009 100 10000 3.52 21.838 07:26 12.06.2019
6507 Fog 15 1009 100 2200 1.5 310 06:41 12.06.2019
6508 Fog 15 1008 93 700 2.6 340 05:27 12.06.2019
6509 Mist 16 1010 100 3000 1.5 260 03:41 12.06.2019
6510 Thunderstorm 16 1010 93 5000 3.1 340 01:26 12.06.2019
6511 Thunderstorm 17 1010 93 10000 3.6 280 00:38 12.06.2019
6512 Rain 18 1010 82 10000 5.1 220 23:45 11.06.2019
6513 Rain 18 1010 82 10000 5.1 220 23:27 11.06.2019
6514 Rain 19 1011 68 10000 2.6 310 22:43 11.06.2019
6515 Clear 19 1011 64 10000 2.6 320 22:19 11.06.2019
6516 Clear 19 1011 64 10000 2.6 320 21:57 11.06.2019
6517 Clear 20 1011 64 10000 2.1 320 21:38 11.06.2019
6518 Clear 21 1011 60 10000 2.1 330 21:19 11.06.2019
6519 Clear 21 1011 56 10000 2.6 310 20:48 11.06.2019
6520 Clear 22 1011 56 10000 2.6 310 20:25 11.06.2019
6521 Clear 22 1011 56 10000 2.6 310 20:25 11.06.2019
6522 Clear 22 1011 53 10000 2.1 310 19:55 11.06.2019
6523 -273 0 0 0 0 0 19:33 11.06.2019
6524 -273 0 0 0 0 0 18:56 11.06.2019
6525 Clouds 22 1011 53 10000 2.1 330 18:22 11.06.2019
6526 Clouds 22 1011 56 10000 2.6 240 17:42 11.06.2019
6527 Clouds 22 1011 60 10000 1.5 0 17:23 11.06.2019
6528 Clouds 22 1011 60 10000 2.6 310 16:58 11.06.2019
6529 Clouds 23 1011 60 10000 2.1 0 16:40 11.06.2019
6530 Clouds 22 1011 64 10000 2.6 0 16:22 11.06.2019
6531 Clouds 21 1011 68 10000 2.6 310 15:42 11.06.2019
6532 Clouds 21 1011 68 10000 2.6 310 15:42 11.06.2019
6533 Clouds 21 1011 68 10000 2.6 310 15:24 11.06.2019
6534 Clouds 21 1011 72 10000 3.1 310 14:52 11.06.2019
6535 Clouds 20 1011 77 10000 3.1 290 14:23 11.06.2019
6536 -273 0 0 0 0 0 14:23 11.06.2019
6537 Clouds 20 1011 77 10000 2.6 290 13:56 11.06.2019
6538 Clouds 20 1011 77 10000 3.1 290 13:36 11.06.2019
6539 Clouds 19 1011 77 10000 3.6 290 13:18 11.06.2019
6540 Clouds 19 1011 77 10000 3.6 290 12:40 11.06.2019
6541 Clouds 18 1011 77 10000 3.6 290 12:21 11.06.2019
6542 Clouds 18 1010 82 10000 3.6 280 11:40 11.06.2019
6543 Drizzle 18 1010 82 10000 3.6 280 11:20 11.06.2019
6544 Rain 17 1010 88 10000 3.1 280 10:47 11.06.2019
6545 Rain 17 1010 88 10000 3.1 280 10:26 11.06.2019
6546 Rain 17 1010 88 10000 4.6 270 09:50 11.06.2019
6547 Rain 16 1010 88 10000 4.6 260 09:25 11.06.2019
6548 Rain 17 1010 82 10000 4.1 240 08:49 11.06.2019
6549 Rain 17 1010 82 10000 4.1 240 08:30 11.06.2019
6550 Rain 17 1009 82 10000 3.6 270 07:55 11.06.2019
6551 Rain 17 1009 82 10000 3.1 260 07:31 11.06.2019
6552 Clouds 17 1009 93 10000 2.1 220 06:51 11.06.2019
6553 Fog 17 1008 88 10000 1.21 221.991 05:20 11.06.2019
6554 Clouds 17 1009 88 10000 1.21 221.991 03:55 11.06.2019
6555 Clear 18 1010 77 10000 1.5 230 01:53 11.06.2019
6556 Clear 18 1009 82 10000 0.5 0 00:49 11.06.2019
6557 Rain 19 1009 77 10000 2.47 55.519 00:23 11.06.2019
6558 Rain 19 1010 73 10000 2.6 120 23:44 10.06.2019
6559 Rain 20 1010 73 10000 2.1 210 23:20 10.06.2019
6560 Rain 20 1010 73 10000 2.1 190 22:43 10.06.2019
6561 Rain 20 1010 73 10000 2.1 190 22:25 10.06.2019
6562 Rain 20 1009 68 10000 4.1 100 21:56 10.06.2019
6563 Rain 21 1010 64 10000 1 0 21:38 10.06.2019
6564 Rain 22 1010 64 10000 1 0 21:19 10.06.2019
6565 Clear 23 1010 64 10000 1.94 29.997 20:41 10.06.2019
6566 Clear 23 1010 64 10000 1.94 29.997 20:21 10.06.2019
6567 Clear 24 1010 57 10000 1.5 0 19:44 10.06.2019
6568 Clear 24 1010 57 10000 1.5 0 19:22 10.06.2019
6569 Clear 24 1010 53 10000 2.1 110 18:57 10.06.2019
6570 Clear 25 1010 50 10000 3.6 130 18:39 10.06.2019
6571 Clouds 25 1011 50 10000 3.6 140 18:19 10.06.2019
6572 Clear 25 1011 47 10000 3.1 110 17:44 10.06.2019
6573 Clear 25 1011 47 10000 3.1 110 17:24 10.06.2019
6574 Clear 25 1011 47 10000 3.1 110 17:24 10.06.2019
6575 Clouds 26 1011 47 10000 2.1 130 16:49 10.06.2019
6576 Clear 26 1011 47 10000 1.5 0 16:30 10.06.2019
6577 Clear 26 1011 47 10000 1.5 0 15:59 10.06.2019
6578 Clouds 25 1012 50 10000 1.5 0 15:40 10.06.2019
6579 Clouds 26 1012 50 10000 1.5 0 15:22 10.06.2019
6580 Clouds 26 1012 47 10000 3.6 120 14:45 10.06.2019
6581 Clouds 25 1012 47 10000 3.6 120 14:25 10.06.2019
6582 Clouds 25 1013 53 10000 3.1 100 13:46 10.06.2019
6583 Clouds 25 1013 53 10000 3.1 100 13:28 10.06.2019
6584 Clear 24 1013 53 10000 2.1 0 12:54 10.06.2019
6585 Clouds 24 1013 50 10000 1.5 0 12:31 10.06.2019
6586 Clear 23 1013 56 10000 2.1 180 11:59 10.06.2019
6587 Clear 22 1013 53 10000 1.5 0 11:39 10.06.2019
6588 Clear 22 1013 56 10000 1.5 0 11:19 10.06.2019
6589 Clear 22 1013 60 10000 1.5 0 10:41 10.06.2019
6590 Clear 21 1014 63 10000 2.6 110 10:19 10.06.2019
6591 Clear 20 1014 63 10000 2.6 110 09:52 10.06.2019
6592 Clear 20 1014 59 10000 3.6 90 09:29 10.06.2019
6593 Clear 19 1014 63 10000 2.6 60 08:50 10.06.2019
6594 Clear 18 1014 63 10000 2.6 60 08:27 10.06.2019
6595 Clear 17 1014 67 10000 3.1 100 07:46 10.06.2019
6596 Clear 16 1015 63 10000 3.1 80 06:26 10.06.2019
6597 Clear 17 1016 59 10000 2.6 70 03:46 10.06.2019
6598 Clouds 17 1018 45 10000 3.1 20 01:56 10.06.2019
6599 Clear 18 1018 55 10000 3.6 50 01:23 10.06.2019
6600 Clear 18 1018 55 10000 2.6 40 00:48 10.06.2019
6601 Clouds 18 1019 45 10000 3.1 40 23:58 09.06.2019
6602 Clear 18 1019 55 10000 3.1 50 23:38 09.06.2019
6603 Clouds 19 1019 45 10000 3.1 40 23:18 09.06.2019
6604 Clear 19 1019 63 10000 1.5 30 22:41 09.06.2019
6605 Clear 19 1019 63 10000 1.5 30 22:21 09.06.2019
6606 Clear 20 1020 49 10000 1 0 21:40 09.06.2019
6607 Clear 20 1020 49 10000 1 0 21:22 09.06.2019
6608 Clear 21 1020 46 10000 1.5 0 20:42 09.06.2019
6609 Clear 21 1020 46 10000 1.5 0 20:22 09.06.2019
6610 Clear 21 1020 43 10000 2.6 80 19:46 09.06.2019
6611 Clear 21 1020 43 10000 2.6 80 19:46 09.06.2019
6612 Clear 22 1021 43 10000 2.1 80 19:19 09.06.2019
6613 Clear 22 1021 43 10000 2.1 80 18:57 09.06.2019
6614 Clear 22 1021 43 10000 2.1 70 18:39 09.06.2019
6615 Clear 22 1021 40 10000 3.1 120 18:21 09.06.2019
6616 Clear 22 1021 38 10000 3.1 110 17:46 09.06.2019
6617 Clear 22 1021 38 10000 3.1 110 17:26 09.06.2019
6618 Clear 23 1022 37 10000 2.1 70 16:54 09.06.2019
6619 Clear 23 1022 40 10000 2.1 0 16:36 09.06.2019
6620 Clear 23 1023 40 10000 1.5 0 16:18 09.06.2019
6621 Clear 22 1023 43 10000 1.5 0 15:42 09.06.2019
6622 Clear 22 1023 43 10000 1.5 0 15:20 09.06.2019
6623 Clear 22 1023 40 10000 2.1 0 14:43 09.06.2019
6624 Clear 22 1023 40 10000 2.1 0 14:21 09.06.2019
6625 Clouds 21 1024 42 10000 2.1 0 13:50 09.06.2019
6626 Clouds 21 1024 42 10000 2.1 0 13:22 09.06.2019
6627 Clouds 21 1024 49 10000 1.5 0 12:41 09.06.2019
6628 Clouds 20 1024 49 10000 1.5 0 12:22 09.06.2019
6629 Clouds 19 1025 55 10000 4.1 260 11:40 09.06.2019
6630 Clouds 19 1025 55 10000 4.1 260 11:21 09.06.2019
6631 Clear 19 1025 55 10000 3.1 260 10:46 09.06.2019
6632 Clear 18 1025 55 10000 3.1 260 10:23 09.06.2019
6633 Clear 16 1025 59 10000 3.6 240 09:41 09.06.2019
6634 Clear 16 1025 59 10000 3.6 240 09:23 09.06.2019
6635 Clouds 16 1025 62 8000 4.1 240 08:55 09.06.2019
6636 Clear 15 1024 71 10000 3.1 220 08:36 09.06.2019
6637 Clear 14 1024 71 10000 3.1 190 07:46 09.06.2019
6638 Clear 11 1024 76 10000 2.6 230 06:30 09.06.2019
6639 Clear 11 1023 76 10000 2.6 200 05:34 09.06.2019
6640 Clear 12 1022 66 9000 3.1 190 01:58 09.06.2019
6641 Clear 13 1022 71 10000 3.1 220 01:36 09.06.2019
6642 Clear 13 1022 62 9000 3.6 190 01:18 09.06.2019
6643 Clear 13 1022 71 10000 3.1 210 00:22 09.06.2019
6644 Clear 14 1022 62 10000 2.1 190 23:40 08.06.2019
6645 Clear 14 1022 62 10000 2.1 190 23:22 08.06.2019
6646 Clear 14 1021 62 10000 3.6 230 22:44 08.06.2019
6647 Clear 14 1021 62 10000 3.6 230 22:25 08.06.2019
6648 Clear 16 1021 48 10000 6.7 220 21:56 08.06.2019
6649 Clear 17 1020 39 10000 5.7 220 21:38 08.06.2019
6650 Clear 17 1020 39 10000 5.7 220 21:38 08.06.2019
6651 Clear 18 1020 39 10000 5.7 220 21:19 08.06.2019
6652 Clear 18 1020 39 10000 6.2 220 20:42 08.06.2019
6653 Clear 19 1020 39 10000 6.2 220 20:24 08.06.2019
6654 Clear 19 1020 37 10000 6.7 240 19:44 08.06.2019
6655 Clear 19 1020 37 10000 6.7 240 19:23 08.06.2019
6656 Clear 19 1020 42 10000 5.1 230 18:59 08.06.2019
6657 Clear 19 1020 37 10000 7.7 230 18:40 08.06.2019
6658 Clear 19 1020 37 10000 7.7 230 18:20 08.06.2019
6659 Clear 19 1020 34 10000 7.2 240 17:43 08.06.2019
6660 Clear 19 1020 37 10000 8.7 240 17:19 08.06.2019
6661 Clear 19 1019 40 10000 7.2 230 16:47 08.06.2019
6662 Clear 19 1019 40 10000 7.2 230 16:28 08.06.2019
6663 Clear 19 1019 37 10000 6.7 230 15:51 08.06.2019
6664 Clear 19 1019 39 10000 6.7 220 15:33 08.06.2019
6665 Clear 19 1019 39 10000 6.7 220 15:33 08.06.2019
6666 Clear 19 1019 39 10000 6.7 220 15:33 08.06.2019
6667 Clear 18 1019 42 10000 7.2 230 14:47 08.06.2019
6668 Clear 19 1019 42 10000 7.2 230 14:29 08.06.2019
6669 Clear 19 1018 37 10000 7.2 220 13:45 08.06.2019
6670 Clear 18 1018 39 10000 8.7 220 12:53 08.06.2019
6671 Clear 18 1018 39 10000 8.2 230 12:33 08.06.2019
6672 Clouds 18 1017 42 10000 8.2 230 11:51 08.06.2019
6673 Clouds 17 1017 48 10000 7.2 240 11:27 08.06.2019
6674 Clouds 17 1017 55 10000 8.2 210 10:48 08.06.2019
6675 Clouds 17 1017 55 10000 8.2 210 10:26 08.06.2019
6676 Clouds 16 1016 62 10000 5.7 220 09:58 08.06.2019
6677 Clear 16 1016 63 10000 5.1 210 09:33 08.06.2019
6678 Clear 15 1014 71 10000 5.7 200 08:48 08.06.2019
6679 Clouds 14 1014 76 10000 4.1 170 08:20 08.06.2019
6680 Clear 13 1014 71 10000 4.1 180 07:26 08.06.2019
6681 Clear 13 1013 76 10000 3.1 160 06:44 08.06.2019
6682 Clouds 13 1012 87 10000 3.6 180 03:36 08.06.2019
6683 Clear 14 1013 87 10000 1.5 0 02:20 08.06.2019
6684 Rain 14 1013 87 10000 3.1 240 00:31 08.06.2019
6685 Rain 15 1011 93 1600 5.7 310 23:59 07.06.2019
6686 Thunderstorm 16 1009 64 10000 3.1 110 23:21 07.06.2019